Wetterdaten: Sonntag, 07.01.2018
Datum Zeit Temp. A. Pool Temp. Feuchte A. Luftdruck Regen Wind Richtung Richtung Sonnenschein ET UV Solar Taupunkt Windchill Windben Empfang
07.01.2018 00:00 4,1 C 4,4 C 98 % 1012,3 hPa 0,0 l/m 11,3 km/h (2 Bft) O-NO 67 0 min 0,000 mm 0,0 UV-I 0 W/m 3,8 C 0,2 C 17,7 km/h (3 Bft) 95,65 %
07.01.2018 00:01 4,1 C 4,4 C 98 % 1012,4 hPa 0,0 l/m 11,3 km/h (2 Bft) O-NO 67 0 min 0,000 mm 0,0 UV-I 0 W/m 3,8 C 0,2 C 12,9 km/h (3 Bft) 95,65 %
07.01.2018 00:02 4,1 C 4,4 C 98 % 1012,3 hPa 0,0 l/m 9,7 km/h (2 Bft) O-NO 67 0 min 0,000 mm 0,0 UV-I 0 W/m 3,8 C 1,3 C 12,9 km/h (3 Bft) 95,65 %
07.01.2018 00:03 4,1 C 4,4 C 98 % 1012,3 hPa 0,0 l/m 9,7 km/h (2 Bft) O-NO 67 0 min 0,000 mm 0,0 UV-I 0 W/m 3,8 C 1,3 C 14,5 km/h (3 Bft) 100,00 %
07.01.2018 00:04 4,1 C 4,4 C 98 % 1012,3 hPa 0,0 l/m 9,7 km/h (2 Bft) NO 45 0 min 0,000 mm 0,0 UV-I 0 W/m 3,8 C 1,3 C 14,5 km/h (3 Bft) 91,30 %
07.01.2018 00:05 4,1 C 4,4 C 98 % 1012,3 hPa 0,0 l/m 9,7 km/h (2 Bft) NO 45 0 min 0,000 mm 0,0 UV-I 0 W/m 3,8 C 1,3 C 14,5 km/h (3 Bft) 86,96 %
07.01.2018 00:06 4,1 C 4,4 C 98 % 1012,3 hPa 0,0 l/m 11,3 km/h (2 Bft) NO 45 0 min 0,000 mm 0,0 UV-I 0 W/m 3,8 C 0,2 C 14,5 km/h (3 Bft) 95,65 %
07.01.2018 00:07 4,1 C 4,4 C 98 % 1012,3 hPa 0,0 l/m 8,0 km/h (2 Bft) O-NO 67 0 min 0,000 mm 0,0 UV-I 0 W/m 3,8 C 2,7 C 9,7 km/h (2 Bft) 95,65 %
07.01.2018 00:08 4,1 C 4,4 C 98 % 1012,4 hPa 0,0 l/m 9,7 km/h (2 Bft) NO 45 0 min 0,000 mm 0,0 UV-I 0 W/m 3,8 C 1,3 C 12,9 km/h (3 Bft) 86,96 %
07.01.2018 00:09 4,1 C 4,4 C 98 % 1012,4 hPa 0,0 l/m 9,7 km/h (2 Bft) O-NO 67 0 min 0,000 mm 0,0 UV-I 0 W/m 3,8 C 1,3 C 17,7 km/h (3 Bft) 100,00 %
07.01.2018 00:10 4,1 C 4,4 C 98 % 1012,4 hPa 0,0 l/m 11,3 km/h (2 Bft) O-NO 67 0 min 0,000 mm 0,0 UV-I 0 W/m 3,8 C 0,2 C 16,1 km/h (3 Bft) 95,65 %
07.01.2018 00:11 4,1 C 4,4 C 98 % 1012,4 hPa 0,0 l/m 9,7 km/h (2 Bft) NO 45 0 min 0,000 mm 0,0 UV-I 0 W/m 3,8 C 1,3 C 11,3 km/h (2 Bft) 100,00 %
07.01.2018 00:12 4,1 C 4,4 C 98 % 1012,4 hPa 0,0 l/m 9,7 km/h (2 Bft) O-NO 67 0 min 0,000 mm 0,0 UV-I 0 W/m 3,8 C 1,3 C 14,5 km/h (3 Bft) 91,30 %
07.01.2018 00:13 4,0 C 4,4 C 98 % 1012,4 hPa 0,0 l/m 11,3 km/h (2 Bft) NO 45 0 min 0,000 mm 0,0 UV-I 0 W/m 3,7 C 0,1 C 16,1 km/h (3 Bft) 100,00 %
07.01.2018 00:14 4,0 C 4,4 C 98 % 1012,5 hPa 0,0 l/m 8,0 km/h (2 Bft) O-NO 67 0 min 0,000 mm 0,0 UV-I 0 W/m 3,7 C 2,6 C 14,5 km/h (3 Bft) 95,65 %
07.01.2018 00:15 4,0 C 4,4 C 98 % 1012,4 hPa 0,0 l/m 8,0 km/h (2 Bft) O-NO 67 0 min 0,000 mm 0,0 UV-I 0 W/m 3,7 C 2,6 C 9,7 km/h (2 Bft) 100,00 %
07.01.2018 00:16 4,0 C 4,4 C 98 % 1012,5 hPa 0,0 l/m 9,7 km/h (2 Bft) NO 45 0 min 0,000 mm 0,0 UV-I 0 W/m 3,7 C 1,2 C 11,3 km/h (2 Bft) 95,65 %
07.01.2018 00:17 4,0 C 4,4 C 98 % 1012,5 hPa 0,0 l/m 8,0 km/h (2 Bft) O-NO 67 0 min 0,000 mm 0,0 UV-I 0 W/m 3,7 C 2,6 C 9,7 km/h (2 Bft) 95,65 %
07.01.2018 00:18 4,0 C 4,4 C 98 % 1012,5 hPa 0,0 l/m 6,4 km/h (2 Bft) O-NO 67 0 min 0,000 mm 0,0 UV-I 0 W/m 3,7 C 4,0 C 8,0 km/h (2 Bft) 95,65 %
07.01.2018 00:19 4,0 C 4,4 C 98 % 1012,6 hPa 0,0 l/m 6,4 km/h (2 Bft) O-NO 67 0 min 0,000 mm 0,0 UV-I 0 W/m 3,7 C 4,0 C 8,0 km/h (2 Bft) 91,30 %
07.01.2018 00:20 4,0 C 4,4 C 98 % 1012,6 hPa 0,0 l/m 6,4 km/h (2 Bft) NO 45 0 min 0,000 mm 0,0 UV-I 0 W/m 3,7 C 4,0 C 8,0 km/h (2 Bft) 95,65 %
07.01.2018 00:21 4,0 C 4,4 C 98 % 1012,6 hPa 0,0 l/m 8,0 km/h (2 Bft) O-NO 67 0 min 0,000 mm 0,0 UV-I 0 W/m 3,7 C 2,6 C 12,9 km/h (3 Bft) 95,65 %
07.01.2018 00:22 4,0 C 4,4 C 98 % 1012,5 hPa 0,0 l/m 9,7 km/h (2 Bft) O-NO 67 0 min 0,000 mm 0,0 UV-I 0 W/m 3,7 C 1,2 C 12,9 km/h (3 Bft) 100,00 %
07.01.2018 00:23 4,0 C 4,4 C 98 % 1012,5 hPa 0,0 l/m 11,3 km/h (2 Bft) O-NO 67 0 min 0,000 mm 0,0 UV-I 0 W/m 3,7 C 0,1 C 12,9 km/h (3 Bft) 95,65 %
07.01.2018 00:24 4,0 C 4,4 C 98 % 1012,5 hPa 0,0 l/m 8,0 km/h (2 Bft) O 90 0 min 0,000 mm 0,0 UV-I 0 W/m 3,7 C 2,6 C 11,3 km/h (2 Bft) 95,65 %
07.01.2018 00:25 4,0 C 4,4 C 98 % 1012,5 hPa 0,0 l/m 9,7 km/h (2 Bft) O 90 0 min 0,000 mm 0,0 UV-I 0 W/m 3,7 C 1,2 C 14,5 km/h (3 Bft) 100,00 %
07.01.2018 00:26 4,0 C 4,4 C 98 % 1012,5 hPa 0,0 l/m 8,0 km/h (2 Bft) O-NO 67 0 min 0,000 mm 0,0 UV-I 0 W/m 3,7 C 2,6 C 9,7 km/h (2 Bft) 86,96 %
07.01.2018 00:27 4,0 C 4,4 C 98 % 1012,5 hPa 0,0 l/m 6,4 km/h (2 Bft) O-NO 67 0 min 0,000 mm 0,0 UV-I 0 W/m 3,7 C 4,0 C 8,0 km/h (2 Bft) 100,00 %
07.01.2018 00:28 4,0 C 4,4 C 98 % 1012,5 hPa 0,0 l/m 6,4 km/h (2 Bft) O-NO 67 0 min 0,000 mm 0,0 UV-I 0 W/m 3,7 C 4,0 C 8,0 km/h (2 Bft) 95,65 %
07.01.2018 00:29 4,0 C 4,4 C 98 % 1012,6 hPa 0,0 l/m 9,7 km/h (2 Bft) O-NO 67 0 min 0,000 mm 0,0 UV-I 0 W/m 3,7 C 1,2 C 12,9 km/h (3 Bft) 100,00 %
07.01.2018 00:30 4,0 C 4,4 C 98 % 1012,6 hPa 0,0 l/m 9,7 km/h (2 Bft) O-NO 67 0 min 0,000 mm 0,0 UV-I 0 W/m 3,7 C 1,2 C 14,5 km/h (3 Bft) 95,65 %
07.01.2018 00:31 4,0 C 4,4 C 98 % 1012,6 hPa 0,0 l/m 8,0 km/h (2 Bft) O 90 0 min 0,000 mm 0,0 UV-I 0 W/m 3,7 C 2,6 C 11,3 km/h (2 Bft) 95,65 %
07.01.2018 00:32 4,0 C 4,4 C 98 % 1012,6 hPa 0,0 l/m 9,7 km/h (2 Bft) O-NO 67 0 min 0,000 mm 0,0 UV-I 0 W/m 3,7 C 1,2 C 11,3 km/h (2 Bft) 91,30 %
07.01.2018 00:33 3,9 C 4,4 C 98 % 1012,7 hPa 0,0 l/m 6,4 km/h (2 Bft) O-NO 67 0 min 0,000 mm 0,0 UV-I 0 W/m 3,6 C 3,9 C 9,7 km/h (2 Bft) 86,96 %
07.01.2018 00:34 3,9 C 4,4 C 98 % 1012,6 hPa 0,0 l/m 6,4 km/h (2 Bft) O-NO 67 0 min 0,000 mm 0,0 UV-I 0 W/m 3,6 C 3,9 C 6,4 km/h (2 Bft) 100,00 %
07.01.2018 00:35 3,9 C 4,4 C 98 % 1012,6 hPa 0,0 l/m 8,0 km/h (2 Bft) O-NO 67 0 min 0,000 mm 0,0 UV-I 0 W/m 3,6 C 2,4 C 12,9 km/h (3 Bft) 91,30 %
07.01.2018 00:36 4,0 C 4,4 C 98 % 1012,7 hPa 0,0 l/m 6,4 km/h (2 Bft) O-NO 67 0 min 0,000 mm 0,0 UV-I 0 W/m 3,7 C 4,0 C 9,7 km/h (2 Bft) 100,00 %
07.01.2018 00:37 4,0 C 4,4 C 98 % 1012,6 hPa 0,0 l/m 8,0 km/h (2 Bft) NO 45 0 min 0,000 mm 0,0 UV-I 0 W/m 3,7 C 2,6 C 14,5 km/h (3 Bft) 95,65 %
07.01.2018 00:38 4,0 C 4,4 C 98 % 1012,7 hPa 0,0 l/m 8,0 km/h (2 Bft) NO 45 0 min 0,000 mm 0,0 UV-I 0 W/m 3,7 C 2,6 C 12,9 km/h (3 Bft) 100,00 %
07.01.2018 00:39 4,0 C 4,4 C 98 % 1012,6 hPa 0,0 l/m 6,4 km/h (2 Bft) NO 45 0 min 0,000 mm 0,0 UV-I 0 W/m 3,7 C 4,0 C 9,7 km/h (2 Bft) 95,65 %
07.01.2018 00:40 3,9 C 4,4 C 98 % 1012,6 hPa 0,0 l/m 6,4 km/h (2 Bft) NO 45 0 min 0,000 mm 0,0 UV-I 0 W/m 3,6 C 3,9 C 8,0 km/h (2 Bft) 91,30 %
07.01.2018 00:41 4,0 C 4,4 C 98 % 1012,6 hPa 0,0 l/m 4,8 km/h (1 Bft) N-NO 22 0 min 0,000 mm 0,0 UV-I 0 W/m 3,7 C 4,0 C 6,4 km/h (2 Bft) 100,00 %
07.01.2018 00:42 4,0 C 4,4 C 98 % 1012,6 hPa 0,0 l/m 4,8 km/h (1 Bft) O-NO 67 0 min 0,000 mm 0,0 UV-I 0 W/m 3,7 C 4,0 C 6,4 km/h (2 Bft) 100,00 %
07.01.2018 00:43 4,0 C 4,4 C 98 % 1012,6 hPa 0,0 l/m 3,2 km/h (1 Bft) O-NO 67 0 min 0,000 mm 0,0 UV-I 0 W/m 3,7 C 4,0 C 6,4 km/h (2 Bft) 100,00 %
07.01.2018 00:44 4,0 C 4,4 C 98 % 1012,6 hPa 0,0 l/m 4,8 km/h (1 Bft) O-NO 67 0 min 0,000 mm 0,0 UV-I 0 W/m 3,7 C 4,0 C 6,4 km/h (2 Bft) 100,00 %
07.01.2018 00:45 4,0 C 4,4 C 98 % 1012,6 hPa 0,0 l/m 6,4 km/h (2 Bft) O-NO 67 0 min 0,000 mm 0,0 UV-I 0 W/m 3,7 C 4,0 C 9,7 km/h (2 Bft) 95,65 %
07.01.2018 00:46 4,0 C 4,4 C 98 % 1012,6 hPa 0,0 l/m 4,8 km/h (1 Bft) O-NO 67 0 min 0,000 mm 0,0 UV-I 0 W/m 3,7 C 4,0 C 8,0 km/h (2 Bft) 100,00 %
07.01.2018 00:47 4,0 C 4,4 C 98 % 1012,6 hPa 0,0 l/m 8,0 km/h (2 Bft) O-NO 67 0 min 0,000 mm 0,0 UV-I 0 W/m 3,7 C 2,6 C 9,7 km/h (2 Bft) 91,30 %
07.01.2018 00:48 4,0 C 4,4 C 98 % 1012,6 hPa 0,0 l/m 8,0 km/h (2 Bft) O-NO 67 0 min 0,000 mm 0,0 UV-I 0 W/m 3,7 C 2,6 C 11,3 km/h (2 Bft) 100,00 %
07.01.2018 00:49 4,0 C 4,4 C 98 % 1012,7 hPa 0,0 l/m 6,4 km/h (2 Bft) O-NO 67 0 min 0,000 mm 0,0 UV-I 0 W/m 3,7 C 4,0 C 9,7 km/h (2 Bft) 100,00 %
07.01.2018 00:50 4,0 C 4,4 C 98 % 1012,7 hPa 0,0 l/m 8,0 km/h (2 Bft) O-NO 67 0 min 0,000 mm 0,0 UV-I 0 W/m 3,7 C 2,6 C 11,3 km/h (2 Bft) 100,00 %
07.01.2018 00:51 4,0 C 4,4 C 98 % 1012,7 hPa 0,0 l/m 6,4 km/h (2 Bft) O-NO 67 0 min 0,000 mm 0,0 UV-I 0 W/m 3,7 C 4,0 C 8,0 km/h (2 Bft) 100,00 %
07.01.2018 00:52 4,0 C 4,4 C 98 % 1012,6 hPa 0,0 l/m 4,8 km/h (1 Bft) O-NO 67 0 min 0,000 mm 0,0 UV-I 0 W/m 3,7 C 4,0 C 6,4 km/h (2 Bft) 100,00 %
07.01.2018 00:53 4,0 C 4,4 C 98 % 1012,7 hPa 0,0 l/m 8,0 km/h (2 Bft) NO 45 0 min 0,000 mm 0,0 UV-I 0 W/m 3,7 C 2,6 C 9,7 km/h (2 Bft) 100,00 %
07.01.2018 00:54 4,0 C 4,4 C 98 % 1012,7 hPa 0,0 l/m 8,0 km/h (2 Bft) O-NO 67 0 min 0,000 mm 0,0 UV-I 0 W/m 3,7 C 2,6 C 12,9 km/h (3 Bft) 95,65 %
07.01.2018 00:55 4,0 C 4,4 C 98 % 1012,7 hPa 0,0 l/m 6,4 km/h (2 Bft) NO 45 0 min 0,000 mm 0,0 UV-I 0 W/m 3,7 C 4,0 C 8,0 km/h (2 Bft) 100,00 %
07.01.2018 00:56 4,0 C 4,4 C 98 % 1012,7 hPa 0,0 l/m 4,8 km/h (1 Bft) O-NO 67 0 min 0,000 mm 0,0 UV-I 0 W/m 3,7 C 4,0 C 8,0 km/h (2 Bft) 100,00 %
07.01.2018 00:57 4,0 C 4,4 C 98 % 1012,7 hPa 0,0 l/m 4,8 km/h (1 Bft) O-NO 67 0 min 0,000 mm 0,0 UV-I 0 W/m 3,7 C 4,0 C 8,0 km/h (2 Bft) 100,00 %
07.01.2018 00:58 4,0 C 4,4 C 98 % 1012,8 hPa 0,0 l/m 6,4 km/h (2 Bft) NO 45 0 min 0,000 mm 0,0 UV-I 0 W/m 3,7 C 4,0 C 8,0 km/h (2 Bft) 100,00 %
07.01.2018 00:59 4,0 C 4,4 C 98 % 1012,7 hPa 0,0 l/m 6,4 km/h (2 Bft) O-NO 67 0 min 0,000 mm 0,0 UV-I 0 W/m 3,7 C 4,0 C 9,7 km/h (2 Bft) 95,65 %
07.01.2018 01:00 4,0 C 4,4 C 98 % 1012,8 hPa 0,0 l/m 6,4 km/h (2 Bft) O-NO 67 0 min 0,000 mm 0,0 UV-I 0 W/m 3,7 C 4,0 C 8,0 km/h (2 Bft) 100,00 %
07.01.2018 01:01 4,0 C 4,4 C 98 % 1012,8 hPa 0,0 l/m 6,4 km/h (2 Bft) NO 45 0 min 0,000 mm 0,0 UV-I 0 W/m 3,7 C 4,0 C 9,7 km/h (2 Bft) 95,65 %
07.01.2018 01:02 4,0 C 4,4 C 98 % 1012,8 hPa 0,0 l/m 8,0 km/h (2 Bft) NO 45 0 min 0,000 mm 0,0 UV-I 0 W/m 3,7 C 2,6 C 11,3 km/h (2 Bft) 100,00 %
07.01.2018 01:03 4,0 C 4,4 C 98 % 1012,9 hPa 0,0 l/m 8,0 km/h (2 Bft) O-NO 67 0 min 0,000 mm 0,0 UV-I 0 W/m 3,7 C 2,6 C 11,3 km/h (2 Bft) 100,00 %
07.01.2018 01:04 4,0 C 4,4 C 98 % 1012,9 hPa 0,0 l/m 6,4 km/h (2 Bft) O-NO 67 0 min 0,000 mm 0,0 UV-I 0 W/m 3,7 C 4,0 C 12,9 km/h (3 Bft) 100,00 %
07.01.2018 01:05 4,0 C 4,4 C 98 % 1012,9 hPa 0,0 l/m 6,4 km/h (2 Bft) O-NO 67 0 min 0,000 mm 0,0 UV-I 0 W/m 3,7 C 4,0 C 9,7 km/h (2 Bft) 100,00 %
07.01.2018 01:06 3,9 C 4,4 C 98 % 1012,9 hPa 0,0 l/m 6,4 km/h (2 Bft) O-NO 67 0 min 0,000 mm 0,0 UV-I 0 W/m 3,6 C 3,9 C 8,0 km/h (2 Bft) 100,00 %
07.01.2018 01:07 3,9 C 4,4 C 98 % 1012,9 hPa 0,0 l/m 8,0 km/h (2 Bft) O-NO 67 0 min 0,000 mm 0,0 UV-I 0 W/m 3,6 C 2,4 C 11,3 km/h (2 Bft) 100,00 %
07.01.2018 01:08 3,9 C 4,4 C 98 % 1012,9 hPa 0,0 l/m 8,0 km/h (2 Bft) O 90 0 min 0,000 mm 0,0 UV-I 0 W/m 3,6 C 2,4 C 12,9 km/h (3 Bft) 95,65 %
07.01.2018 01:09 3,9 C 4,4 C 98 % 1012,9 hPa 0,0 l/m 8,0 km/h (2 Bft) O 90 0 min 0,000 mm 0,0 UV-I 0 W/m 3,6 C 2,4 C 9,7 km/h (2 Bft) 100,00 %
07.01.2018 01:10 3,9 C 4,4 C 98 % 1012,9 hPa 0,0 l/m 6,4 km/h (2 Bft) O 90 0 min 0,000 mm 0,0 UV-I 0 W/m 3,6 C 3,9 C 11,3 km/h (2 Bft) 95,65 %
07.01.2018 01:11 3,9 C 4,4 C 98 % 1012,9 hPa 0,0 l/m 4,8 km/h (1 Bft) O 90 0 min 0,000 mm 0,0 UV-I 0 W/m 3,6 C 3,9 C 9,7 km/h (2 Bft) 100,00 %
07.01.2018 01:12 3,9 C 4,4 C 98 % 1012,9 hPa 0,0 l/m 4,8 km/h (1 Bft) O 90 0 min 0,000 mm 0,0 UV-I 0 W/m 3,6 C 3,9 C 6,4 km/h (2 Bft) 95,65 %
07.01.2018 01:13 3,9 C 4,4 C 98 % 1012,9 hPa 0,0 l/m 3,2 km/h (1 Bft) O 90 0 min 0,000 mm 0,0 UV-I 0 W/m 3,6 C 3,9 C 4,8 km/h (1 Bft) 95,65 %
07.01.2018 01:14 3,9 C 4,4 C 98 % 1012,9 hPa 0,0 l/m 3,2 km/h (1 Bft) O 90 0 min 0,000 mm 0,0 UV-I 0 W/m 3,6 C 3,9 C 4,8 km/h (1 Bft) 95,65 %
07.01.2018 01:15 4,0 C 4,4 C 98 % 1012,9 hPa 0,0 l/m 3,2 km/h (1 Bft) O 90 0 min 0,000 mm 0,0 UV-I 0 W/m 3,7 C 4,0 C 4,8 km/h (1 Bft) 91,30 %
07.01.2018 01:16 4,0 C 4,4 C 98 % 1013,0 hPa 0,0 l/m 4,8 km/h (1 Bft) O-NO 67 0 min 0,000 mm 0,0 UV-I 0 W/m 3,7 C 4,0 C 8,0 km/h (2 Bft) 100,00 %
07.01.2018 01:17 4,0 C 4,4 C 98 % 1013,0 hPa 0,0 l/m 4,8 km/h (1 Bft) O-NO 67 0 min 0,000 mm 0,0 UV-I 0 W/m 3,7 C 4,0 C 6,4 km/h (2 Bft) 95,65 %
07.01.2018 01:18 3,9 C 4,4 C 98 % 1013,0 hPa 0,0 l/m 4,8 km/h (1 Bft) O-NO 67 0 min 0,000 mm 0,0 UV-I 0 W/m 3,6 C 3,9 C 6,4 km/h (2 Bft) 100,00 %
07.01.2018 01:19 4,0 C 4,4 C 98 % 1013,0 hPa 0,0 l/m 4,8 km/h (1 Bft) O-NO 67 0 min 0,000 mm 0,0 UV-I 0 W/m 3,7 C 4,0 C 4,8 km/h (1 Bft) 95,65 %
07.01.2018 01:20 4,0 C 4,4 C 98 % 1013,0 hPa 0,0 l/m 4,8 km/h (1 Bft) O-NO 67 0 min 0,000 mm 0,0 UV-I 0 W/m 3,7 C 4,0 C 4,8 km/h (1 Bft) 100,00 %
07.01.2018 01:21 4,0 C 4,4 C 98 % 1013,0 hPa 0,0 l/m 3,2 km/h (1 Bft) O-NO 67 0 min 0,000 mm 0,0 UV-I 0 W/m 3,7 C 4,0 C 4,8 km/h (1 Bft) 95,65 %
07.01.2018 01:22 4,0 C 4,4 C 98 % 1013,0 hPa 0,0 l/m 4,8 km/h (1 Bft) O-NO 67 0 min 0,000 mm 0,0 UV-I 0 W/m 3,7 C 4,0 C 6,4 km/h (2 Bft) 95,65 %
07.01.2018 01:23 4,0 C 4,4 C 98 % 1013,0 hPa 0,0 l/m 4,8 km/h (1 Bft) O-NO 67 0 min 0,000 mm 0,0 UV-I 0 W/m 3,7 C 4,0 C 6,4 km/h (2 Bft) 95,65 %
07.01.2018 01:24 4,0 C 4,4 C 98 % 1013,0 hPa 0,0 l/m 4,8 km/h (1 Bft) O-NO 67 0 min 0,000 mm 0,0 UV-I 0 W/m 3,7 C 4,0 C 6,4 km/h (2 Bft) 100,00 %
07.01.2018 01:25 4,0 C 4,4 C 98 % 1013,0 hPa 0,0 l/m 4,8 km/h (1 Bft) NO 45 0 min 0,000 mm 0,0 UV-I 0 W/m 3,7 C 4,0 C 6,4 km/h (2 Bft) 95,65 %
07.01.2018 01:26 4,0 C 4,4 C 98 % 1013,1 hPa 0,0 l/m 3,2 km/h (1 Bft) NO 45 0 min 0,000 mm 0,0 UV-I 0 W/m 3,7 C 4,0 C 3,2 km/h (1 Bft) 100,00 %
07.01.2018 01:27 4,0 C 4,4 C 98 % 1013,1 hPa 0,0 l/m 4,8 km/h (1 Bft) O-NO 67 0 min 0,000 mm 0,0 UV-I 0 W/m 3,7 C 4,0 C 6,4 km/h (2 Bft) 95,65 %
07.01.2018 01:28 4,0 C 4,4 C 98 % 1013,1 hPa 0,0 l/m 4,8 km/h (1 Bft) NO 45 0 min 0,000 mm 0,0 UV-I 0 W/m 3,7 C 4,0 C 8,0 km/h (2 Bft) 95,65 %
07.01.2018 01:29 4,0 C 4,4 C 98 % 1013,1 hPa 0,0 l/m 4,8 km/h (1 Bft) NO 45 0 min 0,000 mm 0,0 UV-I 0 W/m 3,7 C 4,0 C 6,4 km/h (2 Bft) 95,65 %
07.01.2018 01:30 4,0 C 4,4 C 98 % 1013,2 hPa 0,0 l/m 4,8 km/h (1 Bft) NO 45 0 min 0,000 mm 0,0 UV-I 0 W/m 3,7 C 4,0 C 6,4 km/h (2 Bft) 95,65 %
07.01.2018 01:31 4,0 C 4,4 C 98 % 1013,2 hPa 0,0 l/m 4,8 km/h (1 Bft) O-NO 67 0 min 0,000 mm 0,0 UV-I 0 W/m 3,7 C 4,0 C 8,0 km/h (2 Bft) 100,00 %
07.01.2018 01:32 3,9 C 4,4 C 98 % 1013,2 hPa 0,0 l/m 3,2 km/h (1 Bft) O-NO 67 0 min 0,000 mm 0,0 UV-I 0 W/m 3,6 C 3,9 C 4,8 km/h (1 Bft) 100,00 %
07.01.2018 01:33 3,9 C 4,4 C 98 % 1013,2 hPa 0,0 l/m 6,4 km/h (2 Bft) O-NO 67 0 min 0,000 mm 0,0 UV-I 0 W/m 3,6 C 3,9 C 6,4 km/h (2 Bft) 95,65 %
07.01.2018 01:34 3,9 C 4,4 C 98 % 1013,2 hPa 0,0 l/m 6,4 km/h (2 Bft) NO 45 0 min 0,000 mm 0,0 UV-I 0 W/m 3,6 C 3,9 C 8,0 km/h (2 Bft) 100,00 %
07.01.2018 01:35 3,9 C 4,4 C 98 % 1013,2 hPa 0,0 l/m 6,4 km/h (2 Bft) NO 45 0 min 0,000 mm 0,0 UV-I 0 W/m 3,6 C 3,9 C 9,7 km/h (2 Bft) 95,65 %
07.01.2018 01:36 3,9 C 4,4 C 98 % 1013,3 hPa 0,0 l/m 4,8 km/h (1 Bft) NO 45 0 min 0,000 mm 0,0 UV-I 0 W/m 3,6 C 3,9 C 6,4 km/h (2 Bft) 95,65 %
07.01.2018 01:37 3,9 C 4,4 C 98 % 1013,3 hPa 0,0 l/m 4,8 km/h (1 Bft) NO 45 0 min 0,000 mm 0,0 UV-I 0 W/m 3,6 C 3,9 C 6,4 km/h (2 Bft) 95,65 %
07.01.2018 01:38 3,9 C 4,4 C 98 % 1013,3 hPa 0,0 l/m 4,8 km/h (1 Bft) O-NO 67 0 min 0,000 mm 0,0 UV-I 0 W/m 3,6 C 3,9 C 6,4 km/h (2 Bft) 100,00 %
07.01.2018 01:39 3,9 C 4,4 C 98 % 1013,3 hPa 0,0 l/m 4,8 km/h (1 Bft) NO 45 0 min 0,000 mm 0,0 UV-I 0 W/m 3,6 C 3,9 C 4,8 km/h (1 Bft) 91,30 %
07.01.2018 01:40 3,9 C 4,4 C 98 % 1013,3 hPa 0,0 l/m 4,8 km/h (1 Bft) NO 45 0 min 0,000 mm 0,0 UV-I 0 W/m 3,6 C 3,9 C 8,0 km/h (2 Bft) 100,00 %
07.01.2018 01:41 3,9 C 4,4 C 98 % 1013,3 hPa 0,0 l/m 4,8 km/h (1 Bft) O-NO 67 0 min 0,000 mm 0,0 UV-I 0 W/m 3,6 C 3,9 C 8,0 km/h (2 Bft) 95,65 %
07.01.2018 01:42 3,9 C 4,4 C 98 % 1013,3 hPa 0,0 l/m 6,4 km/h (2 Bft) O-NO 67 0 min 0,000 mm 0,0 UV-I 0 W/m 3,6 C 3,9 C 8,0 km/h (2 Bft) 100,00 %
07.01.2018 01:43 3,9 C 4,4 C 98 % 1013,3 hPa 0,0 l/m 3,2 km/h (1 Bft) O-NO 67 0 min 0,000 mm 0,0 UV-I 0 W/m 3,6 C 3,9 C 4,8 km/h (1 Bft) 95,65 %
07.01.2018 01:44 3,9 C 4,4 C 98 % 1013,3 hPa 0,0 l/m 6,4 km/h (2 Bft) O-NO 67 0 min 0,000 mm 0,0 UV-I 0 W/m 3,6 C 3,9 C 8,0 km/h (2 Bft) 100,00 %
07.01.2018 01:45 3,9 C 4,4 C 98 % 1013,3 hPa 0,0 l/m 4,8 km/h (1 Bft) O-NO 67 0 min 0,000 mm 0,0 UV-I 0 W/m 3,6 C 3,9 C 4,8 km/h (1 Bft) 100,00 %
07.01.2018 01:46 3,9 C 4,4 C 98 % 1013,3 hPa 0,0 l/m 6,4 km/h (2 Bft) NO 45 0 min 0,000 mm 0,0 UV-I 0 W/m 3,6 C 3,9 C 8,0 km/h (2 Bft) 100,00 %
07.01.2018 01:47 3,9 C 4,4 C 98 % 1013,2 hPa 0,0 l/m 6,4 km/h (2 Bft) NO 45 0 min 0,000 mm 0,0 UV-I 0 W/m 3,6 C 3,9 C 9,7 km/h (2 Bft) 100,00 %
07.01.2018 01:48 3,9 C 4,4 C 98 % 1013,2 hPa 0,0 l/m 6,4 km/h (2 Bft) O-NO 67 0 min 0,000 mm 0,0 UV-I 0 W/m 3,6 C 3,9 C 8,0 km/h (2 Bft) 100,00 %
07.01.2018 01:49 3,8 C 4,4 C 98 % 1013,3 hPa 0,0 l/m 9,7 km/h (2 Bft) O-NO 67 0 min 0,000 mm 0,0 UV-I 0 W/m 3,5 C 1,0 C 11,3 km/h (2 Bft) 100,00 %
07.01.2018 01:50 3,9 C 4,4 C 98 % 1013,2 hPa 0,0 l/m 8,0 km/h (2 Bft) NO 45 0 min 0,000 mm 0,0 UV-I 0 W/m 3,6 C 2,4 C 11,3 km/h (2 Bft) 95,65 %
07.01.2018 01:51 3,8 C 4,4 C 98 % 1013,2 hPa 0,0 l/m 8,0 km/h (2 Bft) NO 45 0 min 0,000 mm 0,0 UV-I 0 W/m 3,5 C 2,3 C 8,0 km/h (2 Bft) 95,65 %
07.01.2018 01:52 3,8 C 4,4 C 98 % 1013,3 hPa 0,0 l/m 6,4 km/h (2 Bft) O-NO 67 0 min 0,000 mm 0,0 UV-I 0 W/m 3,5 C 3,8 C 8,0 km/h (2 Bft) 100,00 %
07.01.2018 01:53 3,8 C 4,4 C 98 % 1013,3 hPa 0,0 l/m 6,4 km/h (2 Bft) NO 45 0 min 0,000 mm 0,0 UV-I 0 W/m 3,5 C 3,8 C 8,0 km/h (2 Bft) 100,00 %
07.01.2018 01:54 3,8 C 4,4 C 98 % 1013,3 hPa 0,0 l/m 6,4 km/h (2 Bft) O-NO 67 0 min 0,000 mm 0,0 UV-I 0 W/m 3,5 C 3,8 C 6,4 km/h (2 Bft) 100,00 %
07.01.2018 01:55 3,8 C 4,4 C 98 % 1013,4 hPa 0,0 l/m 6,4 km/h (2 Bft) O-NO 67 0 min 0,000 mm 0,0 UV-I 0 W/m 3,5 C 3,8 C 8,0 km/h (2 Bft) 100,00 %
07.01.2018 01:56 3,8 C 4,4 C 98 % 1013,4 hPa 0,0 l/m 4,8 km/h (1 Bft) N-NO 22 0 min 0,000 mm 0,0 UV-I 0 W/m 3,5 C 3,8 C 6,4 km/h (2 Bft) 95,65 %
07.01.2018 01:57 3,8 C 4,4 C 98 % 1013,4 hPa 0,0 l/m 6,4 km/h (2 Bft) NO 45 0 min 0,000 mm 0,0 UV-I 0 W/m 3,5 C 3,8 C 6,4 km/h (2 Bft) 91,30 %
07.01.2018 01:58 3,8 C 4,4 C 98 % 1013,4 hPa 0,0 l/m 4,8 km/h (1 Bft) NO 45 0 min 0,000 mm 0,0 UV-I 0 W/m 3,5 C 3,8 C 4,8 km/h (1 Bft) 100,00 %
07.01.2018 01:59 3,8 C 4,4 C 98 % 1013,4 hPa 0,0 l/m 3,2 km/h (1 Bft) NO 45 0 min 0,000 mm 0,0 UV-I 0 W/m 3,5 C 3,8 C 4,8 km/h (1 Bft) 95,65 %
07.01.2018 02:00 3,8 C 4,4 C 98 % 1013,4 hPa 0,0 l/m 6,4 km/h (2 Bft) NO 45 0 min 0,000 mm 0,0 UV-I 0 W/m 3,5 C 3,8 C 9,7 km/h (2 Bft) 100,00 %
07.01.2018 02:01 3,8 C 4,4 C 98 % 1013,4 hPa 0,0 l/m 6,4 km/h (2 Bft) NO 45 0 min 0,000 mm 0,0 UV-I 0 W/m 3,5 C 3,8 C 9,7 km/h (2 Bft) 95,65 %
07.01.2018 02:02 3,8 C 4,4 C 98 % 1013,4 hPa 0,0 l/m 6,4 km/h (2 Bft) NO 45 0 min 0,000 mm 0,0 UV-I 0 W/m 3,5 C 3,8 C 9,7 km/h (2 Bft) 100,00 %
07.01.2018 02:03 3,8 C 4,4 C 98 % 1013,4 hPa 0,0 l/m 6,4 km/h (2 Bft) O-NO 67 0 min 0,000 mm 0,0 UV-I 0 W/m 3,5 C 3,8 C 8,0 km/h (2 Bft) 100,00 %
07.01.2018 02:04 3,8 C 4,4 C 98 % 1013,4 hPa 0,0 l/m 8,0 km/h (2 Bft) O-NO 67 0 min 0,000 mm 0,0 UV-I 0 W/m 3,5 C 2,3 C 9,7 km/h (2 Bft) 95,65 %
07.01.2018 02:05 3,8 C 4,4 C 98 % 1013,4 hPa 0,0 l/m 6,4 km/h (2 Bft) O-NO 67 0 min 0,000 mm 0,0 UV-I 0 W/m 3,5 C 3,8 C 8,0 km/h (2 Bft) 95,65 %
07.01.2018 02:06 3,8 C 4,4 C 98 % 1013,4 hPa 0,0 l/m 6,4 km/h (2 Bft) O-NO 67 0 min 0,000 mm 0,0 UV-I 0 W/m 3,5 C 3,8 C 8,0 km/h (2 Bft) 95,65 %
07.01.2018 02:07 3,8 C 4,4 C 98 % 1013,4 hPa 0,0 l/m 4,8 km/h (1 Bft) O-NO 67 0 min 0,000 mm 0,0 UV-I 0 W/m 3,5 C 3,8 C 6,4 km/h (2 Bft) 100,00 %
07.01.2018 02:08 3,8 C 4,4 C 98 % 1013,4 hPa 0,0 l/m 6,4 km/h (2 Bft) O-NO 67 0 min 0,000 mm 0,0 UV-I 0 W/m 3,5 C 3,8 C 6,4 km/h (2 Bft) 95,65 %
07.01.2018 02:09 3,8 C 4,4 C 98 % 1013,4 hPa 0,0 l/m 6,4 km/h (2 Bft) NO 45 0 min 0,000 mm 0,0 UV-I 0 W/m 3,5 C 3,8 C 9,7 km/h (2 Bft) 86,96 %
07.01.2018 02:10 3,8 C 4,4 C 98 % 1013,4 hPa 0,0 l/m 8,0 km/h (2 Bft) O-NO 67 0 min 0,000 mm 0,0 UV-I 0 W/m 3,5 C 2,3 C 11,3 km/h (2 Bft) 95,65 %
07.01.2018 02:11 3,8 C 4,4 C 98 % 1013,4 hPa 0,0 l/m 9,7 km/h (2 Bft) O-NO 67 0 min 0,000 mm 0,0 UV-I 0 W/m 3,5 C 1,0 C 12,9 km/h (3 Bft) 95,65 %
07.01.2018 02:12 3,8 C 4,4 C 98 % 1013,4 hPa 0,0 l/m 8,0 km/h (2 Bft) O 90 0 min 0,000 mm 0,0 UV-I 0 W/m 3,5 C 2,3 C 12,9 km/h (3 Bft) 95,65 %
07.01.2018 02:13 3,8 C 4,4 C 98 % 1013,5 hPa 0,0 l/m 4,8 km/h (1 Bft) O-NO 67 0 min 0,000 mm 0,0 UV-I 0 W/m 3,5 C 3,8 C 6,4 km/h (2 Bft) 100,00 %
07.01.2018 02:14 3,8 C 4,4 C 98 % 1013,5 hPa 0,0 l/m 4,8 km/h (1 Bft) O-SO 112 0 min 0,000 mm 0,0 UV-I 0 W/m 3,5 C 3,8 C 6,4 km/h (2 Bft) 95,65 %
07.01.2018 02:15 3,8 C 4,4 C 98 % 1013,6 hPa 0,0 l/m 1,6 km/h (1 Bft) SO 135 0 min 0,000 mm 0,0 UV-I 0 W/m 3,5 C 3,8 C 3,2 km/h (1 Bft) 100,00 %
07.01.2018 02:16 3,8 C 4,4 C 98 % 1013,6 hPa 0,0 l/m 1,6 km/h (1 Bft) SO 135 0 min 0,000 mm 0,0 UV-I 0 W/m 3,5 C 3,8 C 4,8 km/h (1 Bft) 95,65 %
07.01.2018 02:17 3,8 C 4,4 C 98 % 1013,6 hPa 0,0 l/m 6,4 km/h (2 Bft) O-SO 112 0 min 0,000 mm 0,0 UV-I 0 W/m 3,5 C 3,8 C 9,7 km/h (2 Bft) 91,30 %
07.01.2018 02:18 3,8 C 4,4 C 98 % 1013,6 hPa 0,0 l/m 3,2 km/h (1 Bft) O-SO 112 0 min 0,000 mm 0,0 UV-I 0 W/m 3,5 C 3,8 C 6,4 km/h (2 Bft) 95,65 %
07.01.2018 02:19 3,8 C 4,4 C 98 % 1013,6 hPa 0,0 l/m 4,8 km/h (1 Bft) O-SO 112 0 min 0,000 mm 0,0 UV-I 0 W/m 3,5 C 3,8 C 6,4 km/h (2 Bft) 95,65 %
07.01.2018 02:20 3,8 C 4,4 C 98 % 1013,6 hPa 0,0 l/m 4,8 km/h (1 Bft) O 90 0 min 0,000 mm 0,0 UV-I 0 W/m 3,5 C 3,8 C 6,4 km/h (2 Bft) 100,00 %
07.01.2018 02:21 3,8 C 4,4 C 98 % 1013,6 hPa 0,0 l/m 4,8 km/h (1 Bft) NO 45 0 min 0,000 mm 0,0 UV-I 0 W/m 3,5 C 3,8 C 6,4 km/h (2 Bft) 95,65 %
07.01.2018 02:22 3,8 C 4,4 C 98 % 1013,6 hPa 0,0 l/m 6,4 km/h (2 Bft) O-NO 67 0 min 0,000 mm 0,0 UV-I 0 W/m 3,5 C 3,8 C 9,7 km/h (2 Bft) 100,00 %
07.01.2018 02:23 3,8 C 4,4 C 98 % 1013,6 hPa 0,0 l/m 8,0 km/h (2 Bft) O-NO 67 0 min 0,000 mm 0,0 UV-I 0 W/m 3,5 C 2,3 C 11,3 km/h (2 Bft) 95,65 %
07.01.2018 02:24 3,8 C 4,4 C 98 % 1013,7 hPa 0,0 l/m 6,4 km/h (2 Bft) O-NO 67 0 min 0,000 mm 0,0 UV-I 0 W/m 3,5 C 3,8 C 11,3 km/h (2 Bft) 100,00 %
07.01.2018 02:25 3,8 C 4,4 C 98 % 1013,7 hPa 0,0 l/m 4,8 km/h (1 Bft) O-NO 67 0 min 0,000 mm 0,0 UV-I 0 W/m 3,5 C 3,8 C 6,4 km/h (2 Bft) 91,30 %
07.01.2018 02:26 3,8 C 4,4 C 98 % 1013,7 hPa 0,0 l/m 4,8 km/h (1 Bft) O-NO 67 0 min 0,000 mm 0,0 UV-I 0 W/m 3,5 C 3,8 C 6,4 km/h (2 Bft) 95,65 %
07.01.2018 02:27 3,8 C 4,4 C 98 % 1013,7 hPa 0,0 l/m 3,2 km/h (1 Bft) O 90 0 min 0,000 mm 0,0 UV-I 0 W/m 3,5 C 3,8 C 4,8 km/h (1 Bft) 100,00 %
07.01.2018 02:28 3,8 C 4,4 C 98 % 1013,8 hPa 0,0 l/m 3,2 km/h (1 Bft) O-NO 67 0 min 0,000 mm 0,0 UV-I 0 W/m 3,5 C 3,8 C 4,8 km/h (1 Bft) 95,65 %
07.01.2018 02:29 3,8 C 4,4 C 98 % 1013,8 hPa 0,0 l/m 3,2 km/h (1 Bft) O-NO 67 0 min 0,000 mm 0,0 UV-I 0 W/m 3,5 C 3,8 C 6,4 km/h (2 Bft) 100,00 %
07.01.2018 02:30 3,8 C 4,4 C 98 % 1013,8 hPa 0,0 l/m 3,2 km/h (1 Bft) O-NO 67 0 min 0,000 mm 0,0 UV-I 0 W/m 3,5 C 3,8 C 4,8 km/h (1 Bft) 95,65 %
07.01.2018 02:31 3,8 C 4,4 C 98 % 1013,8 hPa 0,0 l/m 4,8 km/h (1 Bft) O-NO 67 0 min 0,000 mm 0,0 UV-I 0 W/m 3,5 C 3,8 C 6,4 km/h (2 Bft) 91,30 %
07.01.2018 02:32 3,8 C 4,4 C 98 % 1013,8 hPa 0,0 l/m 6,4 km/h (2 Bft) O-NO 67 0 min 0,000 mm 0,0 UV-I 0 W/m 3,5 C 3,8 C 8,0 km/h (2 Bft) 82,61 %
07.01.2018 02:33 3,8 C 4,4 C 98 % 1013,8 hPa 0,0 l/m 4,8 km/h (1 Bft) O-NO 67 0 min 0,000 mm 0,0 UV-I 0 W/m 3,5 C 3,8 C 9,7 km/h (2 Bft) 100,00 %
07.01.2018 02:34 3,8 C 4,4 C 98 % 1013,9 hPa 0,0 l/m 4,8 km/h (1 Bft) O-SO 112 0 min 0,000 mm 0,0 UV-I 0 W/m 3,5 C 3,8 C 9,7 km/h (2 Bft) 86,96 %
07.01.2018 02:35 3,8 C 4,4 C 98 % 1013,9 hPa 0,0 l/m 4,8 km/h (1 Bft) SO 135 0 min 0,000 mm 0,0 UV-I 0 W/m 3,5 C 3,8 C 8,0 km/h (2 Bft) 95,65 %
07.01.2018 02:36 3,8 C 4,4 C 98 % 1013,8 hPa 0,0 l/m 6,4 km/h (2 Bft) O-SO 112 0 min 0,000 mm 0,0 UV-I 0 W/m 3,5 C 3,8 C 11,3 km/h (2 Bft) 95,65 %
07.01.2018 02:37 3,8 C 4,4 C 98 % 1013,9 hPa 0,0 l/m 3,2 km/h (1 Bft) O-SO 112 0 min 0,000 mm 0,0 UV-I 0 W/m 3,5 C 3,8 C 6,4 km/h (2 Bft) 91,30 %
07.01.2018 02:38 3,8 C 4,4 C 98 % 1013,9 hPa 0,0 l/m 3,2 km/h (1 Bft) O-SO 112 0 min 0,000 mm 0,0 UV-I 0 W/m 3,5 C 3,8 C 4,8 km/h (1 Bft) 95,65 %
07.01.2018 02:39 3,8 C 4,4 C 98 % 1013,9 hPa 0,0 l/m 6,4 km/h (2 Bft) O-NO 67 0 min 0,000 mm 0,0 UV-I 0 W/m 3,5 C 3,8 C 8,0 km/h (2 Bft) 91,30 %
07.01.2018 02:40 3,8 C 4,4 C 98 % 1013,8 hPa 0,0 l/m 8,0 km/h (2 Bft) O-NO 67 0 min 0,000 mm 0,0 UV-I 0 W/m 3,5 C 2,3 C 12,9 km/h (3 Bft) 91,30 %
07.01.2018 02:41 3,8 C 4,4 C 98 % 1013,9 hPa 0,0 l/m 6,4 km/h (2 Bft) O-NO 67 0 min 0,000 mm 0,0 UV-I 0 W/m 3,5 C 3,8 C 9,7 km/h (2 Bft) 95,65 %
07.01.2018 02:42 3,8 C 4,4 C 98 % 1013,9 hPa 0,0 l/m 6,4 km/h (2 Bft) O-NO 67 0 min 0,000 mm 0,0 UV-I 0 W/m 3,5 C 3,8 C 9,7 km/h (2 Bft) 95,65 %
07.01.2018 02:43 3,8 C 4,4 C 98 % 1013,9 hPa 0,0 l/m 8,0 km/h (2 Bft) O-NO 67 0 min 0,000 mm 0,0 UV-I 0 W/m 3,5 C 2,3 C 11,3 km/h (2 Bft) 95,65 %
07.01.2018 02:44 3,8 C 4,4 C 98 % 1013,9 hPa 0,0 l/m 4,8 km/h (1 Bft) O-NO 67 0 min 0,000 mm 0,0 UV-I 0 W/m 3,5 C 3,8 C 6,4 km/h (2 Bft) 91,30 %
07.01.2018 02:45 3,8 C 4,4 C 98 % 1013,9 hPa 0,0 l/m 3,2 km/h (1 Bft) NO 45 0 min 0,000 mm 0,0 UV-I 0 W/m 3,5 C 3,8 C 4,8 km/h (1 Bft) 100,00 %
07.01.2018 02:46 3,8 C 4,4 C 98 % 1014,0 hPa 0,0 l/m 4,8 km/h (1 Bft) O-NO 67 0 min 0,000 mm 0,0 UV-I 0 W/m 3,5 C 3,8 C 8,0 km/h (2 Bft) 91,30 %
07.01.2018 02:47 3,8 C 4,4 C 98 % 1014,0 hPa 0,0 l/m 6,4 km/h (2 Bft) NO 45 0 min 0,000 mm 0,0 UV-I 0 W/m 3,5 C 3,8 C 8,0 km/h (2 Bft) 95,65 %
07.01.2018 02:48 3,8 C 4,4 C 98 % 1014,0 hPa 0,0 l/m 9,7 km/h (2 Bft) O-NO 67 0 min 0,000 mm 0,0 UV-I 0 W/m 3,5 C 1,0 C 14,5 km/h (3 Bft) 95,65 %
07.01.2018 02:49 3,8 C 4,4 C 98 % 1014,0 hPa 0,0 l/m 8,0 km/h (2 Bft) O-NO 67 0 min 0,000 mm 0,0 UV-I 0 W/m 3,5 C 2,3 C 9,7 km/h (2 Bft) 95,65 %
07.01.2018 02:50 3,7 C 4,4 C 98 % 1014,1 hPa 0,0 l/m 4,8 km/h (1 Bft) O-NO 67 0 min 0,000 mm 0,0 UV-I 0 W/m 3,4 C 3,7 C 6,4 km/h (2 Bft) 100,00 %
07.01.2018 02:51 3,7 C 4,4 C 98 % 1014,1 hPa 0,0 l/m 4,8 km/h (1 Bft) O-NO 67 0 min 0,000 mm 0,0 UV-I 0 W/m 3,4 C 3,7 C 4,8 km/h (1 Bft) 95,65 %
07.01.2018 02:52 3,7 C 4,4 C 98 % 1014,1 hPa 0,0 l/m 6,4 km/h (2 Bft) O-NO 67 0 min 0,000 mm 0,0 UV-I 0 W/m 3,4 C 3,7 C 8,0 km/h (2 Bft) 100,00 %
07.01.2018 02:53 3,7 C 4,4 C 98 % 1014,1 hPa 0,0 l/m 8,0 km/h (2 Bft) O-NO 67 0 min 0,000 mm 0,0 UV-I 0 W/m 3,4 C 2,2 C 12,9 km/h (3 Bft) 86,96 %
07.01.2018 02:54 3,7 C 4,4 C 98 % 1014,1 hPa 0,0 l/m 4,8 km/h (1 Bft) NO 45 0 min 0,000 mm 0,0 UV-I 0 W/m 3,4 C 3,7 C 8,0 km/h (2 Bft) 100,00 %
07.01.2018 02:55 3,7 C 4,4 C 98 % 1014,1 hPa 0,0 l/m 4,8 km/h (1 Bft) O-NO 67 0 min 0,000 mm 0,0 UV-I 0 W/m 3,4 C 3,7 C 6,4 km/h (2 Bft) 100,00 %
07.01.2018 02:56 3,7 C 4,4 C 98 % 1014,1 hPa 0,0 l/m 6,4 km/h (2 Bft) NO 45 0 min 0,000 mm 0,0 UV-I 0 W/m 3,4 C 3,7 C 8,0 km/h (2 Bft) 100,00 %
07.01.2018 02:57 3,7 C 4,4 C 98 % 1014,1 hPa 0,0 l/m 9,7 km/h (2 Bft) O-NO 67 0 min 0,000 mm 0,0 UV-I 0 W/m 3,4 C 0,9 C 12,9 km/h (3 Bft) 100,00 %
07.01.2018 02:58 3,7 C 4,4 C 98 % 1014,1 hPa 0,0 l/m 8,0 km/h (2 Bft) O-NO 67 0 min 0,000 mm 0,0 UV-I 0 W/m 3,4 C 2,2 C 12,9 km/h (3 Bft) 95,65 %
07.01.2018 02:59 3,7 C 4,4 C 98 % 1014,1 hPa 0,0 l/m 8,0 km/h (2 Bft) O-NO 67 0 min 0,000 mm 0,0 UV-I 0 W/m 3,4 C 2,2 C 9,7 km/h (2 Bft) 100,00 %
07.01.2018 03:00 3,7 C 4,4 C 98 % 1014,2 hPa 0,0 l/m 6,4 km/h (2 Bft) NO 45 0 min 0,000 mm 0,0 UV-I 0 W/m 3,4 C 3,7 C 9,7 km/h (2 Bft) 91,30 %
07.01.2018 03:01 3,7 C 4,4 C 98 % 1014,1 hPa 0,0 l/m 4,8 km/h (1 Bft) NO 45 0 min 0,000 mm 0,0 UV-I 0 W/m 3,4 C 3,7 C 6,4 km/h (2 Bft) 95,65 %
07.01.2018 03:02 3,7 C 4,4 C 98 % 1014,1 hPa 0,0 l/m 6,4 km/h (2 Bft) O-NO 67 0 min 0,000 mm 0,0 UV-I 0 W/m 3,4 C 3,7 C 8,0 km/h (2 Bft) 100,00 %
07.01.2018 03:03 3,7 C 4,4 C 98 % 1014,2 hPa 0,0 l/m 3,2 km/h (1 Bft) NO 45 0 min 0,000 mm 0,0 UV-I 0 W/m 3,4 C 3,7 C 4,8 km/h (1 Bft) 100,00 %
07.01.2018 03:04 3,8 C 4,4 C 98 % 1014,2 hPa 0,0 l/m 4,8 km/h (1 Bft) NO 45 0 min 0,000 mm 0,0 UV-I 0 W/m 3,5 C 3,8 C 6,4 km/h (2 Bft) 100,00 %
07.01.2018 03:05 3,8 C 4,4 C 98 % 1014,2 hPa 0,0 l/m 6,4 km/h (2 Bft) NO 45 0 min 0,000 mm 0,0 UV-I 0 W/m 3,5 C 3,8 C 6,4 km/h (2 Bft) 100,00 %
07.01.2018 03:06 3,8 C 4,4 C 98 % 1014,2 hPa 0,0 l/m 4,8 km/h (1 Bft) NO 45 0 min 0,000 mm 0,0 UV-I 0 W/m 3,5 C 3,8 C 6,4 km/h (2 Bft) 100,00 %
07.01.2018 03:07 3,8 C 4,4 C 98 % 1014,2 hPa 0,0 l/m 3,2 km/h (1 Bft) NO 45 0 min 0,000 mm 0,0 UV-I 0 W/m 3,5 C 3,8 C 4,8 km/h (1 Bft) 95,65 %
07.01.2018 03:08 3,8 C 4,4 C 98 % 1014,3 hPa 0,0 l/m 3,2 km/h (1 Bft) NO 45 0 min 0,000 mm 0,0 UV-I 0 W/m 3,5 C 3,8 C 4,8 km/h (1 Bft) 100,00 %
07.01.2018 03:09 3,8 C 4,4 C 98 % 1014,2 hPa 0,0 l/m 1,6 km/h (1 Bft) NO 45 0 min 0,000 mm 0,0 UV-I 0 W/m 3,5 C 3,8 C 1,6 km/h (1 Bft) 100,00 %
07.01.2018 03:10 3,8 C 4,4 C 98 % 1014,3 hPa 0,0 l/m 3,2 km/h (1 Bft) NO 45 0 min 0,000 mm 0,0 UV-I 0 W/m 3,5 C 3,8 C 6,4 km/h (2 Bft) 100,00 %
07.01.2018 03:11 3,8 C 4,4 C 98 % 1014,3 hPa 0,0 l/m 4,8 km/h (1 Bft) NO 45 0 min 0,000 mm 0,0 UV-I 0 W/m 3,5 C 3,8 C 4,8 km/h (1 Bft) 100,00 %
07.01.2018 03:12 3,8 C 4,4 C 98 % 1014,3 hPa 0,0 l/m 3,2 km/h (1 Bft) NO 45 0 min 0,000 mm 0,0 UV-I 0 W/m 3,5 C 3,8 C 3,2 km/h (1 Bft) 100,00 %
07.01.2018 03:13 3,8 C 4,4 C 98 % 1014,3 hPa 0,0 l/m 3,2 km/h (1 Bft) NO 45 0 min 0,000 mm 0,0 UV-I 0 W/m 3,5 C 3,8 C 4,8 km/h (1 Bft) 100,00 %
07.01.2018 03:14 3,8 C 4,4 C 98 % 1014,3 hPa 0,0 l/m 4,8 km/h (1 Bft) NO 45 0 min 0,000 mm 0,0 UV-I 0 W/m 3,5 C 3,8 C 6,4 km/h (2 Bft) 95,65 %
07.01.2018 03:15 3,8 C 4,4 C 98 % 1014,3 hPa 0,0 l/m 8,0 km/h (2 Bft) NO 45 0 min 0,000 mm 0,0 UV-I 0 W/m 3,5 C 2,3 C 9,7 km/h (2 Bft) 95,65 %
07.01.2018 03:16 3,8 C 4,4 C 98 % 1014,3 hPa 0,0 l/m 6,4 km/h (2 Bft) O-NO 67 0 min 0,000 mm 0,0 UV-I 0 W/m 3,5 C 3,8 C 9,7 km/h (2 Bft) 95,65 %
07.01.2018 03:17 3,8 C 4,4 C 98 % 1014,4 hPa 0,0 l/m 6,4 km/h (2 Bft) NO 45 0 min 0,000 mm 0,0 UV-I 0 W/m 3,5 C 3,8 C 8,0 km/h (2 Bft) 100,00 %
07.01.2018 03:18 3,8 C 4,4 C 98 % 1014,4 hPa 0,0 l/m 6,4 km/h (2 Bft) O-NO 67 0 min 0,000 mm 0,0 UV-I 0 W/m 3,5 C 3,8 C 8,0 km/h (2 Bft) 100,00 %
07.01.2018 03:19 3,8 C 4,4 C 98 % 1014,4 hPa 0,0 l/m 4,8 km/h (1 Bft) NO 45 0 min 0,000 mm 0,0 UV-I 0 W/m 3,5 C 3,8 C 6,4 km/h (2 Bft) 100,00 %
07.01.2018 03:20 3,8 C 4,4 C 98 % 1014,4 hPa 0,0 l/m 3,2 km/h (1 Bft) NO 45 0 min 0,000 mm 0,0 UV-I 0 W/m 3,5 C 3,8 C 4,8 km/h (1 Bft) 91,30 %
07.01.2018 03:21 3,8 C 4,4 C 98 % 1014,4 hPa 0,0 l/m 4,8 km/h (1 Bft) NO 45 0 min 0,000 mm 0,0 UV-I 0 W/m 3,5 C 3,8 C 6,4 km/h (2 Bft) 95,65 %
07.01.2018 03:22 3,8 C 4,4 C 98 % 1014,4 hPa 0,0 l/m 4,8 km/h (1 Bft) O-NO 67 0 min 0,000 mm 0,0 UV-I 0 W/m 3,5 C 3,8 C 6,4 km/h (2 Bft) 95,65 %
07.01.2018 03:23 3,8 C 4,4 C 98 % 1014,4 hPa 0,0 l/m 4,8 km/h (1 Bft) O-NO 67 0 min 0,000 mm 0,0 UV-I 0 W/m 3,5 C 3,8 C 4,8 km/h (1 Bft) 100,00 %
07.01.2018 03:24 3,8 C 4,4 C 98 % 1014,4 hPa 0,0 l/m 4,8 km/h (1 Bft) O-NO 67 0 min 0,000 mm 0,0 UV-I 0 W/m 3,5 C 3,8 C 6,4 km/h (2 Bft) 100,00 %
07.01.2018 03:25 3,8 C 4,4 C 98 % 1014,4 hPa 0,0 l/m 8,0 km/h (2 Bft) O-NO 67 0 min 0,000 mm 0,0 UV-I 0 W/m 3,5 C 2,3 C 11,3 km/h (2 Bft) 100,00 %
07.01.2018 03:26 3,8 C 4,4 C 98 % 1014,4 hPa 0,0 l/m 8,0 km/h (2 Bft) O-NO 67 0 min 0,000 mm 0,0 UV-I 0 W/m 3,5 C 2,3 C 11,3 km/h (2 Bft) 100,00 %
07.01.2018 03:27 3,8 C 4,4 C 98 % 1014,4 hPa 0,0 l/m 6,4 km/h (2 Bft) NO 45 0 min 0,000 mm 0,0 UV-I 0 W/m 3,5 C 3,8 C 8,0 km/h (2 Bft) 100,00 %
07.01.2018 03:28 3,8 C 4,4 C 98 % 1014,4 hPa 0,0 l/m 6,4 km/h (2 Bft) O-NO 67 0 min 0,000 mm 0,0 UV-I 0 W/m 3,5 C 3,8 C 8,0 km/h (2 Bft) 95,65 %
07.01.2018 03:29 3,8 C 4,4 C 98 % 1014,3 hPa 0,0 l/m 4,8 km/h (1 Bft) O-NO 67 0 min 0,000 mm 0,0 UV-I 0 W/m 3,5 C 3,8 C 6,4 km/h (2 Bft) 100,00 %
07.01.2018 03:30 3,8 C 4,4 C 98 % 1014,3 hPa 0,0 l/m 8,0 km/h (2 Bft) O-NO 67 0 min 0,000 mm 0,0 UV-I 0 W/m 3,5 C 2,3 C 11,3 km/h (2 Bft) 100,00 %
07.01.2018 03:31 3,8 C 4,4 C 98 % 1014,3 hPa 0,0 l/m 6,4 km/h (2 Bft) O-NO 67 0 min 0,000 mm 0,0 UV-I 0 W/m 3,5 C 3,8 C 8,0 km/h (2 Bft) 100,00 %
07.01.2018 03:32 3,8 C 4,4 C 98 % 1014,3 hPa 0,0 l/m 8,0 km/h (2 Bft) O-NO 67 0 min 0,000 mm 0,0 UV-I 0 W/m 3,5 C 2,3 C 9,7 km/h (2 Bft) 95,65 %
07.01.2018 03:33 3,8 C 4,4 C 98 % 1014,3 hPa 0,0 l/m 9,7 km/h (2 Bft) O-NO 67 0 min 0,000 mm 0,0 UV-I 0 W/m 3,5 C 1,0 C 11,3 km/h (2 Bft) 100,00 %
07.01.2018 03:34 3,8 C 4,4 C 98 % 1014,2 hPa 0,0 l/m 9,7 km/h (2 Bft) O 90 0 min 0,000 mm 0,0 UV-I 0 W/m 3,5 C 1,0 C 14,5 km/h (3 Bft) 95,65 %
07.01.2018 03:35 3,7 C 4,4 C 98 % 1014,2 hPa 0,0 l/m 12,9 km/h (3 Bft) O-NO 67 0 min 0,000 mm 0,0 UV-I 0 W/m 3,4 C -1,3 C 17,7 km/h (3 Bft) 95,65 %
07.01.2018 03:36 3,7 C 4,4 C 98 % 1014,3 hPa 0,0 l/m 12,9 km/h (3 Bft) O 90 0 min 0,000 mm 0,0 UV-I 0 W/m 3,4 C -1,3 C 17,7 km/h (3 Bft) 100,00 %
07.01.2018 03:37 3,7 C 4,4 C 98 % 1014,3 hPa 0,0 l/m 8,0 km/h (2 Bft) O 90 0 min 0,000 mm 0,0 UV-I 0 W/m 3,4 C 2,2 C 11,3 km/h (2 Bft) 95,65 %
07.01.2018 03:38 3,7 C 4,4 C 98 % 1014,3 hPa 0,0 l/m 6,4 km/h (2 Bft) O-NO 67 0 min 0,000 mm 0,0 UV-I 0 W/m 3,4 C 3,7 C 11,3 km/h (2 Bft) 100,00 %
07.01.2018 03:39 3,7 C 4,4 C 98 % 1014,4 hPa 0,0 l/m 6,4 km/h (2 Bft) O-NO 67 0 min 0,000 mm 0,0 UV-I 0 W/m 3,4 C 3,7 C 8,0 km/h (2 Bft) 100,00 %
07.01.2018 03:40 3,7 C 4,4 C 98 % 1014,4 hPa 0,0 l/m 4,8 km/h (1 Bft) O-NO 67 0 min 0,000 mm 0,0 UV-I 0 W/m 3,4 C 3,7 C 6,4 km/h (2 Bft) 100,00 %
07.01.2018 03:41 3,7 C 4,4 C 98 % 1014,4 hPa 0,0 l/m 1,6 km/h (1 Bft) O-NO 67 0 min 0,000 mm 0,0 UV-I 0 W/m 3,4 C 3,7 C 3,2 km/h (1 Bft) 95,65 %
07.01.2018 03:42 3,7 C 4,4 C 98 % 1014,4 hPa 0,0 l/m 4,8 km/h (1 Bft) O-NO 67 0 min 0,000 mm 0,0 UV-I 0 W/m 3,4 C 3,7 C 9,7 km/h (2 Bft) 95,65 %
07.01.2018 03:43 3,7 C 4,4 C 98 % 1014,4 hPa 0,0 l/m 4,8 km/h (1 Bft) O 90 0 min 0,000 mm 0,0 UV-I 0 W/m 3,4 C 3,7 C 6,4 km/h (2 Bft) 100,00 %
07.01.2018 03:44 3,7 C 4,4 C 98 % 1014,4 hPa 0,0 l/m 3,2 km/h (1 Bft) O 90 0 min 0,000 mm 0,0 UV-I 0 W/m 3,4 C 3,7 C 4,8 km/h (1 Bft) 100,00 %
07.01.2018 03:45 3,7 C 4,4 C 98 % 1014,4 hPa 0,0 l/m 8,0 km/h (2 Bft) O-SO 112 0 min 0,000 mm 0,0 UV-I 0 W/m 3,4 C 2,2 C 12,9 km/h (3 Bft) 100,00 %
07.01.2018 03:46 3,7 C 4,4 C 98 % 1014,4 hPa 0,0 l/m 8,0 km/h (2 Bft) O-NO 67 0 min 0,000 mm 0,0 UV-I 0 W/m 3,4 C 2,2 C 11,3 km/h (2 Bft) 100,00 %
07.01.2018 03:47 3,7 C 4,4 C 98 % 1014,5 hPa 0,0 l/m 4,8 km/h (1 Bft) O-NO 67 0 min 0,000 mm 0,0 UV-I 0 W/m 3,4 C 3,7 C 8,0 km/h (2 Bft) 100,00 %
07.01.2018 03:48 3,7 C 4,4 C 98 % 1014,5 hPa 0,0 l/m 9,7 km/h (2 Bft) O-NO 67 0 min 0,000 mm 0,0 UV-I 0 W/m 3,4 C 0,9 C 12,9 km/h (3 Bft) 100,00 %
07.01.2018 03:49 3,7 C 4,4 C 98 % 1014,5 hPa 0,0 l/m 8,0 km/h (2 Bft) O-NO 67 0 min 0,000 mm 0,0 UV-I 0 W/m 3,4 C 2,2 C 12,9 km/h (3 Bft) 95,65 %
07.01.2018 03:50 3,7 C 4,4 C 98 % 1014,5 hPa 0,0 l/m 8,0 km/h (2 Bft) O-NO 67 0 min 0,000 mm 0,0 UV-I 0 W/m 3,4 C 2,2 C 12,9 km/h (3 Bft) 95,65 %
07.01.2018 03:51 3,7 C 4,4 C 98 % 1014,5 hPa 0,0 l/m 8,0 km/h (2 Bft) O-NO 67 0 min 0,000 mm 0,0 UV-I 0 W/m 3,4 C 2,2 C 11,3 km/h (2 Bft) 100,00 %
07.01.2018 03:52 3,7 C 4,4 C 98 % 1014,5 hPa 0,0 l/m 6,4 km/h (2 Bft) NO 45 0 min 0,000 mm 0,0 UV-I 0 W/m 3,4 C 3,7 C 9,7 km/h (2 Bft) 100,00 %
07.01.2018 03:53 3,7 C 4,4 C 98 % 1014,5 hPa 0,0 l/m 9,7 km/h (2 Bft) NO 45 0 min 0,000 mm 0,0 UV-I 0 W/m 3,4 C 0,9 C 9,7 km/h (2 Bft) 13,04 %
07.01.2018 03:54 3,7 C 4,4 C 98 % 1014,4 hPa 0,0 l/m 4,8 km/h (1 Bft) O-NO 67 0 min 0,000 mm 0,0 UV-I 0 W/m 3,4 C 3,7 C 6,4 km/h (2 Bft) 65,22 %
07.01.2018 03:55 3,7 C 4,4 C 98 % 1014,4 hPa 0,0 l/m 8,0 km/h (2 Bft) O-NO 67 0 min 0,000 mm 0,0 UV-I 0 W/m 3,4 C 2,2 C 12,9 km/h (3 Bft) 95,65 %
07.01.2018 03:56 3,7 C 4,4 C 98 % 1014,4 hPa 0,0 l/m 9,7 km/h (2 Bft) O-NO 67 0 min 0,000 mm 0,0 UV-I 0 W/m 3,4 C 0,9 C 12,9 km/h (3 Bft) 95,65 %
07.01.2018 03:57 3,7 C 4,4 C 98 % 1014,4 hPa 0,0 l/m 8,0 km/h (2 Bft) O-NO 67 0 min 0,000 mm 0,0 UV-I 0 W/m 3,4 C 2,2 C 12,9 km/h (3 Bft) 95,65 %
07.01.2018 03:58 3,7 C 4,4 C 98 % 1014,3 hPa 0,0 l/m 6,4 km/h (2 Bft) O-NO 67 0 min 0,000 mm 0,0 UV-I 0 W/m 3,4 C 3,7 C 8,0 km/h (2 Bft) 100,00 %
07.01.2018 03:59 3,7 C 4,4 C 98 % 1014,3 hPa 0,0 l/m 8,0 km/h (2 Bft) O 90 0 min 0,000 mm 0,0 UV-I 0 W/m 3,4 C 2,2 C 11,3 km/h (2 Bft) 95,65 %
07.01.2018 04:00 3,7 C 4,4 C 98 % 1014,4 hPa 0,0 l/m 9,7 km/h (2 Bft) O-NO 67 0 min 0,000 mm 0,0 UV-I 0 W/m 3,4 C 0,9 C 14,5 km/h (3 Bft) 100,00 %
07.01.2018 04:01 3,7 C 4,4 C 98 % 1014,4 hPa 0,0 l/m 4,8 km/h (1 Bft) O-NO 67 0 min 0,000 mm 0,0 UV-I 0 W/m 3,4 C 3,7 C 14,5 km/h (3 Bft) 91,30 %
07.01.2018 04:02 3,7 C 4,4 C 98 % 1014,4 hPa 0,0 l/m 11,3 km/h (2 Bft) O 90 0 min 0,000 mm 0,0 UV-I 0 W/m 3,4 C -0,3 C 16,1 km/h (3 Bft) 100,00 %
07.01.2018 04:03 3,7 C 4,4 C 98 % 1014,4 hPa 0,0 l/m 9,7 km/h (2 Bft) O 90 0 min 0,000 mm 0,0 UV-I 0 W/m 3,4 C 0,9 C 14,5 km/h (3 Bft) 91,30 %
07.01.2018 04:04 3,7 C 4,4 C 98 % 1014,4 hPa 0,0 l/m 11,3 km/h (2 Bft) O-NO 67 0 min 0,000 mm 0,0 UV-I 0 W/m 3,4 C -0,3 C 14,5 km/h (3 Bft) 100,00 %
07.01.2018 04:05 3,7 C 4,4 C 98 % 1014,4 hPa 0,0 l/m 9,7 km/h (2 Bft) O-NO 67 0 min 0,000 mm 0,0 UV-I 0 W/m 3,4 C 0,9 C 14,5 km/h (3 Bft) 95,65 %
07.01.2018 04:06 3,7 C 4,4 C 98 % 1014,4 hPa 0,0 l/m 11,3 km/h (2 Bft) O-NO 67 0 min 0,000 mm 0,0 UV-I 0 W/m 3,4 C -0,3 C 16,1 km/h (3 Bft) 95,65 %
07.01.2018 04:07 3,7 C 4,4 C 98 % 1014,4 hPa 0,0 l/m 9,7 km/h (2 Bft) O-NO 67 0 min 0,000 mm 0,0 UV-I 0 W/m 3,4 C 0,9 C 12,9 km/h (3 Bft) 95,65 %
07.01.2018 04:08 3,7 C 4,4 C 98 % 1014,4 hPa 0,0 l/m 8,0 km/h (2 Bft) O-NO 67 0 min 0,000 mm 0,0 UV-I 0 W/m 3,4 C 2,2 C 12,9 km/h (3 Bft) 91,30 %
07.01.2018 04:09 3,7 C 4,4 C 98 % 1014,4 hPa 0,0 l/m 8,0 km/h (2 Bft) O 90 0 min 0,000 mm 0,0 UV-I 0 W/m 3,4 C 2,2 C 12,9 km/h (3 Bft) 100,00 %
07.01.2018 04:10 3,7 C 4,4 C 98 % 1014,4 hPa 0,0 l/m 8,0 km/h (2 Bft) O 90 0 min 0,000 mm 0,0 UV-I 0 W/m 3,4 C 2,2 C 11,3 km/h (2 Bft) 86,96 %
07.01.2018 04:11 3,7 C 4,4 C 98 % 1014,4 hPa 0,0 l/m 8,0 km/h (2 Bft) O 90 0 min 0,000 mm 0,0 UV-I 0 W/m 3,4 C 2,2 C 11,3 km/h (2 Bft) 100,00 %
07.01.2018 04:12 3,7 C 4,4 C 98 % 1014,4 hPa 0,0 l/m 8,0 km/h (2 Bft) O-NO 67 0 min 0,000 mm 0,0 UV-I 0 W/m 3,4 C 2,2 C 11,3 km/h (2 Bft) 95,65 %
07.01.2018 04:13 3,7 C 4,4 C 98 % 1014,5 hPa 0,0 l/m 8,0 km/h (2 Bft) O-SO 112 0 min 0,000 mm 0,0 UV-I 0 W/m 3,4 C 2,2 C 11,3 km/h (2 Bft) 100,00 %
07.01.2018 04:14 3,7 C 4,4 C 98 % 1014,5 hPa 0,0 l/m 8,0 km/h (2 Bft) O-SO 112 0 min 0,000 mm 0,0 UV-I 0 W/m 3,4 C 2,2 C 11,3 km/h (2 Bft) 91,30 %
07.01.2018 04:15 3,7 C 4,4 C 98 % 1014,6 hPa 0,0 l/m 6,4 km/h (2 Bft) O 90 0 min 0,000 mm 0,0 UV-I 0 W/m 3,4 C 3,7 C 9,7 km/h (2 Bft) 100,00 %
07.01.2018 04:16 3,7 C 4,4 C 98 % 1014,6 hPa 0,0 l/m 3,2 km/h (1 Bft) S-SO 157 0 min 0,000 mm 0,0 UV-I 0 W/m 3,4 C 3,7 C 4,8 km/h (1 Bft) 95,65 %
07.01.2018 04:17 3,7 C 4,4 C 98 % 1014,6 hPa 0,0 l/m 4,8 km/h (1 Bft) O-NO 67 0 min 0,000 mm 0,0 UV-I 0 W/m 3,4 C 3,7 C 6,4 km/h (2 Bft) 95,65 %
07.01.2018 04:18 3,7 C 4,4 C 98 % 1014,6 hPa 0,0 l/m 3,2 km/h (1 Bft) O-NO 67 0 min 0,000 mm 0,0 UV-I 0 W/m 3,4 C 3,7 C 3,2 km/h (1 Bft) 95,65 %
07.01.2018 04:19 3,7 C 4,4 C 98 % 1014,7 hPa 0,0 l/m 3,2 km/h (1 Bft) O-SO 112 0 min 0,000 mm 0,0 UV-I 0 W/m 3,4 C 3,7 C 6,4 km/h (2 Bft) 95,65 %
07.01.2018 04:20 3,7 C 4,4 C 98 % 1014,8 hPa 0,0 l/m 4,8 km/h (1 Bft) O 90 0 min 0,000 mm 0,0 UV-I 0 W/m 3,4 C 3,7 C 6,4 km/h (2 Bft) 100,00 %
07.01.2018 04:21 3,6 C 4,4 C 98 % 1014,7 hPa 0,0 l/m 4,8 km/h (1 Bft) O-SO 112 0 min 0,000 mm 0,0 UV-I 0 W/m 3,3 C 3,6 C 6,4 km/h (2 Bft) 95,65 %
07.01.2018 04:22 3,6 C 4,4 C 98 % 1014,8 hPa 0,0 l/m 9,7 km/h (2 Bft) O-NO 67 0 min 0,000 mm 0,0 UV-I 0 W/m 3,3 C 0,8 C 12,9 km/h (3 Bft) 100,00 %
07.01.2018 04:23 3,6 C 4,4 C 98 % 1014,7 hPa 0,0 l/m 8,0 km/h (2 Bft) O-NO 67 0 min 0,000 mm 0,0 UV-I 0 W/m 3,3 C 2,1 C 9,7 km/h (2 Bft) 91,30 %
07.01.2018 04:24 3,6 C 4,4 C 98 % 1014,7 hPa 0,0 l/m 6,4 km/h (2 Bft) O-NO 67 0 min 0,000 mm 0,0 UV-I 0 W/m 3,3 C 3,6 C 9,7 km/h (2 Bft) 95,65 %
07.01.2018 04:25 3,6 C 4,4 C 98 % 1014,7 hPa 0,0 l/m 4,8 km/h (1 Bft) O 90 0 min 0,000 mm 0,0 UV-I 0 W/m 3,3 C 3,6 C 6,4 km/h (2 Bft) 95,65 %
07.01.2018 04:26 3,6 C 4,4 C 98 % 1014,7 hPa 0,0 l/m 3,2 km/h (1 Bft) O 90 0 min 0,000 mm 0,0 UV-I 0 W/m 3,3 C 3,6 C 4,8 km/h (1 Bft) 100,00 %
07.01.2018 04:27 3,7 C 4,4 C 98 % 1014,7 hPa 0,0 l/m 4,8 km/h (1 Bft) O 90 0 min 0,000 mm 0,0 UV-I 0 W/m 3,4 C 3,7 C 9,7 km/h (2 Bft) 95,65 %
07.01.2018 04:28 3,6 C 4,4 C 98 % 1014,7 hPa 0,0 l/m 6,4 km/h (2 Bft) O-NO 67 0 min 0,000 mm 0,0 UV-I 0 W/m 3,3 C 3,6 C 9,7 km/h (2 Bft) 95,65 %
07.01.2018 04:29 3,6 C 4,4 C 98 % 1014,7 hPa 0,0 l/m 8,0 km/h (2 Bft) O 90 0 min 0,000 mm 0,0 UV-I 0 W/m 3,3 C 2,1 C 11,3 km/h (2 Bft) 100,00 %
07.01.2018 04:30 3,6 C 4,4 C 98 % 1014,8 hPa 0,0 l/m 11,3 km/h (2 Bft) O-SO 112 0 min 0,000 mm 0,0 UV-I 0 W/m 3,3 C -0,4 C 12,9 km/h (3 Bft) 95,65 %
07.01.2018 04:31 3,6 C 4,4 C 98 % 1014,8 hPa 0,0 l/m 6,4 km/h (2 Bft) O 90 0 min 0,000 mm 0,0 UV-I 0 W/m 3,3 C 3,6 C 11,3 km/h (2 Bft) 95,65 %
07.01.2018 04:32 3,6 C 4,4 C 98 % 1014,8 hPa 0,0 l/m 4,8 km/h (1 Bft) O-SO 112 0 min 0,000 mm 0,0 UV-I 0 W/m 3,3 C 3,6 C 9,7 km/h (2 Bft) 95,65 %
07.01.2018 04:33 3,6 C 4,4 C 98 % 1014,8 hPa 0,0 l/m 4,8 km/h (1 Bft) O 90 0 min 0,000 mm 0,0 UV-I 0 W/m 3,3 C 3,6 C 9,7 km/h (2 Bft) 100,00 %
07.01.2018 04:34 3,6 C 4,4 C 98 % 1014,8 hPa 0,0 l/m 6,4 km/h (2 Bft) O-SO 112 0 min 0,000 mm 0,0 UV-I 0 W/m 3,3 C 3,6 C 11,3 km/h (2 Bft) 95,65 %
07.01.2018 04:35 3,6 C 4,4 C 98 % 1014,8 hPa 0,0 l/m 6,4 km/h (2 Bft) O 90 0 min 0,000 mm 0,0 UV-I 0 W/m 3,3 C 3,6 C 11,3 km/h (2 Bft) 100,00 %
07.01.2018 04:36 3,6 C 4,4 C 98 % 1014,8 hPa 0,0 l/m 8,0 km/h (2 Bft) O-SO 112 0 min 0,000 mm 0,0 UV-I 0 W/m 3,3 C 2,1 C 9,7 km/h (2 Bft) 95,65 %
07.01.2018 04:37 3,5 C 4,4 C 98 % 1014,8 hPa 0,0 l/m 6,4 km/h (2 Bft) O-NO 67 0 min 0,000 mm 0,0 UV-I 0 W/m 3,2 C 3,5 C 9,7 km/h (2 Bft) 95,65 %
07.01.2018 04:38 3,5 C 4,4 C 98 % 1014,8 hPa 0,0 l/m 8,0 km/h (2 Bft) O 90 0 min 0,000 mm 0,0 UV-I 0 W/m 3,2 C 2,0 C 11,3 km/h (2 Bft) 100,00 %
07.01.2018 04:39 3,5 C 4,4 C 98 % 1014,8 hPa 0,0 l/m 8,0 km/h (2 Bft) O-NO 67 0 min 0,000 mm 0,0 UV-I 0 W/m 3,2 C 2,0 C 12,9 km/h (3 Bft) 91,30 %
07.01.2018 04:40 3,5 C 4,4 C 98 % 1014,8 hPa 0,0 l/m 4,8 km/h (1 Bft) O-SO 112 0 min 0,000 mm 0,0 UV-I 0 W/m 3,2 C 3,5 C 9,7 km/h (2 Bft) 100,00 %
07.01.2018 04:41 3,5 C 4,4 C 98 % 1014,8 hPa 0,0 l/m 6,4 km/h (2 Bft) O 90 0 min 0,000 mm 0,0 UV-I 0 W/m 3,2 C 3,5 C 12,9 km/h (3 Bft) 95,65 %
07.01.2018 04:42 3,5 C 4,4 C 98 % 1014,8 hPa 0,0 l/m 12,9 km/h (3 Bft) O 90 0 min 0,000 mm 0,0 UV-I 0 W/m 3,2 C -1,5 C 17,7 km/h (3 Bft) 100,00 %
07.01.2018 04:43 3,5 C 4,4 C 98 % 1014,8 hPa 0,0 l/m 8,0 km/h (2 Bft) O 90 0 min 0,000 mm 0,0 UV-I 0 W/m 3,2 C 2,0 C 12,9 km/h (3 Bft) 95,65 %
07.01.2018 04:44 3,5 C 4,4 C 98 % 1014,7 hPa 0,0 l/m 9,7 km/h (2 Bft) O-NO 67 0 min 0,000 mm 0,0 UV-I 0 W/m 3,2 C 0,6 C 14,5 km/h (3 Bft) 95,65 %
07.01.2018 04:45 3,5 C 4,4 C 98 % 1014,8 hPa 0,0 l/m 6,4 km/h (2 Bft) O-NO 67 0 min 0,000 mm 0,0 UV-I 0 W/m 3,2 C 3,5 C 11,3 km/h (2 Bft) 100,00 %
07.01.2018 04:46 3,6 C 4,4 C 98 % 1014,8 hPa 0,0 l/m 8,0 km/h (2 Bft) O-NO 67 0 min 0,000 mm 0,0 UV-I 0 W/m 3,3 C 2,1 C 12,9 km/h (3 Bft) 91,30 %
07.01.2018 04:47 3,5 C 4,4 C 98 % 1014,8 hPa 0,0 l/m 6,4 km/h (2 Bft) O-NO 67 0 min 0,000 mm 0,0 UV-I 0 W/m 3,2 C 3,5 C 11,3 km/h (2 Bft) 100,00 %
07.01.2018 04:48 3,6 C 4,4 C 98 % 1014,8 hPa 0,0 l/m 4,8 km/h (1 Bft) O 90 0 min 0,000 mm 0,0 UV-I 0 W/m 3,3 C 3,6 C 11,3 km/h (2 Bft) 91,30 %
07.01.2018 04:49 3,6 C 4,4 C 98 % 1014,8 hPa 0,0 l/m 6,4 km/h (2 Bft) O-NO 67 0 min 0,000 mm 0,0 UV-I 0 W/m 3,3 C 3,6 C 8,0 km/h (2 Bft) 100,00 %
07.01.2018 04:50 3,5 C 4,4 C 98 % 1014,8 hPa 0,0 l/m 4,8 km/h (1 Bft) O 90 0 min 0,000 mm 0,0 UV-I 0 W/m 3,2 C 3,5 C 8,0 km/h (2 Bft) 100,00 %
07.01.2018 04:51 3,5 C 4,4 C 98 % 1014,8 hPa 0,0 l/m 6,4 km/h (2 Bft) O-SO 112 0 min 0,000 mm 0,0 UV-I 0 W/m 3,2 C 3,5 C 11,3 km/h (2 Bft) 100,00 %
07.01.2018 04:52 3,5 C 4,4 C 98 % 1014,9 hPa 0,0 l/m 6,4 km/h (2 Bft) O 90 0 min 0,000 mm 0,0 UV-I 0 W/m 3,2 C 3,5 C 11,3 km/h (2 Bft) 100,00 %
07.01.2018 04:53 3,4 C 4,4 C 98 % 1014,9 hPa 0,0 l/m 9,7 km/h (2 Bft) O-NO 67 0 min 0,000 mm 0,0 UV-I 0 W/m 3,1 C 0,5 C 11,3 km/h (2 Bft) 95,65 %
07.01.2018 04:54 3,5 C 4,4 C 98 % 1014,9 hPa 0,0 l/m 8,0 km/h (2 Bft) O-NO 67 0 min 0,000 mm 0,0 UV-I 0 W/m 3,2 C 2,0 C 9,7 km/h (2 Bft) 100,00 %
07.01.2018 04:55 3,5 C 4,4 C 98 % 1015,0 hPa 0,0 l/m 6,4 km/h (2 Bft) O-NO 67 0 min 0,000 mm 0,0 UV-I 0 W/m 3,2 C 3,5 C 9,7 km/h (2 Bft) 100,00 %
07.01.2018 04:56 3,5 C 4,4 C 98 % 1015,0 hPa 0,0 l/m 9,7 km/h (2 Bft) O-NO 67 0 min 0,000 mm 0,0 UV-I 0 W/m 3,2 C 0,6 C 12,9 km/h (3 Bft) 100,00 %
07.01.2018 04:57 3,4 C 4,4 C 98 % 1015,0 hPa 0,0 l/m 6,4 km/h (2 Bft) NO 45 0 min 0,000 mm 0,0 UV-I 0 W/m 3,1 C 3,4 C 9,7 km/h (2 Bft) 95,65 %
07.01.2018 04:58 3,4 C 4,4 C 98 % 1015,0 hPa 0,0 l/m 6,4 km/h (2 Bft) NO 45 0 min 0,000 mm 0,0 UV-I 0 W/m 3,1 C 3,4 C 8,0 km/h (2 Bft) 100,00 %
07.01.2018 04:59 3,4 C 4,4 C 98 % 1015,0 hPa 0,0 l/m 3,2 km/h (1 Bft) NO 45 0 min 0,000 mm 0,0 UV-I 0 W/m 3,1 C 3,4 C 6,4 km/h (2 Bft) 100,00 %
07.01.2018 05:00 3,4 C 4,4 C 98 % 1015,0 hPa 0,0 l/m 6,4 km/h (2 Bft) O-NO 67 0 min 0,000 mm 0,0 UV-I 0 W/m 3,1 C 3,4 C 8,0 km/h (2 Bft) 95,65 %
07.01.2018 05:01 3,4 C 4,4 C 98 % 1015,0 hPa 0,0 l/m 6,4 km/h (2 Bft) O-NO 67 0 min 0,000 mm 0,0 UV-I 0 W/m 3,1 C 3,4 C 8,0 km/h (2 Bft) 91,30 %
07.01.2018 05:02 3,5 C 4,4 C 98 % 1015,0 hPa 0,0 l/m 6,4 km/h (2 Bft) O-NO 67 0 min 0,000 mm 0,0 UV-I 0 W/m 3,2 C 3,5 C 9,7 km/h (2 Bft) 100,00 %
07.01.2018 05:03 3,5 C 4,4 C 98 % 1015,0 hPa 0,0 l/m 8,0 km/h (2 Bft) O-NO 67 0 min 0,000 mm 0,0 UV-I 0 W/m 3,2 C 2,0 C 12,9 km/h (3 Bft) 95,65 %
07.01.2018 05:04 3,5 C 4,4 C 98 % 1015,0 hPa 0,0 l/m 6,4 km/h (2 Bft) O 90 0 min 0,000 mm 0,0 UV-I 0 W/m 3,2 C 3,5 C 11,3 km/h (2 Bft) 100,00 %
07.01.2018 05:05 3,5 C 4,4 C 98 % 1015,0 hPa 0,0 l/m 6,4 km/h (2 Bft) O-NO 67 0 min 0,000 mm 0,0 UV-I 0 W/m 3,2 C 3,5 C 8,0 km/h (2 Bft) 95,65 %
07.01.2018 05:06 3,5 C 4,4 C 98 % 1015,0 hPa 0,0 l/m 8,0 km/h (2 Bft) O-NO 67 0 min 0,000 mm 0,0 UV-I 0 W/m 3,2 C 2,0 C 9,7 km/h (2 Bft) 100,00 %
07.01.2018 05:07 3,5 C 4,4 C 98 % 1014,9 hPa 0,0 l/m 4,8 km/h (1 Bft) O-NO 67 0 min 0,000 mm 0,0 UV-I 0 W/m 3,2 C 3,5 C 8,0 km/h (2 Bft) 91,30 %
07.01.2018 05:08 3,5 C 4,4 C 98 % 1014,9 hPa 0,0 l/m 6,4 km/h (2 Bft) O-NO 67 0 min 0,000 mm 0,0 UV-I 0 W/m 3,2 C 3,5 C 11,3 km/h (2 Bft) 100,00 %
07.01.2018 05:09 3,5 C 4,4 C 98 % 1015,0 hPa 0,0 l/m 6,4 km/h (2 Bft) O-NO 67 0 min 0,000 mm 0,0 UV-I 0 W/m 3,2 C 3,5 C 8,0 km/h (2 Bft) 100,00 %
07.01.2018 05:10 3,5 C 4,4 C 98 % 1015,0 hPa 0,0 l/m 6,4 km/h (2 Bft) O-NO 67 0 min 0,000 mm 0,0 UV-I 0 W/m 3,2 C 3,5 C 9,7 km/h (2 Bft) 100,00 %
07.01.2018 05:11 3,5 C 4,4 C 98 % 1015,0 hPa 0,0 l/m 8,0 km/h (2 Bft) O-NO 67 0 min 0,000 mm 0,0 UV-I 0 W/m 3,2 C 2,0 C 11,3 km/h (2 Bft) 100,00 %
07.01.2018 05:12 3,5 C 4,4 C 98 % 1015,0 hPa 0,0 l/m 8,0 km/h (2 Bft) O-NO 67 0 min 0,000 mm 0,0 UV-I 0 W/m 3,2 C 2,0 C 11,3 km/h (2 Bft) 100,00 %
07.01.2018 05:13 3,5 C 4,4 C 98 % 1015,1 hPa 0,0 l/m 8,0 km/h (2 Bft) O-NO 67 0 min 0,000 mm 0,0 UV-I 0 W/m 3,2 C 2,0 C 9,7 km/h (2 Bft) 95,65 %
07.01.2018 05:14 3,5 C 4,4 C 98 % 1015,1 hPa 0,0 l/m 4,8 km/h (1 Bft) O-NO 67 0 min 0,000 mm 0,0 UV-I 0 W/m 3,2 C 3,5 C 8,0 km/h (2 Bft) 91,30 %
07.01.2018 05:15 3,5 C 4,4 C 98 % 1015,1 hPa 0,0 l/m 9,7 km/h (2 Bft) O-NO 67 0 min 0,000 mm 0,0 UV-I 0 W/m 3,2 C 0,6 C 16,1 km/h (3 Bft) 100,00 %
07.01.2018 05:16 3,4 C 4,4 C 98 % 1015,0 hPa 0,0 l/m 11,3 km/h (2 Bft) O-NO 67 0 min 0,000 mm 0,0 UV-I 0 W/m 3,1 C -0,6 C 14,5 km/h (3 Bft) 95,65 %
07.01.2018 05:17 3,4 C 4,4 C 98 % 1015,1 hPa 0,0 l/m 6,4 km/h (2 Bft) O-NO 67 0 min 0,000 mm 0,0 UV-I 0 W/m 3,1 C 3,4 C 9,7 km/h (2 Bft) 100,00 %
07.01.2018 05:18 3,4 C 4,4 C 98 % 1015,1 hPa 0,0 l/m 8,0 km/h (2 Bft) O 90 0 min 0,000 mm 0,0 UV-I 0 W/m 3,1 C 1,9 C 12,9 km/h (3 Bft) 95,65 %
07.01.2018 05:19 3,4 C 4,4 C 98 % 1015,1 hPa 0,0 l/m 8,0 km/h (2 Bft) O-NO 67 0 min 0,000 mm 0,0 UV-I 0 W/m 3,1 C 1,9 C 11,3 km/h (2 Bft) 100,00 %
07.01.2018 05:20 3,4 C 4,4 C 98 % 1015,1 hPa 0,0 l/m 11,3 km/h (2 Bft) O-NO 67 0 min 0,000 mm 0,0 UV-I 0 W/m 3,1 C -0,6 C 16,1 km/h (3 Bft) 95,65 %
07.01.2018 05:21 3,4 C 4,4 C 98 % 1015,1 hPa 0,0 l/m 6,4 km/h (2 Bft) O 90 0 min 0,000 mm 0,0 UV-I 0 W/m 3,1 C 3,4 C 8,0 km/h (2 Bft) 95,65 %
07.01.2018 05:22 3,4 C 4,4 C 98 % 1015,2 hPa 0,0 l/m 6,4 km/h (2 Bft) O-NO 67 0 min 0,000 mm 0,0 UV-I 0 W/m 3,1 C 3,4 C 11,3 km/h (2 Bft) 95,65 %
07.01.2018 05:23 3,4 C 4,4 C 98 % 1015,2 hPa 0,0 l/m 8,0 km/h (2 Bft) O-NO 67 0 min 0,000 mm 0,0 UV-I 0 W/m 3,1 C 1,9 C 12,9 km/h (3 Bft) 100,00 %
07.01.2018 05:24 3,4 C 4,4 C 98 % 1015,2 hPa 0,0 l/m 6,4 km/h (2 Bft) NO 45 0 min 0,000 mm 0,0 UV-I 0 W/m 3,1 C 3,4 C 8,0 km/h (2 Bft) 95,65 %
07.01.2018 05:25 3,4 C 4,4 C 98 % 1015,2 hPa 0,0 l/m 8,0 km/h (2 Bft) O-NO 67 0 min 0,000 mm 0,0 UV-I 0 W/m 3,1 C 1,9 C 9,7 km/h (2 Bft) 95,65 %
07.01.2018 05:26 3,4 C 4,4 C 98 % 1015,2 hPa 0,0 l/m 8,0 km/h (2 Bft) NO 45 0 min 0,000 mm 0,0 UV-I 0 W/m 3,1 C 1,9 C 9,7 km/h (2 Bft) 95,65 %
07.01.2018 05:27 3,4 C 4,4 C 98 % 1015,2 hPa 0,0 l/m 8,0 km/h (2 Bft) O-NO 67 0 min 0,000 mm 0,0 UV-I 0 W/m 3,1 C 1,9 C 11,3 km/h (2 Bft) 95,65 %
07.01.2018 05:28 3,4 C 4,4 C 98 % 1015,2 hPa 0,0 l/m 6,4 km/h (2 Bft) O-NO 67 0 min 0,000 mm 0,0 UV-I 0 W/m 3,1 C 3,4 C 8,0 km/h (2 Bft) 95,65 %
07.01.2018 05:29 3,4 C 4,4 C 98 % 1015,2 hPa 0,0 l/m 4,8 km/h (1 Bft) O-NO 67 0 min 0,000 mm 0,0 UV-I 0 W/m 3,1 C 3,4 C 8,0 km/h (2 Bft) 95,65 %
07.01.2018 05:30 3,4 C 4,4 C 98 % 1015,3 hPa 0,0 l/m 11,3 km/h (2 Bft) O-NO 67 0 min 0,000 mm 0,0 UV-I 0 W/m 3,1 C -0,6 C 14,5 km/h (3 Bft) 100,00 %
07.01.2018 05:31 3,4 C 4,4 C 98 % 1015,2 hPa 0,0 l/m 11,3 km/h (2 Bft) O 90 0 min 0,000 mm 0,0 UV-I 0 W/m 3,1 C -0,6 C 14,5 km/h (3 Bft) 95,65 %
07.01.2018 05:32 3,3 C 4,4 C 98 % 1015,3 hPa 0,0 l/m 6,4 km/h (2 Bft) O-NO 67 0 min 0,000 mm 0,0 UV-I 0 W/m 3,0 C 3,3 C 12,9 km/h (3 Bft) 100,00 %
07.01.2018 05:33 3,3 C 4,4 C 98 % 1015,2 hPa 0,0 l/m 11,3 km/h (2 Bft) O-NO 67 0 min 0,000 mm 0,0 UV-I 0 W/m 3,0 C -0,7 C 14,5 km/h (3 Bft) 95,65 %
07.01.2018 05:34 3,3 C 4,4 C 98 % 1015,3 hPa 0,0 l/m 6,4 km/h (2 Bft) O-NO 67 0 min 0,000 mm 0,0 UV-I 0 W/m 3,0 C 3,3 C 8,0 km/h (2 Bft) 100,00 %
07.01.2018 05:35 3,3 C 4,4 C 98 % 1015,3 hPa 0,0 l/m 4,8 km/h (1 Bft) O-NO 67 0 min 0,000 mm 0,0 UV-I 0 W/m 3,0 C 3,3 C 9,7 km/h (2 Bft) 91,30 %
07.01.2018 05:36 3,3 C 4,4 C 98 % 1015,3 hPa 0,0 l/m 8,0 km/h (2 Bft) O-SO 112 0 min 0,000 mm 0,0 UV-I 0 W/m 3,0 C 1,8 C 11,3 km/h (2 Bft) 100,00 %
07.01.2018 05:37 3,3 C 4,4 C 98 % 1015,3 hPa 0,0 l/m 6,4 km/h (2 Bft) O 90 0 min 0,000 mm 0,0 UV-I 0 W/m 3,0 C 3,3 C 11,3 km/h (2 Bft) 95,65 %
07.01.2018 05:38 3,3 C 4,4 C 98 % 1015,3 hPa 0,0 l/m 9,7 km/h (2 Bft) O 90 0 min 0,000 mm 0,0 UV-I 0 W/m 3,0 C 0,4 C 12,9 km/h (3 Bft) 95,65 %
07.01.2018 05:39 3,3 C 4,4 C 98 % 1015,3 hPa 0,0 l/m 9,7 km/h (2 Bft) O-NO 67 0 min 0,000 mm 0,0 UV-I 0 W/m 3,0 C 0,4 C 14,5 km/h (3 Bft) 100,00 %
07.01.2018 05:40 3,3 C 4,4 C 98 % 1015,3 hPa 0,0 l/m 8,0 km/h (2 Bft) O-NO 67 0 min 0,000 mm 0,0 UV-I 0 W/m 3,0 C 1,8 C 9,7 km/h (2 Bft) 100,00 %
07.01.2018 05:41 3,3 C 4,4 C 98 % 1015,3 hPa 0,0 l/m 8,0 km/h (2 Bft) O 90 0 min 0,000 mm 0,0 UV-I 0 W/m 3,0 C 1,8 C 11,3 km/h (2 Bft) 95,65 %
07.01.2018 05:42 3,3 C 4,4 C 98 % 1015,3 hPa 0,0 l/m 6,4 km/h (2 Bft) O 90 0 min 0,000 mm 0,0 UV-I 0 W/m 3,0 C 3,3 C 8,0 km/h (2 Bft) 95,65 %
07.01.2018 05:43 3,3 C 4,4 C 98 % 1015,4 hPa 0,0 l/m 6,4 km/h (2 Bft) O-NO 67 0 min 0,000 mm 0,0 UV-I 0 W/m 3,0 C 3,3 C 9,7 km/h (2 Bft) 86,96 %
07.01.2018 05:44 3,3 C 4,4 C 98 % 1015,4 hPa 0,0 l/m 9,7 km/h (2 Bft) O-NO 67 0 min 0,000 mm 0,0 UV-I 0 W/m 3,0 C 0,4 C 12,9 km/h (3 Bft) 100,00 %
07.01.2018 05:45 3,3 C 4,4 C 98 % 1015,4 hPa 0,0 l/m 8,0 km/h (2 Bft) O 90 0 min 0,000 mm 0,0 UV-I 0 W/m 3,0 C 1,8 C 12,9 km/h (3 Bft) 100,00 %
07.01.2018 05:46 3,3 C 4,4 C 98 % 1015,5 hPa 0,0 l/m 4,8 km/h (1 Bft) O-SO 112 0 min 0,000 mm 0,0 UV-I 0 W/m 3,0 C 3,3 C 9,7 km/h (2 Bft) 100,00 %
07.01.2018 05:47 3,3 C 4,4 C 98 % 1015,5 hPa 0,0 l/m 9,7 km/h (2 Bft) O-NO 67 0 min 0,000 mm 0,0 UV-I 0 W/m 3,0 C 0,4 C 12,9 km/h (3 Bft) 100,00 %
07.01.2018 05:48 3,3 C 4,4 C 98 % 1015,5 hPa 0,0 l/m 11,3 km/h (2 Bft) O 90 0 min 0,000 mm 0,0 UV-I 0 W/m 3,0 C -0,7 C 12,9 km/h (3 Bft) 100,00 %
07.01.2018 05:49 3,3 C 4,4 C 98 % 1015,5 hPa 0,0 l/m 11,3 km/h (2 Bft) O 90 0 min 0,000 mm 0,0 UV-I 0 W/m 3,0 C -0,7 C 16,1 km/h (3 Bft) 95,65 %
07.01.2018 05:50 3,3 C 4,4 C 98 % 1015,5 hPa 0,0 l/m 11,3 km/h (2 Bft) O-NO 67 0 min 0,000 mm 0,0 UV-I 0 W/m 3,0 C -0,7 C 12,9 km/h (3 Bft) 100,00 %
07.01.2018 05:51 3,3 C 4,4 C 98 % 1015,5 hPa 0,0 l/m 8,0 km/h (2 Bft) O-NO 67 0 min 0,000 mm 0,0 UV-I 0 W/m 3,0 C 1,8 C 11,3 km/h (2 Bft) 95,65 %
07.01.2018 05:52 3,3 C 4,4 C 98 % 1015,6 hPa 0,0 l/m 8,0 km/h (2 Bft) O-NO 67 0 min 0,000 mm 0,0 UV-I 0 W/m 3,0 C 1,8 C 11,3 km/h (2 Bft) 100,00 %
07.01.2018 05:53 3,3 C 4,4 C 98 % 1015,6 hPa 0,0 l/m 8,0 km/h (2 Bft) O-NO 67 0 min 0,000 mm 0,0 UV-I 0 W/m 3,0 C 1,8 C 12,9 km/h (3 Bft) 100,00 %
07.01.2018 05:54 3,3 C 4,4 C 98 % 1015,6 hPa 0,0 l/m 4,8 km/h (1 Bft) O-NO 67 0 min 0,000 mm 0,0 UV-I 0 W/m 3,0 C 3,3 C 6,4 km/h (2 Bft) 100,00 %
07.01.2018 05:55 3,3 C 4,4 C 98 % 1015,6 hPa 0,0 l/m 8,0 km/h (2 Bft) O-NO 67 0 min 0,000 mm 0,0 UV-I 0 W/m 3,0 C 1,8 C 11,3 km/h (2 Bft) 100,00 %
07.01.2018 05:56 3,3 C 4,4 C 98 % 1015,6 hPa 0,0 l/m 4,8 km/h (1 Bft) NO 45 0 min 0,000 mm 0,0 UV-I 0 W/m 3,0 C 3,3 C 9,7 km/h (2 Bft) 95,65 %
07.01.2018 05:57 3,3 C 4,4 C 98 % 1015,6 hPa 0,0 l/m 8,0 km/h (2 Bft) O-NO 67 0 min 0,000 mm 0,0 UV-I 0 W/m 3,0 C 1,8 C 11,3 km/h (2 Bft) 95,65 %
07.01.2018 05:58 3,3 C 4,4 C 98 % 1015,6 hPa 0,0 l/m 8,0 km/h (2 Bft) O-NO 67 0 min 0,000 mm 0,0 UV-I 0 W/m 3,0 C 1,8 C 11,3 km/h (2 Bft) 91,30 %
07.01.2018 05:59 3,3 C 4,4 C 98 % 1015,6 hPa 0,0 l/m 6,4 km/h (2 Bft) O-NO 67 0 min 0,000 mm 0,0 UV-I 0 W/m 3,0 C 3,3 C 8,0 km/h (2 Bft) 95,65 %
07.01.2018 06:00 3,3 C 4,4 C 98 % 1015,7 hPa 0,0 l/m 6,4 km/h (2 Bft) O-NO 67 0 min 0,000 mm 0,0 UV-I 0 W/m 3,0 C 3,3 C 8,0 km/h (2 Bft) 100,00 %
07.01.2018 06:01 3,3 C 4,4 C 98 % 1015,6 hPa 0,0 l/m 6,4 km/h (2 Bft) O-NO 67 0 min 0,000 mm 0,0 UV-I 0 W/m 3,0 C 3,3 C 12,9 km/h (3 Bft) 100,00 %
07.01.2018 06:02 3,3 C 4,4 C 98 % 1015,7 hPa 0,0 l/m 8,0 km/h (2 Bft) O-NO 67 0 min 0,000 mm 0,0 UV-I 0 W/m 3,0 C 1,8 C 8,0 km/h (2 Bft) 100,00 %
07.01.2018 06:03 3,3 C 4,4 C 98 % 1015,7 hPa 0,0 l/m 4,8 km/h (1 Bft) O-NO 67 0 min 0,000 mm 0,0 UV-I 0 W/m 3,0 C 3,3 C 6,4 km/h (2 Bft) 95,65 %
07.01.2018 06:04 3,3 C 4,4 C 98 % 1015,7 hPa 0,0 l/m 3,2 km/h (1 Bft) O-NO 67 0 min 0,000 mm 0,0 UV-I 0 W/m 3,0 C 3,3 C 4,8 km/h (1 Bft) 100,00 %
07.01.2018 06:05 3,3 C 4,4 C 98 % 1015,7 hPa 0,0 l/m 4,8 km/h (1 Bft) O-NO 67 0 min 0,000 mm 0,0 UV-I 0 W/m 3,0 C 3,3 C 6,4 km/h (2 Bft) 95,65 %
07.01.2018 06:06 3,3 C 4,4 C 98 % 1015,7 hPa 0,0 l/m 6,4 km/h (2 Bft) O-NO 67 0 min 0,000 mm 0,0 UV-I 0 W/m 3,0 C 3,3 C 11,3 km/h (2 Bft) 100,00 %
07.01.2018 06:07 3,4 C 4,4 C 98 % 1015,7 hPa 0,0 l/m 9,7 km/h (2 Bft) NO 45 0 min 0,000 mm 0,0 UV-I 0 W/m 3,1 C 0,5 C 14,5 km/h (3 Bft) 95,65 %
07.01.2018 06:08 3,4 C 4,4 C 98 % 1015,7 hPa 0,0 l/m 9,7 km/h (2 Bft) O-NO 67 0 min 0,000 mm 0,0 UV-I 0 W/m 3,1 C 0,5 C 14,5 km/h (3 Bft) 100,00 %
07.01.2018 06:09 3,4 C 4,4 C 98 % 1015,7 hPa 0,0 l/m 9,7 km/h (2 Bft) O-NO 67 0 min 0,000 mm 0,0 UV-I 0 W/m 3,1 C 0,5 C 14,5 km/h (3 Bft) 100,00 %
07.01.2018 06:10 3,4 C 4,4 C 98 % 1015,7 hPa 0,0 l/m 8,0 km/h (2 Bft) O-NO 67 0 min 0,000 mm 0,0 UV-I 0 W/m 3,1 C 1,9 C 16,1 km/h (3 Bft) 95,65 %
07.01.2018 06:11 3,3 C 4,4 C 98 % 1015,7 hPa 0,0 l/m 11,3 km/h (2 Bft) O-NO 67 0 min 0,000 mm 0,0 UV-I 0 W/m 3,0 C -0,7 C 16,1 km/h (3 Bft) 100,00 %
07.01.2018 06:12 3,4 C 4,4 C 98 % 1015,7 hPa 0,0 l/m 8,0 km/h (2 Bft) O-NO 67 0 min 0,000 mm 0,0 UV-I 0 W/m 3,1 C 1,9 C 12,9 km/h (3 Bft) 100,00 %
07.01.2018 06:13 3,4 C 4,4 C 98 % 1015,7 hPa 0,0 l/m 11,3 km/h (2 Bft) O-NO 67 0 min 0,000 mm 0,0 UV-I 0 W/m 3,1 C -0,6 C 14,5 km/h (3 Bft) 100,00 %
07.01.2018 06:14 3,4 C 4,4 C 98 % 1015,7 hPa 0,0 l/m 9,7 km/h (2 Bft) O-NO 67 0 min 0,000 mm 0,0 UV-I 0 W/m 3,1 C 0,5 C 12,9 km/h (3 Bft) 100,00 %
07.01.2018 06:15 3,4 C 4,4 C 98 % 1015,7 hPa 0,0 l/m 8,0 km/h (2 Bft) O-NO 67 0 min 0,000 mm 0,0 UV-I 0 W/m 3,1 C 1,9 C 12,9 km/h (3 Bft) 100,00 %
07.01.2018 06:16 3,4 C 4,4 C 98 % 1015,7 hPa 0,0 l/m 8,0 km/h (2 Bft) O-NO 67 0 min 0,000 mm 0,0 UV-I 0 W/m 3,1 C 1,9 C 11,3 km/h (2 Bft) 95,65 %
07.01.2018 06:17 3,4 C 4,4 C 98 % 1015,7 hPa 0,0 l/m 6,4 km/h (2 Bft) O-NO 67 0 min 0,000 mm 0,0 UV-I 0 W/m 3,1 C 3,4 C 9,7 km/h (2 Bft) 95,65 %
07.01.2018 06:18 3,4 C 4,4 C 98 % 1015,7 hPa 0,0 l/m 8,0 km/h (2 Bft) O-NO 67 0 min 0,000 mm 0,0 UV-I 0 W/m 3,1 C 1,9 C 11,3 km/h (2 Bft) 95,65 %
07.01.2018 06:19 3,4 C 4,4 C 98 % 1015,7 hPa 0,0 l/m 4,8 km/h (1 Bft) NO 45 0 min 0,000 mm 0,0 UV-I 0 W/m 3,1 C 3,4 C 6,4 km/h (2 Bft) 95,65 %
07.01.2018 06:20 3,4 C 4,4 C 98 % 1015,8 hPa 0,0 l/m 6,4 km/h (2 Bft) NO 45 0 min 0,000 mm 0,0 UV-I 0 W/m 3,1 C 3,4 C 11,3 km/h (2 Bft) 95,65 %
07.01.2018 06:21 3,4 C 4,4 C 98 % 1015,8 hPa 0,0 l/m 6,4 km/h (2 Bft) O-NO 67 0 min 0,000 mm 0,0 UV-I 0 W/m 3,1 C 3,4 C 9,7 km/h (2 Bft) 95,65 %
07.01.2018 06:22 3,4 C 4,4 C 98 % 1015,8 hPa 0,0 l/m 8,0 km/h (2 Bft) NO 45 0 min 0,000 mm 0,0 UV-I 0 W/m 3,1 C 1,9 C 11,3 km/h (2 Bft) 100,00 %
07.01.2018 06:23 3,4 C 4,4 C 98 % 1015,9 hPa 0,0 l/m 9,7 km/h (2 Bft) NO 45 0 min 0,000 mm 0,0 UV-I 0 W/m 3,1 C 0,5 C 16,1 km/h (3 Bft) 95,65 %
07.01.2018 06:24 3,4 C 4,4 C 98 % 1015,9 hPa 0,0 l/m 9,7 km/h (2 Bft) NO 45 0 min 0,000 mm 0,0 UV-I 0 W/m 3,1 C 0,5 C 14,5 km/h (3 Bft) 95,65 %
07.01.2018 06:25 3,4 C 4,4 C 98 % 1015,9 hPa 0,0 l/m 8,0 km/h (2 Bft) NO 45 0 min 0,000 mm 0,0 UV-I 0 W/m 3,1 C 1,9 C 9,7 km/h (2 Bft) 95,65 %
07.01.2018 06:26 3,4 C 4,4 C 98 % 1015,9 hPa 0,0 l/m 9,7 km/h (2 Bft) NO 45 0 min 0,000 mm 0,0 UV-I 0 W/m 3,1 C 0,5 C 11,3 km/h (2 Bft) 100,00 %
07.01.2018 06:27 3,4 C 4,4 C 98 % 1015,9 hPa 0,0 l/m 8,0 km/h (2 Bft) N-NO 22 0 min 0,000 mm 0,0 UV-I 0 W/m 3,1 C 1,9 C 12,9 km/h (3 Bft) 91,30 %
07.01.2018 06:28 3,4 C 4,4 C 98 % 1015,9 hPa 0,0 l/m 6,4 km/h (2 Bft) N-NO 22 0 min 0,000 mm 0,0 UV-I 0 W/m 3,1 C 3,4 C 11,3 km/h (2 Bft) 95,65 %
07.01.2018 06:29 3,4 C 4,4 C 98 % 1015,9 hPa 0,0 l/m 8,0 km/h (2 Bft) NO 45 0 min 0,000 mm 0,0 UV-I 0 W/m 3,1 C 1,9 C 11,3 km/h (2 Bft) 100,00 %
07.01.2018 06:30 3,4 C 4,4 C 98 % 1016,0 hPa 0,0 l/m 8,0 km/h (2 Bft) NO 45 0 min 0,000 mm 0,0 UV-I 0 W/m 3,1 C 1,9 C 9,7 km/h (2 Bft) 91,30 %
07.01.2018 06:31 3,4 C 4,4 C 98 % 1016,1 hPa 0,0 l/m 8,0 km/h (2 Bft) NO 45 0 min 0,000 mm 0,0 UV-I 0 W/m 3,1 C 1,9 C 12,9 km/h (3 Bft) 95,65 %
07.01.2018 06:32 3,4 C 4,4 C 98 % 1016,1 hPa 0,0 l/m 8,0 km/h (2 Bft) NO 45 0 min 0,000 mm 0,0 UV-I 0 W/m 3,1 C 1,9 C 9,7 km/h (2 Bft) 91,30 %
07.01.2018 06:33 3,4 C 4,4 C 98 % 1016,1 hPa 0,0 l/m 6,4 km/h (2 Bft) NO 45 0 min 0,000 mm 0,0 UV-I 0 W/m 3,1 C 3,4 C 9,7 km/h (2 Bft) 100,00 %
07.01.2018 06:34 3,4 C 4,4 C 98 % 1016,1 hPa 0,0 l/m 6,4 km/h (2 Bft) N-NO 22 0 min 0,000 mm 0,0 UV-I 0 W/m 3,1 C 3,4 C 8,0 km/h (2 Bft) 91,30 %
07.01.2018 06:35 3,4 C 4,4 C 98 % 1016,1 hPa 0,0 l/m 6,4 km/h (2 Bft) NO 45 0 min 0,000 mm 0,0 UV-I 0 W/m 3,1 C 3,4 C 8,0 km/h (2 Bft) 100,00 %
07.01.2018 06:36 3,4 C 4,4 C 98 % 1016,1 hPa 0,0 l/m 12,9 km/h (3 Bft) NO 45 0 min 0,000 mm 0,0 UV-I 0 W/m 3,1 C -1,7 C 16,1 km/h (3 Bft) 95,65 %
07.01.2018 06:37 3,3 C 4,4 C 98 % 1016,1 hPa 0,0 l/m 8,0 km/h (2 Bft) NO 45 0 min 0,000 mm 0,0 UV-I 0 W/m 3,0 C 1,8 C 11,3 km/h (2 Bft) 91,30 %
07.01.2018 06:38 3,3 C 4,4 C 98 % 1016,1 hPa 0,0 l/m 9,7 km/h (2 Bft) O-NO 67 0 min 0,000 mm 0,0 UV-I 0 W/m 3,0 C 0,4 C 14,5 km/h (3 Bft) 95,65 %
07.01.2018 06:39 3,3 C 4,4 C 98 % 1016,1 hPa 0,0 l/m 9,7 km/h (2 Bft) NO 45 0 min 0,000 mm 0,0 UV-I 0 W/m 3,0 C 0,4 C 14,5 km/h (3 Bft) 91,30 %
07.01.2018 06:40 3,3 C 4,4 C 98 % 1016,1 hPa 0,0 l/m 11,3 km/h (2 Bft) O-NO 67 0 min 0,000 mm 0,0 UV-I 0 W/m 3,0 C -0,7 C 14,5 km/h (3 Bft) 100,00 %
07.01.2018 06:41 3,3 C 4,4 C 98 % 1016,1 hPa 0,0 l/m 8,0 km/h (2 Bft) NO 45 0 min 0,000 mm 0,0 UV-I 0 W/m 3,0 C 1,8 C 11,3 km/h (2 Bft) 86,96 %
07.01.2018 06:42 3,3 C 4,4 C 98 % 1016,1 hPa 0,0 l/m 9,7 km/h (2 Bft) NO 45 0 min 0,000 mm 0,0 UV-I 0 W/m 3,0 C 0,4 C 11,3 km/h (2 Bft) 100,00 %
07.01.2018 06:43 3,3 C 4,4 C 98 % 1016,1 hPa 0,0 l/m 8,0 km/h (2 Bft) NO 45 0 min 0,000 mm 0,0 UV-I 0 W/m 3,0 C 1,8 C 12,9 km/h (3 Bft) 91,30 %
07.01.2018 06:44 3,3 C 4,4 C 98 % 1016,1 hPa 0,0 l/m 6,4 km/h (2 Bft) NO 45 0 min 0,000 mm 0,0 UV-I 0 W/m 3,0 C 3,3 C 14,5 km/h (3 Bft) 100,00 %
07.01.2018 06:45 3,3 C 4,4 C 98 % 1016,1 hPa 0,0 l/m 9,7 km/h (2 Bft) NO 45 0 min 0,000 mm 0,0 UV-I 0 W/m 3,0 C 0,4 C 14,5 km/h (3 Bft) 86,96 %
07.01.2018 06:46 3,3 C 4,4 C 98 % 1016,2 hPa 0,0 l/m 12,9 km/h (3 Bft) NO 45 0 min 0,000 mm 0,0 UV-I 0 W/m 3,0 C -1,8 C 17,7 km/h (3 Bft) 95,65 %
07.01.2018 06:47 3,3 C 4,4 C 98 % 1016,2 hPa 0,0 l/m 12,9 km/h (3 Bft) NO 45 0 min 0,000 mm 0,0 UV-I 0 W/m 3,0 C -1,8 C 14,5 km/h (3 Bft) 95,65 %
07.01.2018 06:48 3,3 C 4,4 C 98 % 1016,2 hPa 0,0 l/m 12,9 km/h (3 Bft) O-NO 67 0 min 0,000 mm 0,0 UV-I 0 W/m 3,0 C -1,8 C 16,1 km/h (3 Bft) 91,30 %
07.01.2018 06:49 3,3 C 4,4 C 98 % 1016,2 hPa 0,0 l/m 11,3 km/h (2 Bft) NO 45 0 min 0,000 mm 0,0 UV-I 0 W/m 3,0 C -0,7 C 16,1 km/h (3 Bft) 100,00 %
07.01.2018 06:50 3,3 C 4,4 C 98 % 1016,3 hPa 0,0 l/m 14,5 km/h (3 Bft) O-NO 67 0 min 0,000 mm 0,0 UV-I 0 W/m 3,0 C -2,7 C 17,7 km/h (3 Bft) 91,30 %
07.01.2018 06:51 3,3 C 4,4 C 98 % 1016,2 hPa 0,0 l/m 16,1 km/h (3 Bft) O-NO 67 0 min 0,000 mm 0,0 UV-I 0 W/m 3,0 C -3,6 C 19,3 km/h (3 Bft) 100,00 %
07.01.2018 06:52 3,3 C 4,4 C 98 % 1016,2 hPa 0,0 l/m 14,5 km/h (3 Bft) NO 45 0 min 0,000 mm 0,0 UV-I 0 W/m 3,0 C -2,7 C 19,3 km/h (3 Bft) 86,96 %
07.01.2018 06:53 3,3 C 4,4 C 98 % 1016,3 hPa 0,0 l/m 12,9 km/h (3 Bft) O-NO 67 0 min 0,000 mm 0,0 UV-I 0 W/m 3,0 C -1,8 C 17,7 km/h (3 Bft) 100,00 %
07.01.2018 06:54 3,3 C 4,4 C 98 % 1016,2 hPa 0,0 l/m 16,1 km/h (3 Bft) O-NO 67 0 min 0,000 mm 0,0 UV-I 0 W/m 3,0 C -3,6 C 19,3 km/h (3 Bft) 95,65 %
07.01.2018 06:55 3,3 C 4,4 C 98 % 1016,3 hPa 0,0 l/m 11,3 km/h (2 Bft) O-NO 67 0 min 0,000 mm 0,0 UV-I 0 W/m 3,0 C -0,7 C 16,1 km/h (3 Bft) 100,00 %
07.01.2018 06:56 3,3 C 4,4 C 98 % 1016,3 hPa 0,0 l/m 12,9 km/h (3 Bft) O-NO 67 0 min 0,000 mm 0,0 UV-I 0 W/m 3,0 C -1,8 C 17,7 km/h (3 Bft) 95,65 %
07.01.2018 06:57 3,3 C 4,4 C 98 % 1016,3 hPa 0,0 l/m 11,3 km/h (2 Bft) O-NO 67 0 min 0,000 mm 0,0 UV-I 0 W/m 3,0 C -0,7 C 14,5 km/h (3 Bft) 95,65 %
07.01.2018 06:58 3,3 C 4,4 C 98 % 1016,3 hPa 0,0 l/m 9,7 km/h (2 Bft) O-NO 67 0 min 0,000 mm 0,0 UV-I 0 W/m 3,0 C 0,4 C 14,5 km/h (3 Bft) 91,30 %
07.01.2018 06:59 3,3 C 4,4 C 98 % 1016,4 hPa 0,0 l/m 11,3 km/h (2 Bft) O-NO 67 0 min 0,000 mm 0,0 UV-I 0 W/m 3,0 C -0,7 C 16,1 km/h (3 Bft) 95,65 %
07.01.2018 07:00 3,3 C 4,4 C 98 % 1016,4 hPa 0,0 l/m 11,3 km/h (2 Bft) O-NO 67 0 min 0,000 mm 0,0 UV-I 0 W/m 3,0 C -0,7 C 14,5 km/h (3 Bft) 95,65 %
07.01.2018 07:01 3,3 C 4,4 C 98 % 1016,4 hPa 0,0 l/m 11,3 km/h (2 Bft) NO 45 0 min 0,000 mm 0,0 UV-I 0 W/m 3,0 C -0,7 C 14,5 km/h (3 Bft) 100,00 %
07.01.2018 07:02 3,3 C 4,4 C 98 % 1016,4 hPa 0,0 l/m 11,3 km/h (2 Bft) O-NO 67 0 min 0,000 mm 0,0 UV-I 0 W/m 3,0 C -0,7 C 16,1 km/h (3 Bft) 100,00 %
07.01.2018 07:03 3,3 C 4,4 C 98 % 1016,5 hPa 0,0 l/m 9,7 km/h (2 Bft) NO 45 0 min 0,000 mm 0,0 UV-I 0 W/m 3,0 C 0,4 C 14,5 km/h (3 Bft) 100,00 %
07.01.2018 07:04 3,3 C 4,4 C 98 % 1016,5 hPa 0,0 l/m 11,3 km/h (2 Bft) O-NO 67 0 min 0,000 mm 0,0 UV-I 0 W/m 3,0 C -0,7 C 16,1 km/h (3 Bft) 100,00 %
07.01.2018 07:05 3,3 C 4,4 C 98 % 1016,5 hPa 0,0 l/m 11,3 km/h (2 Bft) O-NO 67 0 min 0,000 mm 0,0 UV-I 0 W/m 3,0 C -0,7 C 14,5 km/h (3 Bft) 100,00 %
07.01.2018 07:06 3,3 C 4,4 C 98 % 1016,6 hPa 0,0 l/m 9,7 km/h (2 Bft) O-NO 67 0 min 0,000 mm 0,0 UV-I 0 W/m 3,0 C 0,4 C 14,5 km/h (3 Bft) 95,65 %
07.01.2018 07:07 3,3 C 4,4 C 98 % 1016,6 hPa 0,0 l/m 9,7 km/h (2 Bft) O-SO 112 0 min 0,000 mm 0,0 UV-I 0 W/m 3,0 C 0,4 C 11,3 km/h (2 Bft) 100,00 %
07.01.2018 07:08 3,3 C 4,4 C 98 % 1016,6 hPa 0,0 l/m 8,0 km/h (2 Bft) O 90 0 min 0,000 mm 0,0 UV-I 0 W/m 3,0 C 1,8 C 11,3 km/h (2 Bft) 100,00 %
07.01.2018 07:09 3,3 C 4,4 C 98 % 1016,7 hPa 0,0 l/m 8,0 km/h (2 Bft) O 90 0 min 0,000 mm 0,0 UV-I 0 W/m 3,0 C 1,8 C 11,3 km/h (2 Bft) 100,00 %
07.01.2018 07:10 3,3 C 4,4 C 98 % 1016,7 hPa 0,0 l/m 6,4 km/h (2 Bft) O 90 0 min 0,000 mm 0,0 UV-I 0 W/m 3,0 C 3,3 C 9,7 km/h (2 Bft) 95,65 %
07.01.2018 07:11 3,3 C 4,4 C 98 % 1016,7 hPa 0,0 l/m 6,4 km/h (2 Bft) O-NO 67 0 min 0,000 mm 0,0 UV-I 0 W/m 3,0 C 3,3 C 12,9 km/h (3 Bft) 100,00 %
07.01.2018 07:12 3,3 C 4,4 C 98 % 1016,7 hPa 0,0 l/m 8,0 km/h (2 Bft) O-NO 67 0 min 0,000 mm 0,0 UV-I 0 W/m 3,0 C 1,8 C 11,3 km/h (2 Bft) 100,00 %
07.01.2018 07:13 3,3 C 4,4 C 98 % 1016,7 hPa 0,0 l/m 6,4 km/h (2 Bft) O-NO 67 0 min 0,000 mm 0,0 UV-I 0 W/m 3,0 C 3,3 C 11,3 km/h (2 Bft) 95,65 %
07.01.2018 07:14 3,3 C 4,4 C 98 % 1016,7 hPa 0,0 l/m 4,8 km/h (1 Bft) O-NO 67 0 min 0,000 mm 0,0 UV-I 0 W/m 3,0 C 3,3 C 8,0 km/h (2 Bft) 100,00 %
07.01.2018 07:15 3,3 C 4,4 C 98 % 1016,6 hPa 0,0 l/m 8,0 km/h (2 Bft) O-NO 67 0 min 0,000 mm 0,0 UV-I 0 W/m 3,0 C 1,8 C 11,3 km/h (2 Bft) 95,65 %
07.01.2018 07:16 3,3 C 4,4 C 98 % 1016,7 hPa 0,0 l/m 8,0 km/h (2 Bft) O-NO 67 0 min 0,000 mm 0,0 UV-I 0 W/m 3,0 C 1,8 C 9,7 km/h (2 Bft) 100,00 %
07.01.2018 07:17 3,3 C 4,4 C 98 % 1016,7 hPa 0,0 l/m 8,0 km/h (2 Bft) O-NO 67 0 min 0,000 mm 0,0 UV-I 0 W/m 3,0 C 1,8 C 11,3 km/h (2 Bft) 100,00 %
07.01.2018 07:18 3,4 C 4,4 C 98 % 1016,7 hPa 0,2 l/m 9,7 km/h (2 Bft) O-NO 67 0 min 0,000 mm 0,0 UV-I 0 W/m 3,1 C 0,5 C 12,9 km/h (3 Bft) 100,00 %
07.01.2018 07:19 3,4 C 4,4 C 98 % 1016,7 hPa 0,0 l/m 8,0 km/h (2 Bft) NO 45 0 min 0,000 mm 0,0 UV-I 0 W/m 3,1 C 1,9 C 11,3 km/h (2 Bft) 100,00 %
07.01.2018 07:20 3,4 C 4,4 C 98 % 1016,7 hPa 0,0 l/m 6,4 km/h (2 Bft) NO 45 0 min 0,000 mm 0,0 UV-I 0 W/m 3,1 C 3,4 C 9,7 km/h (2 Bft) 95,65 %
07.01.2018 07:21 3,4 C 4,4 C 98 % 1016,7 hPa 0,0 l/m 8,0 km/h (2 Bft) NO 45 0 min 0,000 mm 0,0 UV-I 0 W/m 3,1 C 1,9 C 9,7 km/h (2 Bft) 100,00 %
07.01.2018 07:22 3,4 C 4,4 C 98 % 1016,7 hPa 0,0 l/m 8,0 km/h (2 Bft) NO 45 0 min 0,000 mm 0,0 UV-I 0 W/m 3,1 C 1,9 C 9,7 km/h (2 Bft) 100,00 %
07.01.2018 07:23 3,4 C 4,4 C 98 % 1016,7 hPa 0,0 l/m 8,0 km/h (2 Bft) NO 45 0 min 0,000 mm 0,0 UV-I 0 W/m 3,1 C 1,9 C 12,9 km/h (3 Bft) 95,65 %
07.01.2018 07:24 3,4 C 4,4 C 98 % 1016,7 hPa 0,0 l/m 9,7 km/h (2 Bft) N-NO 22 0 min 0,000 mm 0,0 UV-I 0 W/m 3,1 C 0,5 C 16,1 km/h (3 Bft) 100,00 %
07.01.2018 07:25 3,3 C 4,4 C 98 % 1016,7 hPa 0,0 l/m 11,3 km/h (2 Bft) NO 45 0 min 0,000 mm 0,0 UV-I 0 W/m 3,0 C -0,7 C 16,1 km/h (3 Bft) 95,65 %
07.01.2018 07:26 3,3 C 4,4 C 98 % 1016,7 hPa 0,0 l/m 9,7 km/h (2 Bft) NO 45 0 min 0,000 mm 0,0 UV-I 0 W/m 3,0 C 0,4 C 16,1 km/h (3 Bft) 100,00 %
07.01.2018 07:27 3,3 C 4,4 C 98 % 1016,7 hPa 0,0 l/m 8,0 km/h (2 Bft) NO 45 0 min 0,000 mm 0,0 UV-I 0 W/m 3,0 C 1,8 C 12,9 km/h (3 Bft) 95,65 %
07.01.2018 07:28 3,3 C 4,4 C 98 % 1016,7 hPa 0,0 l/m 8,0 km/h (2 Bft) O-NO 67 0 min 0,000 mm 0,0 UV-I 0 W/m 3,0 C 1,8 C 11,3 km/h (2 Bft) 100,00 %
07.01.2018 07:29 3,3 C 4,4 C 98 % 1016,7 hPa 0,0 l/m 6,4 km/h (2 Bft) O-NO 67 0 min 0,000 mm 0,0 UV-I 0 W/m 3,0 C 3,3 C 9,7 km/h (2 Bft) 100,00 %
07.01.2018 07:30 3,3 C 4,4 C 98 % 1016,7 hPa 0,0 l/m 8,0 km/h (2 Bft) O-NO 67 0 min 0,000 mm 0,0 UV-I 0 W/m 3,0 C 1,8 C 14,5 km/h (3 Bft) 100,00 %
07.01.2018 07:31 3,3 C 4,4 C 98 % 1016,8 hPa 0,0 l/m 8,0 km/h (2 Bft) O-NO 67 0 min 0,000 mm 0,0 UV-I 0 W/m 3,0 C 1,8 C 11,3 km/h (2 Bft) 95,65 %
07.01.2018 07:32 3,3 C 4,4 C 98 % 1016,8 hPa 0,0 l/m 8,0 km/h (2 Bft) O-NO 67 0 min 0,000 mm 0,0 UV-I 0 W/m 3,0 C 1,8 C 11,3 km/h (2 Bft) 100,00 %
07.01.2018 07:33 3,3 C 4,4 C 98 % 1016,8 hPa 0,0 l/m 8,0 km/h (2 Bft) NO 45 0 min 0,000 mm 0,0 UV-I 0 W/m 3,0 C 1,8 C 11,3 km/h (2 Bft) 100,00 %
07.01.2018 07:34 3,3 C 4,4 C 98 % 1016,8 hPa 0,0 l/m 6,4 km/h (2 Bft) O-NO 67 0 min 0,000 mm 0,0 UV-I 0 W/m 3,0 C 3,3 C 9,7 km/h (2 Bft) 95,65 %
07.01.2018 07:35 3,3 C 4,4 C 98 % 1016,9 hPa 0,0 l/m 6,4 km/h (2 Bft) O-NO 67 0 min 0,000 mm 0,0 UV-I 0 W/m 3,0 C 3,3 C 8,0 km/h (2 Bft) 95,65 %
07.01.2018 07:36 3,3 C 4,4 C 98 % 1016,9 hPa 0,0 l/m 6,4 km/h (2 Bft) O-NO 67 0 min 0,000 mm 0,0 UV-I 0 W/m 3,0 C 3,3 C 8,0 km/h (2 Bft) 95,65 %
07.01.2018 07:37 3,3 C 4,4 C 98 % 1017,0 hPa 0,0 l/m 8,0 km/h (2 Bft) O-NO 67 0 min 0,000 mm 0,0 UV-I 5 W/m 3,0 C 1,8 C 11,3 km/h (2 Bft) 100,00 %
07.01.2018 07:38 3,3 C 4,4 C 98 % 1017,0 hPa 0,0 l/m 8,0 km/h (2 Bft) O-NO 67 0 min 0,000 mm 0,0 UV-I 5 W/m 3,0 C 1,8 C 12,9 km/h (3 Bft) 95,65 %
07.01.2018 07:39 3,3 C 4,4 C 98 % 1017,0 hPa 0,0 l/m 9,7 km/h (2 Bft) NO 45 0 min 0,000 mm 0,0 UV-I 5 W/m 3,0 C 0,4 C 14,5 km/h (3 Bft) 100,00 %
07.01.2018 07:40 3,3 C 4,4 C 98 % 1017,0 hPa 0,0 l/m 11,3 km/h (2 Bft) O-NO 67 0 min 0,000 mm 0,0 UV-I 5 W/m 3,0 C -0,7 C 16,1 km/h (3 Bft) 100,00 %
07.01.2018 07:41 3,4 C 4,4 C 98 % 1017,0 hPa 0,0 l/m 11,3 km/h (2 Bft) O-NO 67 0 min 0,000 mm 0,0 UV-I 5 W/m 3,1 C -0,6 C 14,5 km/h (3 Bft) 95,65 %
07.01.2018 07:42 3,4 C 4,4 C 98 % 1017,0 hPa 0,0 l/m 12,9 km/h (3 Bft) O-NO 67 0 min 0,000 mm 0,0 UV-I 5 W/m 3,1 C -1,7 C 16,1 km/h (3 Bft) 100,00 %
07.01.2018 07:43 3,4 C 4,4 C 98 % 1017,1 hPa 0,0 l/m 12,9 km/h (3 Bft) O-NO 67 0 min 0,000 mm 0,0 UV-I 5 W/m 3,1 C -1,7 C 17,7 km/h (3 Bft) 100,00 %
07.01.2018 07:44 3,4 C 4,4 C 98 % 1017,1 hPa 0,0 l/m 11,3 km/h (2 Bft) O-NO 67 0 min 0,000 mm 0,0 UV-I 5 W/m 3,1 C -0,6 C 16,1 km/h (3 Bft) 100,00 %
07.01.2018 07:45 3,4 C 4,4 C 98 % 1017,2 hPa 0,0 l/m 9,7 km/h (2 Bft) O-NO 67 0 min 0,000 mm 0,0 UV-I 5 W/m 3,1 C 0,5 C 11,3 km/h (2 Bft) 100,00 %
07.01.2018 07:46 3,4 C 4,4 C 98 % 1017,2 hPa 0,0 l/m 9,7 km/h (2 Bft) O-NO 67 0 min 0,000 mm 0,0 UV-I 5 W/m 3,1 C 0,5 C 12,9 km/h (3 Bft) 100,00 %
07.01.2018 07:47 3,4 C 4,4 C 98 % 1017,3 hPa 0,0 l/m 6,4 km/h (2 Bft) NO 45 0 min 0,000 mm 0,0 UV-I 5 W/m 3,1 C 3,4 C 9,7 km/h (2 Bft) 100,00 %
07.01.2018 07:48 3,4 C 4,4 C 98 % 1017,3 hPa 0,0 l/m 6,4 km/h (2 Bft) O-NO 67 0 min 0,000 mm 0,0 UV-I 5 W/m 3,1 C 3,4 C 9,7 km/h (2 Bft) 95,65 %
07.01.2018 07:49 3,4 C 4,4 C 98 % 1017,3 hPa 0,0 l/m 4,8 km/h (1 Bft) O-NO 67 0 min 0,000 mm 0,0 UV-I 5 W/m 3,1 C 3,4 C 6,4 km/h (2 Bft) 100,00 %
07.01.2018 07:50 3,4 C 4,4 C 98 % 1017,3 hPa 0,0 l/m 8,0 km/h (2 Bft) NO 45 0 min 0,000 mm 0,0 UV-I 5 W/m 3,1 C 1,9 C 11,3 km/h (2 Bft) 100,00 %
07.01.2018 07:51 3,5 C 4,4 C 98 % 1017,3 hPa 0,0 l/m 8,0 km/h (2 Bft) NO 45 0 min 0,000 mm 0,0 UV-I 5 W/m 3,2 C 2,0 C 9,7 km/h (2 Bft) 100,00 %
07.01.2018 07:52 3,5 C 4,4 C 98 % 1017,3 hPa 0,0 l/m 6,4 km/h (2 Bft) NO 45 0 min 0,000 mm 0,0 UV-I 5 W/m 3,2 C 3,5 C 8,0 km/h (2 Bft) 100,00 %
07.01.2018 07:53 3,5 C 4,4 C 98 % 1017,3 hPa 0,0 l/m 8,0 km/h (2 Bft) NO 45 0 min 0,000 mm 0,0 UV-I 5 W/m 3,2 C 2,0 C 9,7 km/h (2 Bft) 100,00 %
07.01.2018 07:54 3,5 C 4,4 C 98 % 1017,3 hPa 0,0 l/m 4,8 km/h (1 Bft) N-NO 22 0 min 0,000 mm 0,0 UV-I 5 W/m 3,2 C 3,5 C 8,0 km/h (2 Bft) 100,00 %
07.01.2018 07:55 3,5 C 4,4 C 98 % 1017,3 hPa 0,0 l/m 8,0 km/h (2 Bft) N-NO 22 0 min 0,000 mm 0,0 UV-I 5 W/m 3,2 C 2,0 C 9,7 km/h (2 Bft) 91,30 %
07.01.2018 07:56 3,5 C 4,4 C 98 % 1017,4 hPa 0,0 l/m 6,4 km/h (2 Bft) NO 45 0 min 0,000 mm 0,0 UV-I 5 W/m 3,2 C 3,5 C 8,0 km/h (2 Bft) 100,00 %
07.01.2018 07:57 3,4 C 4,4 C 98 % 1017,4 hPa 0,0 l/m 8,0 km/h (2 Bft) N-NO 22 0 min 0,000 mm 0,0 UV-I 5 W/m 3,1 C 1,9 C 9,7 km/h (2 Bft) 100,00 %
07.01.2018 07:58 3,4 C 4,4 C 98 % 1017,4 hPa 0,0 l/m 8,0 km/h (2 Bft) NO 45 0 min 0,000 mm 0,0 UV-I 5 W/m 3,1 C 1,9 C 9,7 km/h (2 Bft) 95,65 %
07.01.2018 07:59 3,4 C 4,4 C 98 % 1017,4 hPa 0,0 l/m 6,4 km/h (2 Bft) NO 45 0 min 0,000 mm 0,0 UV-I 5 W/m 3,1 C 3,4 C 9,7 km/h (2 Bft) 100,00 %
07.01.2018 08:00 3,4 C 4,4 C 98 % 1017,4 hPa 0,0 l/m 6,4 km/h (2 Bft) NO 45 0 min 0,000 mm 0,0 UV-I 6 W/m 3,1 C 3,4 C 8,0 km/h (2 Bft) 95,65 %
07.01.2018 08:01 3,4 C 4,4 C 98 % 1017,4 hPa 0,0 l/m 4,8 km/h (1 Bft) N-NO 22 0 min 0,000 mm 0,0 UV-I 7 W/m 3,1 C 3,4 C 8,0 km/h (2 Bft) 95,65 %
07.01.2018 08:02 3,4 C 4,4 C 98 % 1017,5 hPa 0,0 l/m 6,4 km/h (2 Bft) N-NO 22 0 min 0,000 mm 0,0 UV-I 7 W/m 3,1 C 3,4 C 8,0 km/h (2 Bft) 86,96 %
07.01.2018 08:03 3,4 C 4,4 C 98 % 1017,5 hPa 0,0 l/m 6,4 km/h (2 Bft) NO 45 0 min 0,000 mm 0,0 UV-I 7 W/m 3,1 C 3,4 C 9,7 km/h (2 Bft) 100,00 %
07.01.2018 08:04 3,4 C 4,4 C 98 % 1017,5 hPa 0,0 l/m 6,4 km/h (2 Bft) NO 45 0 min 0,000 mm 0,0 UV-I 7 W/m 3,1 C 3,4 C 8,0 km/h (2 Bft) 95,65 %
07.01.2018 08:05 3,4 C 4,4 C 98 % 1017,5 hPa 0,0 l/m 6,4 km/h (2 Bft) N-NO 22 0 min 0,000 mm 0,0 UV-I 7 W/m 3,1 C 3,4 C 8,0 km/h (2 Bft) 100,00 %
07.01.2018 08:06 3,4 C 4,4 C 98 % 1017,5 hPa 0,0 l/m 4,8 km/h (1 Bft) NO 45 0 min 0,000 mm 0,0 UV-I 7 W/m 3,1 C 3,4 C 8,0 km/h (2 Bft) 95,65 %
07.01.2018 08:07 3,4 C 4,4 C 98 % 1017,5 hPa 0,0 l/m 6,4 km/h (2 Bft) N-NO 22 0 min 0,000 mm 0,0 UV-I 9 W/m 3,1 C 3,4 C 8,0 km/h (2 Bft) 91,30 %
07.01.2018 08:08 3,4 C 4,4 C 98 % 1017,5 hPa 0,0 l/m 8,0 km/h (2 Bft) N-NO 22 0 min 0,000 mm 0,0 UV-I 9 W/m 3,1 C 1,9 C 9,7 km/h (2 Bft) 100,00 %
07.01.2018 08:09 3,4 C 4,4 C 98 % 1017,6 hPa 0,0 l/m 4,8 km/h (1 Bft) N-NO 22 0 min 0,000 mm 0,0 UV-I 7 W/m 3,1 C 3,4 C 6,4 km/h (2 Bft) 91,30 %
07.01.2018 08:10 3,4 C 4,4 C 98 % 1017,5 hPa 0,0 l/m 3,2 km/h (1 Bft) N-NO 22 0 min 0,000 mm 0,0 UV-I 9 W/m 3,1 C 3,4 C 4,8 km/h (1 Bft) 100,00 %
07.01.2018 08:11 3,4 C 4,4 C 98 % 1017,6 hPa 0,0 l/m 1,6 km/h (1 Bft) N-NO 22 0 min 0,000 mm 0,0 UV-I 9 W/m 3,1 C 3,4 C 6,4 km/h (2 Bft) 95,65 %
07.01.2018 08:12 3,4 C 4,4 C 98 % 1017,6 hPa 0,0 l/m 4,8 km/h (1 Bft) N-NO 22 0 min 0,000 mm 0,0 UV-I 9 W/m 3,1 C 3,4 C 6,4 km/h (2 Bft) 95,65 %
07.01.2018 08:13 3,4 C 4,4 C 98 % 1017,5 hPa 0,0 l/m 4,8 km/h (1 Bft) N-NO 22 0 min 0,000 mm 0,0 UV-I 9 W/m 3,1 C 3,4 C 8,0 km/h (2 Bft) 95,65 %
07.01.2018 08:14 3,4 C 4,4 C 98 % 1017,6 hPa 0,0 l/m 3,2 km/h (1 Bft) N-NO 22 0 min 0,000 mm 0,0 UV-I 9 W/m 3,1 C 3,4 C 4,8 km/h (1 Bft) 95,65 %
07.01.2018 08:15 3,4 C 4,4 C 98 % 1017,6 hPa 0,0 l/m 4,8 km/h (1 Bft) N-NO 22 0 min 0,000 mm 0,0 UV-I 9 W/m 3,1 C 3,4 C 9,7 km/h (2 Bft) 95,65 %
07.01.2018 08:16 3,4 C 4,4 C 98 % 1017,7 hPa 0,0 l/m 4,8 km/h (1 Bft) N-NO 22 0 min 0,000 mm 0,0 UV-I 11 W/m 3,1 C 3,4 C 6,4 km/h (2 Bft) 95,65 %
07.01.2018 08:17 3,4 C 4,4 C 98 % 1017,8 hPa 0,0 l/m 4,8 km/h (1 Bft) N 360 0 min 0,000 mm 0,0 UV-I 11 W/m 3,1 C 3,4 C 9,7 km/h (2 Bft) 95,65 %
07.01.2018 08:18 3,3 C 4,4 C 98 % 1017,8 hPa 0,0 l/m 3,2 km/h (1 Bft) N 360 0 min 0,000 mm 0,0 UV-I 11 W/m 3,0 C 3,3 C 6,4 km/h (2 Bft) 100,00 %
07.01.2018 08:19 3,3 C 4,4 C 98 % 1017,9 hPa 0,0 l/m 3,2 km/h (1 Bft) N 360 0 min 0,000 mm 0,0 UV-I 11 W/m 3,0 C 3,3 C 6,4 km/h (2 Bft) 95,65 %
07.01.2018 08:20 3,4 C 4,4 C 98 % 1017,9 hPa 0,0 l/m 6,4 km/h (2 Bft) N-NO 22 0 min 0,000 mm 0,0 UV-I 11 W/m 3,1 C 3,4 C 8,0 km/h (2 Bft) 95,65 %
07.01.2018 08:21 3,4 C 4,4 C 98 % 1017,9 hPa 0,0 l/m 3,2 km/h (1 Bft) N-NO 22 0 min 0,000 mm 0,0 UV-I 11 W/m 3,1 C 3,4 C 6,4 km/h (2 Bft) 91,30 %
07.01.2018 08:22 3,4 C 4,4 C 98 % 1017,9 hPa 0,0 l/m 6,4 km/h (2 Bft) N 360 0 min 0,000 mm 0,0 UV-I 11 W/m 3,1 C 3,4 C 11,3 km/h (2 Bft) 100,00 %
07.01.2018 08:23 3,3 C 4,4 C 98 % 1017,9 hPa 0,0 l/m 1,6 km/h (1 Bft) N-NO 22 0 min 0,000 mm 0,0 UV-I 11 W/m 3,0 C 3,3 C 3,2 km/h (1 Bft) 91,30 %
07.01.2018 08:24 3,4 C 4,4 C 98 % 1018,0 hPa 0,0 l/m 4,8 km/h (1 Bft) N-NO 22 0 min 0,000 mm 0,0 UV-I 9 W/m 3,1 C 3,4 C 6,4 km/h (2 Bft) 100,00 %
07.01.2018 08:25 3,3 C 4,4 C 98 % 1018,0 hPa 0,0 l/m 4,8 km/h (1 Bft) N-NO 22 0 min 0,000 mm 0,0 UV-I 9 W/m 3,0 C 3,3 C 4,8 km/h (1 Bft) 95,65 %
07.01.2018 08:26 3,3 C 4,4 C 98 % 1018,0 hPa 0,0 l/m 1,6 km/h (1 Bft) N-NO 22 0 min 0,000 mm 0,0 UV-I 9 W/m 3,0 C 3,3 C 4,8 km/h (1 Bft) 100,00 %
07.01.2018 08:27 3,3 C 4,4 C 98 % 1018,1 hPa 0,0 l/m 1,6 km/h (1 Bft) N-NO 22 0 min 0,000 mm 0,0 UV-I 9 W/m 3,0 C 3,3 C 1,6 km/h (1 Bft) 95,65 %
07.01.2018 08:28 3,3 C 4,4 C 98 % 1018,2 hPa 0,0 l/m 4,8 km/h (1 Bft) N-NO 22 0 min 0,000 mm 0,0 UV-I 11 W/m 3,0 C 3,3 C 6,4 km/h (2 Bft) 100,00 %
07.01.2018 08:29 3,4 C 4,4 C 98 % 1018,2 hPa 0,0 l/m 3,2 km/h (1 Bft) N-NO 22 0 min 0,000 mm 0,0 UV-I 11 W/m 3,1 C 3,4 C 4,8 km/h (1 Bft) 95,65 %
07.01.2018 08:30 3,4 C 4,4 C 98 % 1018,2 hPa 0,0 l/m 3,2 km/h (1 Bft) N 360 0 min 0,000 mm 0,0 UV-I 12 W/m 3,1 C 3,4 C 4,8 km/h (1 Bft) 91,30 %
07.01.2018 08:31 3,4 C 4,4 C 98 % 1018,2 hPa 0,0 l/m 1,6 km/h (1 Bft) N-NO 22 0 min 0,000 mm 0,0 UV-I 12 W/m 3,1 C 3,4 C 4,8 km/h (1 Bft) 100,00 %
07.01.2018 08:32 3,4 C 4,4 C 98 % 1018,3 hPa 0,0 l/m 0,0 km/h (0 Bft) N-NO 22 0 min 0,000 mm 0,0 UV-I 12 W/m 3,1 C 3,4 C 1,6 km/h (1 Bft) 91,30 %
07.01.2018 08:33 3,4 C 4,4 C 98 % 1018,3 hPa 0,0 l/m 3,2 km/h (1 Bft) N-NO 22 0 min 0,000 mm 0,0 UV-I 14 W/m 3,1 C 3,4 C 4,8 km/h (1 Bft) 100,00 %
07.01.2018 08:34 3,4 C 4,4 C 98 % 1018,3 hPa 0,0 l/m 4,8 km/h (1 Bft) N-NO 22 0 min 0,000 mm 0,0 UV-I 12 W/m 3,1 C 3,4 C 6,4 km/h (2 Bft) 95,65 %
07.01.2018 08:35 3,3 C 4,4 C 98 % 1018,3 hPa 0,0 l/m 4,8 km/h (1 Bft) N-NO 22 0 min 0,000 mm 0,0 UV-I 14 W/m 3,0 C 3,3 C 6,4 km/h (2 Bft) 100,00 %
07.01.2018 08:36 3,3 C 4,4 C 98 % 1018,3 hPa 0,0 l/m 3,2 km/h (1 Bft) N-NO 22 0 min 0,000 mm 0,0 UV-I 14 W/m 3,0 C 3,3 C 4,8 km/h (1 Bft) 95,65 %
07.01.2018 08:37 3,3 C 4,4 C 98 % 1018,4 hPa 0,0 l/m 4,8 km/h (1 Bft) N-NO 22 0 min 0,000 mm 0,0 UV-I 14 W/m 3,0 C 3,3 C 6,4 km/h (2 Bft) 91,30 %
07.01.2018 08:38 3,3 C 4,4 C 98 % 1018,4 hPa 0,0 l/m 3,2 km/h (1 Bft) N-NO 22 0 min 0,000 mm 0,0 UV-I 12 W/m 3,0 C 3,3 C 6,4 km/h (2 Bft) 95,65 %
07.01.2018 08:39 3,4 C 4,4 C 98 % 1018,4 hPa 0,0 l/m 3,2 km/h (1 Bft) N-NO 22 0 min 0,000 mm 0,0 UV-I 14 W/m 3,1 C 3,4 C 6,4 km/h (2 Bft) 91,30 %
07.01.2018 08:40 3,4 C 4,4 C 98 % 1018,5 hPa 0,0 l/m 4,8 km/h (1 Bft) N-NO 22 0 min 0,000 mm 0,0 UV-I 14 W/m 3,1 C 3,4 C 6,4 km/h (2 Bft) 100,00 %
07.01.2018 08:41 3,4 C 4,4 C 98 % 1018,5 hPa 0,0 l/m 4,8 km/h (1 Bft) N-NO 22 0 min 0,000 mm 0,0 UV-I 14 W/m 3,1 C 3,4 C 6,4 km/h (2 Bft) 95,65 %
07.01.2018 08:42 3,4 C 4,4 C 98 % 1018,6 hPa 0,0 l/m 4,8 km/h (1 Bft) N-NO 22 0 min 0,000 mm 0,0 UV-I 14 W/m 3,1 C 3,4 C 6,4 km/h (2 Bft) 95,65 %
07.01.2018 08:43 3,4 C 4,4 C 98 % 1018,5 hPa 0,0 l/m 4,8 km/h (1 Bft) N-NO 22 0 min 0,000 mm 0,0 UV-I 16 W/m 3,1 C 3,4 C 6,4 km/h (2 Bft) 95,65 %
07.01.2018 08:44 3,4 C 4,4 C 98 % 1018,5 hPa 0,0 l/m 4,8 km/h (1 Bft) N-NO 22 0 min 0,000 mm 0,0 UV-I 16 W/m 3,1 C 3,4 C 6,4 km/h (2 Bft) 91,30 %
07.01.2018 08:45 3,4 C 4,4 C 98 % 1018,5 hPa 0,0 l/m 4,8 km/h (1 Bft) N-NO 22 0 min 0,000 mm 0,0 UV-I 16 W/m 3,1 C 3,4 C 6,4 km/h (2 Bft) 95,65 %
07.01.2018 08:46 3,4 C 4,4 C 98 % 1018,4 hPa 0,0 l/m 6,4 km/h (2 Bft) N-NO 22 0 min 0,000 mm 0,0 UV-I 18 W/m 3,1 C 3,4 C 8,0 km/h (2 Bft) 95,65 %
07.01.2018 08:47 3,4 C 4,4 C 98 % 1018,4 hPa 0,0 l/m 6,4 km/h (2 Bft) NO 45 0 min 0,000 mm 0,0 UV-I 18 W/m 3,1 C 3,4 C 8,0 km/h (2 Bft) 95,65 %
07.01.2018 08:48 3,4 C 4,4 C 98 % 1018,4 hPa 0,0 l/m 6,4 km/h (2 Bft) NO 45 0 min 0,000 mm 0,0 UV-I 14 W/m 3,1 C 3,4 C 8,0 km/h (2 Bft) 95,65 %
07.01.2018 08:49 3,4 C 4,4 C 98 % 1018,3 hPa 0,0 l/m 4,8 km/h (1 Bft) NO 45 0 min 0,000 mm 0,0 UV-I 14 W/m 3,1 C 3,4 C 6,4 km/h (2 Bft) 100,00 %
07.01.2018 08:50 3,3 C 4,4 C 98 % 1018,4 hPa 0,0 l/m 6,4 km/h (2 Bft) NO 45 0 min 0,000 mm 0,0 UV-I 18 W/m 3,0 C 3,3 C 8,0 km/h (2 Bft) 95,65 %
07.01.2018 08:51 3,4 C 4,4 C 98 % 1018,3 hPa 0,0 l/m 4,8 km/h (1 Bft) N-NO 22 0 min 0,000 mm 0,0 UV-I 18 W/m 3,1 C 3,4 C 8,0 km/h (2 Bft) 100,00 %
07.01.2018 08:52 3,4 C 4,4 C 98 % 1018,4 hPa 0,0 l/m 6,4 km/h (2 Bft) NO 45 0 min 0,000 mm 0,0 UV-I 18 W/m 3,1 C 3,4 C 8,0 km/h (2 Bft) 91,30 %
07.01.2018 08:53 3,4 C 4,4 C 98 % 1018,4 hPa 0,0 l/m 6,4 km/h (2 Bft) NO 45 0 min 0,000 mm 0,0 UV-I 18 W/m 3,1 C 3,4 C 9,7 km/h (2 Bft) 100,00 %
07.01.2018 08:54 3,3 C 4,4 C 98 % 1018,5 hPa 0,0 l/m 4,8 km/h (1 Bft) NO 45 0 min 0,000 mm 0,0 UV-I 19 W/m 3,0 C 3,3 C 6,4 km/h (2 Bft) 95,65 %
07.01.2018 08:55 3,3 C 4,4 C 98 % 1018,4 hPa 0,0 l/m 4,8 km/h (1 Bft) N-NO 22 0 min 0,000 mm 0,0 UV-I 19 W/m 3,0 C 3,3 C 8,0 km/h (2 Bft) 100,00 %
07.01.2018 08:56 3,3 C 4,4 C 98 % 1018,4 hPa 0,0 l/m 6,4 km/h (2 Bft) N-NO 22 0 min 0,000 mm 0,0 UV-I 19 W/m 3,0 C 3,3 C 8,0 km/h (2 Bft) 100,00 %
07.01.2018 08:57 3,4 C 4,4 C 98 % 1018,4 hPa 0,0 l/m 4,8 km/h (1 Bft) NO 45 0 min 0,000 mm 0,0 UV-I 18 W/m 3,1 C 3,4 C 8,0 km/h (2 Bft) 100,00 %
07.01.2018 08:58 3,4 C 4,4 C 98 % 1018,3 hPa 0,0 l/m 6,4 km/h (2 Bft) NO 45 0 min 0,000 mm 0,0 UV-I 21 W/m 3,1 C 3,4 C 8,0 km/h (2 Bft) 95,65 %
07.01.2018 08:59 3,4 C 4,4 C 98 % 1018,3 hPa 0,0 l/m 8,0 km/h (2 Bft) NO 45 0 min 0,000 mm 0,0 UV-I 21 W/m 3,1 C 1,9 C 14,5 km/h (3 Bft) 100,00 %
07.01.2018 09:00 3,4 C 4,4 C 98 % 1018,3 hPa 0,0 l/m 8,0 km/h (2 Bft) NO 45 0 min 0,000 mm 0,0 UV-I 25 W/m 3,1 C 1,9 C 11,3 km/h (2 Bft) 95,65 %
07.01.2018 09:01 3,4 C 4,4 C 98 % 1018,2 hPa 0,0 l/m 8,0 km/h (2 Bft) O-NO 67 0 min 0,000 mm 0,0 UV-I 23 W/m 3,1 C 1,9 C 9,7 km/h (2 Bft) 100,00 %
07.01.2018 09:02 3,4 C 4,4 C 98 % 1018,2 hPa 0,0 l/m 6,4 km/h (2 Bft) NO 45 0 min 0,000 mm 0,0 UV-I 25 W/m 3,1 C 3,4 C 12,9 km/h (3 Bft) 100,00 %
07.01.2018 09:03 3,4 C 4,4 C 98 % 1018,1 hPa 0,0 l/m 11,3 km/h (2 Bft) O-NO 67 0 min 0,000 mm 0,0 UV-I 25 W/m 3,1 C -0,6 C 14,5 km/h (3 Bft) 100,00 %
07.01.2018 09:04 3,4 C 4,4 C 98 % 1018,1 hPa 0,0 l/m 8,0 km/h (2 Bft) NO 45 0 min 0,000 mm 0,0 UV-I 26 W/m 3,1 C 1,9 C 12,9 km/h (3 Bft) 95,65 %
07.01.2018 09:05 3,4 C 4,4 C 98 % 1018,1 hPa 0,0 l/m 6,4 km/h (2 Bft) NO 45 0 min 0,000 mm 0,0 UV-I 28 W/m 3,1 C 3,4 C 9,7 km/h (2 Bft) 95,65 %
07.01.2018 09:06 3,4 C 4,4 C 98 % 1018,1 hPa 0,0 l/m 6,4 km/h (2 Bft) NO 45 0 min 0,000 mm 0,0 UV-I 26 W/m 3,1 C 3,4 C 9,7 km/h (2 Bft) 100,00 %
07.01.2018 09:07 3,4 C 4,4 C 98 % 1018,2 hPa 0,0 l/m 6,4 km/h (2 Bft) O-NO 67 0 min 0,000 mm 0,0 UV-I 26 W/m 3,1 C 3,4 C 12,9 km/h (3 Bft) 100,00 %
07.01.2018 09:08 3,4 C 4,4 C 98 % 1018,2 hPa 0,0 l/m 9,7 km/h (2 Bft) O-NO 67 0 min 0,000 mm 0,0 UV-I 28 W/m 3,1 C 0,5 C 14,5 km/h (3 Bft) 100,00 %
07.01.2018 09:09 3,4 C 4,4 C 98 % 1018,3 hPa 0,0 l/m 8,0 km/h (2 Bft) NO 45 0 min 0,000 mm 0,0 UV-I 28 W/m 3,1 C 1,9 C 11,3 km/h (2 Bft) 95,65 %
07.01.2018 09:10 3,4 C 4,4 C 98 % 1018,2 hPa 0,0 l/m 8,0 km/h (2 Bft) NO 45 0 min 0,000 mm 0,0 UV-I 30 W/m 3,1 C 1,9 C 9,7 km/h (2 Bft) 100,00 %
07.01.2018 09:11 3,4 C 4,4 C 98 % 1018,3 hPa 0,0 l/m 8,0 km/h (2 Bft) NO 45 0 min 0,000 mm 0,0 UV-I 30 W/m 3,1 C 1,9 C 11,3 km/h (2 Bft) 100,00 %
07.01.2018 09:12 3,5 C 4,4 C 98 % 1018,3 hPa 0,0 l/m 6,4 km/h (2 Bft) NO 45 0 min 0,000 mm 0,0 UV-I 30 W/m 3,2 C 3,5 C 8,0 km/h (2 Bft) 91,30 %
07.01.2018 09:13 3,5 C 4,4 C 98 % 1018,4 hPa 0,0 l/m 4,8 km/h (1 Bft) NO 45 0 min 0,000 mm 0,0 UV-I 30 W/m 3,2 C 3,5 C 6,4 km/h (2 Bft) 100,00 %
07.01.2018 09:14 3,5 C 4,4 C 98 % 1018,3 hPa 0,0 l/m 4,8 km/h (1 Bft) O-NO 67 0 min 0,000 mm 0,0 UV-I 30 W/m 3,2 C 3,5 C 6,4 km/h (2 Bft) 95,65 %
07.01.2018 09:15 3,5 C 4,4 C 98 % 1018,3 hPa 0,0 l/m 6,4 km/h (2 Bft) O-NO 67 0 min 0,000 mm 0,0 UV-I 32 W/m 3,2 C 3,5 C 8,0 km/h (2 Bft) 100,00 %
07.01.2018 09:16 3,5 C 4,4 C 98 % 1018,3 hPa 0,0 l/m 6,4 km/h (2 Bft) NO 45 0 min 0,000 mm 0,0 UV-I 35 W/m 3,2 C 3,5 C 9,7 km/h (2 Bft) 100,00 %
07.01.2018 09:17 3,5 C 4,4 C 98 % 1018,4 hPa 0,0 l/m 6,4 km/h (2 Bft) O-NO 67 0 min 0,000 mm 0,0 UV-I 39 W/m 3,2 C 3,5 C 8,0 km/h (2 Bft) 95,65 %
07.01.2018 09:18 3,4 C 4,4 C 98 % 1018,3 hPa 0,0 l/m 9,7 km/h (2 Bft) NO 45 0 min 0,000 mm 0,0 UV-I 40 W/m 3,1 C 0,5 C 12,9 km/h (3 Bft) 100,00 %
07.01.2018 09:19 3,4 C 4,4 C 98 % 1018,4 hPa 0,0 l/m 8,0 km/h (2 Bft) O-NO 67 0 min 0,000 mm 0,0 UV-I 42 W/m 3,1 C 1,9 C 12,9 km/h (3 Bft) 95,65 %
07.01.2018 09:20 3,4 C 4,4 C 98 % 1018,4 hPa 0,0 l/m 6,4 km/h (2 Bft) O-NO 67 0 min 0,000 mm 0,0 UV-I 42 W/m 3,1 C 3,4 C 8,0 km/h (2 Bft) 100,00 %
07.01.2018 09:21 3,4 C 4,4 C 98 % 1018,4 hPa 0,0 l/m 8,0 km/h (2 Bft) O-NO 67 0 min 0,000 mm 0,0 UV-I 42 W/m 3,1 C 1,9 C 12,9 km/h (3 Bft) 95,65 %
07.01.2018 09:22 3,4 C 4,4 C 98 % 1018,4 hPa 0,0 l/m 8,0 km/h (2 Bft) NO 45 0 min 0,000 mm 0,0 UV-I 42 W/m 3,1 C 1,9 C 11,3 km/h (2 Bft) 100,00 %
07.01.2018 09:23 3,4 C 4,4 C 98 % 1018,4 hPa 0,0 l/m 8,0 km/h (2 Bft) NO 45 0 min 0,000 mm 0,0 UV-I 40 W/m 3,1 C 1,9 C 14,5 km/h (3 Bft) 95,65 %
07.01.2018 09:24 3,4 C 4,4 C 98 % 1018,5 hPa 0,0 l/m 11,3 km/h (2 Bft) O-NO 67 0 min 0,000 mm 0,0 UV-I 39 W/m 3,1 C -0,6 C 16,1 km/h (3 Bft) 100,00 %
07.01.2018 09:25 3,3 C 4,4 C 98 % 1018,4 hPa 0,0 l/m 9,7 km/h (2 Bft) O-NO 67 0 min 0,000 mm 0,0 UV-I 40 W/m 3,0 C 0,4 C 12,9 km/h (3 Bft) 95,65 %
07.01.2018 09:26 3,3 C 4,4 C 98 % 1018,4 hPa 0,0 l/m 14,5 km/h (3 Bft) O-NO 67 0 min 0,000 mm 0,0 UV-I 46 W/m 3,0 C -2,7 C 17,7 km/h (3 Bft) 95,65 %
07.01.2018 09:27 3,3 C 4,4 C 98 % 1018,4 hPa 0,0 l/m 11,3 km/h (2 Bft) O-NO 67 0 min 0,000 mm 0,0 UV-I 46 W/m 3,0 C -0,7 C 16,1 km/h (3 Bft) 95,65 %
07.01.2018 09:28 3,3 C 4,4 C 98 % 1018,4 hPa 0,0 l/m 9,7 km/h (2 Bft) O-NO 67 0 min 0,000 mm 0,0 UV-I 48 W/m 3,0 C 0,4 C 14,5 km/h (3 Bft) 91,30 %
07.01.2018 09:29 3,3 C 4,4 C 98 % 1018,4 hPa 0,0 l/m 12,9 km/h (3 Bft) O-NO 67 0 min 0,000 mm 0,0 UV-I 49 W/m 3,0 C -1,8 C 16,1 km/h (3 Bft) 100,00 %
07.01.2018 09:30 3,3 C 4,4 C 98 % 1018,4 hPa 0,0 l/m 9,7 km/h (2 Bft) O 90 0 min 0,000 mm 0,0 UV-I 47 W/m 3,0 C 0,4 C 12,9 km/h (3 Bft) 95,65 %
07.01.2018 09:31 3,3 C 4,4 C 98 % 1018,5 hPa 0,0 l/m 6,4 km/h (2 Bft) O-NO 67 0 min 0,000 mm 0,0 UV-I 49 W/m 3,0 C 3,3 C 9,7 km/h (2 Bft) 100,00 %
07.01.2018 09:32 3,3 C 4,4 C 98 % 1018,5 hPa 0,0 l/m 8,0 km/h (2 Bft) O-NO 67 0 min 0,000 mm 0,0 UV-I 51 W/m 3,0 C 1,8 C 12,9 km/h (3 Bft) 95,65 %
07.01.2018 09:33 3,3 C 4,4 C 98 % 1018,5 hPa 0,0 l/m 8,0 km/h (2 Bft) O-NO 67 0 min 0,000 mm 0,0 UV-I 53 W/m 3,0 C 1,8 C 11,3 km/h (2 Bft) 91,30 %
07.01.2018 09:34 3,3 C 4,4 C 98 % 1018,5 hPa 0,0 l/m 8,0 km/h (2 Bft) O 90 0 min 0,000 mm 0,0 UV-I 53 W/m 3,0 C 1,8 C 12,9 km/h (3 Bft) 95,65 %
07.01.2018 09:35 3,3 C 4,4 C 98 % 1018,4 hPa 0,0 l/m 9,7 km/h (2 Bft) O-NO 67 0 min 0,000 mm 0,0 UV-I 53 W/m 3,0 C 0,4 C 12,9 km/h (3 Bft) 100,00 %
07.01.2018 09:36 3,3 C 4,4 C 98 % 1018,4 hPa 0,0 l/m 11,3 km/h (2 Bft) O 90 0 min 0,000 mm 0,0 UV-I 49 W/m 3,0 C -0,7 C 14,5 km/h (3 Bft) 95,65 %
07.01.2018 09:37 3,3 C 4,4 C 98 % 1018,5 hPa 0,0 l/m 8,0 km/h (2 Bft) O-NO 67 0 min 0,000 mm 0,0 UV-I 44 W/m 3,0 C 1,8 C 12,9 km/h (3 Bft) 100,00 %
07.01.2018 09:38 3,3 C 4,4 C 98 % 1018,5 hPa 0,0 l/m 9,7 km/h (2 Bft) O-NO 67 0 min 0,000 mm 0,0 UV-I 44 W/m 3,0 C 0,4 C 14,5 km/h (3 Bft) 95,65 %
07.01.2018 09:39 3,3 C 4,4 C 98 % 1018,5 hPa 0,0 l/m 11,3 km/h (2 Bft) O-NO 67 0 min 0,000 mm 0,0 UV-I 53 W/m 3,0 C -0,7 C 16,1 km/h (3 Bft) 100,00 %
07.01.2018 09:40 3,3 C 4,4 C 98 % 1018,5 hPa 0,0 l/m 11,3 km/h (2 Bft) O-NO 67 0 min 0,000 mm 0,0 UV-I 54 W/m 3,0 C -0,7 C 14,5 km/h (3 Bft) 86,96 %
07.01.2018 09:41 3,3 C 4,4 C 98 % 1018,5 hPa 0,0 l/m 8,0 km/h (2 Bft) O-NO 67 0 min 0,000 mm 0,0 UV-I 56 W/m 3,0 C 1,8 C 12,9 km/h (3 Bft) 100,00 %
07.01.2018 09:42 3,3 C 4,4 C 98 % 1018,5 hPa 0,0 l/m 11,3 km/h (2 Bft) NO 45 0 min 0,000 mm 0,0 UV-I 58 W/m 3,0 C -0,7 C 14,5 km/h (3 Bft) 95,65 %
07.01.2018 09:43 3,3 C 4,4 C 98 % 1018,5 hPa 0,0 l/m 9,7 km/h (2 Bft) O-NO 67 0 min 0,000 mm 0,0 UV-I 58 W/m 3,0 C 0,4 C 11,3 km/h (2 Bft) 100,00 %
07.01.2018 09:44 3,3 C 4,4 C 98 % 1018,5 hPa 0,0 l/m 9,7 km/h (2 Bft) NO 45 0 min 0,000 mm 0,0 UV-I 58 W/m 3,0 C 0,4 C 16,1 km/h (3 Bft) 100,00 %
07.01.2018 09:45 3,3 C 4,4 C 98 % 1018,5 hPa 0,0 l/m 8,0 km/h (2 Bft) NO 45 0 min 0,000 mm 0,0 UV-I 59 W/m 3,0 C 1,8 C 9,7 km/h (2 Bft) 100,00 %
07.01.2018 09:46 3,4 C 4,4 C 98 % 1018,5 hPa 0,0 l/m 9,7 km/h (2 Bft) NO 45 0 min 0,000 mm 0,0 UV-I 58 W/m 3,1 C 0,5 C 14,5 km/h (3 Bft) 100,00 %
07.01.2018 09:47 3,4 C 4,4 C 98 % 1018,5 hPa 0,0 l/m 9,7 km/h (2 Bft) O-NO 67 0 min 0,000 mm 0,0 UV-I 60 W/m 3,1 C 0,5 C 12,9 km/h (3 Bft) 95,65 %
07.01.2018 09:48 3,4 C 4,4 C 98 % 1018,5 hPa 0,0 l/m 8,0 km/h (2 Bft) N-NO 22 0 min 0,000 mm 0,0 UV-I 62 W/m 3,1 C 1,9 C 14,5 km/h (3 Bft) 100,00 %
07.01.2018 09:49 3,4 C 4,4 C 98 % 1018,5 hPa 0,0 l/m 9,7 km/h (2 Bft) NO 45 0 min 0,000 mm 0,0 UV-I 65 W/m 3,1 C 0,5 C 14,5 km/h (3 Bft) 100,00 %
07.01.2018 09:50 3,4 C 4,4 C 98 % 1018,5 hPa 0,0 l/m 8,0 km/h (2 Bft) O-NO 67 0 min 0,000 mm 0,0 UV-I 62 W/m 3,1 C 1,9 C 11,3 km/h (2 Bft) 100,00 %
07.01.2018 09:51 3,4 C 4,4 C 98 % 1018,5 hPa 0,0 l/m 11,3 km/h (2 Bft) NO 45 0 min 0,000 mm 0,0 UV-I 62 W/m 3,1 C -0,6 C 14,5 km/h (3 Bft) 100,00 %
07.01.2018 09:52 3,4 C 4,4 C 98 % 1018,5 hPa 0,0 l/m 11,3 km/h (2 Bft) NO 45 0 min 0,000 mm 0,0 UV-I 60 W/m 3,1 C -0,6 C 14,5 km/h (3 Bft) 95,65 %
07.01.2018 09:53 3,5 C 4,4 C 98 % 1018,6 hPa 0,0 l/m 9,7 km/h (2 Bft) NO 45 0 min 0,000 mm 0,0 UV-I 62 W/m 3,2 C 0,6 C 14,5 km/h (3 Bft) 100,00 %
07.01.2018 09:54 3,6 C 4,4 C 98 % 1018,6 hPa 0,0 l/m 8,0 km/h (2 Bft) NO 45 0 min 0,000 mm 0,0 UV-I 58 W/m 3,3 C 2,1 C 12,9 km/h (3 Bft) 95,65 %
07.01.2018 09:55 3,5 C 4,4 C 98 % 1018,6 hPa 0,0 l/m 8,0 km/h (2 Bft) NO 45 0 min 0,000 mm 0,0 UV-I 58 W/m 3,2 C 2,0 C 11,3 km/h (2 Bft) 95,65 %
07.01.2018 09:56 3,4 C 4,4 C 98 % 1018,6 hPa 0,0 l/m 6,4 km/h (2 Bft) NO 45 0 min 0,000 mm 0,0 UV-I 62 W/m 3,1 C 3,4 C 8,0 km/h (2 Bft) 100,00 %
07.01.2018 09:57 3,4 C 4,4 C 98 % 1018,6 hPa 0,0 l/m 8,0 km/h (2 Bft) NO 45 0 min 0,000 mm 0,0 UV-I 55 W/m 3,1 C 1,9 C 11,3 km/h (2 Bft) 100,00 %
07.01.2018 09:58 3,5 C 4,4 C 98 % 1018,6 hPa 0,0 l/m 11,3 km/h (2 Bft) NO 45 0 min 0,000 mm 0,0 UV-I 56 W/m 3,2 C -0,5 C 14,5 km/h (3 Bft) 100,00 %
07.01.2018 09:59 3,5 C 4,4 C 98 % 1018,7 hPa 0,0 l/m 9,7 km/h (2 Bft) NO 45 0 min 0,000 mm 0,0 UV-I 53 W/m 3,2 C 0,6 C 12,9 km/h (3 Bft) 100,00 %
07.01.2018 10:00 3,5 C 4,4 C 98 % 1018,7 hPa 0,0 l/m 6,4 km/h (2 Bft) NO 45 0 min 0,025 mm 0,0 UV-I 51 W/m 3,2 C 3,5 C 8,0 km/h (2 Bft) 100,00 %
07.01.2018 10:01 3,5 C 4,4 C 98 % 1018,7 hPa 0,0 l/m 6,4 km/h (2 Bft) NO 45 0 min 0,000 mm 0,0 UV-I 53 W/m 3,2 C 3,5 C 8,0 km/h (2 Bft) 95,65 %
07.01.2018 10:02 3,4 C 4,4 C 98 % 1018,7 hPa 0,0 l/m 8,0 km/h (2 Bft) O-NO 67 0 min 0,000 mm 0,0 UV-I 53 W/m 3,1 C 1,9 C 12,9 km/h (3 Bft) 100,00 %
07.01.2018 10:03 3,5 C 4,4 C 98 % 1018,7 hPa 0,0 l/m 9,7 km/h (2 Bft) NO 45 0 min 0,000 mm 0,0 UV-I 54 W/m 3,2 C 0,6 C 12,9 km/h (3 Bft) 100,00 %
07.01.2018 10:04 3,4 C 4,4 C 98 % 1018,7 hPa 0,0 l/m 8,0 km/h (2 Bft) NO 45 0 min 0,000 mm 0,0 UV-I 58 W/m 3,1 C 1,9 C 11,3 km/h (2 Bft) 100,00 %
07.01.2018 10:05 3,4 C 4,4 C 98 % 1018,8 hPa 0,0 l/m 9,7 km/h (2 Bft) O-NO 67 0 min 0,000 mm 0,0 UV-I 60 W/m 3,1 C 0,5 C 14,5 km/h (3 Bft) 100,00 %
07.01.2018 10:06 3,4 C 4,4 C 98 % 1018,8 hPa 0,0 l/m 8,0 km/h (2 Bft) O-NO 67 0 min 0,000 mm 0,0 UV-I 60 W/m 3,1 C 1,9 C 11,3 km/h (2 Bft) 100,00 %
07.01.2018 10:07 3,4 C 4,4 C 98 % 1018,7 hPa 0,0 l/m 6,4 km/h (2 Bft) O-NO 67 0 min 0,000 mm 0,0 UV-I 56 W/m 3,1 C 3,4 C 11,3 km/h (2 Bft) 100,00 %
07.01.2018 10:08 3,4 C 4,4 C 98 % 1018,8 hPa 0,0 l/m 9,7 km/h (2 Bft) O-NO 67 0 min 0,000 mm 0,0 UV-I 53 W/m 3,1 C 0,5 C 12,9 km/h (3 Bft) 95,65 %
07.01.2018 10:09 3,4 C 4,4 C 98 % 1018,8 hPa 0,0 l/m 9,7 km/h (2 Bft) O-NO 67 0 min 0,000 mm 0,0 UV-I 52 W/m 3,1 C 0,5 C 12,9 km/h (3 Bft) 95,65 %
07.01.2018 10:10 3,5 C 4,4 C 98 % 1018,8 hPa 0,0 l/m 9,7 km/h (2 Bft) NO 45 0 min 0,000 mm 0,0 UV-I 53 W/m 3,2 C 0,6 C 12,9 km/h (3 Bft) 100,00 %
07.01.2018 10:11 3,5 C 4,4 C 98 % 1018,8 hPa 0,0 l/m 9,7 km/h (2 Bft) NO 45 0 min 0,000 mm 0,0 UV-I 49 W/m 3,2 C 0,6 C 12,9 km/h (3 Bft) 100,00 %
07.01.2018 10:12 3,5 C 4,4 C 98 % 1018,8 hPa 0,0 l/m 8,0 km/h (2 Bft) O-NO 67 0 min 0,000 mm 0,0 UV-I 49 W/m 3,2 C 2,0 C 9,7 km/h (2 Bft) 100,00 %
07.01.2018 10:13 3,5 C 4,4 C 98 % 1018,8 hPa 0,0 l/m 9,7 km/h (2 Bft) O-NO 67 0 min 0,000 mm 0,0 UV-I 51 W/m 3,2 C 0,6 C 14,5 km/h (3 Bft) 95,65 %
07.01.2018 10:14 3,5 C 4,4 C 98 % 1018,8 hPa 0,0 l/m 8,0 km/h (2 Bft) O-NO 67 0 min 0,000 mm 0,0 UV-I 53 W/m 3,2 C 2,0 C 12,9 km/h (3 Bft) 95,65 %
07.01.2018 10:15 3,6 C 4,4 C 98 % 1018,8 hPa 0,0 l/m 9,7 km/h (2 Bft) NO 45 0 min 0,000 mm 0,0 UV-I 49 W/m 3,3 C 0,8 C 12,9 km/h (3 Bft) 91,30 %
07.01.2018 10:16 3,6 C 4,4 C 98 % 1018,7 hPa 0,0 l/m 9,7 km/h (2 Bft) NO 45 0 min 0,000 mm 0,0 UV-I 49 W/m 3,3 C 0,8 C 14,5 km/h (3 Bft) 100,00 %
07.01.2018 10:17 3,6 C 4,4 C 98 % 1018,8 hPa 0,0 l/m 11,3 km/h (2 Bft) NO 45 0 min 0,000 mm 0,0 UV-I 44 W/m 3,3 C -0,4 C 16,1 km/h (3 Bft) 100,00 %
07.01.2018 10:18 3,7 C 4,4 C 98 % 1018,8 hPa 0,0 l/m 9,7 km/h (2 Bft) NO 45 0 min 0,000 mm 0,0 UV-I 40 W/m 3,4 C 0,9 C 12,9 km/h (3 Bft) 91,30 %
07.01.2018 10:19 3,7 C 4,4 C 98 % 1018,8 hPa 0,0 l/m 8,0 km/h (2 Bft) NO 45 0 min 0,000 mm 0,0 UV-I 39 W/m 3,4 C 2,2 C 9,7 km/h (2 Bft) 95,65 %
07.01.2018 10:20 3,6 C 4,4 C 98 % 1018,9 hPa 0,0 l/m 9,7 km/h (2 Bft) NO 45 0 min 0,000 mm 0,0 UV-I 41 W/m 3,3 C 0,8 C 14,5 km/h (3 Bft) 100,00 %
07.01.2018 10:21 3,6 C 4,4 C 98 % 1018,9 hPa 0,0 l/m 9,7 km/h (2 Bft) O-NO 67 0 min 0,000 mm 0,0 UV-I 42 W/m 3,3 C 0,8 C 14,5 km/h (3 Bft) 100,00 %
07.01.2018 10:22 3,6 C 4,4 C 98 % 1018,9 hPa 0,0 l/m 8,0 km/h (2 Bft) O-NO 67 0 min 0,000 mm 0,0 UV-I 46 W/m 3,3 C 2,1 C 11,3 km/h (2 Bft) 95,65 %
07.01.2018 10:23 3,6 C 4,4 C 98 % 1018,9 hPa 0,0 l/m 9,7 km/h (2 Bft) NO 45 0 min 0,000 mm 0,0 UV-I 46 W/m 3,3 C 0,8 C 12,9 km/h (3 Bft) 100,00 %
07.01.2018 10:24 3,6 C 4,4 C 98 % 1018,9 hPa 0,0 l/m 9,7 km/h (2 Bft) NO 45 0 min 0,000 mm 0,0 UV-I 39 W/m 3,3 C 0,8 C 14,5 km/h (3 Bft) 100,00 %
07.01.2018 10:25 3,6 C 4,4 C 98 % 1019,0 hPa 0,0 l/m 8,0 km/h (2 Bft) O-NO 67 0 min 0,000 mm 0,0 UV-I 42 W/m 3,3 C 2,1 C 9,7 km/h (2 Bft) 95,65 %
07.01.2018 10:26 3,6 C 4,4 C 98 % 1019,0 hPa 0,0 l/m 9,7 km/h (2 Bft) O-NO 67 0 min 0,000 mm 0,0 UV-I 42 W/m 3,3 C 0,8 C 12,9 km/h (3 Bft) 95,65 %
07.01.2018 10:27 3,6 C 4,4 C 98 % 1019,0 hPa 0,0 l/m 11,3 km/h (2 Bft) O-NO 67 0 min 0,000 mm 0,0 UV-I 39 W/m 3,3 C -0,4 C 14,5 km/h (3 Bft) 95,65 %
07.01.2018 10:28 3,6 C 4,4 C 98 % 1019,0 hPa 0,0 l/m 11,3 km/h (2 Bft) NO 45 0 min 0,000 mm 0,0 UV-I 37 W/m 3,3 C -0,4 C 14,5 km/h (3 Bft) 100,00 %
07.01.2018 10:29 3,6 C 4,4 C 98 % 1019,1 hPa 0,0 l/m 8,0 km/h (2 Bft) NO 45 0 min 0,000 mm 0,0 UV-I 35 W/m 3,3 C 2,1 C 14,5 km/h (3 Bft) 91,30 %
07.01.2018 10:30 3,6 C 4,4 C 98 % 1019,0 hPa 0,0 l/m 8,0 km/h (2 Bft) NO 45 0 min 0,000 mm 0,0 UV-I 35 W/m 3,3 C 2,1 C 11,3 km/h (2 Bft) 100,00 %
07.01.2018 10:31 3,6 C 4,4 C 98 % 1019,0 hPa 0,0 l/m 6,4 km/h (2 Bft) O-NO 67 0 min 0,000 mm 0,0 UV-I 33 W/m 3,3 C 3,6 C 8,0 km/h (2 Bft) 91,30 %
07.01.2018 10:32 3,6 C 4,4 C 98 % 1019,1 hPa 0,0 l/m 6,4 km/h (2 Bft) NO 45 0 min 0,000 mm 0,0 UV-I 35 W/m 3,3 C 3,6 C 8,0 km/h (2 Bft) 95,65 %
07.01.2018 10:33 3,7 C 4,4 C 98 % 1019,1 hPa 0,0 l/m 4,8 km/h (1 Bft) NO 45 0 min 0,000 mm 0,0 UV-I 37 W/m 3,4 C 3,7 C 8,0 km/h (2 Bft) 100,00 %
07.01.2018 10:34 3,7 C 4,4 C 98 % 1019,1 hPa 0,0 l/m 6,4 km/h (2 Bft) O-NO 67 0 min 0,000 mm 0,0 UV-I 39 W/m 3,4 C 3,7 C 9,7 km/h (2 Bft) 95,65 %
07.01.2018 10:35 3,7 C 4,4 C 98 % 1019,1 hPa 0,0 l/m 8,0 km/h (2 Bft) NO 45 0 min 0,000 mm 0,0 UV-I 40 W/m 3,4 C 2,2 C 9,7 km/h (2 Bft) 95,65 %
07.01.2018 10:36 3,7 C 4,4 C 98 % 1019,2 hPa 0,0 l/m 6,4 km/h (2 Bft) NO 45 0 min 0,000 mm 0,0 UV-I 40 W/m 3,4 C 3,7 C 9,7 km/h (2 Bft) 95,65 %
07.01.2018 10:37 3,7 C 4,4 C 98 % 1019,2 hPa 0,0 l/m 4,8 km/h (1 Bft) O-NO 67 0 min 0,000 mm 0,0 UV-I 39 W/m 3,4 C 3,7 C 9,7 km/h (2 Bft) 95,65 %
07.01.2018 10:38 3,7 C 4,4 C 98 % 1019,1 hPa 0,0 l/m 4,8 km/h (1 Bft) NO 45 0 min 0,000 mm 0,0 UV-I 39 W/m 3,4 C 3,7 C 6,4 km/h (2 Bft) 95,65 %
07.01.2018 10:39 3,7 C 4,4 C 98 % 1019,1 hPa 0,0 l/m 4,8 km/h (1 Bft) O-NO 67 0 min 0,000 mm 0,0 UV-I 37 W/m 3,4 C 3,7 C 8,0 km/h (2 Bft) 100,00 %
07.01.2018 10:40 3,7 C 4,4 C 98 % 1019,2 hPa 0,0 l/m 8,0 km/h (2 Bft) O-NO 67 0 min 0,000 mm 0,0 UV-I 39 W/m 3,4 C 2,2 C 9,7 km/h (2 Bft) 95,65 %
07.01.2018 10:41 3,7 C 4,4 C 98 % 1019,2 hPa 0,0 l/m 6,4 km/h (2 Bft) NO 45 0 min 0,000 mm 0,0 UV-I 39 W/m 3,4 C 3,7 C 8,0 km/h (2 Bft) 95,65 %
07.01.2018 10:42 3,7 C 4,4 C 98 % 1019,1 hPa 0,0 l/m 8,0 km/h (2 Bft) O-NO 67 0 min 0,000 mm 0,0 UV-I 39 W/m 3,4 C 2,2 C 9,7 km/h (2 Bft) 100,00 %
07.01.2018 10:43 3,7 C 4,4 C 98 % 1019,2 hPa 0,0 l/m 6,4 km/h (2 Bft) O-NO 67 0 min 0,000 mm 0,0 UV-I 40 W/m 3,4 C 3,7 C 8,0 km/h (2 Bft) 91,30 %
07.01.2018 10:44 3,7 C 4,4 C 98 % 1019,2 hPa 0,0 l/m 6,4 km/h (2 Bft) O-NO 67 0 min 0,000 mm 0,0 UV-I 46 W/m 3,4 C 3,7 C 11,3 km/h (2 Bft) 95,65 %
07.01.2018 10:45 3,7 C 4,4 C 98 % 1019,2 hPa 0,0 l/m 4,8 km/h (1 Bft) O-NO 67 0 min 0,000 mm 0,0 UV-I 44 W/m 3,4 C 3,7 C 8,0 km/h (2 Bft) 95,65 %
07.01.2018 10:46 3,7 C 4,4 C 98 % 1019,3 hPa 0,0 l/m 6,4 km/h (2 Bft) O-NO 67 0 min 0,000 mm 0,0 UV-I 46 W/m 3,4 C 3,7 C 8,0 km/h (2 Bft) 91,30 %
07.01.2018 10:47 3,7 C 4,4 C 98 % 1019,3 hPa 0,0 l/m 9,7 km/h (2 Bft) O-NO 67 0 min 0,000 mm 0,0 UV-I 47 W/m 3,4 C 0,9 C 12,9 km/h (3 Bft) 91,30 %
07.01.2018 10:48 3,8 C 4,4 C 98 % 1019,2 hPa 0,0 l/m 8,0 km/h (2 Bft) O-NO 67 0 min 0,000 mm 0,0 UV-I 46 W/m 3,5 C 2,3 C 12,9 km/h (3 Bft) 95,65 %
07.01.2018 10:49 3,7 C 4,4 C 98 % 1019,3 hPa 0,0 l/m 6,4 km/h (2 Bft) O-NO 67 0 min 0,000 mm 0,0 UV-I 46 W/m 3,4 C 3,7 C 11,3 km/h (2 Bft) 91,30 %
07.01.2018 10:50 3,8 C 4,4 C 98 % 1019,3 hPa 0,0 l/m 6,4 km/h (2 Bft) O-NO 67 0 min 0,000 mm 0,0 UV-I 54 W/m 3,5 C 3,8 C 11,3 km/h (2 Bft) 86,96 %
07.01.2018 10:51 3,8 C 4,4 C 98 % 1019,3 hPa 0,0 l/m 8,0 km/h (2 Bft) O-NO 67 0 min 0,000 mm 0,0 UV-I 54 W/m 3,5 C 2,3 C 12,9 km/h (3 Bft) 95,65 %
07.01.2018 10:52 3,8 C 4,4 C 98 % 1019,3 hPa 0,0 l/m 8,0 km/h (2 Bft) O-NO 67 0 min 0,000 mm 0,0 UV-I 54 W/m 3,5 C 2,3 C 11,3 km/h (2 Bft) 95,65 %
07.01.2018 10:53 3,8 C 4,4 C 98 % 1019,3 hPa 0,0 l/m 4,8 km/h (1 Bft) O-NO 67 0 min 0,000 mm 0,0 UV-I 56 W/m 3,5 C 3,8 C 8,0 km/h (2 Bft) 95,65 %
07.01.2018 10:54 3,8 C 4,4 C 98 % 1019,3 hPa 0,0 l/m 6,4 km/h (2 Bft) O-NO 67 0 min 0,000 mm 0,0 UV-I 56 W/m 3,5 C 3,8 C 9,7 km/h (2 Bft) 95,65 %
07.01.2018 10:55 3,8 C 4,4 C 98 % 1019,3 hPa 0,0 l/m 8,0 km/h (2 Bft) O-NO 67 0 min 0,000 mm 0,0 UV-I 62 W/m 3,5 C 2,3 C 12,9 km/h (3 Bft) 95,65 %
07.01.2018 10:56 3,8 C 4,4 C 98 % 1019,3 hPa 0,0 l/m 9,7 km/h (2 Bft) O-NO 67 0 min 0,000 mm 0,0 UV-I 65 W/m 3,5 C 1,0 C 12,9 km/h (3 Bft) 91,30 %
07.01.2018 10:57 3,8 C 4,4 C 98 % 1019,3 hPa 0,0 l/m 8,0 km/h (2 Bft) NO 45 0 min 0,000 mm 0,0 UV-I 72 W/m 3,5 C 2,3 C 9,7 km/h (2 Bft) 86,96 %
07.01.2018 10:58 3,8 C 4,4 C 98 % 1019,3 hPa 0,0 l/m 9,7 km/h (2 Bft) O-NO 67 0 min 0,000 mm 0,0 UV-I 74 W/m 3,5 C 1,0 C 12,9 km/h (3 Bft) 100,00 %
07.01.2018 10:59 3,8 C 4,4 C 98 % 1019,2 hPa 0,0 l/m 8,0 km/h (2 Bft) O-NO 67 0 min 0,000 mm 0,0 UV-I 76 W/m 3,5 C 2,3 C 9,7 km/h (2 Bft) 91,30 %
07.01.2018 11:00 3,8 C 4,4 C 98 % 1019,2 hPa 0,0 l/m 6,4 km/h (2 Bft) O-NO 67 0 min 0,025 mm 0,0 UV-I 81 W/m 3,5 C 3,8 C 9,7 km/h (2 Bft) 100,00 %
07.01.2018 11:01 3,8 C 4,4 C 98 % 1019,2 hPa 0,0 l/m 8,0 km/h (2 Bft) O-NO 67 0 min 0,000 mm 0,0 UV-I 89 W/m 3,5 C 2,3 C 9,7 km/h (2 Bft) 95,65 %
07.01.2018 11:02 3,8 C 4,4 C 98 % 1019,2 hPa 0,0 l/m 6,4 km/h (2 Bft) O-NO 67 0 min 0,000 mm 0,0 UV-I 90 W/m 3,5 C 3,8 C 9,7 km/h (2 Bft) 100,00 %
07.01.2018 11:03 3,9 C 4,4 C 98 % 1019,1 hPa 0,0 l/m 6,4 km/h (2 Bft) NO 45 0 min 0,000 mm 0,0 UV-I 91 W/m 3,6 C 3,9 C 9,7 km/h (2 Bft) 95,65 %
07.01.2018 11:04 3,9 C 4,4 C 98 % 1019,1 hPa 0,0 l/m 8,0 km/h (2 Bft) NO 45 0 min 0,000 mm 0,0 UV-I 91 W/m 3,6 C 2,4 C 11,3 km/h (2 Bft) 91,30 %
07.01.2018 11:05 4,0 C 4,4 C 98 % 1019,1 hPa 0,0 l/m 8,0 km/h (2 Bft) NO 45 0 min 0,000 mm 0,0 UV-I 91 W/m 3,7 C 2,6 C 9,7 km/h (2 Bft) 95,65 %
07.01.2018 11:06 4,0 C 4,4 C 98 % 1019,1 hPa 0,0 l/m 9,7 km/h (2 Bft) NO 45 0 min 0,000 mm 0,0 UV-I 102 W/m 3,7 C 1,2 C 11,3 km/h (2 Bft) 100,00 %
07.01.2018 11:07 4,1 C 4,4 C 98 % 1019,1 hPa 0,0 l/m 6,4 km/h (2 Bft) NO 45 0 min 0,000 mm 0,0 UV-I 99 W/m 3,8 C 4,1 C 9,7 km/h (2 Bft) 100,00 %
07.01.2018 11:08 4,1 C 4,4 C 98 % 1019,2 hPa 0,0 l/m 8,0 km/h (2 Bft) O-NO 67 0 min 0,000 mm 0,0 UV-I 111 W/m 3,8 C 2,7 C 12,9 km/h (3 Bft) 100,00 %
07.01.2018 11:09 4,1 C 4,4 C 98 % 1019,1 hPa 0,0 l/m 8,0 km/h (2 Bft) NO 45 0 min 0,000 mm 0,0 UV-I 118 W/m 3,8 C 2,7 C 11,3 km/h (2 Bft) 95,65 %
07.01.2018 11:10 4,1 C 4,4 C 98 % 1019,1 hPa 0,0 l/m 9,7 km/h (2 Bft) NO 45 0 min 0,000 mm 0,0 UV-I 120 W/m 3,8 C 1,3 C 16,1 km/h (3 Bft) 100,00 %
07.01.2018 11:11 4,1 C 4,4 C 98 % 1019,2 hPa 0,0 l/m 11,3 km/h (2 Bft) NO 45 0 min 0,000 mm 0,0 UV-I 125 W/m 3,8 C 0,2 C 16,1 km/h (3 Bft) 95,65 %
07.01.2018 11:12 4,2 C 4,4 C 98 % 1019,1 hPa 0,0 l/m 9,7 km/h (2 Bft) O-NO 67 0 min 0,000 mm 0,0 UV-I 128 W/m 3,9 C 1,4 C 14,5 km/h (3 Bft) 100,00 %
07.01.2018 11:13 4,1 C 4,4 C 98 % 1019,2 hPa 0,0 l/m 12,9 km/h (3 Bft) O-NO 67 0 min 0,000 mm 0,0 UV-I 139 W/m 3,8 C -0,8 C 16,1 km/h (3 Bft) 95,65 %
07.01.2018 11:14 4,2 C 4,4 C 98 % 1019,2 hPa 0,0 l/m 11,3 km/h (2 Bft) O-NO 67 0 min 0,000 mm 0,0 UV-I 146 W/m 3,9 C 0,3 C 16,1 km/h (3 Bft) 95,65 %
07.01.2018 11:15 4,2 C 4,4 C 98 % 1019,2 hPa 0,0 l/m 8,0 km/h (2 Bft) NO 45 0 min 0,000 mm 0,0 UV-I 144 W/m 3,9 C 2,8 C 11,3 km/h (2 Bft) 91,30 %
07.01.2018 11:16 4,2 C 4,4 C 98 % 1019,1 hPa 0,0 l/m 8,0 km/h (2 Bft) O-NO 67 0 min 0,000 mm 0,0 UV-I 144 W/m 3,9 C 2,8 C 9,7 km/h (2 Bft) 95,65 %
07.01.2018 11:17 4,2 C 4,4 C 98 % 1019,1 hPa 0,0 l/m 8,0 km/h (2 Bft) NO 45 0 min 0,000 mm 0,0 UV-I 139 W/m 3,9 C 2,8 C 12,9 km/h (3 Bft) 100,00 %
07.01.2018 11:18 4,3 C 4,4 C 98 % 1019,1 hPa 0,0 l/m 8,0 km/h (2 Bft) O-NO 67 0 min 0,000 mm 0,0 UV-I 132 W/m 4,0 C 2,9 C 12,9 km/h (3 Bft) 95,65 %
07.01.2018 11:19 4,3 C 4,4 C 98 % 1019,1 hPa 0,0 l/m 8,0 km/h (2 Bft) NO 45 0 min 0,000 mm 0,0 UV-I 139 W/m 4,0 C 2,9 C 9,7 km/h (2 Bft) 95,65 %
07.01.2018 11:20 4,3 C 4,4 C 98 % 1019,1 hPa 0,0 l/m 8,0 km/h (2 Bft) NO 45 0 min 0,000 mm 0,0 UV-I 137 W/m 4,0 C 2,9 C 12,9 km/h (3 Bft) 100,00 %
07.01.2018 11:21 4,3 C 4,4 C 98 % 1019,1 hPa 0,0 l/m 12,9 km/h (3 Bft) NO 45 0 min 0,000 mm 0,0 UV-I 146 W/m 4,0 C -0,6 C 17,7 km/h (3 Bft) 95,65 %
07.01.2018 11:22 4,3 C 4,4 C 98 % 1019,1 hPa 0,0 l/m 9,7 km/h (2 Bft) O-NO 67 0 min 0,000 mm 0,0 UV-I 146 W/m 4,0 C 1,5 C 14,5 km/h (3 Bft) 100,00 %
07.01.2018 11:23 4,3 C 4,4 C 98 % 1019,1 hPa 0,0 l/m 8,0 km/h (2 Bft) NO 45 0 min 0,000 mm 0,0 UV-I 146 W/m 4,0 C 2,9 C 12,9 km/h (3 Bft) 100,00 %
07.01.2018 11:24 4,3 C 4,4 C 98 % 1019,2 hPa 0,0 l/m 11,3 km/h (2 Bft) O-NO 67 0 min 0,000 mm 0,0 UV-I 144 W/m 4,0 C 0,4 C 14,5 km/h (3 Bft) 95,65 %
07.01.2018 11:25 4,4 C 4,4 C 98 % 1019,2 hPa 0,0 l/m 9,7 km/h (2 Bft) NO 45 0 min 0,000 mm 0,0 UV-I 143 W/m 4,1 C 1,6 C 14,5 km/h (3 Bft) 100,00 %
07.01.2018 11:26 4,4 C 4,4 C 98 % 1019,2 hPa 0,0 l/m 8,0 km/h (2 Bft) O-NO 67 0 min 0,000 mm 0,0 UV-I 144 W/m 4,1 C 3,0 C 11,3 km/h (2 Bft) 95,65 %
07.01.2018 11:27 4,4 C 4,4 C 98 % 1019,2 hPa 0,0 l/m 6,4 km/h (2 Bft) NO 45 0 min 0,000 mm 0,0 UV-I 142 W/m 4,1 C 4,4 C 9,7 km/h (2 Bft) 100,00 %
07.01.2018 11:28 4,5 C 4,4 C 98 % 1019,2 hPa 0,0 l/m 8,0 km/h (2 Bft) NO 45 0 min 0,000 mm 0,0 UV-I 139 W/m 4,2 C 3,1 C 12,9 km/h (3 Bft) 100,00 %
07.01.2018 11:29 4,5 C 4,4 C 98 % 1019,2 hPa 0,0 l/m 12,9 km/h (3 Bft) O-NO 67 0 min 0,000 mm 0,0 UV-I 132 W/m 4,2 C -0,4 C 17,7 km/h (3 Bft) 100,00 %
07.01.2018 11:30 4,4 C 4,4 C 98 % 1019,2 hPa 0,0 l/m 9,7 km/h (2 Bft) O-NO 67 0 min 0,000 mm 0,0 UV-I 127 W/m 4,1 C 1,6 C 12,9 km/h (3 Bft) 100,00 %
07.01.2018 11:31 4,5 C 4,4 C 98 % 1019,1 hPa 0,0 l/m 11,3 km/h (2 Bft) O-NO 67 0 min 0,000 mm 0,0 UV-I 114 W/m 4,2 C 0,6 C 16,1 km/h (3 Bft) 100,00 %
07.01.2018 11:32 4,5 C 4,4 C 98 % 1019,2 hPa 0,0 l/m 9,7 km/h (2 Bft) NO 45 0 min 0,000 mm 0,0 UV-I 105 W/m 4,2 C 1,7 C 14,5 km/h (3 Bft) 100,00 %
07.01.2018 11:33 4,5 C 4,4 C 98 % 1019,2 hPa 0,0 l/m 9,7 km/h (2 Bft) O-NO 67 0 min 0,000 mm 0,0 UV-I 109 W/m 4,2 C 1,7 C 14,5 km/h (3 Bft) 95,65 %
07.01.2018 11:34 4,5 C 4,4 C 98 % 1019,2 hPa 0,0 l/m 9,7 km/h (2 Bft) NO 45 0 min 0,000 mm 0,0 UV-I 104 W/m 4,2 C 1,7 C 14,5 km/h (3 Bft) 100,00 %
07.01.2018 11:35 4,6 C 4,4 C 98 % 1019,2 hPa 0,0 l/m 9,7 km/h (2 Bft) NO 45 0 min 0,000 mm 0,0 UV-I 97 W/m 4,3 C 1,8 C 14,5 km/h (3 Bft) 100,00 %
07.01.2018 11:36 4,6 C 4,4 C 98 % 1019,2 hPa 0,0 l/m 11,3 km/h (2 Bft) O-NO 67 0 min 0,000 mm 0,0 UV-I 97 W/m 4,3 C 0,7 C 16,1 km/h (3 Bft) 100,00 %
07.01.2018 11:37 4,6 C 4,4 C 98 % 1019,2 hPa 0,0 l/m 9,7 km/h (2 Bft) O-NO 67 0 min 0,000 mm 0,0 UV-I 97 W/m 4,3 C 1,8 C 14,5 km/h (3 Bft) 100,00 %
07.01.2018 11:38 4,6 C 4,4 C 98 % 1019,2 hPa 0,0 l/m 11,3 km/h (2 Bft) O-NO 67 0 min 0,000 mm 0,0 UV-I 98 W/m 4,3 C 0,7 C 16,1 km/h (3 Bft) 100,00 %
07.01.2018 11:39 4,6 C 4,4 C 98 % 1019,2 hPa 0,0 l/m 8,0 km/h (2 Bft) O-NO 67 0 min 0,000 mm 0,0 UV-I 93 W/m 4,3 C 3,2 C 11,3 km/h (2 Bft) 100,00 %
07.01.2018 11:40 4,6 C 4,4 C 98 % 1019,2 hPa 0,0 l/m 9,7 km/h (2 Bft) O-NO 67 0 min 0,000 mm 0,0 UV-I 90 W/m 4,3 C 1,8 C 12,9 km/h (3 Bft) 95,65 %
07.01.2018 11:41 4,6 C 4,4 C 98 % 1019,3 hPa 0,0 l/m 9,7 km/h (2 Bft) O-NO 67 0 min 0,000 mm 0,0 UV-I 90 W/m 4,3 C 1,8 C 14,5 km/h (3 Bft) 100,00 %
07.01.2018 11:42 4,6 C 4,4 C 98 % 1019,3 hPa 0,0 l/m 9,7 km/h (2 Bft) O-NO 67 0 min 0,000 mm 0,0 UV-I 87 W/m 4,3 C 1,8 C 16,1 km/h (3 Bft) 100,00 %
07.01.2018 11:43 4,7 C 4,4 C 98 % 1019,3 hPa 0,0 l/m 11,3 km/h (2 Bft) O-NO 67 0 min 0,000 mm 0,0 UV-I 84 W/m 4,4 C 0,9 C 16,1 km/h (3 Bft) 100,00 %
07.01.2018 11:44 4,7 C 4,4 C 97 % 1019,3 hPa 0,0 l/m 11,3 km/h (2 Bft) O-NO 67 0 min 0,000 mm 0,0 UV-I 83 W/m 4,3 C 0,9 C 14,5 km/h (3 Bft) 100,00 %
07.01.2018 11:45 4,7 C 4,4 C 97 % 1019,3 hPa 0,0 l/m 9,7 km/h (2 Bft) NO 45 0 min 0,000 mm 0,0 UV-I 77 W/m 4,3 C 2,0 C 9,7 km/h (2 Bft) 95,65 %
07.01.2018 11:46 4,7 C 4,4 C 98 % 1019,3 hPa 0,0 l/m 6,4 km/h (2 Bft) O-NO 67 0 min 0,000 mm 0,0 UV-I 81 W/m 4,4 C 4,7 C 9,7 km/h (2 Bft) 100,00 %
07.01.2018 11:47 4,8 C 4,4 C 98 % 1019,2 hPa 0,0 l/m 9,7 km/h (2 Bft) NO 45 0 min 0,000 mm 0,0 UV-I 79 W/m 4,5 C 2,1 C 12,9 km/h (3 Bft) 95,65 %
07.01.2018 11:48 4,7 C 4,4 C 98 % 1019,2 hPa 0,0 l/m 8,0 km/h (2 Bft) O-NO 67 0 min 0,000 mm 0,0 UV-I 77 W/m 4,4 C 3,3 C 12,9 km/h (3 Bft) 100,00 %
07.01.2018 11:49 4,8 C 4,4 C 97 % 1019,3 hPa 0,0 l/m 8,0 km/h (2 Bft) O-NO 67 0 min 0,000 mm 0,0 UV-I 76 W/m 4,4 C 3,4 C 12,9 km/h (3 Bft) 100,00 %
07.01.2018 11:50 4,8 C 4,4 C 97 % 1019,3 hPa 0,0 l/m 8,0 km/h (2 Bft) NO 45 0 min 0,000 mm 0,0 UV-I 76 W/m 4,4 C 3,4 C 12,9 km/h (3 Bft) 100,00 %
07.01.2018 11:51 4,8 C 4,4 C 97 % 1019,3 hPa 0,0 l/m 6,4 km/h (2 Bft) NO 45 0 min 0,000 mm 0,0 UV-I 74 W/m 4,4 C 4,8 C 9,7 km/h (2 Bft) 100,00 %
07.01.2018 11:52 4,8 C 4,4 C 97 % 1019,2 hPa 0,0 l/m 9,7 km/h (2 Bft) NO 45 0 min 0,000 mm 0,0 UV-I 74 W/m 4,4 C 2,1 C 11,3 km/h (2 Bft) 100,00 %
07.01.2018 11:53 4,9 C 4,4 C 97 % 1019,2 hPa 0,0 l/m 8,0 km/h (2 Bft) O-NO 67 0 min 0,000 mm 0,0 UV-I 76 W/m 4,5 C 3,5 C 12,9 km/h (3 Bft) 100,00 %
07.01.2018 11:54 4,9 C 4,4 C 97 % 1019,2 hPa 0,0 l/m 6,4 km/h (2 Bft) NO 45 0 min 0,000 mm 0,0 UV-I 79 W/m 4,5 C 4,9 C 14,5 km/h (3 Bft) 95,65 %
07.01.2018 11:55 4,9 C 4,4 C 97 % 1019,2 hPa 0,0 l/m 11,3 km/h (2 Bft) NO 45 0 min 0,000 mm 0,0 UV-I 88 W/m 4,5 C 1,1 C 14,5 km/h (3 Bft) 100,00 %
07.01.2018 11:56 4,9 C 4,4 C 97 % 1019,2 hPa 0,0 l/m 8,0 km/h (2 Bft) NO 45 0 min 0,000 mm 0,0 UV-I 86 W/m 4,5 C 3,5 C 11,3 km/h (2 Bft) 95,65 %
07.01.2018 11:57 5,0 C 4,4 C 97 % 1019,2 hPa 0,0 l/m 9,7 km/h (2 Bft) NO 45 0 min 0,000 mm 0,0 UV-I 90 W/m 4,6 C 2,3 C 14,5 km/h (3 Bft) 100,00 %
07.01.2018 11:58 4,9 C 4,4 C 97 % 1019,2 hPa 0,0 l/m 8,0 km/h (2 Bft) O-NO 67 0 min 0,000 mm 0,0 UV-I 91 W/m 4,5 C 3,5 C 12,9 km/h (3 Bft) 100,00 %
07.01.2018 11:59 4,9 C 4,4 C 97 % 1019,1 hPa 0,0 l/m 8,0 km/h (2 Bft) NO 45 0 min 0,000 mm 0,0 UV-I 91 W/m 4,5 C 3,5 C 9,7 km/h (2 Bft) 100,00 %
07.01.2018 12:00 4,9 C 4,4 C 97 % 1019,2 hPa 0,0 l/m 9,7 km/h (2 Bft) O-NO 67 0 min 0,051 mm 0,0 UV-I 86 W/m 4,5 C 2,2 C 14,5 km/h (3 Bft) 100,00 %
07.01.2018 12:01 4,9 C 4,4 C 97 % 1019,2 hPa 0,0 l/m 11,3 km/h (2 Bft) NO 45 0 min 0,000 mm 0,0 UV-I 83 W/m 4,5 C 1,1 C 16,1 km/h (3 Bft) 95,65 %
07.01.2018 12:02 4,9 C 4,4 C 97 % 1019,2 hPa 0,0 l/m 8,0 km/h (2 Bft) NO 45 0 min 0,000 mm 0,0 UV-I 83 W/m 4,5 C 3,5 C 9,7 km/h (2 Bft) 100,00 %
07.01.2018 12:03 5,0 C 4,4 C 97 % 1019,2 hPa 0,0 l/m 4,8 km/h (1 Bft) NO 45 0 min 0,000 mm 0,0 UV-I 83 W/m 4,6 C 5,0 C 6,4 km/h (2 Bft) 100,00 %
07.01.2018 12:04 5,0 C 4,4 C 97 % 1019,2 hPa 0,0 l/m 4,8 km/h (1 Bft) N-NO 22 0 min 0,000 mm 0,0 UV-I 81 W/m 4,6 C 5,0 C 6,4 km/h (2 Bft) 100,00 %
07.01.2018 12:05 5,0 C 4,4 C 97 % 1019,3 hPa 0,0 l/m 8,0 km/h (2 Bft) NO 45 0 min 0,000 mm 0,0 UV-I 79 W/m 4,6 C 3,6 C 9,7 km/h (2 Bft) 95,65 %
07.01.2018 12:06 5,1 C 4,4 C 97 % 1019,3 hPa 0,0 l/m 8,0 km/h (2 Bft) NO 45 0 min 0,000 mm 0,0 UV-I 77 W/m 4,7 C 3,7 C 9,7 km/h (2 Bft) 95,65 %
07.01.2018 12:07 5,1 C 4,4 C 97 % 1019,2 hPa 0,0 l/m 6,4 km/h (2 Bft) O-NO 67 0 min 0,000 mm 0,0 UV-I 76 W/m 4,7 C 5,1 C 8,0 km/h (2 Bft) 91,30 %
07.01.2018 12:08 5,1 C 4,4 C 97 % 1019,2 hPa 0,0 l/m 6,4 km/h (2 Bft) O-NO 67 0 min 0,000 mm 0,0 UV-I 72 W/m 4,7 C 5,1 C 8,0 km/h (2 Bft) 91,30 %
07.01.2018 12:09 5,1 C 4,4 C 97 % 1019,2 hPa 0,0 l/m 6,4 km/h (2 Bft) NO 45 0 min 0,000 mm 0,0 UV-I 74 W/m 4,7 C 5,1 C 8,0 km/h (2 Bft) 100,00 %
07.01.2018 12:10 5,2 C 4,4 C 97 % 1019,2 hPa 0,0 l/m 8,0 km/h (2 Bft) NO 45 0 min 0,000 mm 0,0 UV-I 83 W/m 4,8 C 3,8 C 12,9 km/h (3 Bft) 95,65 %
07.01.2018 12:11 5,2 C 4,4 C 97 % 1019,2 hPa 0,0 l/m 8,0 km/h (2 Bft) O-NO 67 0 min 0,000 mm 0,0 UV-I 79 W/m 4,8 C 3,8 C 12,9 km/h (3 Bft) 100,00 %
07.01.2018 12:12 5,2 C 4,4 C 97 % 1019,1 hPa 0,0 l/m 6,4 km/h (2 Bft) O-NO 67 0 min 0,000 mm 0,0 UV-I 73 W/m 4,8 C 5,2 C 14,5 km/h (3 Bft) 95,65 %
07.01.2018 12:13 5,2 C 4,4 C 97 % 1019,1 hPa 0,0 l/m 8,0 km/h (2 Bft) NO 45 0 min 0,000 mm 0,0 UV-I 76 W/m 4,8 C 3,8 C 11,3 km/h (2 Bft) 100,00 %
07.01.2018 12:14 5,2 C 4,4 C 97 % 1019,1 hPa 0,0 l/m 8,0 km/h (2 Bft) NO 45 0 min 0,000 mm 0,0 UV-I 72 W/m 4,8 C 3,8 C 9,7 km/h (2 Bft) 91,30 %
07.01.2018 12:15 5,2 C 4,4 C 97 % 1019,1 hPa 0,0 l/m 6,4 km/h (2 Bft) NO 45 0 min 0,000 mm 0,0 UV-I 74 W/m 4,8 C 5,2 C 9,7 km/h (2 Bft) 95,65 %
07.01.2018 12:16 5,2 C 4,4 C 97 % 1019,1 hPa 0,0 l/m 6,4 km/h (2 Bft) NO 45 0 min 0,000 mm 0,0 UV-I 70 W/m 4,8 C 5,2 C 9,7 km/h (2 Bft) 95,65 %
07.01.2018 12:17 5,2 C 4,4 C 96 % 1019,1 hPa 0,0 l/m 6,4 km/h (2 Bft) O-NO 67 0 min 0,000 mm 0,0 UV-I 70 W/m 4,6 C 5,2 C 8,0 km/h (2 Bft) 100,00 %
07.01.2018 12:18 5,2 C 4,4 C 96 % 1019,1 hPa 0,0 l/m 4,8 km/h (1 Bft) NO 45 0 min 0,000 mm 0,0 UV-I 67 W/m 4,6 C 5,2 C 8,0 km/h (2 Bft) 95,65 %
07.01.2018 12:19 5,3 C 4,4 C 96 % 1019,0 hPa 0,0 l/m 6,4 km/h (2 Bft) NO 45 0 min 0,000 mm 0,0 UV-I 69 W/m 4,7 C 5,3 C 9,7 km/h (2 Bft) 95,65 %
07.01.2018 12:20 5,3 C 4,4 C 96 % 1019,0 hPa 0,0 l/m 8,0 km/h (2 Bft) NO 45 0 min 0,000 mm 0,0 UV-I 70 W/m 4,7 C 3,9 C 9,7 km/h (2 Bft) 91,30 %
07.01.2018 12:21 5,3 C 4,4 C 96 % 1019,0 hPa 0,0 l/m 8,0 km/h (2 Bft) N-NO 22 0 min 0,000 mm 0,0 UV-I 74 W/m 4,7 C 3,9 C 16,1 km/h (3 Bft) 100,00 %
07.01.2018 12:22 5,4 C 4,4 C 97 % 1019,0 hPa 0,0 l/m 11,3 km/h (2 Bft) NO 45 0 min 0,000 mm 0,0 UV-I 76 W/m 5,0 C 1,7 C 16,1 km/h (3 Bft) 91,30 %
07.01.2018 12:23 5,4 C 4,4 C 97 % 1019,0 hPa 0,0 l/m 9,7 km/h (2 Bft) NO 45 0 min 0,000 mm 0,0 UV-I 76 W/m 5,0 C 2,7 C 16,1 km/h (3 Bft) 95,65 %
07.01.2018 12:24 5,4 C 4,4 C 96 % 1019,0 hPa 0,0 l/m 8,0 km/h (2 Bft) NO 45 0 min 0,000 mm 0,0 UV-I 77 W/m 4,8 C 4,0 C 14,5 km/h (3 Bft) 95,65 %
07.01.2018 12:25 5,4 C 4,4 C 96 % 1019,0 hPa 0,0 l/m 8,0 km/h (2 Bft) NO 45 0 min 0,000 mm 0,0 UV-I 77 W/m 4,8 C 4,0 C 11,3 km/h (2 Bft) 95,65 %
07.01.2018 12:26 5,4 C 4,4 C 96 % 1019,0 hPa 0,0 l/m 8,0 km/h (2 Bft) NO 45 0 min 0,000 mm 0,0 UV-I 74 W/m 4,8 C 4,0 C 14,5 km/h (3 Bft) 100,00 %
07.01.2018 12:27 5,4 C 4,4 C 96 % 1019,1 hPa 0,0 l/m 9,7 km/h (2 Bft) NO 45 0 min 0,000 mm 0,0 UV-I 70 W/m 4,8 C 2,7 C 14,5 km/h (3 Bft) 91,30 %
07.01.2018 12:28 5,5 C 4,4 C 96 % 1019,1 hPa 0,0 l/m 12,9 km/h (3 Bft) NO 45 0 min 0,000 mm 0,0 UV-I 70 W/m 4,9 C 0,8 C 16,1 km/h (3 Bft) 100,00 %
07.01.2018 12:29 5,5 C 4,4 C 96 % 1019,0 hPa 0,0 l/m 11,3 km/h (2 Bft) NO 45 0 min 0,000 mm 0,0 UV-I 73 W/m 4,9 C 1,8 C 14,5 km/h (3 Bft) 86,96 %
07.01.2018 12:30 5,5 C 4,4 C 96 % 1019,0 hPa 0,0 l/m 8,0 km/h (2 Bft) NO 45 0 min 0,000 mm 0,0 UV-I 76 W/m 4,9 C 4,1 C 11,3 km/h (2 Bft) 100,00 %
07.01.2018 12:31 5,5 C 4,4 C 96 % 1019,0 hPa 0,0 l/m 8,0 km/h (2 Bft) NO 45 0 min 0,000 mm 0,0 UV-I 77 W/m 4,9 C 4,1 C 11,3 km/h (2 Bft) 95,65 %
07.01.2018 12:32 5,5 C 4,4 C 96 % 1019,0 hPa 0,0 l/m 9,7 km/h (2 Bft) NO 45 0 min 0,000 mm 0,0 UV-I 76 W/m 4,9 C 2,8 C 14,5 km/h (3 Bft) 91,30 %
07.01.2018 12:33 5,5 C 4,4 C 96 % 1019,0 hPa 0,0 l/m 8,0 km/h (2 Bft) O-NO 67 0 min 0,000 mm 0,0 UV-I 76 W/m 4,9 C 4,1 C 12,9 km/h (3 Bft) 100,00 %
07.01.2018 12:34 5,6 C 4,4 C 96 % 1019,0 hPa 0,0 l/m 9,7 km/h (2 Bft) NO 45 0 min 0,000 mm 0,0 UV-I 76 W/m 5,0 C 2,9 C 12,9 km/h (3 Bft) 91,30 %
07.01.2018 12:35 5,6 C 4,4 C 95 % 1019,0 hPa 0,0 l/m 8,0 km/h (2 Bft) NO 45 0 min 0,000 mm 0,0 UV-I 76 W/m 4,9 C 4,2 C 11,3 km/h (2 Bft) 100,00 %
07.01.2018 12:36 5,6 C 4,4 C 95 % 1019,0 hPa 0,0 l/m 8,0 km/h (2 Bft) O-NO 67 0 min 0,000 mm 0,0 UV-I 74 W/m 4,9 C 4,2 C 12,9 km/h (3 Bft) 91,30 %
07.01.2018 12:37 5,6 C 4,4 C 95 % 1019,0 hPa 0,0 l/m 11,3 km/h (2 Bft) NO 45 0 min 0,000 mm 0,0 UV-I 72 W/m 4,9 C 1,9 C 14,5 km/h (3 Bft) 100,00 %
07.01.2018 12:38 5,6 C 4,4 C 95 % 1019,0 hPa 0,0 l/m 11,3 km/h (2 Bft) NO 45 0 min 0,000 mm 0,0 UV-I 70 W/m 4,9 C 1,9 C 16,1 km/h (3 Bft) 95,65 %
07.01.2018 12:39 5,6 C 4,4 C 95 % 1019,0 hPa 0,0 l/m 9,7 km/h (2 Bft) NO 45 0 min 0,000 mm 0,0 UV-I 69 W/m 4,9 C 2,9 C 12,9 km/h (3 Bft) 100,00 %
07.01.2018 12:40 5,6 C 4,4 C 95 % 1019,0 hPa 0,0 l/m 6,4 km/h (2 Bft) O-NO 67 0 min 0,000 mm 0,0 UV-I 67 W/m 4,9 C 5,6 C 9,7 km/h (2 Bft) 91,30 %
07.01.2018 12:41 5,6 C 4,4 C 95 % 1019,0 hPa 0,0 l/m 8,0 km/h (2 Bft) NO 45 0 min 0,000 mm 0,0 UV-I 70 W/m 4,9 C 4,2 C 9,7 km/h (2 Bft) 95,65 %
07.01.2018 12:42 5,6 C 4,4 C 95 % 1019,0 hPa 0,0 l/m 8,0 km/h (2 Bft) NO 45 0 min 0,000 mm 0,0 UV-I 69 W/m 4,9 C 4,2 C 12,9 km/h (3 Bft) 95,65 %
07.01.2018 12:43 5,7 C 4,4 C 95 % 1019,0 hPa 0,0 l/m 9,7 km/h (2 Bft) NO 45 0 min 0,000 mm 0,0 UV-I 69 W/m 5,0 C 3,1 C 14,5 km/h (3 Bft) 86,96 %
07.01.2018 12:44 5,7 C 4,4 C 95 % 1019,0 hPa 0,0 l/m 6,4 km/h (2 Bft) NO 45 0 min 0,000 mm 0,0 UV-I 70 W/m 5,0 C 5,7 C 11,3 km/h (2 Bft) 100,00 %
07.01.2018 12:45 5,7 C 4,4 C 95 % 1019,1 hPa 0,0 l/m 4,8 km/h (1 Bft) NO 45 0 min 0,000 mm 0,0 UV-I 67 W/m 5,0 C 5,7 C 6,4 km/h (2 Bft) 95,65 %
07.01.2018 12:46 5,7 C 4,4 C 95 % 1019,1 hPa 0,0 l/m 6,4 km/h (2 Bft) O-NO 67 0 min 0,000 mm 0,0 UV-I 62 W/m 5,0 C 5,7 C 8,0 km/h (2 Bft) 100,00 %
07.01.2018 12:47 5,7 C 4,4 C 95 % 1019,1 hPa 0,0 l/m 8,0 km/h (2 Bft) NO 45 0 min 0,000 mm 0,0 UV-I 57 W/m 5,0 C 4,3 C 11,3 km/h (2 Bft) 95,65 %
07.01.2018 12:48 5,7 C 4,4 C 95 % 1019,1 hPa 0,0 l/m 6,4 km/h (2 Bft) O-NO 67 0 min 0,000 mm 0,0 UV-I 56 W/m 5,0 C 5,7 C 9,7 km/h (2 Bft) 100,00 %
07.01.2018 12:49 5,7 C 4,4 C 94 % 1019,1 hPa 0,0 l/m 4,8 km/h (1 Bft) O-NO 67 0 min 0,000 mm 0,0 UV-I 56 W/m 4,8 C 5,7 C 8,0 km/h (2 Bft) 95,65 %
07.01.2018 12:50 5,7 C 4,4 C 94 % 1019,2 hPa 0,0 l/m 4,8 km/h (1 Bft) NO 45 0 min 0,000 mm 0,0 UV-I 56 W/m 4,8 C 5,7 C 6,4 km/h (2 Bft) 91,30 %
07.01.2018 12:51 5,7 C 4,4 C 94 % 1019,2 hPa 0,0 l/m 4,8 km/h (1 Bft) NO 45 0 min 0,000 mm 0,0 UV-I 54 W/m 4,8 C 5,7 C 6,4 km/h (2 Bft) 100,00 %
07.01.2018 12:52 5,7 C 4,4 C 94 % 1019,2 hPa 0,0 l/m 4,8 km/h (1 Bft) NO 45 0 min 0,000 mm 0,0 UV-I 54 W/m 4,8 C 5,7 C 6,4 km/h (2 Bft) 95,65 %
07.01.2018 12:53 5,7 C 4,4 C 94 % 1019,3 hPa 0,0 l/m 3,2 km/h (1 Bft) NO 45 0 min 0,000 mm 0,0 UV-I 54 W/m 4,8 C 5,7 C 4,8 km/h (1 Bft) 100,00 %
07.01.2018 12:54 5,7 C 4,4 C 94 % 1019,3 hPa 0,0 l/m 3,2 km/h (1 Bft) NO 45 0 min 0,000 mm 0,0 UV-I 58 W/m 4,8 C 5,7 C 4,8 km/h (1 Bft) 91,30 %
07.01.2018 12:55 5,7 C 4,4 C 94 % 1019,4 hPa 0,0 l/m 3,2 km/h (1 Bft) NO 45 0 min 0,000 mm 0,0 UV-I 60 W/m 4,8 C 5,7 C 4,8 km/h (1 Bft) 100,00 %
07.01.2018 12:56 5,8 C 4,4 C 94 % 1019,4 hPa 0,0 l/m 1,6 km/h (1 Bft) O-NO 67 0 min 0,000 mm 0,0 UV-I 58 W/m 4,9 C 5,8 C 3,2 km/h (1 Bft) 91,30 %
07.01.2018 12:57 5,8 C 4,4 C 94 % 1019,4 hPa 0,0 l/m 0,0 km/h (0 Bft) O-NO 67 0 min 0,000 mm 0,0 UV-I 56 W/m 4,9 C 5,8 C 1,6 km/h (1 Bft) 95,65 %
07.01.2018 12:58 5,8 C 4,4 C 94 % 1019,5 hPa 0,0 l/m 3,2 km/h (1 Bft) O-NO 67 0 min 0,000 mm 0,0 UV-I 57 W/m 4,9 C 5,8 C 4,8 km/h (1 Bft) 95,65 %
07.01.2018 12:59 5,8 C 4,4 C 94 % 1019,5 hPa 0,0 l/m 1,6 km/h (1 Bft) O-NO 67 0 min 0,000 mm 0,0 UV-I 62 W/m 4,9 C 5,8 C 3,2 km/h (1 Bft) 95,65 %
07.01.2018 13:00 5,8 C 4,4 C 94 % 1019,5 hPa 0,0 l/m 3,2 km/h (1 Bft) O 90 0 min 0,025 mm 0,0 UV-I 67 W/m 4,9 C 5,8 C 6,4 km/h (2 Bft) 100,00 %
07.01.2018 13:01 5,8 C 4,4 C 94 % 1019,6 hPa 0,0 l/m 1,6 km/h (1 Bft) O 90 0 min 0,000 mm 0,0 UV-I 69 W/m 4,9 C 5,8 C 3,2 km/h (1 Bft) 91,30 %
07.01.2018 13:02 5,8 C 4,4 C 94 % 1019,5 hPa 0,0 l/m 0,0 km/h (0 Bft) O 90 0 min 0,000 mm 0,0 UV-I 65 W/m 4,9 C 5,8 C 1,6 km/h (1 Bft) 100,00 %
07.01.2018 13:03 5,8 C 4,4 C 94 % 1019,5 hPa 0,0 l/m 4,8 km/h (1 Bft) O-NO 67 0 min 0,000 mm 0,0 UV-I 62 W/m 4,9 C 5,8 C 6,4 km/h (2 Bft) 100,00 %
07.01.2018 13:04 5,8 C 4,4 C 94 % 1019,6 hPa 0,0 l/m 3,2 km/h (1 Bft) O-NO 67 0 min 0,000 mm 0,0 UV-I 67 W/m 4,9 C 5,8 C 4,8 km/h (1 Bft) 95,65 %
07.01.2018 13:05 5,9 C 4,4 C 94 % 1019,6 hPa 0,0 l/m 3,2 km/h (1 Bft) O-NO 67 0 min 0,000 mm 0,0 UV-I 69 W/m 5,0 C 5,9 C 4,8 km/h (1 Bft) 100,00 %
07.01.2018 13:06 5,9 C 4,4 C 94 % 1019,5 hPa 0,0 l/m 3,2 km/h (1 Bft) O-NO 67 0 min 0,000 mm 0,0 UV-I 67 W/m 5,0 C 5,9 C 4,8 km/h (1 Bft) 95,65 %
07.01.2018 13:07 5,9 C 4,4 C 94 % 1019,6 hPa 0,0 l/m 1,6 km/h (1 Bft) O-NO 67 0 min 0,000 mm 0,0 UV-I 65 W/m 5,0 C 5,9 C 4,8 km/h (1 Bft) 100,00 %
07.01.2018 13:08 5,9 C 4,4 C 93 % 1019,6 hPa 0,0 l/m 0,0 km/h (0 Bft) O-NO 67 0 min 0,000 mm 0,0 UV-I 60 W/m 4,9 C 5,9 C 3,2 km/h (1 Bft) 100,00 %
07.01.2018 13:09 5,9 C 4,4 C 93 % 1019,6 hPa 0,0 l/m 3,2 km/h (1 Bft) O-NO 67 0 min 0,000 mm 0,0 UV-I 63 W/m 4,9 C 5,9 C 4,8 km/h (1 Bft) 95,65 %
07.01.2018 13:10 5,9 C 4,4 C 93 % 1019,6 hPa 0,0 l/m 1,6 km/h (1 Bft) O-NO 67 0 min 0,000 mm 0,0 UV-I 64 W/m 4,9 C 5,9 C 3,2 km/h (1 Bft) 100,00 %
07.01.2018 13:11 5,9 C 4,4 C 93 % 1019,6 hPa 0,0 l/m 1,6 km/h (1 Bft) O-NO 67 0 min 0,000 mm 0,0 UV-I 62 W/m 4,9 C 5,9 C 3,2 km/h (1 Bft) 95,65 %
07.01.2018 13:12 5,9 C 4,4 C 93 % 1019,6 hPa 0,0 l/m 3,2 km/h (1 Bft) O-NO 67 0 min 0,000 mm 0,0 UV-I 62 W/m 4,9 C 5,9 C 3,2 km/h (1 Bft) 100,00 %
07.01.2018 13:13 5,9 C 4,4 C 94 % 1019,7 hPa 0,0 l/m 0,0 km/h (0 Bft) O-NO 67 0 min 0,000 mm 0,0 UV-I 63 W/m 5,0 C 5,9 C 1,6 km/h (1 Bft) 95,65 %
07.01.2018 13:14 5,9 C 4,4 C 93 % 1019,6 hPa 0,0 l/m 1,6 km/h (1 Bft) O-NO 67 0 min 0,000 mm 0,0 UV-I 65 W/m 4,9 C 5,9 C 3,2 km/h (1 Bft) 100,00 %
07.01.2018 13:15 5,9 C 4,4 C 93 % 1019,5 hPa 0,0 l/m 0,0 km/h (0 Bft) O-NO 67 0 min 0,000 mm 0,0 UV-I 67 W/m 4,9 C 5,9 C 3,2 km/h (1 Bft) 100,00 %
07.01.2018 13:16 5,9 C 4,4 C 93 % 1019,6 hPa 0,0 l/m 1,6 km/h (1 Bft) O-NO 67 0 min 0,000 mm 0,0 UV-I 69 W/m 4,9 C 5,9 C 3,2 km/h (1 Bft) 95,65 %
07.01.2018 13:17 5,9 C 4,4 C 93 % 1019,5 hPa 0,0 l/m 3,2 km/h (1 Bft) O-NO 67 0 min 0,000 mm 0,0 UV-I 70 W/m 4,9 C 5,9 C 3,2 km/h (1 Bft) 100,00 %
07.01.2018 13:18 5,9 C 4,4 C 93 % 1019,6 hPa 0,0 l/m 3,2 km/h (1 Bft) O-NO 67 0 min 0,000 mm 0,0 UV-I 74 W/m 4,9 C 5,9 C 3,2 km/h (1 Bft) 91,30 %
07.01.2018 13:19 5,9 C 4,4 C 94 % 1019,5 hPa 0,0 l/m 3,2 km/h (1 Bft) O-NO 67 0 min 0,000 mm 0,0 UV-I 77 W/m 5,0 C 5,9 C 4,8 km/h (1 Bft) 100,00 %
07.01.2018 13:20 5,9 C 4,4 C 94 % 1019,5 hPa 0,0 l/m 4,8 km/h (1 Bft) O-NO 67 0 min 0,000 mm 0,0 UV-I 76 W/m 5,0 C 5,9 C 6,4 km/h (2 Bft) 100,00 %
07.01.2018 13:21 5,9 C 4,4 C 94 % 1019,5 hPa 0,0 l/m 4,8 km/h (1 Bft) O-NO 67 0 min 0,000 mm 0,0 UV-I 81 W/m 5,0 C 5,9 C 6,4 km/h (2 Bft) 100,00 %
07.01.2018 13:22 5,9 C 4,4 C 94 % 1019,5 hPa 0,0 l/m 6,4 km/h (2 Bft) O-NO 67 0 min 0,000 mm 0,0 UV-I 86 W/m 5,0 C 5,9 C 8,0 km/h (2 Bft) 95,65 %
07.01.2018 13:23 6,0 C 4,4 C 94 % 1019,4 hPa 0,0 l/m 6,4 km/h (2 Bft) O-NO 67 0 min 0,000 mm 0,0 UV-I 86 W/m 5,1 C 6,0 C 8,0 km/h (2 Bft) 100,00 %
07.01.2018 13:24 6,0 C 4,4 C 93 % 1019,4 hPa 0,0 l/m 4,8 km/h (1 Bft) O-NO 67 0 min 0,000 mm 0,0 UV-I 88 W/m 5,0 C 6,0 C 8,0 km/h (2 Bft) 100,00 %
07.01.2018 13:25 6,0 C 4,4 C 93 % 1019,4 hPa 0,0 l/m 6,4 km/h (2 Bft) O-NO 67 0 min 0,000 mm 0,0 UV-I 88 W/m 5,0 C 6,0 C 9,7 km/h (2 Bft) 95,65 %
07.01.2018 13:26 5,9 C 4,4 C 93 % 1019,4 hPa 0,0 l/m 6,4 km/h (2 Bft) NO 45 0 min 0,000 mm 0,0 UV-I 84 W/m 4,9 C 5,9 C 9,7 km/h (2 Bft) 100,00 %
07.01.2018 13:27 6,0 C 4,4 C 93 % 1019,4 hPa 0,0 l/m 6,4 km/h (2 Bft) O-NO 67 0 min 0,000 mm 0,0 UV-I 84 W/m 5,0 C 6,0 C 8,0 km/h (2 Bft) 100,00 %
07.01.2018 13:28 6,0 C 4,4 C 93 % 1019,4 hPa 0,0 l/m 4,8 km/h (1 Bft) O-NO 67 0 min 0,000 mm 0,0 UV-I 90 W/m 5,0 C 6,0 C 8,0 km/h (2 Bft) 100,00 %
07.01.2018 13:29 6,0 C 4,4 C 93 % 1019,4 hPa 0,0 l/m 6,4 km/h (2 Bft) O-NO 67 0 min 0,000 mm 0,0 UV-I 90 W/m 5,0 C 6,0 C 8,0 km/h (2 Bft) 100,00 %
07.01.2018 13:30 6,0 C 4,4 C 93 % 1019,4 hPa 0,0 l/m 3,2 km/h (1 Bft) O-NO 67 0 min 0,000 mm 0,0 UV-I 95 W/m 5,0 C 6,0 C 8,0 km/h (2 Bft) 100,00 %
07.01.2018 13:31 6,0 C 4,4 C 93 % 1019,4 hPa 0,0 l/m 6,4 km/h (2 Bft) O-NO 67 0 min 0,000 mm 0,0 UV-I 93 W/m 5,0 C 6,0 C 12,9 km/h (3 Bft) 95,65 %
07.01.2018 13:32 6,0 C 4,4 C 93 % 1019,4 hPa 0,0 l/m 6,4 km/h (2 Bft) NO 45 0 min 0,000 mm 0,0 UV-I 93 W/m 5,0 C 6,0 C 11,3 km/h (2 Bft) 95,65 %
07.01.2018 13:33 6,1 C 4,4 C 93 % 1019,4 hPa 0,0 l/m 9,7 km/h (2 Bft) O-NO 67 0 min 0,000 mm 0,0 UV-I 97 W/m 5,1 C 3,5 C 14,5 km/h (3 Bft) 95,65 %
07.01.2018 13:34 6,1 C 4,4 C 93 % 1019,4 hPa 0,0 l/m 6,4 km/h (2 Bft) NO 45 0 min 0,000 mm 0,0 UV-I 98 W/m 5,1 C 6,1 C 9,7 km/h (2 Bft) 100,00 %
07.01.2018 13:35 6,1 C 4,4 C 93 % 1019,4 hPa 0,0 l/m 8,0 km/h (2 Bft) N-NO 22 0 min 0,000 mm 0,0 UV-I 97 W/m 5,1 C 4,8 C 12,9 km/h (3 Bft) 95,65 %
07.01.2018 13:36 6,2 C 4,4 C 94 % 1019,4 hPa 0,0 l/m 8,0 km/h (2 Bft) O-NO 67 0 min 0,000 mm 0,0 UV-I 95 W/m 5,3 C 4,9 C 14,5 km/h (3 Bft) 100,00 %
07.01.2018 13:37 6,2 C 4,4 C 93 % 1019,4 hPa 0,0 l/m 8,0 km/h (2 Bft) N-NO 22 0 min 0,000 mm 0,0 UV-I 97 W/m 5,2 C 4,9 C 8,0 km/h (2 Bft) 91,30 %
07.01.2018 13:38 6,2 C 4,4 C 94 % 1019,4 hPa 0,0 l/m 6,4 km/h (2 Bft) NO 45 0 min 0,000 mm 0,0 UV-I 95 W/m 5,3 C 6,2 C 9,7 km/h (2 Bft) 100,00 %
07.01.2018 13:39 6,2 C 4,4 C 94 % 1019,3 hPa 0,0 l/m 6,4 km/h (2 Bft) NO 45 0 min 0,000 mm 0,0 UV-I 92 W/m 5,3 C 6,2 C 9,7 km/h (2 Bft) 91,30 %
07.01.2018 13:40 6,3 C 4,4 C 94 % 1019,4 hPa 0,0 l/m 8,0 km/h (2 Bft) NO 45 0 min 0,000 mm 0,0 UV-I 88 W/m 5,4 C 5,0 C 14,5 km/h (3 Bft) 100,00 %
07.01.2018 13:41 6,3 C 4,4 C 93 % 1019,3 hPa 0,0 l/m 8,0 km/h (2 Bft) NO 45 0 min 0,000 mm 0,0 UV-I 88 W/m 5,3 C 5,0 C 14,5 km/h (3 Bft) 91,30 %
07.01.2018 13:42 6,3 C 4,4 C 94 % 1019,4 hPa 0,0 l/m 9,7 km/h (2 Bft) O-NO 67 0 min 0,000 mm 0,0 UV-I 88 W/m 5,4 C 3,7 C 14,5 km/h (3 Bft) 100,00 %
07.01.2018 13:43 6,3 C 4,4 C 93 % 1019,3 hPa 0,0 l/m 11,3 km/h (2 Bft) O-NO 67 0 min 0,000 mm 0,0 UV-I 83 W/m 5,3 C 2,7 C 19,3 km/h (3 Bft) 91,30 %
07.01.2018 13:44 6,3 C 4,4 C 93 % 1019,4 hPa 0,0 l/m 8,0 km/h (2 Bft) NO 45 0 min 0,000 mm 0,0 UV-I 81 W/m 5,3 C 5,0 C 11,3 km/h (2 Bft) 95,65 %
07.01.2018 13:45 6,3 C 4,4 C 93 % 1019,4 hPa 0,0 l/m 8,0 km/h (2 Bft) O-NO 67 0 min 0,000 mm 0,0 UV-I 77 W/m 5,3 C 5,0 C 11,3 km/h (2 Bft) 100,00 %
07.01.2018 13:46 6,3 C 4,4 C 93 % 1019,4 hPa 0,0 l/m 11,3 km/h (2 Bft) O-NO 67 0 min 0,000 mm 0,0 UV-I 74 W/m 5,3 C 2,7 C 12,9 km/h (3 Bft) 91,30 %
07.01.2018 13:47 6,4 C 4,4 C 93 % 1019,4 hPa 0,0 l/m 11,3 km/h (2 Bft) O-NO 67 0 min 0,000 mm 0,0 UV-I 72 W/m 5,4 C 2,8 C 16,1 km/h (3 Bft) 100,00 %
07.01.2018 13:48 6,4 C 4,4 C 93 % 1019,4 hPa 0,0 l/m 11,3 km/h (2 Bft) O-NO 67 0 min 0,000 mm 0,0 UV-I 65 W/m 5,4 C 2,8 C 17,7 km/h (3 Bft) 95,65 %
07.01.2018 13:49 6,4 C 4,4 C 93 % 1019,3 hPa 0,0 l/m 9,7 km/h (2 Bft) O-NO 67 0 min 0,000 mm 0,0 UV-I 56 W/m 5,4 C 3,8 C 16,1 km/h (3 Bft) 100,00 %
07.01.2018 13:50 6,4 C 4,4 C 93 % 1019,4 hPa 0,0 l/m 11,3 km/h (2 Bft) O-NO 67 0 min 0,000 mm 0,0 UV-I 65 W/m 5,4 C 2,8 C 14,5 km/h (3 Bft) 95,65 %
07.01.2018 13:51 6,4 C 4,4 C 93 % 1019,4 hPa 0,0 l/m 11,3 km/h (2 Bft) O-NO 67 0 min 0,000 mm 0,0 UV-I 66 W/m 5,4 C 2,8 C 14,5 km/h (3 Bft) 100,00 %
07.01.2018 13:52 6,4 C 4,4 C 93 % 1019,3 hPa 0,0 l/m 9,7 km/h (2 Bft) O-NO 67 0 min 0,000 mm 0,0 UV-I 69 W/m 5,4 C 3,8 C 16,1 km/h (3 Bft) 95,65 %
07.01.2018 13:53 6,4 C 4,4 C 93 % 1019,2 hPa 0,0 l/m 9,7 km/h (2 Bft) NO 45 0 min 0,000 mm 0,0 UV-I 70 W/m 5,4 C 3,8 C 12,9 km/h (3 Bft) 95,65 %
07.01.2018 13:54 6,4 C 4,4 C 93 % 1019,3 hPa 0,0 l/m 8,0 km/h (2 Bft) O-NO 67 0 min 0,000 mm 0,0 UV-I 69 W/m 5,4 C 5,1 C 11,3 km/h (2 Bft) 100,00 %
07.01.2018 13:55 6,4 C 4,4 C 93 % 1019,3 hPa 0,0 l/m 16,1 km/h (3 Bft) O-NO 67 0 min 0,000 mm 0,0 UV-I 65 W/m 5,4 C 0,3 C 19,3 km/h (3 Bft) 100,00 %
07.01.2018 13:56 6,4 C 4,4 C 93 % 1019,3 hPa 0,0 l/m 12,9 km/h (3 Bft) O-NO 67 0 min 0,000 mm 0,0 UV-I 65 W/m 5,4 C 1,9 C 19,3 km/h (3 Bft) 100,00 %
07.01.2018 13:57 6,4 C 4,4 C 93 % 1019,3 hPa 0,0 l/m 8,0 km/h (2 Bft) O-NO 67 0 min 0,000 mm 0,0 UV-I 64 W/m 5,4 C 5,1 C 12,9 km/h (3 Bft) 100,00 %
07.01.2018 13:58 6,4 C 4,4 C 93 % 1019,3 hPa 0,0 l/m 9,7 km/h (2 Bft) O-NO 67 0 min 0,000 mm 0,0 UV-I 63 W/m 5,4 C 3,8 C 12,9 km/h (3 Bft) 95,65 %
07.01.2018 13:59 6,4 C 4,4 C 93 % 1019,3 hPa 0,0 l/m 9,7 km/h (2 Bft) O-NO 67 0 min 0,000 mm 0,0 UV-I 63 W/m 5,4 C 3,8 C 14,5 km/h (3 Bft) 100,00 %
07.01.2018 14:00 6,4 C 4,4 C 93 % 1019,3 hPa 0,0 l/m 9,7 km/h (2 Bft) NO 45 0 min 0,025 mm 0,0 UV-I 65 W/m 5,4 C 3,8 C 14,5 km/h (3 Bft) 95,65 %
07.01.2018 14:01 6,4 C 4,4 C 93 % 1019,3 hPa 0,0 l/m 9,7 km/h (2 Bft) O-NO 67 0 min 0,000 mm 0,0 UV-I 65 W/m 5,4 C 3,8 C 12,9 km/h (3 Bft) 100,00 %
07.01.2018 14:02 6,5 C 4,4 C 93 % 1019,3 hPa 0,0 l/m 8,0 km/h (2 Bft) O 90 0 min 0,000 mm 0,0 UV-I 63 W/m 5,5 C 5,2 C 11,3 km/h (2 Bft) 100,00 %
07.01.2018 14:03 6,5 C 4,4 C 93 % 1019,3 hPa 0,0 l/m 4,8 km/h (1 Bft) NO 45 0 min 0,000 mm 0,0 UV-I 62 W/m 5,5 C 6,5 C 8,0 km/h (2 Bft) 100,00 %
07.01.2018 14:04 6,5 C 4,4 C 93 % 1019,3 hPa 0,0 l/m 4,8 km/h (1 Bft) O-NO 67 0 min 0,000 mm 0,0 UV-I 58 W/m 5,5 C 6,5 C 6,4 km/h (2 Bft) 95,65 %
07.01.2018 14:05 6,5 C 4,4 C 93 % 1019,4 hPa 0,0 l/m 9,7 km/h (2 Bft) NO 45 0 min 0,000 mm 0,0 UV-I 56 W/m 5,5 C 3,9 C 14,5 km/h (3 Bft) 100,00 %
07.01.2018 14:06 6,5 C 4,4 C 93 % 1019,4 hPa 0,0 l/m 11,3 km/h (2 Bft) O-NO 67 0 min 0,000 mm 0,0 UV-I 54 W/m 5,5 C 2,9 C 16,1 km/h (3 Bft) 100,00 %
07.01.2018 14:07 6,6 C 4,4 C 93 % 1019,5 hPa 0,0 l/m 11,3 km/h (2 Bft) O-NO 67 0 min 0,000 mm 0,0 UV-I 53 W/m 5,6 C 3,0 C 14,5 km/h (3 Bft) 95,65 %
07.01.2018 14:08 6,5 C 4,4 C 93 % 1019,5 hPa 0,0 l/m 8,0 km/h (2 Bft) O-NO 67 0 min 0,000 mm 0,0 UV-I 51 W/m 5,5 C 5,2 C 11,3 km/h (2 Bft) 100,00 %
07.01.2018 14:09 6,5 C 4,4 C 93 % 1019,5 hPa 0,0 l/m 8,0 km/h (2 Bft) O 90 0 min 0,000 mm 0,0 UV-I 50 W/m 5,5 C 5,2 C 12,9 km/h (3 Bft) 100,00 %
07.01.2018 14:10 6,5 C 4,4 C 93 % 1019,5 hPa 0,0 l/m 8,0 km/h (2 Bft) O-NO 67 0 min 0,000 mm 0,0 UV-I 49 W/m 5,5 C 5,2 C 12,9 km/h (3 Bft) 100,00 %
07.01.2018 14:11 6,5 C 4,4 C 93 % 1019,5 hPa 0,0 l/m 6,4 km/h (2 Bft) O-NO 67 0 min 0,000 mm 0,0 UV-I 49 W/m 5,5 C 6,5 C 8,0 km/h (2 Bft) 100,00 %
07.01.2018 14:12 6,6 C 4,4 C 93 % 1019,5 hPa 0,0 l/m 8,0 km/h (2 Bft) O-NO 67 0 min 0,000 mm 0,0 UV-I 47 W/m 5,6 C 5,3 C 12,9 km/h (3 Bft) 100,00 %
07.01.2018 14:13 6,6 C 4,4 C 93 % 1019,5 hPa 0,0 l/m 6,4 km/h (2 Bft) O-NO 67 0 min 0,000 mm 0,0 UV-I 49 W/m 5,6 C 6,6 C 9,7 km/h (2 Bft) 95,65 %
07.01.2018 14:14 6,6 C 4,4 C 93 % 1019,4 hPa 0,0 l/m 8,0 km/h (2 Bft) O-NO 67 0 min 0,000 mm 0,0 UV-I 49 W/m 5,6 C 5,3 C 14,5 km/h (3 Bft) 95,65 %
07.01.2018 14:15 6,6 C 4,4 C 93 % 1019,5 hPa 0,0 l/m 8,0 km/h (2 Bft) O-NO 67 0 min 0,000 mm 0,0 UV-I 50 W/m 5,6 C 5,3 C 9,7 km/h (2 Bft) 100,00 %
07.01.2018 14:16 6,6 C 4,4 C 93 % 1019,5 hPa 0,0 l/m 6,4 km/h (2 Bft) O-NO 67 0 min 0,000 mm 0,0 UV-I 49 W/m 5,6 C 6,6 C 11,3 km/h (2 Bft) 100,00 %
07.01.2018 14:17 6,6 C 4,4 C 93 % 1019,5 hPa 0,0 l/m 6,4 km/h (2 Bft) O-NO 67 0 min 0,000 mm 0,0 UV-I 47 W/m 5,6 C 6,6 C 11,3 km/h (2 Bft) 100,00 %
07.01.2018 14:18 6,6 C 4,4 C 93 % 1019,5 hPa 0,0 l/m 8,0 km/h (2 Bft) O-NO 67 0 min 0,000 mm 0,0 UV-I 47 W/m 5,6 C 5,3 C 9,7 km/h (2 Bft) 100,00 %
07.01.2018 14:19 6,6 C 4,4 C 94 % 1019,5 hPa 0,0 l/m 9,7 km/h (2 Bft) O-NO 67 0 min 0,000 mm 0,0 UV-I 46 W/m 5,7 C 4,0 C 12,9 km/h (3 Bft) 100,00 %
07.01.2018 14:20 6,6 C 4,4 C 94 % 1019,5 hPa 0,0 l/m 9,7 km/h (2 Bft) NO 45 0 min 0,000 mm 0,0 UV-I 46 W/m 5,7 C 4,0 C 14,5 km/h (3 Bft) 100,00 %
07.01.2018 14:21 6,6 C 4,4 C 94 % 1019,5 hPa 0,0 l/m 8,0 km/h (2 Bft) O-NO 67 0 min 0,000 mm 0,0 UV-I 49 W/m 5,7 C 5,3 C 12,9 km/h (3 Bft) 95,65 %
07.01.2018 14:22 6,6 C 4,4 C 94 % 1019,6 hPa 0,0 l/m 8,0 km/h (2 Bft) O-NO 67 0 min 0,000 mm 0,0 UV-I 46 W/m 5,7 C 5,3 C 11,3 km/h (2 Bft) 95,65 %
07.01.2018 14:23 6,7 C 4,4 C 94 % 1019,6 hPa 0,0 l/m 6,4 km/h (2 Bft) O-NO 67 0 min 0,000 mm 0,0 UV-I 46 W/m 5,8 C 6,7 C 11,3 km/h (2 Bft) 100,00 %
07.01.2018 14:24 6,7 C 4,4 C 94 % 1019,6 hPa 0,0 l/m 11,3 km/h (2 Bft) O-NO 67 0 min 0,000 mm 0,0 UV-I 47 W/m 5,8 C 3,1 C 16,1 km/h (3 Bft) 100,00 %
07.01.2018 14:25 6,7 C 4,4 C 94 % 1019,6 hPa 0,0 l/m 9,7 km/h (2 Bft) O-NO 67 0 min 0,000 mm 0,0 UV-I 49 W/m 5,8 C 4,2 C 14,5 km/h (3 Bft) 100,00 %
07.01.2018 14:26 6,7 C 4,4 C 94 % 1019,6 hPa 0,0 l/m 8,0 km/h (2 Bft) O-NO 67 0 min 0,000 mm 0,0 UV-I 47 W/m 5,8 C 5,4 C 12,9 km/h (3 Bft) 95,65 %
07.01.2018 14:27 6,7 C 4,4 C 94 % 1019,6 hPa 0,0 l/m 6,4 km/h (2 Bft) O-NO 67 0 min 0,000 mm 0,0 UV-I 44 W/m 5,8 C 6,7 C 11,3 km/h (2 Bft) 100,00 %
07.01.2018 14:28 6,7 C 4,4 C 94 % 1019,7 hPa 0,0 l/m 8,0 km/h (2 Bft) O-NO 67 0 min 0,000 mm 0,0 UV-I 44 W/m 5,8 C 5,4 C 11,3 km/h (2 Bft) 91,30 %
07.01.2018 14:29 6,7 C 4,4 C 94 % 1019,7 hPa 0,0 l/m 11,3 km/h (2 Bft) O-NO 67 0 min 0,000 mm 0,0 UV-I 44 W/m 5,8 C 3,1 C 14,5 km/h (3 Bft) 91,30 %
07.01.2018 14:30 6,7 C 4,4 C 94 % 1019,7 hPa 0,0 l/m 8,0 km/h (2 Bft) O 90 0 min 0,000 mm 0,0 UV-I 44 W/m 5,8 C 5,4 C 11,3 km/h (2 Bft) 100,00 %
07.01.2018 14:31 6,7 C 4,4 C 94 % 1019,8 hPa 0,0 l/m 9,7 km/h (2 Bft) O 90 0 min 0,000 mm 0,0 UV-I 44 W/m 5,8 C 4,2 C 12,9 km/h (3 Bft) 95,65 %
07.01.2018 14:32 6,8 C 4,4 C 93 % 1019,8 hPa 0,0 l/m 11,3 km/h (2 Bft) O-NO 67 0 min 0,000 mm 0,0 UV-I 47 W/m 5,7 C 3,2 C 14,5 km/h (3 Bft) 100,00 %
07.01.2018 14:33 6,8 C 4,4 C 93 % 1019,8 hPa 0,0 l/m 6,4 km/h (2 Bft) O-NO 67 0 min 0,000 mm 0,0 UV-I 49 W/m 5,7 C 6,8 C 9,7 km/h (2 Bft) 95,65 %
07.01.2018 14:34 6,8 C 4,4 C 93 % 1019,8 hPa 0,0 l/m 6,4 km/h (2 Bft) O-NO 67 0 min 0,000 mm 0,0 UV-I 49 W/m 5,7 C 6,8 C 8,0 km/h (2 Bft) 95,65 %
07.01.2018 14:35 6,8 C 4,4 C 93 % 1019,9 hPa 0,0 l/m 6,4 km/h (2 Bft) O-NO 67 0 min 0,000 mm 0,0 UV-I 49 W/m 5,7 C 6,8 C 9,7 km/h (2 Bft) 95,65 %
07.01.2018 14:36 6,8 C 4,4 C 93 % 1019,8 hPa 0,0 l/m 6,4 km/h (2 Bft) O 90 0 min 0,000 mm 0,0 UV-I 53 W/m 5,7 C 6,8 C 9,7 km/h (2 Bft) 95,65 %
07.01.2018 14:37 6,8 C 4,4 C 93 % 1019,9 hPa 0,0 l/m 8,0 km/h (2 Bft) O-NO 67 0 min 0,000 mm 0,0 UV-I 53 W/m 5,7 C 5,5 C 12,9 km/h (3 Bft) 100,00 %
07.01.2018 14:38 6,8 C 4,4 C 93 % 1019,9 hPa 0,0 l/m 4,8 km/h (1 Bft) O 90 0 min 0,000 mm 0,0 UV-I 48 W/m 5,7 C 6,8 C 9,7 km/h (2 Bft) 91,30 %
07.01.2018 14:39 6,8 C 4,4 C 93 % 1019,9 hPa 0,0 l/m 9,7 km/h (2 Bft) O-NO 67 0 min 0,000 mm 0,0 UV-I 46 W/m 5,7 C 4,3 C 12,9 km/h (3 Bft) 100,00 %
07.01.2018 14:40 6,8 C 4,4 C 93 % 1019,9 hPa 0,0 l/m 8,0 km/h (2 Bft) O 90 0 min 0,000 mm 0,0 UV-I 44 W/m 5,7 C 5,5 C 11,3 km/h (2 Bft) 91,30 %
07.01.2018 14:41 6,8 C 4,4 C 93 % 1019,9 hPa 0,0 l/m 11,3 km/h (2 Bft) O-NO 67 0 min 0,000 mm 0,0 UV-I 42 W/m 5,7 C 3,2 C 16,1 km/h (3 Bft) 100,00 %
07.01.2018 14:42 6,8 C 4,4 C 93 % 1020,0 hPa 0,0 l/m 8,0 km/h (2 Bft) O-NO 67 0 min 0,000 mm 0,0 UV-I 40 W/m 5,7 C 5,5 C 12,9 km/h (3 Bft) 91,30 %
07.01.2018 14:43 6,9 C 4,4 C 93 % 1019,9 hPa 0,0 l/m 6,4 km/h (2 Bft) O-NO 67 0 min 0,000 mm 0,0 UV-I 40 W/m 5,8 C 6,9 C 8,0 km/h (2 Bft) 95,65 %
07.01.2018 14:44 6,9 C 4,4 C 93 % 1020,0 hPa 0,0 l/m 8,0 km/h (2 Bft) O-NO 67 0 min 0,000 mm 0,0 UV-I 38 W/m 5,8 C 5,6 C 12,9 km/h (3 Bft) 95,65 %
07.01.2018 14:45 6,9 C 4,4 C 93 % 1020,0 hPa 0,0 l/m 9,7 km/h (2 Bft) O 90 0 min 0,000 mm 0,0 UV-I 37 W/m 5,8 C 4,4 C 12,9 km/h (3 Bft) 95,65 %
07.01.2018 14:46 6,9 C 4,4 C 93 % 1020,0 hPa 0,0 l/m 9,7 km/h (2 Bft) O 90 0 min 0,000 mm 0,0 UV-I 39 W/m 5,8 C 4,4 C 14,5 km/h (3 Bft) 100,00 %
07.01.2018 14:47 6,9 C 4,4 C 93 % 1020,0 hPa 0,0 l/m 12,9 km/h (3 Bft) O 90 0 min 0,000 mm 0,0 UV-I 39 W/m 5,8 C 2,4 C 17,7 km/h (3 Bft) 95,65 %
07.01.2018 14:48 6,9 C 4,4 C 94 % 1019,9 hPa 0,0 l/m 9,7 km/h (2 Bft) O 90 0 min 0,000 mm 0,0 UV-I 39 W/m 6,0 C 4,4 C 16,1 km/h (3 Bft) 95,65 %
07.01.2018 14:49 6,9 C 4,4 C 93 % 1019,9 hPa 0,0 l/m 9,7 km/h (2 Bft) O-NO 67 0 min 0,000 mm 0,0 UV-I 39 W/m 5,8 C 4,4 C 16,1 km/h (3 Bft) 86,96 %
07.01.2018 14:50 7,0 C 4,4 C 93 % 1019,9 hPa 0,0 l/m 8,0 km/h (2 Bft) O 90 0 min 0,000 mm 0,0 UV-I 41 W/m 5,9 C 5,7 C 14,5 km/h (3 Bft) 100,00 %
07.01.2018 14:51 7,0 C 4,4 C 93 % 1019,9 hPa 0,0 l/m 12,9 km/h (3 Bft) O 90 0 min 0,000 mm 0,0 UV-I 42 W/m 5,9 C 2,6 C 17,7 km/h (3 Bft) 95,65 %
07.01.2018 14:52 7,0 C 4,4 C 93 % 1019,9 hPa 0,0 l/m 14,5 km/h (3 Bft) O 90 0 min 0,000 mm 0,0 UV-I 42 W/m 5,9 C 1,7 C 17,7 km/h (3 Bft) 95,65 %
07.01.2018 14:53 7,0 C 4,4 C 93 % 1019,9 hPa 0,0 l/m 14,5 km/h (3 Bft) O 90 0 min 0,000 mm 0,0 UV-I 44 W/m 5,9 C 1,7 C 17,7 km/h (3 Bft) 100,00 %
07.01.2018 14:54 7,1 C 4,4 C 93 % 1019,9 hPa 0,0 l/m 9,7 km/h (2 Bft) O-NO 67 0 min 0,000 mm 0,0 UV-I 44 W/m 6,0 C 4,6 C 14,5 km/h (3 Bft) 95,65 %
07.01.2018 14:55 7,1 C 4,4 C 93 % 1020,0 hPa 0,0 l/m 12,9 km/h (3 Bft) O-NO 67 0 min 0,000 mm 0,0 UV-I 44 W/m 6,0 C 2,7 C 16,1 km/h (3 Bft) 100,00 %
07.01.2018 14:56 7,1 C 4,4 C 93 % 1020,0 hPa 0,0 l/m 11,3 km/h (2 Bft) O-NO 67 0 min 0,000 mm 0,0 UV-I 46 W/m 6,0 C 3,6 C 16,1 km/h (3 Bft) 86,96 %
07.01.2018 14:57 7,1 C 4,4 C 93 % 1020,0 hPa 0,0 l/m 14,5 km/h (3 Bft) O-NO 67 0 min 0,000 mm 0,0 UV-I 44 W/m 6,0 C 1,9 C 19,3 km/h (3 Bft) 100,00 %
07.01.2018 14:58 7,1 C 4,4 C 93 % 1020,0 hPa 0,0 l/m 16,1 km/h (3 Bft) O-NO 67 0 min 0,000 mm 0,0 UV-I 44 W/m 6,0 C 1,1 C 19,3 km/h (3 Bft) 91,30 %
07.01.2018 14:59 7,1 C 4,4 C 93 % 1020,0 hPa 0,0 l/m 12,9 km/h (3 Bft) O-NO 67 0 min 0,000 mm 0,0 UV-I 44 W/m 6,0 C 2,7 C 19,3 km/h (3 Bft) 100,00 %
07.01.2018 15:00 7,1 C 4,4 C 93 % 1020,0 hPa 0,0 l/m 16,1 km/h (3 Bft) O-NO 67 0 min 0,025 mm 0,0 UV-I 44 W/m 6,0 C 1,1 C 19,3 km/h (3 Bft) 91,30 %
07.01.2018 15:01 7,1 C 4,4 C 93 % 1020,0 hPa 0,0 l/m 12,9 km/h (3 Bft) O-NO 67 0 min 0,000 mm 0,0 UV-I 44 W/m 6,0 C 2,7 C 19,3 km/h (3 Bft) 95,65 %
07.01.2018 15:02 7,2 C 4,4 C 93 % 1019,9 hPa 0,0 l/m 12,9 km/h (3 Bft) O-NO 67 0 min 0,000 mm 0,0 UV-I 42 W/m 6,1 C 2,8 C 16,1 km/h (3 Bft) 95,65 %
07.01.2018 15:03 7,2 C 4,4 C 93 % 1019,9 hPa 0,0 l/m 14,5 km/h (3 Bft) O-NO 67 0 min 0,000 mm 0,0 UV-I 44 W/m 6,1 C 2,0 C 19,3 km/h (3 Bft) 86,96 %
07.01.2018 15:04 7,2 C 4,4 C 93 % 1019,9 hPa 0,0 l/m 19,3 km/h (3 Bft) O-NO 67 0 min 0,000 mm 0,0 UV-I 44 W/m 6,1 C -0,1 C 25,7 km/h (4 Bft) 100,00 %
07.01.2018 15:05 7,2 C 4,4 C 93 % 1019,9 hPa 0,0 l/m 16,1 km/h (3 Bft) O-NO 67 0 min 0,000 mm 0,0 UV-I 44 W/m 6,1 C 1,2 C 25,7 km/h (4 Bft) 91,30 %
07.01.2018 15:06 7,2 C 4,4 C 93 % 1019,9 hPa 0,0 l/m 17,7 km/h (3 Bft) O-NO 67 0 min 0,000 mm 0,0 UV-I 44 W/m 6,1 C 0,6 C 29,0 km/h (5 Bft) 100,00 %
07.01.2018 15:07 7,2 C 4,4 C 93 % 1019,8 hPa 0,0 l/m 20,9 km/h (4 Bft) O-NO 67 0 min 0,000 mm 0,0 UV-I 47 W/m 6,1 C -0,7 C 30,6 km/h (5 Bft) 95,65 %
07.01.2018 15:08 7,2 C 4,4 C 93 % 1019,9 hPa 0,0 l/m 19,3 km/h (3 Bft) O-NO 67 0 min 0,000 mm 0,0 UV-I 49 W/m 6,1 C -0,1 C 30,6 km/h (5 Bft) 95,65 %
07.01.2018 15:09 7,2 C 4,4 C 93 % 1019,8 hPa 0,0 l/m 16,1 km/h (3 Bft) O-NO 67 0 min 0,000 mm 0,0 UV-I 49 W/m 6,1 C 1,2 C 22,5 km/h (4 Bft) 95,65 %
07.01.2018 15:10 7,3 C 4,4 C 92 % 1019,8 hPa 0,0 l/m 16,1 km/h (3 Bft) NO 45 0 min 0,000 mm 0,0 UV-I 49 W/m 6,1 C 1,4 C 20,9 km/h (4 Bft) 95,65 %
07.01.2018 15:11 7,3 C 4,4 C 92 % 1019,8 hPa 0,0 l/m 19,3 km/h (3 Bft) NO 45 0 min 0,000 mm 0,0 UV-I 51 W/m 6,1 C 0,1 C 22,5 km/h (4 Bft) 95,65 %
07.01.2018 15:12 7,2 C 4,4 C 93 % 1019,8 hPa 0,0 l/m 19,3 km/h (3 Bft) O-NO 67 0 min 0,000 mm 0,0 UV-I 51 W/m 6,1 C -0,1 C 24,1 km/h (4 Bft) 100,00 %
07.01.2018 15:13 7,2 C 4,4 C 93 % 1019,7 hPa 0,0 l/m 14,5 km/h (3 Bft) O-NO 67 0 min 0,000 mm 0,0 UV-I 51 W/m 6,1 C 2,0 C 19,3 km/h (3 Bft) 95,65 %
07.01.2018 15:14 7,2 C 4,4 C 93 % 1019,8 hPa 0,0 l/m 14,5 km/h (3 Bft) NO 45 0 min 0,000 mm 0,0 UV-I 51 W/m 6,1 C 2,0 C 19,3 km/h (3 Bft) 95,65 %
07.01.2018 15:15 7,2 C 4,4 C 93 % 1019,8 hPa 0,0 l/m 14,5 km/h (3 Bft) NO 45 0 min 0,000 mm 0,0 UV-I 49 W/m 6,1 C 2,0 C 17,7 km/h (3 Bft) 95,65 %
07.01.2018 15:16 7,2 C 4,4 C 93 % 1019,8 hPa 0,0 l/m 14,5 km/h (3 Bft) NO 45 0 min 0,000 mm 0,0 UV-I 46 W/m 6,1 C 2,0 C 22,5 km/h (4 Bft) 100,00 %
07.01.2018 15:17 7,2 C 4,4 C 93 % 1019,8 hPa 0,0 l/m 12,9 km/h (3 Bft) NO 45 0 min 0,000 mm 0,0 UV-I 42 W/m 6,1 C 2,8 C 17,7 km/h (3 Bft) 86,96 %
07.01.2018 15:18 7,2 C 4,4 C 93 % 1019,8 hPa 0,0 l/m 17,7 km/h (3 Bft) O-NO 67 0 min 0,000 mm 0,0 UV-I 40 W/m 6,1 C 0,6 C 20,9 km/h (4 Bft) 100,00 %
07.01.2018 15:19 7,2 C 4,4 C 93 % 1019,8 hPa 0,0 l/m 17,7 km/h (3 Bft) O-NO 67 0 min 0,000 mm 0,0 UV-I 38 W/m 6,1 C 0,6 C 20,9 km/h (4 Bft) 100,00 %
07.01.2018 15:20 7,2 C 4,4 C 93 % 1019,8 hPa 0,0 l/m 16,1 km/h (3 Bft) O-NO 67 0 min 0,000 mm 0,0 UV-I 37 W/m 6,1 C 1,2 C 20,9 km/h (4 Bft) 100,00 %
07.01.2018 15:21 7,2 C 4,4 C 93 % 1019,9 hPa 0,0 l/m 14,5 km/h (3 Bft) O-NO 67 0 min 0,000 mm 0,0 UV-I 39 W/m 6,1 C 2,0 C 19,3 km/h (3 Bft) 100,00 %
07.01.2018 15:22 7,2 C 4,4 C 93 % 1019,8 hPa 0,0 l/m 16,1 km/h (3 Bft) NO 45 0 min 0,000 mm 0,0 UV-I 39 W/m 6,1 C 1,2 C 20,9 km/h (4 Bft) 95,65 %
07.01.2018 15:23 7,2 C 4,4 C 93 % 1019,9 hPa 0,0 l/m 14,5 km/h (3 Bft) O-NO 67 0 min 0,000 mm 0,0 UV-I 40 W/m 6,1 C 2,0 C 17,7 km/h (3 Bft) 100,00 %
07.01.2018 15:24 7,2 C 4,4 C 93 % 1019,9 hPa 0,0 l/m 12,9 km/h (3 Bft) O-NO 67 0 min 0,000 mm 0,0 UV-I 42 W/m 6,1 C 2,8 C 17,7 km/h (3 Bft) 91,30 %
07.01.2018 15:25 7,2 C 4,4 C 93 % 1019,9 hPa 0,0 l/m 12,9 km/h (3 Bft) O-NO 67 0 min 0,000 mm 0,0 UV-I 45 W/m 6,1 C 2,8 C 17,7 km/h (3 Bft) 100,00 %
07.01.2018 15:26 7,2 C 4,4 C 93 % 1019,9 hPa 0,0 l/m 12,9 km/h (3 Bft) NO 45 0 min 0,000 mm 0,0 UV-I 47 W/m 6,1 C 2,8 C 17,7 km/h (3 Bft) 100,00 %
07.01.2018 15:27 7,2 C 4,4 C 93 % 1020,0 hPa 0,0 l/m 9,7 km/h (2 Bft) O-NO 67 0 min 0,000 mm 0,0 UV-I 49 W/m 6,1 C 4,7 C 14,5 km/h (3 Bft) 100,00 %
07.01.2018 15:28 7,2 C 4,4 C 93 % 1020,0 hPa 0,0 l/m 12,9 km/h (3 Bft) O-NO 67 0 min 0,000 mm 0,0 UV-I 47 W/m 6,1 C 2,8 C 16,1 km/h (3 Bft) 100,00 %
07.01.2018 15:29 7,2 C 4,4 C 93 % 1020,0 hPa 0,0 l/m 11,3 km/h (2 Bft) O-NO 67 0 min 0,000 mm 0,0 UV-I 46 W/m 6,1 C 3,7 C 19,3 km/h (3 Bft) 100,00 %
07.01.2018 15:30 7,2 C 4,4 C 93 % 1020,0 hPa 0,0 l/m 11,3 km/h (2 Bft) O-NO 67 0 min 0,000 mm 0,0 UV-I 42 W/m 6,1 C 3,7 C 16,1 km/h (3 Bft) 100,00 %
07.01.2018 15:31 7,2 C 4,4 C 93 % 1020,1 hPa 0,0 l/m 12,9 km/h (3 Bft) O-NO 67 0 min 0,000 mm 0,0 UV-I 40 W/m 6,1 C 2,8 C 16,1 km/h (3 Bft) 95,65 %
07.01.2018 15:32 7,1 C 4,4 C 93 % 1020,1 hPa 0,0 l/m 12,9 km/h (3 Bft) NO 45 0 min 0,000 mm 0,0 UV-I 40 W/m 6,0 C 2,7 C 16,1 km/h (3 Bft) 100,00 %
07.01.2018 15:33 7,1 C 4,4 C 93 % 1020,1 hPa 0,0 l/m 11,3 km/h (2 Bft) O-NO 67 0 min 0,000 mm 0,0 UV-I 39 W/m 6,0 C 3,6 C 14,5 km/h (3 Bft) 100,00 %
07.01.2018 15:34 7,1 C 4,4 C 93 % 1020,2 hPa 0,0 l/m 14,5 km/h (3 Bft) O-NO 67 0 min 0,000 mm 0,0 UV-I 35 W/m 6,0 C 1,9 C 17,7 km/h (3 Bft) 95,65 %
07.01.2018 15:35 7,1 C 4,4 C 93 % 1020,2 hPa 0,0 l/m 11,3 km/h (2 Bft) O-NO 67 0 min 0,000 mm 0,0 UV-I 33 W/m 6,0 C 3,6 C 14,5 km/h (3 Bft) 100,00 %
07.01.2018 15:36 7,1 C 4,4 C 93 % 1020,3 hPa 0,0 l/m 12,9 km/h (3 Bft) O-NO 67 0 min 0,000 mm 0,0 UV-I 32 W/m 6,0 C 2,7 C 19,3 km/h (3 Bft) 100,00 %
07.01.2018 15:37 7,2 C 4,4 C 93 % 1020,3 hPa 0,0 l/m 9,7 km/h (2 Bft) O 90 0 min 0,000 mm 0,0 UV-I 30 W/m 6,1 C 4,7 C 16,1 km/h (3 Bft) 100,00 %
07.01.2018 15:38 7,2 C 4,4 C 93 % 1020,3 hPa 0,0 l/m 11,3 km/h (2 Bft) O 90 0 min 0,000 mm 0,0 UV-I 30 W/m 6,1 C 3,7 C 14,5 km/h (3 Bft) 95,65 %
07.01.2018 15:39 7,2 C 4,4 C 93 % 1020,4 hPa 0,0 l/m 12,9 km/h (3 Bft) O 90 0 min 0,000 mm 0,0 UV-I 28 W/m 6,1 C 2,8 C 16,1 km/h (3 Bft) 100,00 %
07.01.2018 15:40 7,2 C 4,4 C 93 % 1020,3 hPa 0,0 l/m 9,7 km/h (2 Bft) O 90 0 min 0,000 mm 0,0 UV-I 28 W/m 6,1 C 4,7 C 12,9 km/h (3 Bft) 100,00 %
07.01.2018 15:41 7,2 C 4,4 C 93 % 1020,3 hPa 0,0 l/m 9,7 km/h (2 Bft) O-NO 67 0 min 0,000 mm 0,0 UV-I 28 W/m 6,1 C 4,7 C 14,5 km/h (3 Bft) 100,00 %
07.01.2018 15:42 7,2 C 4,4 C 93 % 1020,3 hPa 0,0 l/m 14,5 km/h (3 Bft) O-NO 67 0 min 0,000 mm 0,0 UV-I 31 W/m 6,1 C 2,0 C 19,3 km/h (3 Bft) 100,00 %
07.01.2018 15:43 7,2 C 4,4 C 93 % 1020,3 hPa 0,0 l/m 11,3 km/h (2 Bft) O 90 0 min 0,000 mm 0,0 UV-I 33 W/m 6,1 C 3,7 C 17,7 km/h (3 Bft) 100,00 %
07.01.2018 15:44 7,2 C 4,4 C 93 % 1020,3 hPa 0,0 l/m 11,3 km/h (2 Bft) O-NO 67 0 min 0,000 mm 0,0 UV-I 33 W/m 6,1 C 3,7 C 14,5 km/h (3 Bft) 100,00 %
07.01.2018 15:45 7,2 C 4,4 C 93 % 1020,3 hPa 0,0 l/m 14,5 km/h (3 Bft) O-NO 67 0 min 0,000 mm 0,0 UV-I 32 W/m 6,1 C 2,0 C 17,7 km/h (3 Bft) 95,65 %
07.01.2018 15:46 7,2 C 4,4 C 93 % 1020,3 hPa 0,0 l/m 12,9 km/h (3 Bft) O-NO 67 0 min 0,000 mm 0,0 UV-I 30 W/m 6,1 C 2,8 C 16,1 km/h (3 Bft) 100,00 %
07.01.2018 15:47 7,2 C 4,4 C 93 % 1020,3 hPa 0,0 l/m 12,9 km/h (3 Bft) O-NO 67 0 min 0,000 mm 0,0 UV-I 28 W/m 6,1 C 2,8 C 17,7 km/h (3 Bft) 100,00 %
07.01.2018 15:48 7,2 C 4,4 C 93 % 1020,4 hPa 0,0 l/m 11,3 km/h (2 Bft) O-NO 67 0 min 0,000 mm 0,0 UV-I 28 W/m 6,1 C 3,7 C 14,5 km/h (3 Bft) 95,65 %
07.01.2018 15:49 7,2 C 4,4 C 93 % 1020,4 hPa 0,0 l/m 11,3 km/h (2 Bft) O-NO 67 0 min 0,000 mm 0,0 UV-I 28 W/m 6,1 C 3,7 C 14,5 km/h (3 Bft) 95,65 %
07.01.2018 15:50 7,2 C 4,4 C 93 % 1020,4 hPa 0,0 l/m 11,3 km/h (2 Bft) O-NO 67 0 min 0,000 mm 0,0 UV-I 26 W/m 6,1 C 3,7 C 14,5 km/h (3 Bft) 100,00 %
07.01.2018 15:51 7,2 C 4,4 C 93 % 1020,3 hPa 0,0 l/m 12,9 km/h (3 Bft) O-NO 67 0 min 0,000 mm 0,0 UV-I 26 W/m 6,1 C 2,8 C 14,5 km/h (3 Bft) 100,00 %
07.01.2018 15:52 7,2 C 4,4 C 93 % 1020,4 hPa 0,0 l/m 14,5 km/h (3 Bft) NO 45 0 min 0,000 mm 0,0 UV-I 25 W/m 6,1 C 2,0 C 17,7 km/h (3 Bft) 95,65 %
07.01.2018 15:53 7,2 C 4,4 C 93 % 1020,3 hPa 0,0 l/m 12,9 km/h (3 Bft) O-NO 67 0 min 0,000 mm 0,0 UV-I 23 W/m 6,1 C 2,8 C 16,1 km/h (3 Bft) 100,00 %
07.01.2018 15:54 7,2 C 4,4 C 93 % 1020,3 hPa 0,0 l/m 11,3 km/h (2 Bft) NO 45 0 min 0,000 mm 0,0 UV-I 22 W/m 6,1 C 3,7 C 16,1 km/h (3 Bft) 100,00 %
07.01.2018 15:55 7,2 C 4,4 C 93 % 1020,4 hPa 0,0 l/m 11,3 km/h (2 Bft) O-NO 67 0 min 0,000 mm 0,0 UV-I 21 W/m 6,1 C 3,7 C 16,1 km/h (3 Bft) 100,00 %
07.01.2018 15:56 7,2 C 4,4 C 93 % 1020,4 hPa 0,0 l/m 11,3 km/h (2 Bft) NO 45 0 min 0,000 mm 0,0 UV-I 21 W/m 6,1 C 3,7 C 14,5 km/h (3 Bft) 95,65 %
07.01.2018 15:57 7,2 C 4,4 C 93 % 1020,4 hPa 0,0 l/m 9,7 km/h (2 Bft) NO 45 0 min 0,000 mm 0,0 UV-I 21 W/m 6,1 C 4,7 C 14,5 km/h (3 Bft) 100,00 %
07.01.2018 15:58 7,2 C 4,4 C 93 % 1020,4 hPa 0,0 l/m 11,3 km/h (2 Bft) NO 45 0 min 0,000 mm 0,0 UV-I 21 W/m 6,1 C 3,7 C 16,1 km/h (3 Bft) 100,00 %
07.01.2018 15:59 7,1 C 4,4 C 93 % 1020,4 hPa 0,0 l/m 9,7 km/h (2 Bft) O-NO 67 0 min 0,000 mm 0,0 UV-I 19 W/m 6,0 C 4,6 C 14,5 km/h (3 Bft) 95,65 %
07.01.2018 16:00 7,1 C 4,4 C 93 % 1020,4 hPa 0,0 l/m 12,9 km/h (3 Bft) O-NO 67 0 min 0,025 mm 0,0 UV-I 19 W/m 6,0 C 2,7 C 17,7 km/h (3 Bft) 100,00 %
07.01.2018 16:01 7,2 C 4,4 C 93 % 1020,4 hPa 0,0 l/m 11,3 km/h (2 Bft) O-NO 67 0 min 0,000 mm 0,0 UV-I 18 W/m 6,1 C 3,7 C 14,5 km/h (3 Bft) 95,65 %
07.01.2018 16:02 7,1 C 4,4 C 93 % 1020,5 hPa 0,0 l/m 9,7 km/h (2 Bft) O-NO 67 0 min 0,000 mm 0,0 UV-I 18 W/m 6,0 C 4,6 C 12,9 km/h (3 Bft) 100,00 %
07.01.2018 16:03 7,2 C 4,4 C 93 % 1020,5 hPa 0,0 l/m 9,7 km/h (2 Bft) O-NO 67 0 min 0,000 mm 0,0 UV-I 16 W/m 6,1 C 4,7 C 14,5 km/h (3 Bft) 100,00 %
07.01.2018 16:04 7,1 C 4,4 C 93 % 1020,5 hPa 0,0 l/m 9,7 km/h (2 Bft) O-NO 67 0 min 0,000 mm 0,0 UV-I 16 W/m 6,0 C 4,6 C 16,1 km/h (3 Bft) 100,00 %
07.01.2018 16:05 7,1 C 4,4 C 93 % 1020,6 hPa 0,0 l/m 11,3 km/h (2 Bft) O-NO 67 0 min 0,000 mm 0,0 UV-I 14 W/m 6,0 C 3,6 C 14,5 km/h (3 Bft) 100,00 %
07.01.2018 16:06 7,1 C 4,4 C 93 % 1020,6 hPa 0,0 l/m 11,3 km/h (2 Bft) O-NO 67 0 min 0,000 mm 0,0 UV-I 13 W/m 6,0 C 3,6 C 17,7 km/h (3 Bft) 95,65 %
07.01.2018 16:07 7,1 C 4,4 C 93 % 1020,6 hPa 0,0 l/m 12,9 km/h (3 Bft) O-NO 67 0 min 0,000 mm 0,0 UV-I 12 W/m 6,0 C 2,7 C 16,1 km/h (3 Bft) 100,00 %
07.01.2018 16:08 7,1 C 4,4 C 93 % 1020,6 hPa 0,0 l/m 12,9 km/h (3 Bft) O-NO 67 0 min 0,000 mm 0,0 UV-I 12 W/m 6,0 C 2,7 C 17,7 km/h (3 Bft) 95,65 %
07.01.2018 16:09 7,2 C 4,4 C 93 % 1020,6 hPa 0,0 l/m 14,5 km/h (3 Bft) O-NO 67 0 min 0,000 mm 0,0 UV-I 11 W/m 6,1 C 2,0 C 17,7 km/h (3 Bft) 100,00 %
07.01.2018 16:10 7,2 C 4,4 C 93 % 1020,6 hPa 0,0 l/m 11,3 km/h (2 Bft) O-NO 67 0 min 0,000 mm 0,0 UV-I 11 W/m 6,1 C 3,7 C 16,1 km/h (3 Bft) 100,00 %
07.01.2018 16:11 7,2 C 4,4 C 93 % 1020,7 hPa 0,0 l/m 11,3 km/h (2 Bft) O-NO 67 0 min 0,000 mm 0,0 UV-I 9 W/m 6,1 C 3,7 C 16,1 km/h (3 Bft) 100,00 %
07.01.2018 16:12 7,2 C 4,4 C 93 % 1020,6 hPa 0,0 l/m 9,7 km/h (2 Bft) O-NO 67 0 min 0,000 mm 0,0 UV-I 9 W/m 6,1 C 4,7 C 12,9 km/h (3 Bft) 100,00 %
07.01.2018 16:13 7,2 C 4,4 C 93 % 1020,6 hPa 0,0 l/m 12,9 km/h (3 Bft) O-NO 67 0 min 0,000 mm 0,0 UV-I 9 W/m 6,1 C 2,8 C 16,1 km/h (3 Bft) 95,65 %
07.01.2018 16:14 7,2 C 4,4 C 93 % 1020,6 hPa 0,0 l/m 11,3 km/h (2 Bft) O-NO 67 0 min 0,000 mm 0,0 UV-I 7 W/m 6,1 C 3,7 C 17,7 km/h (3 Bft) 100,00 %
07.01.2018 16:15 7,2 C 4,4 C 93 % 1020,6 hPa 0,0 l/m 11,3 km/h (2 Bft) O-NO 67 0 min 0,000 mm 0,0 UV-I 7 W/m 6,1 C 3,7 C 16,1 km/h (3 Bft) 95,65 %
07.01.2018 16:16 7,2 C 4,4 C 93 % 1020,6 hPa 0,0 l/m 8,0 km/h (2 Bft) O-NO 67 0 min 0,000 mm 0,0 UV-I 7 W/m 6,1 C 5,9 C 11,3 km/h (2 Bft) 95,65 %
07.01.2018 16:17 7,2 C 4,4 C 93 % 1020,7 hPa 0,0 l/m 11,3 km/h (2 Bft) O-NO 67 0 min 0,000 mm 0,0 UV-I 7 W/m 6,1 C 3,7 C 16,1 km/h (3 Bft) 95,65 %
07.01.2018 16:18 7,2 C 4,4 C 93 % 1020,7 hPa 0,0 l/m 12,9 km/h (3 Bft) O-NO 67 0 min 0,000 mm 0,0 UV-I 7 W/m 6,1 C 2,8 C 20,9 km/h (4 Bft) 95,65 %
07.01.2018 16:19 7,2 C 4,4 C 93 % 1020,7 hPa 0,0 l/m 11,3 km/h (2 Bft) O-NO 67 0 min 0,000 mm 0,0 UV-I 5 W/m 6,1 C 3,7 C 16,1 km/h (3 Bft) 95,65 %
07.01.2018 16:20 7,2 C 4,4 C 93 % 1020,7 hPa 0,0 l/m 12,9 km/h (3 Bft) O-NO 67 0 min 0,000 mm 0,0 UV-I 5 W/m 6,1 C 2,8 C 19,3 km/h (3 Bft) 95,65 %
07.01.2018 16:21 7,2 C 4,4 C 93 % 1020,7 hPa 0,0 l/m 9,7 km/h (2 Bft) O-NO 67 0 min 0,000 mm 0,0 UV-I 5 W/m 6,1 C 4,7 C 14,5 km/h (3 Bft) 95,65 %
07.01.2018 16:22 7,2 C 4,4 C 93 % 1020,7 hPa 0,0 l/m 11,3 km/h (2 Bft) O-NO 67 0 min 0,000 mm 0,0 UV-I 5 W/m 6,1 C 3,7 C 17,7 km/h (3 Bft) 100,00 %
07.01.2018 16:23 7,2 C 4,4 C 93 % 1020,7 hPa 0,0 l/m 16,1 km/h (3 Bft) O-NO 67 0 min 0,000 mm 0,0 UV-I 5 W/m 6,1 C 1,2 C 20,9 km/h (4 Bft) 95,65 %
07.01.2018 16:24 7,2 C 4,4 C 93 % 1020,7 hPa 0,0 l/m 17,7 km/h (3 Bft) O-NO 67 0 min 0,000 mm 0,0 UV-I 5 W/m 6,1 C 0,6 C 22,5 km/h (4 Bft) 95,65 %
07.01.2018 16:25 7,3 C 4,4 C 93 % 1020,7 hPa 0,0 l/m 16,1 km/h (3 Bft) O-NO 67 0 min 0,000 mm 0,0 UV-I 5 W/m 6,2 C 1,4 C 19,3 km/h (3 Bft) 100,00 %
07.01.2018 16:26 7,3 C 4,4 C 93 % 1020,7 hPa 0,0 l/m 16,1 km/h (3 Bft) O-NO 67 0 min 0,000 mm 0,0 UV-I 5 W/m 6,2 C 1,4 C 22,5 km/h (4 Bft) 91,30 %
07.01.2018 16:27 7,3 C 4,4 C 93 % 1020,7 hPa 0,0 l/m 14,5 km/h (3 Bft) O-NO 67 0 min 0,000 mm 0,0 UV-I 5 W/m 6,2 C 2,1 C 19,3 km/h (3 Bft) 95,65 %
07.01.2018 16:28 7,3 C 4,4 C 93 % 1020,7 hPa 0,0 l/m 17,7 km/h (3 Bft) O-NO 67 0 min 0,000 mm 0,0 UV-I 5 W/m 6,2 C 0,7 C 24,1 km/h (4 Bft) 95,65 %
07.01.2018 16:29 7,3 C 4,4 C 93 % 1020,7 hPa 0,0 l/m 16,1 km/h (3 Bft) O-NO 67 0 min 0,000 mm 0,0 UV-I 5 W/m 6,2 C 1,4 C 19,3 km/h (3 Bft) 100,00 %
07.01.2018 16:30 7,3 C 4,4 C 93 % 1020,7 hPa 0,0 l/m 16,1 km/h (3 Bft) O-NO 67 0 min 0,000 mm 0,0 UV-I 5 W/m 6,2 C 1,4 C 19,3 km/h (3 Bft) 95,65 %
07.01.2018 16:31 7,3 C 4,4 C 93 % 1020,7 hPa 0,0 l/m 14,5 km/h (3 Bft) O-NO 67 0 min 0,000 mm 0,0 UV-I 5 W/m 6,2 C 2,1 C 22,5 km/h (4 Bft) 100,00 %
07.01.2018 16:32 7,3 C 4,4 C 93 % 1020,7 hPa 0,0 l/m 17,7 km/h (3 Bft) O-NO 67 0 min 0,000 mm 0,0 UV-I 5 W/m 6,2 C 0,7 C 22,5 km/h (4 Bft) 95,65 %
07.01.2018 16:33 7,3 C 4,4 C 93 % 1020,7 hPa 0,0 l/m 16,1 km/h (3 Bft) O-NO 67 0 min 0,000 mm 0,0 UV-I 5 W/m 6,2 C 1,4 C 20,9 km/h (4 Bft) 95,65 %
07.01.2018 16:34 7,3 C 4,4 C 93 % 1020,7 hPa 0,0 l/m 12,9 km/h (3 Bft) O-NO 67 0 min 0,000 mm 0,0 UV-I 0 W/m 6,2 C 2,9 C 17,7 km/h (3 Bft) 91,30 %
07.01.2018 16:35 7,3 C 4,4 C 93 % 1020,7 hPa 0,0 l/m 12,9 km/h (3 Bft) O-NO 67 0 min 0,000 mm 0,0 UV-I 0 W/m 6,2 C 2,9 C 16,1 km/h (3 Bft) 95,65 %
07.01.2018 16:36 7,3 C 4,4 C 93 % 1020,7 hPa 0,0 l/m 16,1 km/h (3 Bft) O-NO 67 0 min 0,000 mm 0,0 UV-I 0 W/m 6,2 C 1,4 C 19,3 km/h (3 Bft) 91,30 %
07.01.2018 16:37 7,3 C 4,4 C 93 % 1020,7 hPa 0,0 l/m 14,5 km/h (3 Bft) O-NO 67 0 min 0,000 mm 0,0 UV-I 0 W/m 6,2 C 2,1 C 19,3 km/h (3 Bft) 95,65 %
07.01.2018 16:38 7,3 C 4,4 C 93 % 1020,7 hPa 0,0 l/m 12,9 km/h (3 Bft) O-NO 67 0 min 0,000 mm 0,0 UV-I 0 W/m 6,2 C 2,9 C 20,9 km/h (4 Bft) 86,96 %
07.01.2018 16:39 7,3 C 4,4 C 93 % 1020,7 hPa 0,0 l/m 17,7 km/h (3 Bft) O-NO 67 0 min 0,000 mm 0,0 UV-I 0 W/m 6,2 C 0,7 C 24,1 km/h (4 Bft) 95,65 %
07.01.2018 16:40 7,3 C 4,4 C 93 % 1020,7 hPa 0,0 l/m 19,3 km/h (3 Bft) O-NO 67 0 min 0,000 mm 0,0 UV-I 0 W/m 6,2 C 0,1 C 20,9 km/h (4 Bft) 95,65 %
07.01.2018 16:41 7,3 C 4,4 C 93 % 1020,7 hPa 0,0 l/m 16,1 km/h (3 Bft) O-NO 67 0 min 0,000 mm 0,0 UV-I 0 W/m 6,2 C 1,4 C 19,3 km/h (3 Bft) 95,65 %
07.01.2018 16:42 7,3 C 4,4 C 93 % 1020,7 hPa 0,0 l/m 17,7 km/h (3 Bft) O-NO 67 0 min 0,000 mm 0,0 UV-I 0 W/m 6,2 C 0,7 C 24,1 km/h (4 Bft) 95,65 %
07.01.2018 16:43 7,3 C 4,4 C 93 % 1020,7 hPa 0,0 l/m 16,1 km/h (3 Bft) O-NO 67 0 min 0,000 mm 0,0 UV-I 0 W/m 6,2 C 1,4 C 24,1 km/h (4 Bft) 100,00 %
07.01.2018 16:44 7,3 C 4,4 C 93 % 1020,7 hPa 0,0 l/m 14,5 km/h (3 Bft) O-NO 67 0 min 0,000 mm 0,0 UV-I 0 W/m 6,2 C 2,1 C 20,9 km/h (4 Bft) 95,65 %
07.01.2018 16:45 7,3 C 4,4 C 92 % 1020,7 hPa 0,0 l/m 17,7 km/h (3 Bft) O-NO 67 0 min 0,000 mm 0,0 UV-I 0 W/m 6,1 C 0,7 C 25,7 km/h (4 Bft) 95,65 %
07.01.2018 16:46 7,3 C 4,4 C 92 % 1020,7 hPa 0,0 l/m 17,7 km/h (3 Bft) O-NO 67 0 min 0,000 mm 0,0 UV-I 0 W/m 6,1 C 0,7 C 25,7 km/h (4 Bft) 91,30 %
07.01.2018 16:47 7,3 C 4,4 C 92 % 1020,7 hPa 0,0 l/m 24,1 km/h (4 Bft) O-NO 67 0 min 0,000 mm 0,0 UV-I 0 W/m 6,1 C -1,6 C 30,6 km/h (5 Bft) 91,30 %
07.01.2018 16:48 7,4 C 4,4 C 92 % 1020,7 hPa 0,0 l/m 19,3 km/h (3 Bft) O-NO 67 0 min 0,000 mm 0,0 UV-I 0 W/m 6,2 C 0,2 C 25,7 km/h (4 Bft) 100,00 %
07.01.2018 16:49 7,4 C 4,4 C 92 % 1020,7 hPa 0,0 l/m 17,7 km/h (3 Bft) O-NO 67 0 min 0,000 mm 0,0 UV-I 0 W/m 6,2 C 0,8 C 25,7 km/h (4 Bft) 91,30 %
07.01.2018 16:50 7,4 C 4,4 C 92 % 1020,7 hPa 0,0 l/m 16,1 km/h (3 Bft) O-NO 67 0 min 0,000 mm 0,0 UV-I 0 W/m 6,2 C 1,5 C 22,5 km/h (4 Bft) 100,00 %
07.01.2018 16:51 7,4 C 4,4 C 92 % 1020,8 hPa 0,0 l/m 16,1 km/h (3 Bft) O-NO 67 0 min 0,000 mm 0,0 UV-I 0 W/m 6,2 C 1,5 C 29,0 km/h (5 Bft) 95,65 %
07.01.2018 16:52 7,4 C 4,4 C 92 % 1020,8 hPa 0,0 l/m 17,7 km/h (3 Bft) O-NO 67 0 min 0,000 mm 0,0 UV-I 0 W/m 6,2 C 0,8 C 25,7 km/h (4 Bft) 95,65 %
07.01.2018 16:53 7,4 C 4,4 C 92 % 1020,8 hPa 0,0 l/m 19,3 km/h (3 Bft) O-NO 67 0 min 0,000 mm 0,0 UV-I 0 W/m 6,2 C 0,2 C 25,7 km/h (4 Bft) 100,00 %
07.01.2018 16:54 7,5 C 4,4 C 92 % 1020,8 hPa 0,0 l/m 17,7 km/h (3 Bft) O-NO 67 0 min 0,000 mm 0,0 UV-I 0 W/m 6,3 C 0,9 C 22,5 km/h (4 Bft) 95,65 %
07.01.2018 16:55 7,5 C 4,4 C 92 % 1020,8 hPa 0,0 l/m 19,3 km/h (3 Bft) O-NO 67 0 min 0,000 mm 0,0 UV-I 0 W/m 6,3 C 0,3 C 22,5 km/h (4 Bft) 100,00 %
07.01.2018 16:56 7,5 C 4,4 C 92 % 1020,8 hPa 0,0 l/m 24,1 km/h (4 Bft) O-NO 67 0 min 0,000 mm 0,0 UV-I 0 W/m 6,3 C -1,3 C 29,0 km/h (5 Bft) 86,96 %
07.01.2018 16:57 7,5 C 4,4 C 92 % 1020,8 hPa 0,0 l/m 17,7 km/h (3 Bft) O-NO 67 0 min 0,000 mm 0,0 UV-I 0 W/m 6,3 C 0,9 C 27,4 km/h (4 Bft) 95,65 %
07.01.2018 16:58 7,5 C 4,4 C 92 % 1020,8 hPa 0,0 l/m 17,7 km/h (3 Bft) O-NO 67 0 min 0,000 mm 0,0 UV-I 0 W/m 6,3 C 0,9 C 24,1 km/h (4 Bft) 95,65 %
07.01.2018 16:59 7,5 C 4,4 C 92 % 1020,8 hPa 0,0 l/m 19,3 km/h (3 Bft) O-NO 67 0 min 0,000 mm 0,0 UV-I 0 W/m 6,3 C 0,3 C 25,7 km/h (4 Bft) 100,00 %
07.01.2018 17:00 7,5 C 4,4 C 92 % 1020,8 hPa 0,0 l/m 19,3 km/h (3 Bft) O-NO 67 0 min 0,025 mm 0,0 UV-I 0 W/m 6,3 C 0,3 C 25,7 km/h (4 Bft) 91,30 %
07.01.2018 17:01 7,5 C 4,4 C 92 % 1020,8 hPa 0,0 l/m 17,7 km/h (3 Bft) O-NO 67 0 min 0,000 mm 0,0 UV-I 0 W/m 6,3 C 0,9 C 22,5 km/h (4 Bft) 95,65 %
07.01.2018 17:02 7,4 C 4,4 C 92 % 1020,8 hPa 0,0 l/m 16,1 km/h (3 Bft) O 90 0 min 0,000 mm 0,0 UV-I 0 W/m 6,2 C 1,5 C 19,3 km/h (3 Bft) 100,00 %
07.01.2018 17:03 7,5 C 4,4 C 92 % 1020,7 hPa 0,0 l/m 19,3 km/h (3 Bft) O-NO 67 0 min 0,000 mm 0,0 UV-I 0 W/m 6,3 C 0,3 C 22,5 km/h (4 Bft) 91,30 %
07.01.2018 17:04 7,5 C 4,4 C 92 % 1020,8 hPa 0,0 l/m 17,7 km/h (3 Bft) O-NO 67 0 min 0,000 mm 0,0 UV-I 0 W/m 6,3 C 0,9 C 24,1 km/h (4 Bft) 91,30 %
07.01.2018 17:05 7,5 C 4,4 C 92 % 1020,8 hPa 0,0 l/m 16,1 km/h (3 Bft) O-NO 67 0 min 0,000 mm 0,0 UV-I 0 W/m 6,3 C 1,6 C 22,5 km/h (4 Bft) 95,65 %
07.01.2018 17:06 7,5 C 4,4 C 92 % 1020,7 hPa 0,0 l/m 19,3 km/h (3 Bft) O-NO 67 0 min 0,000 mm 0,0 UV-I 0 W/m 6,3 C 0,3 C 25,7 km/h (4 Bft) 100,00 %
07.01.2018 17:07 7,5 C 4,4 C 92 % 1020,8 hPa 0,0 l/m 22,5 km/h (4 Bft) O-NO 67 0 min 0,000 mm 0,0 UV-I 0 W/m 6,3 C -0,8 C 27,4 km/h (4 Bft) 95,65 %
07.01.2018 17:08 7,5 C 4,4 C 92 % 1020,8 hPa 0,0 l/m 19,3 km/h (3 Bft) O-NO 67 0 min 0,000 mm 0,0 UV-I 0 W/m 6,3 C 0,3 C 29,0 km/h (5 Bft) 100,00 %
07.01.2018 17:09 7,5 C 4,4 C 92 % 1020,8 hPa 0,0 l/m 14,5 km/h (3 Bft) O-NO 67 0 min 0,000 mm 0,0 UV-I 0 W/m 6,3 C 2,3 C 17,7 km/h (3 Bft) 95,65 %
07.01.2018 17:10 7,4 C 4,4 C 92 % 1020,8 hPa 0,0 l/m 19,3 km/h (3 Bft) O-NO 67 0 min 0,000 mm 0,0 UV-I 0 W/m 6,2 C 0,2 C 24,1 km/h (4 Bft) 95,65 %
07.01.2018 17:11 7,4 C 4,4 C 92 % 1020,8 hPa 0,0 l/m 14,5 km/h (3 Bft) O-NO 67 0 min 0,000 mm 0,0 UV-I 0 W/m 6,2 C 2,2 C 20,9 km/h (4 Bft) 100,00 %
07.01.2018 17:12 7,4 C 4,4 C 92 % 1020,8 hPa 0,0 l/m 20,9 km/h (4 Bft) O-NO 67 0 min 0,000 mm 0,0 UV-I 0 W/m 6,2 C -0,4 C 25,7 km/h (4 Bft) 100,00 %
07.01.2018 17:13 7,4 C 4,4 C 92 % 1020,8 hPa 0,0 l/m 17,7 km/h (3 Bft) O-NO 67 0 min 0,000 mm 0,0 UV-I 0 W/m 6,2 C 0,8 C 24,1 km/h (4 Bft) 100,00 %
07.01.2018 17:14 7,4 C 4,4 C 92 % 1020,8 hPa 0,0 l/m 19,3 km/h (3 Bft) NO 45 0 min 0,000 mm 0,0 UV-I 0 W/m 6,2 C 0,2 C 25,7 km/h (4 Bft) 100,00 %
07.01.2018 17:15 7,4 C 4,4 C 92 % 1020,8 hPa 0,0 l/m 17,7 km/h (3 Bft) O-NO 67 0 min 0,000 mm 0,0 UV-I 0 W/m 6,2 C 0,8 C 22,5 km/h (4 Bft) 100,00 %
07.01.2018 17:16 7,4 C 4,4 C 92 % 1020,7 hPa 0,0 l/m 14,5 km/h (3 Bft) O-NO 67 0 min 0,000 mm 0,0 UV-I 0 W/m 6,2 C 2,2 C 24,1 km/h (4 Bft) 100,00 %
07.01.2018 17:17 7,4 C 4,4 C 92 % 1020,8 hPa 0,0 l/m 16,1 km/h (3 Bft) NO 45 0 min 0,000 mm 0,0 UV-I 0 W/m 6,2 C 1,5 C 22,5 km/h (4 Bft) 95,65 %
07.01.2018 17:18 7,4 C 4,4 C 92 % 1020,7 hPa 0,0 l/m 19,3 km/h (3 Bft) O-NO 67 0 min 0,000 mm 0,0 UV-I 0 W/m 6,2 C 0,2 C 22,5 km/h (4 Bft) 100,00 %
07.01.2018 17:19 7,4 C 4,4 C 92 % 1020,8 hPa 0,0 l/m 17,7 km/h (3 Bft) NO 45 0 min 0,000 mm 0,0 UV-I 0 W/m 6,2 C 0,8 C 24,1 km/h (4 Bft) 95,65 %
07.01.2018 17:20 7,4 C 4,4 C 92 % 1020,8 hPa 0,0 l/m 22,5 km/h (4 Bft) O-NO 67 0 min 0,000 mm 0,0 UV-I 0 W/m 6,2 C -0,9 C 32,2 km/h (5 Bft) 100,00 %
07.01.2018 17:21 7,4 C 4,4 C 92 % 1020,7 hPa 0,0 l/m 22,5 km/h (4 Bft) O-NO 67 0 min 0,000 mm 0,0 UV-I 0 W/m 6,2 C -0,9 C 25,7 km/h (4 Bft) 100,00 %
07.01.2018 17:22 7,4 C 4,4 C 92 % 1020,7 hPa 0,0 l/m 19,3 km/h (3 Bft) NO 45 0 min 0,000 mm 0,0 UV-I 0 W/m 6,2 C 0,2 C 32,2 km/h (5 Bft) 95,65 %
07.01.2018 17:23 7,4 C 4,4 C 92 % 1020,7 hPa 0,0 l/m 16,1 km/h (3 Bft) O-NO 67 0 min 0,000 mm 0,0 UV-I 0 W/m 6,2 C 1,5 C 24,1 km/h (4 Bft) 100,00 %
07.01.2018 17:24 7,4 C 4,4 C 92 % 1020,8 hPa 0,0 l/m 17,7 km/h (3 Bft) NO 45 0 min 0,000 mm 0,0 UV-I 0 W/m 6,2 C 0,8 C 22,5 km/h (4 Bft) 95,65 %
07.01.2018 17:25 7,4 C 4,4 C 92 % 1020,8 hPa 0,0 l/m 17,7 km/h (3 Bft) O-NO 67 0 min 0,000 mm 0,0 UV-I 0 W/m 6,2 C 0,8 C 27,4 km/h (4 Bft) 100,00 %
07.01.2018 17:26 7,4 C 4,4 C 92 % 1020,7 hPa 0,0 l/m 19,3 km/h (3 Bft) NO 45 0 min 0,000 mm 0,0 UV-I 0 W/m 6,2 C 0,2 C 30,6 km/h (5 Bft) 95,65 %
07.01.2018 17:27 7,4 C 4,4 C 92 % 1020,7 hPa 0,0 l/m 17,7 km/h (3 Bft) NO 45 0 min 0,000 mm 0,0 UV-I 0 W/m 6,2 C 0,8 C 24,1 km/h (4 Bft) 100,00 %
07.01.2018 17:28 7,4 C 4,4 C 92 % 1020,7 hPa 0,0 l/m 19,3 km/h (3 Bft) NO 45 0 min 0,000 mm 0,0 UV-I 0 W/m 6,2 C 0,2 C 25,7 km/h (4 Bft) 100,00 %
07.01.2018 17:29 7,4 C 4,4 C 92 % 1020,7 hPa 0,0 l/m 16,1 km/h (3 Bft) NO 45 0 min 0,000 mm 0,0 UV-I 0 W/m 6,2 C 1,5 C 20,9 km/h (4 Bft) 100,00 %
07.01.2018 17:30 7,4 C 4,4 C 92 % 1020,8 hPa 0,0 l/m 16,1 km/h (3 Bft) O-NO 67 0 min 0,000 mm 0,0 UV-I 0 W/m 6,2 C 1,5 C 24,1 km/h (4 Bft) 100,00 %
07.01.2018 17:31 7,4 C 4,4 C 92 % 1020,7 hPa 0,0 l/m 22,5 km/h (4 Bft) O-NO 67 0 min 0,000 mm 0,0 UV-I 0 W/m 6,2 C -0,9 C 30,6 km/h (5 Bft) 95,65 %
07.01.2018 17:32 7,4 C 4,4 C 92 % 1020,8 hPa 0,0 l/m 17,7 km/h (3 Bft) O-NO 67 0 min 0,000 mm 0,0 UV-I 0 W/m 6,2 C 0,8 C 27,4 km/h (4 Bft) 100,00 %
07.01.2018 17:33 7,4 C 4,4 C 92 % 1020,8 hPa 0,0 l/m 19,3 km/h (3 Bft) O-NO 67 0 min 0,000 mm 0,0 UV-I 0 W/m 6,2 C 0,2 C 25,7 km/h (4 Bft) 100,00 %
07.01.2018 17:34 7,4 C 4,4 C 92 % 1020,8 hPa 0,0 l/m 19,3 km/h (3 Bft) O-NO 67 0 min 0,000 mm 0,0 UV-I 0 W/m 6,2 C 0,2 C 24,1 km/h (4 Bft) 100,00 %
07.01.2018 17:35 7,4 C 4,4 C 92 % 1020,8 hPa 0,0 l/m 17,7 km/h (3 Bft) O-NO 67 0 min 0,000 mm 0,0 UV-I 0 W/m 6,2 C 0,8 C 22,5 km/h (4 Bft) 100,00 %
07.01.2018 17:36 7,4 C 4,4 C 92 % 1020,9 hPa 0,0 l/m 19,3 km/h (3 Bft) O-NO 67 0 min 0,000 mm 0,0 UV-I 0 W/m 6,2 C 0,2 C 24,1 km/h (4 Bft) 100,00 %
07.01.2018 17:37 7,4 C 4,4 C 92 % 1020,8 hPa 0,0 l/m 14,5 km/h (3 Bft) O-NO 67 0 min 0,000 mm 0,0 UV-I 0 W/m 6,2 C 2,2 C 19,3 km/h (3 Bft) 100,00 %
07.01.2018 17:38 7,4 C 4,4 C 92 % 1020,9 hPa 0,0 l/m 14,5 km/h (3 Bft) O-NO 67 0 min 0,000 mm 0,0 UV-I 0 W/m 6,2 C 2,2 C 20,9 km/h (4 Bft) 95,65 %
07.01.2018 17:39 7,4 C 4,4 C 92 % 1020,8 hPa 0,0 l/m 17,7 km/h (3 Bft) O-NO 67 0 min 0,000 mm 0,0 UV-I 0 W/m 6,2 C 0,8 C 25,7 km/h (4 Bft) 95,65 %
07.01.2018 17:40 7,4 C 4,4 C 92 % 1020,8 hPa 0,0 l/m 17,7 km/h (3 Bft) O-NO 67 0 min 0,000 mm 0,0 UV-I 0 W/m 6,2 C 0,8 C 22,5 km/h (4 Bft) 100,00 %
07.01.2018 17:41 7,4 C 4,4 C 92 % 1020,8 hPa 0,0 l/m 19,3 km/h (3 Bft) O-NO 67 0 min 0,000 mm 0,0 UV-I 0 W/m 6,2 C 0,2 C 25,7 km/h (4 Bft) 100,00 %
07.01.2018 17:42 7,4 C 4,4 C 92 % 1020,8 hPa 0,0 l/m 20,9 km/h (4 Bft) O-NO 67 0 min 0,000 mm 0,0 UV-I 0 W/m 6,2 C -0,4 C 27,4 km/h (4 Bft) 95,65 %
07.01.2018 17:43 7,4 C 4,4 C 92 % 1020,8 hPa 0,0 l/m 19,3 km/h (3 Bft) O-NO 67 0 min 0,000 mm 0,0 UV-I 0 W/m 6,2 C 0,2 C 24,1 km/h (4 Bft) 95,65 %
07.01.2018 17:44 7,4 C 4,4 C 92 % 1020,8 hPa 0,0 l/m 17,7 km/h (3 Bft) O-NO 67 0 min 0,000 mm 0,0 UV-I 0 W/m 6,2 C 0,8 C 27,4 km/h (4 Bft) 100,00 %
07.01.2018 17:45 7,4 C 4,4 C 92 % 1020,8 hPa 0,0 l/m 25,7 km/h (4 Bft) O-NO 67 0 min 0,000 mm 0,0 UV-I 0 W/m 6,2 C -1,9 C 30,6 km/h (5 Bft) 91,30 %
07.01.2018 17:46 7,4 C 4,4 C 92 % 1020,8 hPa 0,0 l/m 22,5 km/h (4 Bft) O-NO 67 0 min 0,000 mm 0,0 UV-I 0 W/m 6,2 C -0,9 C 27,4 km/h (4 Bft) 100,00 %
07.01.2018 17:47 7,4 C 4,4 C 92 % 1020,8 hPa 0,0 l/m 17,7 km/h (3 Bft) NO 45 0 min 0,000 mm 0,0 UV-I 0 W/m 6,2 C 0,8 C 22,5 km/h (4 Bft) 95,65 %
07.01.2018 17:48 7,4 C 4,4 C 92 % 1020,8 hPa 0,0 l/m 20,9 km/h (4 Bft) O-NO 67 0 min 0,000 mm 0,0 UV-I 0 W/m 6,2 C -0,4 C 24,1 km/h (4 Bft) 95,65 %
07.01.2018 17:49 7,4 C 4,4 C 92 % 1020,8 hPa 0,0 l/m 20,9 km/h (4 Bft) O-NO 67 0 min 0,000 mm 0,0 UV-I 0 W/m 6,2 C -0,4 C 27,4 km/h (4 Bft) 91,30 %
07.01.2018 17:50 7,4 C 4,4 C 92 % 1020,7 hPa 0,0 l/m 22,5 km/h (4 Bft) NO 45 0 min 0,000 mm 0,0 UV-I 0 W/m 6,2 C -0,9 C 32,2 km/h (5 Bft) 100,00 %
07.01.2018 17:51 7,4 C 4,4 C 92 % 1020,8 hPa 0,0 l/m 24,1 km/h (4 Bft) O-NO 67 0 min 0,000 mm 0,0 UV-I 0 W/m 6,2 C -1,4 C 32,2 km/h (5 Bft) 95,65 %
07.01.2018 17:52 7,4 C 4,4 C 92 % 1020,8 hPa 0,0 l/m 22,5 km/h (4 Bft) O-NO 67 0 min 0,000 mm 0,0 UV-I 0 W/m 6,2 C -0,9 C 29,0 km/h (5 Bft) 91,30 %
07.01.2018 17:53 7,4 C 4,4 C 92 % 1020,8 hPa 0,0 l/m 25,7 km/h (4 Bft) NO 45 0 min 0,000 mm 0,0 UV-I 0 W/m 6,2 C -1,9 C 35,4 km/h (5 Bft) 95,65 %
07.01.2018 17:54 7,4 C 4,4 C 92 % 1020,8 hPa 0,0 l/m 22,5 km/h (4 Bft) O-NO 67 0 min 0,000 mm 0,0 UV-I 0 W/m 6,2 C -0,9 C 32,2 km/h (5 Bft) 100,00 %
07.01.2018 17:55 7,4 C 4,4 C 92 % 1020,8 hPa 0,0 l/m 24,1 km/h (4 Bft) NO 45 0 min 0,000 mm 0,0 UV-I 0 W/m 6,2 C -1,4 C 35,4 km/h (5 Bft) 95,65 %
07.01.2018 17:56 7,4 C 4,4 C 92 % 1020,9 hPa 0,0 l/m 20,9 km/h (4 Bft) O-NO 67 0 min 0,000 mm 0,0 UV-I 0 W/m 6,2 C -0,4 C 30,6 km/h (5 Bft) 100,00 %
07.01.2018 17:57 7,4 C 4,4 C 92 % 1020,9 hPa 0,0 l/m 20,9 km/h (4 Bft) O-NO 67 0 min 0,000 mm 0,0 UV-I 0 W/m 6,2 C -0,4 C 27,4 km/h (4 Bft) 91,30 %
07.01.2018 17:58 7,4 C 4,4 C 92 % 1020,9 hPa 0,0 l/m 20,9 km/h (4 Bft) O-NO 67 0 min 0,000 mm 0,0 UV-I 0 W/m 6,2 C -0,4 C 25,7 km/h (4 Bft) 95,65 %
07.01.2018 17:59 7,4 C 4,4 C 92 % 1021,0 hPa 0,0 l/m 20,9 km/h (4 Bft) NO 45 0 min 0,000 mm 0,0 UV-I 0 W/m 6,2 C -0,4 C 25,7 km/h (4 Bft) 95,65 %
07.01.2018 18:00 7,4 C 4,4 C 92 % 1021,0 hPa 0,0 l/m 17,7 km/h (3 Bft) O-NO 67 0 min 0,025 mm 0,0 UV-I 0 W/m 6,2 C 0,8 C 25,7 km/h (4 Bft) 95,65 %
07.01.2018 18:01 7,4 C 4,4 C 92 % 1021,0 hPa 0,0 l/m 20,9 km/h (4 Bft) O-NO 67 0 min 0,000 mm 0,0 UV-I 0 W/m 6,2 C -0,4 C 30,6 km/h (5 Bft) 100,00 %
07.01.2018 18:02 7,4 C 4,4 C 92 % 1021,0 hPa 0,0 l/m 25,7 km/h (4 Bft) O-NO 67 0 min 0,000 mm 0,0 UV-I 0 W/m 6,2 C -1,9 C 33,8 km/h (5 Bft) 95,65 %
07.01.2018 18:03 7,4 C 4,4 C 92 % 1021,0 hPa 0,0 l/m 22,5 km/h (4 Bft) O-NO 67 0 min 0,000 mm 0,0 UV-I 0 W/m 6,2 C -0,9 C 27,4 km/h (4 Bft) 100,00 %
07.01.2018 18:04 7,4 C 4,4 C 92 % 1021,0 hPa 0,0 l/m 24,1 km/h (4 Bft) NO 45 0 min 0,000 mm 0,0 UV-I 0 W/m 6,2 C -1,4 C 32,2 km/h (5 Bft) 95,65 %
07.01.2018 18:05 7,4 C 4,4 C 92 % 1021,0 hPa 0,0 l/m 24,1 km/h (4 Bft) O-NO 67 0 min 0,000 mm 0,0 UV-I 0 W/m 6,2 C -1,4 C 29,0 km/h (5 Bft) 95,65 %
07.01.2018 18:06 7,4 C 4,4 C 92 % 1021,0 hPa 0,0 l/m 29,0 km/h (5 Bft) O-NO 67 0 min 0,000 mm 0,0 UV-I 0 W/m 6,2 C -2,8 C 37,0 km/h (5 Bft) 95,65 %
07.01.2018 18:07 7,4 C 4,4 C 92 % 1021,0 hPa 0,0 l/m 20,9 km/h (4 Bft) O-NO 67 0 min 0,000 mm 0,0 UV-I 0 W/m 6,2 C -0,4 C 37,0 km/h (5 Bft) 100,00 %
07.01.2018 18:08 7,4 C 4,4 C 92 % 1021,0 hPa 0,0 l/m 20,9 km/h (4 Bft) NO 45 0 min 0,000 mm 0,0 UV-I 0 W/m 6,2 C -0,4 C 27,4 km/h (4 Bft) 100,00 %
07.01.2018 18:09 7,4 C 4,4 C 92 % 1021,1 hPa 0,0 l/m 24,1 km/h (4 Bft) NO 45 0 min 0,000 mm 0,0 UV-I 0 W/m 6,2 C -1,4 C 32,2 km/h (5 Bft) 100,00 %
07.01.2018 18:10 7,4 C 4,4 C 92 % 1021,1 hPa 0,0 l/m 22,5 km/h (4 Bft) O-NO 67 0 min 0,000 mm 0,0 UV-I 0 W/m 6,2 C -0,9 C 27,4 km/h (4 Bft) 100,00 %
07.01.2018 18:11 7,4 C 4,4 C 92 % 1021,1 hPa 0,0 l/m 19,3 km/h (3 Bft) O-NO 67 0 min 0,000 mm 0,0 UV-I 0 W/m 6,2 C 0,2 C 24,1 km/h (4 Bft) 100,00 %
07.01.2018 18:12 7,4 C 4,4 C 92 % 1021,1 hPa 0,0 l/m 20,9 km/h (4 Bft) O-NO 67 0 min 0,000 mm 0,0 UV-I 0 W/m 6,2 C -0,4 C 27,4 km/h (4 Bft) 100,00 %
07.01.2018 18:13 7,4 C 4,4 C 92 % 1021,1 hPa 0,0 l/m 24,1 km/h (4 Bft) NO 45 0 min 0,000 mm 0,0 UV-I 0 W/m 6,2 C -1,4 C 32,2 km/h (5 Bft) 95,65 %
07.01.2018 18:14 7,4 C 4,4 C 92 % 1021,1 hPa 0,0 l/m 22,5 km/h (4 Bft) O-NO 67 0 min 0,000 mm 0,0 UV-I 0 W/m 6,2 C -0,9 C 30,6 km/h (5 Bft) 100,00 %
07.01.2018 18:15 7,4 C 4,4 C 92 % 1021,2 hPa 0,0 l/m 20,9 km/h (4 Bft) NO 45 0 min 0,000 mm 0,0 UV-I 0 W/m 6,2 C -0,4 C 27,4 km/h (4 Bft) 100,00 %
07.01.2018 18:16 7,4 C 4,4 C 92 % 1021,2 hPa 0,0 l/m 16,1 km/h (3 Bft) O-NO 67 0 min 0,000 mm 0,0 UV-I 0 W/m 6,2 C 1,5 C 20,9 km/h (4 Bft) 100,00 %
07.01.2018 18:17 7,4 C 4,4 C 92 % 1021,3 hPa 0,0 l/m 19,3 km/h (3 Bft) O-NO 67 0 min 0,000 mm 0,0 UV-I 0 W/m 6,2 C 0,2 C 27,4 km/h (4 Bft) 100,00 %
07.01.2018 18:18 7,4 C 4,4 C 92 % 1021,3 hPa 0,0 l/m 20,9 km/h (4 Bft) O-NO 67 0 min 0,000 mm 0,0 UV-I 0 W/m 6,2 C -0,4 C 27,4 km/h (4 Bft) 100,00 %
07.01.2018 18:19 7,4 C 4,4 C 92 % 1021,3 hPa 0,0 l/m 19,3 km/h (3 Bft) O-NO 67 0 min 0,000 mm 0,0 UV-I 0 W/m 6,2 C 0,2 C 24,1 km/h (4 Bft) 100,00 %
07.01.2018 18:20 7,4 C 4,4 C 92 % 1021,3 hPa 0,0 l/m 25,7 km/h (4 Bft) O-NO 67 0 min 0,000 mm 0,0 UV-I 0 W/m 6,2 C -1,9 C 35,4 km/h (5 Bft) 95,65 %
07.01.2018 18:21 7,4 C 4,4 C 92 % 1021,4 hPa 0,0 l/m 27,4 km/h (4 Bft) O-NO 67 0 min 0,000 mm 0,0 UV-I 0 W/m 6,2 C -2,4 C 32,2 km/h (5 Bft) 95,65 %
07.01.2018 18:22 7,4 C 4,4 C 92 % 1021,4 hPa 0,0 l/m 22,5 km/h (4 Bft) O-NO 67 0 min 0,000 mm 0,0 UV-I 0 W/m 6,2 C -0,9 C 30,6 km/h (5 Bft) 100,00 %
07.01.2018 18:23 7,4 C 4,4 C 91 % 1021,4 hPa 0,0 l/m 20,9 km/h (4 Bft) O-NO 67 0 min 0,000 mm 0,0 UV-I 0 W/m 6,0 C -0,4 C 25,7 km/h (4 Bft) 100,00 %
07.01.2018 18:24 7,4 C 4,4 C 91 % 1021,4 hPa 0,0 l/m 22,5 km/h (4 Bft) NO 45 0 min 0,000 mm 0,0 UV-I 0 W/m 6,0 C -0,9 C 30,6 km/h (5 Bft) 100,00 %
07.01.2018 18:25 7,4 C 4,4 C 91 % 1021,4 hPa 0,0 l/m 22,5 km/h (4 Bft) O-NO 67 0 min 0,000 mm 0,0 UV-I 0 W/m 6,0 C -0,9 C 30,6 km/h (5 Bft) 100,00 %
07.01.2018 18:26 7,4 C 4,4 C 91 % 1021,5 hPa 0,0 l/m 19,3 km/h (3 Bft) O-NO 67 0 min 0,000 mm 0,0 UV-I 0 W/m 6,0 C 0,2 C 24,1 km/h (4 Bft) 100,00 %
07.01.2018 18:27 7,4 C 4,4 C 91 % 1021,4 hPa 0,0 l/m 22,5 km/h (4 Bft) O-NO 67 0 min 0,000 mm 0,0 UV-I 0 W/m 6,0 C -0,9 C 32,2 km/h (5 Bft) 91,30 %
07.01.2018 18:28 7,4 C 4,4 C 91 % 1021,5 hPa 0,0 l/m 19,3 km/h (3 Bft) NO 45 0 min 0,000 mm 0,0 UV-I 0 W/m 6,0 C 0,2 C 27,4 km/h (4 Bft) 100,00 %
07.01.2018 18:29 7,4 C 4,4 C 92 % 1021,4 hPa 0,0 l/m 22,5 km/h (4 Bft) O-NO 67 0 min 0,000 mm 0,0 UV-I 0 W/m 6,2 C -0,9 C 29,0 km/h (5 Bft) 100,00 %
07.01.2018 18:30 7,4 C 4,4 C 92 % 1021,4 hPa 0,0 l/m 20,9 km/h (4 Bft) O-NO 67 0 min 0,000 mm 0,0 UV-I 0 W/m 6,2 C -0,4 C 27,4 km/h (4 Bft) 100,00 %
07.01.2018 18:31 7,4 C 4,4 C 92 % 1021,5 hPa 0,0 l/m 20,9 km/h (4 Bft) O-NO 67 0 min 0,000 mm 0,0 UV-I 0 W/m 6,2 C -0,4 C 27,4 km/h (4 Bft) 95,65 %
07.01.2018 18:32 7,4 C 4,4 C 92 % 1021,4 hPa 0,0 l/m 19,3 km/h (3 Bft) O-NO 67 0 min 0,000 mm 0,0 UV-I 0 W/m 6,2 C 0,2 C 22,5 km/h (4 Bft) 100,00 %
07.01.2018 18:33 7,4 C 4,4 C 91 % 1021,4 hPa 0,0 l/m 22,5 km/h (4 Bft) O-NO 67 0 min 0,000 mm 0,0 UV-I 0 W/m 6,0 C -0,9 C 32,2 km/h (5 Bft) 100,00 %
07.01.2018 18:34 7,4 C 4,4 C 92 % 1021,4 hPa 0,0 l/m 22,5 km/h (4 Bft) O-NO 67 0 min 0,000 mm 0,0 UV-I 0 W/m 6,2 C -0,9 C 27,4 km/h (4 Bft) 95,65 %
07.01.2018 18:35 7,4 C 4,4 C 92 % 1021,4 hPa 0,0 l/m 20,9 km/h (4 Bft) O-NO 67 0 min 0,000 mm 0,0 UV-I 0 W/m 6,2 C -0,4 C 27,4 km/h (4 Bft) 95,65 %
07.01.2018 18:36 7,4 C 4,4 C 92 % 1021,4 hPa 0,0 l/m 25,7 km/h (4 Bft) O-NO 67 0 min 0,000 mm 0,0 UV-I 0 W/m 6,2 C -1,9 C 30,6 km/h (5 Bft) 95,65 %
07.01.2018 18:37 7,4 C 4,4 C 92 % 1021,4 hPa 0,0 l/m 19,3 km/h (3 Bft) NO 45 0 min 0,000 mm 0,0 UV-I 0 W/m 6,2 C 0,2 C 24,1 km/h (4 Bft) 100,00 %
07.01.2018 18:38 7,4 C 4,4 C 92 % 1021,4 hPa 0,0 l/m 22,5 km/h (4 Bft) O-NO 67 0 min 0,000 mm 0,0 UV-I 0 W/m 6,2 C -0,9 C 27,4 km/h (4 Bft) 95,65 %
07.01.2018 18:39 7,4 C 4,4 C 92 % 1021,4 hPa 0,0 l/m 22,5 km/h (4 Bft) O-NO 67 0 min 0,000 mm 0,0 UV-I 0 W/m 6,2 C -0,9 C 29,0 km/h (5 Bft) 100,00 %
07.01.2018 18:40 7,4 C 4,4 C 92 % 1021,4 hPa 0,0 l/m 22,5 km/h (4 Bft) O-NO 67 0 min 0,000 mm 0,0 UV-I 0 W/m 6,2 C -0,9 C 35,4 km/h (5 Bft) 95,65 %
07.01.2018 18:41 7,4 C 4,4 C 92 % 1021,4 hPa 0,0 l/m 20,9 km/h (4 Bft) O-NO 67 0 min 0,000 mm 0,0 UV-I 0 W/m 6,2 C -0,4 C 30,6 km/h (5 Bft) 95,65 %
07.01.2018 18:42 7,4 C 4,4 C 92 % 1021,4 hPa 0,0 l/m 19,3 km/h (3 Bft) O-NO 67 0 min 0,000 mm 0,0 UV-I 0 W/m 6,2 C 0,2 C 24,1 km/h (4 Bft) 95,65 %
07.01.2018 18:43 7,4 C 4,4 C 92 % 1021,4 hPa 0,0 l/m 24,1 km/h (4 Bft) NO 45 0 min 0,000 mm 0,0 UV-I 0 W/m 6,2 C -1,4 C 30,6 km/h (5 Bft) 100,00 %
07.01.2018 18:44 7,4 C 4,4 C 92 % 1021,4 hPa 0,0 l/m 20,9 km/h (4 Bft) NO 45 0 min 0,000 mm 0,0 UV-I 0 W/m 6,2 C -0,4 C 25,7 km/h (4 Bft) 95,65 %
07.01.2018 18:45 7,4 C 4,4 C 92 % 1021,3 hPa 0,0 l/m 22,5 km/h (4 Bft) NO 45 0 min 0,000 mm 0,0 UV-I 0 W/m 6,2 C -0,9 C 29,0 km/h (5 Bft) 95,65 %
07.01.2018 18:46 7,4 C 4,4 C 92 % 1021,4 hPa 0,0 l/m 22,5 km/h (4 Bft) O-NO 67 0 min 0,000 mm 0,0 UV-I 0 W/m 6,2 C -0,9 C 29,0 km/h (5 Bft) 100,00 %
07.01.2018 18:47 7,4 C 4,4 C 92 % 1021,4 hPa 0,0 l/m 20,9 km/h (4 Bft) NO 45 0 min 0,000 mm 0,0 UV-I 0 W/m 6,2 C -0,4 C 25,7 km/h (4 Bft) 95,65 %
07.01.2018 18:48 7,4 C 4,4 C 92 % 1021,4 hPa 0,0 l/m 17,7 km/h (3 Bft) O-NO 67 0 min 0,000 mm 0,0 UV-I 0 W/m 6,2 C 0,8 C 22,5 km/h (4 Bft) 95,65 %
07.01.2018 18:49 7,4 C 4,4 C 92 % 1021,3 hPa 0,0 l/m 19,3 km/h (3 Bft) NO 45 0 min 0,000 mm 0,0 UV-I 0 W/m 6,2 C 0,2 C 25,7 km/h (4 Bft) 95,65 %
07.01.2018 18:50 7,4 C 4,4 C 92 % 1021,3 hPa 0,0 l/m 27,4 km/h (4 Bft) NO 45 0 min 0,000 mm 0,0 UV-I 0 W/m 6,2 C -2,4 C 35,4 km/h (5 Bft) 100,00 %
07.01.2018 18:51 7,4 C 4,4 C 92 % 1021,3 hPa 0,0 l/m 22,5 km/h (4 Bft) O-NO 67 0 min 0,000 mm 0,0 UV-I 0 W/m 6,2 C -0,9 C 27,4 km/h (4 Bft) 91,30 %
07.01.2018 18:52 7,4 C 4,4 C 91 % 1021,3 hPa 0,0 l/m 22,5 km/h (4 Bft) O-NO 67 0 min 0,000 mm 0,0 UV-I 0 W/m 6,0 C -0,9 C 30,6 km/h (5 Bft) 100,00 %
07.01.2018 18:53 7,4 C 4,4 C 91 % 1021,3 hPa 0,0 l/m 24,1 km/h (4 Bft) O-NO 67 0 min 0,000 mm 0,0 UV-I 0 W/m 6,0 C -1,4 C 32,2 km/h (5 Bft) 95,65 %
07.01.2018 18:54 7,4 C 4,4 C 91 % 1021,3 hPa 0,0 l/m 17,7 km/h (3 Bft) NO 45 0 min 0,000 mm 0,0 UV-I 0 W/m 6,0 C 0,8 C 24,1 km/h (4 Bft) 91,30 %
07.01.2018 18:55 7,4 C 4,4 C 91 % 1021,3 hPa 0,0 l/m 24,1 km/h (4 Bft) NO 45 0 min 0,000 mm 0,0 UV-I 0 W/m 6,0 C -1,4 C 30,6 km/h (5 Bft) 91,30 %
07.01.2018 18:56 7,4 C 4,4 C 91 % 1021,3 hPa 0,0 l/m 22,5 km/h (4 Bft) NO 45 0 min 0,000 mm 0,0 UV-I 0 W/m 6,0 C -0,9 C 29,0 km/h (5 Bft) 91,30 %
07.01.2018 18:57 7,4 C 4,4 C 91 % 1021,4 hPa 0,0 l/m 20,9 km/h (4 Bft) NO 45 0 min 0,000 mm 0,0 UV-I 0 W/m 6,0 C -0,4 C 30,6 km/h (5 Bft) 100,00 %
07.01.2018 18:58 7,4 C 4,4 C 91 % 1021,4 hPa 0,0 l/m 19,3 km/h (3 Bft) O-NO 67 0 min 0,000 mm 0,0 UV-I 0 W/m 6,0 C 0,2 C 22,5 km/h (4 Bft) 95,65 %
07.01.2018 18:59 7,3 C 4,4 C 92 % 1021,4 hPa 0,0 l/m 19,3 km/h (3 Bft) O-NO 67 0 min 0,000 mm 0,0 UV-I 0 W/m 6,1 C 0,1 C 25,7 km/h (4 Bft) 100,00 %
07.01.2018 19:00 7,3 C 4,4 C 92 % 1021,4 hPa 0,0 l/m 25,7 km/h (4 Bft) NO 45 0 min 0,025 mm 0,0 UV-I 0 W/m 6,1 C -2,0 C 30,6 km/h (5 Bft) 95,65 %
07.01.2018 19:01 7,3 C 4,4 C 92 % 1021,3 hPa 0,0 l/m 19,3 km/h (3 Bft) O-NO 67 0 min 0,000 mm 0,0 UV-I 0 W/m 6,1 C 0,1 C 27,4 km/h (4 Bft) 100,00 %
07.01.2018 19:02 7,3 C 4,4 C 92 % 1021,4 hPa 0,0 l/m 19,3 km/h (3 Bft) NO 45 0 min 0,000 mm 0,0 UV-I 0 W/m 6,1 C 0,1 C 25,7 km/h (4 Bft) 86,96 %
07.01.2018 19:03 7,3 C 4,4 C 92 % 1021,3 hPa 0,0 l/m 17,7 km/h (3 Bft) O-NO 67 0 min 0,000 mm 0,0 UV-I 0 W/m 6,1 C 0,7 C 24,1 km/h (4 Bft) 95,65 %
07.01.2018 19:04 7,3 C 4,4 C 92 % 1021,3 hPa 0,0 l/m 22,5 km/h (4 Bft) O-NO 67 0 min 0,000 mm 0,0 UV-I 0 W/m 6,1 C -1,1 C 27,4 km/h (4 Bft) 91,30 %
07.01.2018 19:05 7,3 C 4,4 C 92 % 1021,3 hPa 0,0 l/m 20,9 km/h (4 Bft) NO 45 0 min 0,000 mm 0,0 UV-I 0 W/m 6,1 C -0,5 C 27,4 km/h (4 Bft) 95,65 %
07.01.2018 19:06 7,3 C 4,4 C 92 % 1021,3 hPa 0,0 l/m 22,5 km/h (4 Bft) O-NO 67 0 min 0,000 mm 0,0 UV-I 0 W/m 6,1 C -1,1 C 32,2 km/h (5 Bft) 91,30 %
07.01.2018 19:07 7,3 C 4,4 C 92 % 1021,3 hPa 0,0 l/m 19,3 km/h (3 Bft) NO 45 0 min 0,000 mm 0,0 UV-I 0 W/m 6,1 C 0,1 C 22,5 km/h (4 Bft) 95,65 %
07.01.2018 19:08 7,3 C 4,4 C 92 % 1021,4 hPa 0,0 l/m 22,5 km/h (4 Bft) NO 45 0 min 0,000 mm 0,0 UV-I 0 W/m 6,1 C -1,1 C 29,0 km/h (5 Bft) 95,65 %
07.01.2018 19:09 7,3 C 4,4 C 92 % 1021,4 hPa 0,0 l/m 22,5 km/h (4 Bft) NO 45 0 min 0,000 mm 0,0 UV-I 0 W/m 6,1 C -1,1 C 29,0 km/h (5 Bft) 91,30 %
07.01.2018 19:10 7,3 C 4,4 C 92 % 1021,4 hPa 0,0 l/m 24,1 km/h (4 Bft) NO 45 0 min 0,000 mm 0,0 UV-I 0 W/m 6,1 C -1,6 C 30,6 km/h (5 Bft) 95,65 %
07.01.2018 19:11 7,3 C 4,4 C 92 % 1021,4 hPa 0,0 l/m 17,7 km/h (3 Bft) O-NO 67 0 min 0,000 mm 0,0 UV-I 0 W/m 6,1 C 0,7 C 25,7 km/h (4 Bft) 95,65 %
07.01.2018 19:12 7,3 C 4,4 C 92 % 1021,4 hPa 0,0 l/m 27,4 km/h (4 Bft) NO 45 0 min 0,000 mm 0,0 UV-I 0 W/m 6,1 C -2,5 C 32,2 km/h (5 Bft) 95,65 %
07.01.2018 19:13 7,3 C 4,4 C 92 % 1021,3 hPa 0,0 l/m 20,9 km/h (4 Bft) NO 45 0 min 0,000 mm 0,0 UV-I 0 W/m 6,1 C -0,5 C 27,4 km/h (4 Bft) 100,00 %
07.01.2018 19:14 7,3 C 4,4 C 92 % 1021,4 hPa 0,0 l/m 22,5 km/h (4 Bft) NO 45 0 min 0,000 mm 0,0 UV-I 0 W/m 6,1 C -1,1 C 30,6 km/h (5 Bft) 95,65 %
07.01.2018 19:15 7,3 C 4,4 C 92 % 1021,4 hPa 0,0 l/m 20,9 km/h (4 Bft) NO 45 0 min 0,000 mm 0,0 UV-I 0 W/m 6,1 C -0,5 C 33,8 km/h (5 Bft) 100,00 %
07.01.2018 19:16 7,3 C 4,4 C 92 % 1021,4 hPa 0,0 l/m 20,9 km/h (4 Bft) O-NO 67 0 min 0,000 mm 0,0 UV-I 0 W/m 6,1 C -0,5 C 29,0 km/h (5 Bft) 91,30 %
07.01.2018 19:17 7,3 C 4,4 C 92 % 1021,4 hPa 0,0 l/m 24,1 km/h (4 Bft) O-NO 67 0 min 0,000 mm 0,0 UV-I 0 W/m 6,1 C -1,6 C 30,6 km/h (5 Bft) 100,00 %
07.01.2018 19:18 7,3 C 4,4 C 92 % 1021,4 hPa 0,0 l/m 24,1 km/h (4 Bft) NO 45 0 min 0,000 mm 0,0 UV-I 0 W/m 6,1 C -1,6 C 30,6 km/h (5 Bft) 95,65 %
07.01.2018 19:19 7,3 C 4,4 C 92 % 1021,3 hPa 0,0 l/m 25,7 km/h (4 Bft) O-NO 67 0 min 0,000 mm 0,0 UV-I 0 W/m 6,1 C -2,0 C 30,6 km/h (5 Bft) 95,65 %
07.01.2018 19:20 7,3 C 4,4 C 92 % 1021,4 hPa 0,0 l/m 25,7 km/h (4 Bft) O-NO 67 0 min 0,000 mm 0,0 UV-I 0 W/m 6,1 C -2,0 C 35,4 km/h (5 Bft) 100,00 %
07.01.2018 19:21 7,3 C 4,4 C 92 % 1021,4 hPa 0,0 l/m 24,1 km/h (4 Bft) O-NO 67 0 min 0,000 mm 0,0 UV-I 0 W/m 6,1 C -1,6 C 29,0 km/h (5 Bft) 95,65 %
07.01.2018 19:22 7,3 C 4,4 C 92 % 1021,4 hPa 0,0 l/m 19,3 km/h (3 Bft) O-NO 67 0 min 0,000 mm 0,0 UV-I 0 W/m 6,1 C 0,1 C 27,4 km/h (4 Bft) 100,00 %
07.01.2018 19:23 7,3 C 4,4 C 92 % 1021,4 hPa 0,0 l/m 24,1 km/h (4 Bft) NO 45 0 min 0,000 mm 0,0 UV-I 0 W/m 6,1 C -1,6 C 32,2 km/h (5 Bft) 86,96 %
07.01.2018 19:24 7,3 C 4,4 C 92 % 1021,4 hPa 0,0 l/m 20,9 km/h (4 Bft) NO 45 0 min 0,000 mm 0,0 UV-I 0 W/m 6,1 C -0,5 C 27,4 km/h (4 Bft) 100,00 %
07.01.2018 19:25 7,3 C 4,4 C 92 % 1021,4 hPa 0,0 l/m 19,3 km/h (3 Bft) NO 45 0 min 0,000 mm 0,0 UV-I 0 W/m 6,1 C 0,1 C 24,1 km/h (4 Bft) 95,65 %
07.01.2018 19:26 7,3 C 4,4 C 92 % 1021,4 hPa 0,0 l/m 17,7 km/h (3 Bft) NO 45 0 min 0,000 mm 0,0 UV-I 0 W/m 6,1 C 0,7 C 25,7 km/h (4 Bft) 100,00 %
07.01.2018 19:27 7,3 C 4,4 C 92 % 1021,4 hPa 0,0 l/m 19,3 km/h (3 Bft) O-NO 67 0 min 0,000 mm 0,0 UV-I 0 W/m 6,1 C 0,1 C 25,7 km/h (4 Bft) 100,00 %
07.01.2018 19:28 7,2 C 4,4 C 92 % 1021,4 hPa 0,0 l/m 19,3 km/h (3 Bft) O-NO 67 0 min 0,000 mm 0,0 UV-I 0 W/m 6,0 C -0,1 C 25,7 km/h (4 Bft) 100,00 %
07.01.2018 19:29 7,3 C 4,4 C 92 % 1021,4 hPa 0,0 l/m 19,3 km/h (3 Bft) O-NO 67 0 min 0,000 mm 0,0 UV-I 0 W/m 6,1 C 0,1 C 25,7 km/h (4 Bft) 100,00 %
07.01.2018 19:30 7,2 C 4,4 C 92 % 1021,5 hPa 0,0 l/m 19,3 km/h (3 Bft) O-NO 67 0 min 0,000 mm 0,0 UV-I 0 W/m 6,0 C -0,1 C 27,4 km/h (4 Bft) 95,65 %
07.01.2018 19:31 7,2 C 4,4 C 92 % 1021,5 hPa 0,0 l/m 17,7 km/h (3 Bft) O-NO 67 0 min 0,000 mm 0,0 UV-I 0 W/m 6,0 C 0,6 C 24,1 km/h (4 Bft) 95,65 %
07.01.2018 19:32 7,2 C 4,4 C 92 % 1021,5 hPa 0,0 l/m 22,5 km/h (4 Bft) NO 45 0 min 0,000 mm 0,0 UV-I 0 W/m 6,0 C -1,2 C 25,7 km/h (4 Bft) 100,00 %
07.01.2018 19:33 7,2 C 4,4 C 92 % 1021,5 hPa 0,0 l/m 22,5 km/h (4 Bft) O-NO 67 0 min 0,000 mm 0,0 UV-I 0 W/m 6,0 C -1,2 C 27,4 km/h (4 Bft) 100,00 %
07.01.2018 19:34 7,3 C 4,4 C 92 % 1021,6 hPa 0,0 l/m 20,9 km/h (4 Bft) O-NO 67 0 min 0,000 mm 0,0 UV-I 0 W/m 6,1 C -0,5 C 27,4 km/h (4 Bft) 100,00 %
07.01.2018 19:35 7,3 C 4,4 C 91 % 1021,6 hPa 0,0 l/m 25,7 km/h (4 Bft) O-NO 67 0 min 0,000 mm 0,0 UV-I 0 W/m 5,9 C -2,0 C 35,4 km/h (5 Bft) 100,00 %
07.01.2018 19:36 7,3 C 4,4 C 91 % 1021,6 hPa 0,0 l/m 20,9 km/h (4 Bft) NO 45 0 min 0,000 mm 0,0 UV-I 0 W/m 5,9 C -0,5 C 29,0 km/h (5 Bft) 100,00 %
07.01.2018 19:37 7,3 C 4,4 C 91 % 1021,6 hPa 0,0 l/m 20,9 km/h (4 Bft) NO 45 0 min 0,000 mm 0,0 UV-I 0 W/m 5,9 C -0,5 C 24,1 km/h (4 Bft) 95,65 %
07.01.2018 19:38 7,3 C 4,4 C 91 % 1021,6 hPa 0,0 l/m 27,4 km/h (4 Bft) NO 45 0 min 0,000 mm 0,0 UV-I 0 W/m 5,9 C -2,5 C 35,4 km/h (5 Bft) 100,00 %
07.01.2018 19:39 7,3 C 4,4 C 91 % 1021,5 hPa 0,0 l/m 27,4 km/h (4 Bft) NO 45 0 min 0,000 mm 0,0 UV-I 0 W/m 5,9 C -2,5 C 37,0 km/h (5 Bft) 100,00 %
07.01.2018 19:40 7,3 C 4,4 C 91 % 1021,6 hPa 0,0 l/m 22,5 km/h (4 Bft) O-NO 67 0 min 0,000 mm 0,0 UV-I 0 W/m 5,9 C -1,1 C 32,2 km/h (5 Bft) 100,00 %
07.01.2018 19:41 7,3 C 4,4 C 91 % 1021,6 hPa 0,0 l/m 25,7 km/h (4 Bft) O-NO 67 0 min 0,000 mm 0,0 UV-I 0 W/m 5,9 C -2,0 C 33,8 km/h (5 Bft) 100,00 %
07.01.2018 19:42 7,3 C 4,4 C 91 % 1021,5 hPa 0,0 l/m 24,1 km/h (4 Bft) O-NO 67 0 min 0,000 mm 0,0 UV-I 0 W/m 5,9 C -1,6 C 29,0 km/h (5 Bft) 100,00 %
07.01.2018 19:43 7,3 C 4,4 C 91 % 1021,6 hPa 0,0 l/m 24,1 km/h (4 Bft) O-NO 67 0 min 0,000 mm 0,0 UV-I 0 W/m 5,9 C -1,6 C 35,4 km/h (5 Bft) 100,00 %
07.01.2018 19:44 7,3 C 4,4 C 91 % 1021,6 hPa 0,0 l/m 20,9 km/h (4 Bft) O-NO 67 0 min 0,000 mm 0,0 UV-I 0 W/m 5,9 C -0,5 C 27,4 km/h (4 Bft) 95,65 %
07.01.2018 19:45 7,3 C 4,4 C 91 % 1021,6 hPa 0,0 l/m 19,3 km/h (3 Bft) O-NO 67 0 min 0,000 mm 0,0 UV-I 0 W/m 5,9 C 0,1 C 25,7 km/h (4 Bft) 100,00 %
07.01.2018 19:46 7,3 C 4,4 C 91 % 1021,6 hPa 0,0 l/m 22,5 km/h (4 Bft) O-NO 67 0 min 0,000 mm 0,0 UV-I 0 W/m 5,9 C -1,1 C 29,0 km/h (5 Bft) 100,00 %
07.01.2018 19:47 7,3 C 4,4 C 91 % 1021,6 hPa 0,0 l/m 20,9 km/h (4 Bft) O-NO 67 0 min 0,000 mm 0,0 UV-I 0 W/m 5,9 C -0,5 C 30,6 km/h (5 Bft) 100,00 %
07.01.2018 19:48 7,3 C 4,4 C 91 % 1021,6 hPa 0,0 l/m 20,9 km/h (4 Bft) O-NO 67 0 min 0,000 mm 0,0 UV-I 0 W/m 5,9 C -0,5 C 30,6 km/h (5 Bft) 100,00 %
07.01.2018 19:49 7,2 C 4,4 C 91 % 1021,6 hPa 0,0 l/m 20,9 km/h (4 Bft) O-NO 67 0 min 0,000 mm 0,0 UV-I 0 W/m 5,8 C -0,7 C 32,2 km/h (5 Bft) 100,00 %
07.01.2018 19:50 7,3 C 4,4 C 91 % 1021,6 hPa 0,0 l/m 20,9 km/h (4 Bft) O-NO 67 0 min 0,000 mm 0,0 UV-I 0 W/m 5,9 C -0,5 C 30,6 km/h (5 Bft) 100,00 %
07.01.2018 19:51 7,3 C 4,4 C 91 % 1021,6 hPa 0,0 l/m 24,1 km/h (4 Bft) NO 45 0 min 0,000 mm 0,0 UV-I 0 W/m 5,9 C -1,6 C 29,0 km/h (5 Bft) 95,65 %
07.01.2018 19:52 7,2 C 4,4 C 91 % 1021,6 hPa 0,0 l/m 22,5 km/h (4 Bft) NO 45 0 min 0,000 mm 0,0 UV-I 0 W/m 5,8 C -1,2 C 30,6 km/h (5 Bft) 100,00 %
07.01.2018 19:53 7,2 C 4,4 C 91 % 1021,6 hPa 0,0 l/m 24,1 km/h (4 Bft) O-NO 67 0 min 0,000 mm 0,0 UV-I 0 W/m 5,8 C -1,7 C 32,2 km/h (5 Bft) 100,00 %
07.01.2018 19:54 7,2 C 4,4 C 91 % 1021,6 hPa 0,0 l/m 22,5 km/h (4 Bft) O-NO 67 0 min 0,000 mm 0,0 UV-I 0 W/m 5,8 C -1,2 C 30,6 km/h (5 Bft) 100,00 %
07.01.2018 19:55 7,2 C 4,4 C 91 % 1021,6 hPa 0,0 l/m 22,5 km/h (4 Bft) O-NO 67 0 min 0,000 mm 0,0 UV-I 0 W/m 5,8 C -1,2 C 32,2 km/h (5 Bft) 100,00 %
07.01.2018 19:56 7,2 C 4,4 C 91 % 1021,6 hPa 0,0 l/m 20,9 km/h (4 Bft) O-NO 67 0 min 0,000 mm 0,0 UV-I 0 W/m 5,8 C -0,7 C 27,4 km/h (4 Bft) 100,00 %
07.01.2018 19:57 7,3 C 4,4 C 91 % 1021,6 hPa 0,0 l/m 22,5 km/h (4 Bft) O-NO 67 0 min 0,000 mm 0,0 UV-I 0 W/m 5,9 C -1,1 C 30,6 km/h (5 Bft) 100,00 %
07.01.2018 19:58 7,3 C 4,4 C 91 % 1021,6 hPa 0,0 l/m 19,3 km/h (3 Bft) O-NO 67 0 min 0,000 mm 0,0 UV-I 0 W/m 5,9 C 0,1 C 29,0 km/h (5 Bft) 95,65 %
07.01.2018 19:59 7,2 C 4,4 C 91 % 1021,5 hPa 0,0 l/m 20,9 km/h (4 Bft) O-NO 67 0 min 0,000 mm 0,0 UV-I 0 W/m 5,8 C -0,7 C 29,0 km/h (5 Bft) 100,00 %
07.01.2018 20:00 7,2 C 4,4 C 91 % 1021,5 hPa 0,0 l/m 24,1 km/h (4 Bft) O-NO 67 0 min 0,025 mm 0,0 UV-I 0 W/m 5,8 C -1,7 C 29,0 km/h (5 Bft) 100,00 %
07.01.2018 20:01 7,2 C 4,4 C 91 % 1021,5 hPa 0,0 l/m 25,7 km/h (4 Bft) O-NO 67 0 min 0,000 mm 0,0 UV-I 0 W/m 5,8 C -2,2 C 30,6 km/h (5 Bft) 95,65 %
07.01.2018 20:02 7,2 C 4,4 C 91 % 1021,5 hPa 0,0 l/m 25,7 km/h (4 Bft) O-NO 67 0 min 0,000 mm 0,0 UV-I 0 W/m 5,8 C -2,2 C 35,4 km/h (5 Bft) 95,65 %
07.01.2018 20:03 7,2 C 4,4 C 91 % 1021,4 hPa 0,0 l/m 22,5 km/h (4 Bft) O-NO 67 0 min 0,000 mm 0,0 UV-I 0 W/m 5,8 C -1,2 C 32,2 km/h (5 Bft) 100,00 %
07.01.2018 20:04 7,2 C 4,4 C 91 % 1021,5 hPa 0,0 l/m 27,4 km/h (4 Bft) O-NO 67 0 min 0,000 mm 0,0 UV-I 0 W/m 5,8 C -2,6 C 32,2 km/h (5 Bft) 100,00 %
07.01.2018 20:05 7,2 C 4,4 C 91 % 1021,5 hPa 0,0 l/m 25,7 km/h (4 Bft) O-NO 67 0 min 0,000 mm 0,0 UV-I 0 W/m 5,8 C -2,2 C 33,8 km/h (5 Bft) 95,65 %
07.01.2018 20:06 7,2 C 4,4 C 91 % 1021,5 hPa 0,0 l/m 24,1 km/h (4 Bft) O-NO 67 0 min 0,000 mm 0,0 UV-I 0 W/m 5,8 C -1,7 C 33,8 km/h (5 Bft) 95,65 %
07.01.2018 20:07 7,2 C 4,4 C 91 % 1021,5 hPa 0,0 l/m 19,3 km/h (3 Bft) O-NO 67 0 min 0,000 mm 0,0 UV-I 0 W/m 5,8 C -0,1 C 27,4 km/h (4 Bft) 100,00 %
07.01.2018 20:08 7,2 C 4,4 C 91 % 1021,5 hPa 0,0 l/m 20,9 km/h (4 Bft) O-NO 67 0 min 0,000 mm 0,0 UV-I 0 W/m 5,8 C -0,7 C 25,7 km/h (4 Bft) 100,00 %
07.01.2018 20:09 7,2 C 4,4 C 91 % 1021,5 hPa 0,0 l/m 20,9 km/h (4 Bft) O-NO 67 0 min 0,000 mm 0,0 UV-I 0 W/m 5,8 C -0,7 C 29,0 km/h (5 Bft) 95,65 %
07.01.2018 20:10 7,2 C 4,4 C 91 % 1021,5 hPa 0,0 l/m 25,7 km/h (4 Bft) O-NO 67 0 min 0,000 mm 0,0 UV-I 0 W/m 5,8 C -2,2 C 32,2 km/h (5 Bft) 100,00 %
07.01.2018 20:11 7,2 C 4,4 C 91 % 1021,4 hPa 0,0 l/m 22,5 km/h (4 Bft) O-NO 67 0 min 0,000 mm 0,0 UV-I 0 W/m 5,8 C -1,2 C 33,8 km/h (5 Bft) 100,00 %
07.01.2018 20:12 7,2 C 4,4 C 91 % 1021,5 hPa 0,0 l/m 22,5 km/h (4 Bft) NO 45 0 min 0,000 mm 0,0 UV-I 0 W/m 5,8 C -1,2 C 29,0 km/h (5 Bft) 95,65 %
07.01.2018 20:13 7,2 C 4,4 C 91 % 1021,5 hPa 0,0 l/m 19,3 km/h (3 Bft) NO 45 0 min 0,000 mm 0,0 UV-I 0 W/m 5,8 C -0,1 C 25,7 km/h (4 Bft) 100,00 %
07.01.2018 20:14 7,1 C 4,4 C 91 % 1021,5 hPa 0,0 l/m 16,1 km/h (3 Bft) O-NO 67 0 min 0,000 mm 0,0 UV-I 0 W/m 5,7 C 1,1 C 24,1 km/h (4 Bft) 100,00 %
07.01.2018 20:15 7,1 C 4,4 C 91 % 1021,5 hPa 0,0 l/m 22,5 km/h (4 Bft) O-NO 67 0 min 0,000 mm 0,0 UV-I 0 W/m 5,7 C -1,3 C 29,0 km/h (5 Bft) 100,00 %
07.01.2018 20:16 7,1 C 4,4 C 91 % 1021,5 hPa 0,0 l/m 22,5 km/h (4 Bft) NO 45 0 min 0,000 mm 0,0 UV-I 0 W/m 5,7 C -1,3 C 27,4 km/h (4 Bft) 100,00 %
07.01.2018 20:17 7,1 C 4,4 C 91 % 1021,5 hPa 0,0 l/m 20,9 km/h (4 Bft) O-NO 67 0 min 0,000 mm 0,0 UV-I 0 W/m 5,7 C -0,8 C 30,6 km/h (5 Bft) 95,65 %
07.01.2018 20:18 7,1 C 4,4 C 91 % 1021,5 hPa 0,0 l/m 20,9 km/h (4 Bft) O-NO 67 0 min 0,000 mm 0,0 UV-I 0 W/m 5,7 C -0,8 C 29,0 km/h (5 Bft) 100,00 %
07.01.2018 20:19 7,1 C 4,4 C 91 % 1021,5 hPa 0,0 l/m 24,1 km/h (4 Bft) O-NO 67 0 min 0,000 mm 0,0 UV-I 0 W/m 5,7 C -1,8 C 33,8 km/h (5 Bft) 91,30 %
07.01.2018 20:20 7,1 C 4,4 C 91 % 1021,5 hPa 0,0 l/m 20,9 km/h (4 Bft) O-NO 67 0 min 0,000 mm 0,0 UV-I 0 W/m 5,7 C -0,8 C 30,6 km/h (5 Bft) 100,00 %
07.01.2018 20:21 7,1 C 4,4 C 91 % 1021,5 hPa 0,0 l/m 20,9 km/h (4 Bft) O-NO 67 0 min 0,000 mm 0,0 UV-I 0 W/m 5,7 C -0,8 C 25,7 km/h (4 Bft) 100,00 %
07.01.2018 20:22 7,1 C 4,4 C 91 % 1021,5 hPa 0,0 l/m 17,7 km/h (3 Bft) NO 45 0 min 0,000 mm 0,0 UV-I 0 W/m 5,7 C 0,4 C 24,1 km/h (4 Bft) 100,00 %
07.01.2018 20:23 7,1 C 4,4 C 92 % 1021,5 hPa 0,0 l/m 20,9 km/h (4 Bft) O-NO 67 0 min 0,000 mm 0,0 UV-I 0 W/m 5,9 C -0,8 C 29,0 km/h (5 Bft) 100,00 %
07.01.2018 20:24 7,1 C 4,4 C 92 % 1021,5 hPa 0,0 l/m 20,9 km/h (4 Bft) O-NO 67 0 min 0,000 mm 0,0 UV-I 0 W/m 5,9 C -0,8 C 33,8 km/h (5 Bft) 100,00 %
07.01.2018 20:25 7,1 C 4,4 C 92 % 1021,6 hPa 0,0 l/m 25,7 km/h (4 Bft) NO 45 0 min 0,000 mm 0,0 UV-I 0 W/m 5,9 C -2,3 C 33,8 km/h (5 Bft) 95,65 %
07.01.2018 20:26 7,1 C 4,4 C 92 % 1021,6 hPa 0,0 l/m 22,5 km/h (4 Bft) O-NO 67 0 min 0,000 mm 0,0 UV-I 0 W/m 5,9 C -1,3 C 27,4 km/h (4 Bft) 95,65 %
07.01.2018 20:27 7,1 C 4,4 C 92 % 1021,6 hPa 0,0 l/m 17,7 km/h (3 Bft) O-NO 67 0 min 0,000 mm 0,0 UV-I 0 W/m 5,9 C 0,4 C 20,9 km/h (4 Bft) 95,65 %
07.01.2018 20:28 7,1 C 4,4 C 92 % 1021,6 hPa 0,0 l/m 17,7 km/h (3 Bft) O-NO 67 0 min 0,000 mm 0,0 UV-I 0 W/m 5,9 C 0,4 C 22,5 km/h (4 Bft) 95,65 %
07.01.2018 20:29 7,0 C 4,4 C 92 % 1021,6 hPa 0,0 l/m 19,3 km/h (3 Bft) O-NO 67 0 min 0,000 mm 0,0 UV-I 0 W/m 5,8 C -0,3 C 25,7 km/h (4 Bft) 95,65 %
07.01.2018 20:30 7,0 C 4,4 C 92 % 1021,6 hPa 0,0 l/m 19,3 km/h (3 Bft) O-NO 67 0 min 0,000 mm 0,0 UV-I 0 W/m 5,8 C -0,3 C 29,0 km/h (5 Bft) 100,00 %
07.01.2018 20:31 7,1 C 4,4 C 92 % 1021,6 hPa 0,0 l/m 22,5 km/h (4 Bft) O-NO 67 0 min 0,000 mm 0,0 UV-I 0 W/m 5,9 C -1,3 C 27,4 km/h (4 Bft) 95,65 %
07.01.2018 20:32 7,0 C 4,4 C 92 % 1021,6 hPa 0,0 l/m 24,1 km/h (4 Bft) O-NO 67 0 min 0,000 mm 0,0 UV-I 0 W/m 5,8 C -2,0 C 30,6 km/h (5 Bft) 95,65 %
07.01.2018 20:33 7,0 C 4,4 C 92 % 1021,7 hPa 0,0 l/m 20,9 km/h (4 Bft) O-NO 67 0 min 0,000 mm 0,0 UV-I 0 W/m 5,8 C -0,9 C 25,7 km/h (4 Bft) 91,30 %
07.01.2018 20:34 7,0 C 4,4 C 92 % 1021,7 hPa 0,0 l/m 19,3 km/h (3 Bft) O-NO 67 0 min 0,000 mm 0,0 UV-I 0 W/m 5,8 C -0,3 C 29,0 km/h (5 Bft) 95,65 %
07.01.2018 20:35 7,0 C 4,4 C 92 % 1021,6 hPa 0,0 l/m 20,9 km/h (4 Bft) O-NO 67 0 min 0,000 mm 0,0 UV-I 0 W/m 5,8 C -0,9 C 27,4 km/h (4 Bft) 91,30 %
07.01.2018 20:36 7,0 C 4,4 C 92 % 1021,6 hPa 0,0 l/m 20,9 km/h (4 Bft) O-NO 67 0 min 0,000 mm 0,0 UV-I 0 W/m 5,8 C -0,9 C 32,2 km/h (5 Bft) 100,00 %
07.01.2018 20:37 7,0 C 4,4 C 92 % 1021,7 hPa 0,0 l/m 24,1 km/h (4 Bft) O-NO 67 0 min 0,000 mm 0,0 UV-I 0 W/m 5,8 C -2,0 C 30,6 km/h (5 Bft) 95,65 %
07.01.2018 20:38 7,0 C 4,4 C 92 % 1021,7 hPa 0,0 l/m 19,3 km/h (3 Bft) O-NO 67 0 min 0,000 mm 0,0 UV-I 0 W/m 5,8 C -0,3 C 25,7 km/h (4 Bft) 91,30 %
07.01.2018 20:39 7,0 C 4,4 C 92 % 1021,6 hPa 0,0 l/m 20,9 km/h (4 Bft) O-NO 67 0 min 0,000 mm 0,0 UV-I 0 W/m 5,8 C -0,9 C 30,6 km/h (5 Bft) 100,00 %
07.01.2018 20:40 7,0 C 4,4 C 92 % 1021,7 hPa 0,0 l/m 22,5 km/h (4 Bft) O-NO 67 0 min 0,000 mm 0,0 UV-I 0 W/m 5,8 C -1,5 C 29,0 km/h (5 Bft) 86,96 %
07.01.2018 20:41 7,0 C 4,4 C 92 % 1021,7 hPa 0,0 l/m 17,7 km/h (3 Bft) O-NO 67 0 min 0,000 mm 0,0 UV-I 0 W/m 5,8 C 0,3 C 24,1 km/h (4 Bft) 100,00 %
07.01.2018 20:42 7,0 C 4,4 C 92 % 1021,7 hPa 0,0 l/m 19,3 km/h (3 Bft) O-NO 67 0 min 0,000 mm 0,0 UV-I 0 W/m 5,8 C -0,3 C 30,6 km/h (5 Bft) 91,30 %
07.01.2018 20:43 6,9 C 4,4 C 92 % 1021,7 hPa 0,0 l/m 19,3 km/h (3 Bft) O-NO 67 0 min 0,000 mm 0,0 UV-I 0 W/m 5,7 C -0,5 C 25,7 km/h (4 Bft) 100,00 %
07.01.2018 20:44 6,9 C 4,4 C 92 % 1021,7 hPa 0,0 l/m 17,7 km/h (3 Bft) O-NO 67 0 min 0,000 mm 0,0 UV-I 0 W/m 5,7 C 0,2 C 22,5 km/h (4 Bft) 91,30 %
07.01.2018 20:45 6,9 C 4,4 C 92 % 1021,7 hPa 0,0 l/m 19,3 km/h (3 Bft) O-NO 67 0 min 0,000 mm 0,0 UV-I 0 W/m 5,7 C -0,5 C 25,7 km/h (4 Bft) 100,00 %
07.01.2018 20:46 6,9 C 4,4 C 92 % 1021,7 hPa 0,0 l/m 22,5 km/h (4 Bft) O-NO 67 0 min 0,000 mm 0,0 UV-I 0 W/m 5,7 C -1,6 C 30,6 km/h (5 Bft) 86,96 %
07.01.2018 20:47 6,9 C 4,4 C 92 % 1021,6 hPa 0,0 l/m 24,1 km/h (4 Bft) O-NO 67 0 min 0,000 mm 0,0 UV-I 0 W/m 5,7 C -2,1 C 32,2 km/h (5 Bft) 91,30 %
07.01.2018 20:48 6,9 C 4,4 C 92 % 1021,6 hPa 0,0 l/m 25,7 km/h (4 Bft) O-NO 67 0 min 0,000 mm 0,0 UV-I 0 W/m 5,7 C -2,6 C 33,8 km/h (5 Bft) 95,65 %
07.01.2018 20:49 6,9 C 4,4 C 92 % 1021,6 hPa 0,0 l/m 25,7 km/h (4 Bft) O-NO 67 0 min 0,000 mm 0,0 UV-I 0 W/m 5,7 C -2,6 C 32,2 km/h (5 Bft) 95,65 %
07.01.2018 20:50 6,9 C 4,4 C 92 % 1021,7 hPa 0,0 l/m 30,6 km/h (5 Bft) O-NO 67 0 min 0,000 mm 0,0 UV-I 0 W/m 5,7 C -3,8 C 38,6 km/h (5 Bft) 95,65 %
07.01.2018 20:51 6,8 C 4,4 C 92 % 1021,6 hPa 0,0 l/m 20,9 km/h (4 Bft) O-NO 67 0 min 0,000 mm 0,0 UV-I 0 W/m 5,6 C -1,2 C 38,6 km/h (5 Bft) 95,65 %
07.01.2018 20:52 6,8 C 4,4 C 92 % 1021,6 hPa 0,0 l/m 25,7 km/h (4 Bft) O-NO 67 0 min 0,000 mm 0,0 UV-I 0 W/m 5,6 C -2,7 C 33,8 km/h (5 Bft) 100,00 %
07.01.2018 20:53 6,8 C 4,4 C 92 % 1021,6 hPa 0,0 l/m 30,6 km/h (5 Bft) O-NO 67 0 min 0,000 mm 0,0 UV-I 0 W/m 5,6 C -4,0 C 37,0 km/h (5 Bft) 95,65 %
07.01.2018 20:54 6,8 C 4,4 C 92 % 1021,7 hPa 0,0 l/m 30,6 km/h (5 Bft) O-NO 67 0 min 0,000 mm 0,0 UV-I 0 W/m 5,6 C -4,0 C 38,6 km/h (5 Bft) 95,65 %
07.01.2018 20:55 6,8 C 4,4 C 92 % 1021,7 hPa 0,0 l/m 25,7 km/h (4 Bft) O-NO 67 0 min 0,000 mm 0,0 UV-I 0 W/m 5,6 C -2,7 C 33,8 km/h (5 Bft) 95,65 %
07.01.2018 20:56 6,8 C 4,4 C 91 % 1021,7 hPa 0,0 l/m 25,7 km/h (4 Bft) O-NO 67 0 min 0,000 mm 0,0 UV-I 0 W/m 5,4 C -2,7 C 37,0 km/h (5 Bft) 95,65 %
07.01.2018 20:57 6,8 C 4,4 C 91 % 1021,7 hPa 0,0 l/m 30,6 km/h (5 Bft) O-NO 67 0 min 0,000 mm 0,0 UV-I 0 W/m 5,4 C -4,0 C 40,2 km/h (6 Bft) 95,65 %
07.01.2018 20:58 6,7 C 4,4 C 91 % 1021,7 hPa 0,0 l/m 32,2 km/h (5 Bft) O-NO 67 0 min 0,000 mm 0,0 UV-I 0 W/m 5,3 C -4,5 C 45,1 km/h (6 Bft) 95,65 %
07.01.2018 20:59 6,7 C 4,4 C 91 % 1021,8 hPa 0,0 l/m 32,2 km/h (5 Bft) O-NO 67 0 min 0,000 mm 0,0 UV-I 0 W/m 5,3 C -4,5 C 43,5 km/h (6 Bft) 100,00 %
07.01.2018 21:00 6,7 C 4,4 C 91 % 1021,7 hPa 0,0 l/m 24,1 km/h (4 Bft) O-NO 67 0 min 0,025 mm 0,0 UV-I 0 W/m 5,3 C -2,4 C 45,1 km/h (6 Bft) 95,65 %
07.01.2018 21:01 6,7 C 4,4 C 91 % 1021,8 hPa 0,0 l/m 27,4 km/h (4 Bft) O-NO 67 0 min 0,000 mm 0,0 UV-I 0 W/m 5,3 C -3,3 C 38,6 km/h (5 Bft) 91,30 %
07.01.2018 21:02 6,7 C 4,4 C 91 % 1021,8 hPa 0,0 l/m 33,8 km/h (5 Bft) O 90 0 min 0,000 mm 0,0 UV-I 0 W/m 5,3 C -4,8 C 46,7 km/h (6 Bft) 95,65 %
07.01.2018 21:03 6,7 C 4,4 C 92 % 1021,8 hPa 0,0 l/m 35,4 km/h (5 Bft) O-NO 67 0 min 0,000 mm 0,0 UV-I 0 W/m 5,5 C -5,2 C 46,7 km/h (6 Bft) 100,00 %
07.01.2018 21:04 6,7 C 4,4 C 92 % 1021,8 hPa 0,0 l/m 32,2 km/h (5 Bft) O-NO 67 0 min 0,000 mm 0,0 UV-I 0 W/m 5,5 C -4,5 C 40,2 km/h (6 Bft) 95,65 %
07.01.2018 21:05 6,7 C 4,4 C 92 % 1021,8 hPa 0,0 l/m 24,1 km/h (4 Bft) O-NO 67 0 min 0,000 mm 0,0 UV-I 0 W/m 5,5 C -2,4 C 35,4 km/h (5 Bft) 95,65 %
07.01.2018 21:06 6,6 C 4,4 C 92 % 1021,9 hPa 0,0 l/m 27,4 km/h (4 Bft) O-NO 67 0 min 0,000 mm 0,0 UV-I 0 W/m 5,4 C -3,5 C 38,6 km/h (5 Bft) 100,00 %
07.01.2018 21:07 6,6 C 4,4 C 92 % 1021,8 hPa 0,0 l/m 27,4 km/h (4 Bft) O-NO 67 0 min 0,000 mm 0,0 UV-I 0 W/m 5,4 C -3,5 C 33,8 km/h (5 Bft) 91,30 %
07.01.2018 21:08 6,6 C 4,4 C 92 % 1021,8 hPa 0,0 l/m 22,5 km/h (4 Bft) O-NO 67 0 min 0,000 mm 0,0 UV-I 0 W/m 5,4 C -2,0 C 29,0 km/h (5 Bft) 95,65 %
07.01.2018 21:09 6,6 C 4,4 C 92 % 1021,9 hPa 0,0 l/m 24,1 km/h (4 Bft) O-NO 67 0 min 0,000 mm 0,0 UV-I 0 W/m 5,4 C -2,5 C 30,6 km/h (5 Bft) 95,65 %
07.01.2018 21:10 6,6 C 4,4 C 92 % 1021,9 hPa 0,0 l/m 27,4 km/h (4 Bft) O-NO 67 0 min 0,000 mm 0,0 UV-I 0 W/m 5,4 C -3,5 C 37,0 km/h (5 Bft) 95,65 %
07.01.2018 21:11 6,6 C 4,4 C 92 % 1021,9 hPa 0,0 l/m 30,6 km/h (5 Bft) O-NO 67 0 min 0,000 mm 0,0 UV-I 0 W/m 5,4 C -4,3 C 40,2 km/h (6 Bft) 95,65 %
07.01.2018 21:12 6,6 C 4,4 C 92 % 1021,9 hPa 0,0 l/m 24,1 km/h (4 Bft) O-NO 67 0 min 0,000 mm 0,0 UV-I 0 W/m 5,4 C -2,5 C 30,6 km/h (5 Bft) 95,65 %
07.01.2018 21:13 6,6 C 4,4 C 92 % 1021,9 hPa 0,0 l/m 24,1 km/h (4 Bft) O-NO 67 0 min 0,000 mm 0,0 UV-I 0 W/m 5,4 C -2,5 C 29,0 km/h (5 Bft) 100,00 %
07.01.2018 21:14 6,6 C 4,4 C 92 % 1022,0 hPa 0,0 l/m 20,9 km/h (4 Bft) O-NO 67 0 min 0,000 mm 0,0 UV-I 0 W/m 5,4 C -1,4 C 25,7 km/h (4 Bft) 100,00 %
07.01.2018 21:15 6,5 C 4,4 C 92 % 1022,0 hPa 0,0 l/m 29,0 km/h (5 Bft) O-NO 67 0 min 0,000 mm 0,0 UV-I 0 W/m 5,3 C -4,0 C 38,6 km/h (5 Bft) 95,65 %
07.01.2018 21:16 6,5 C 4,4 C 92 % 1022,0 hPa 0,0 l/m 30,6 km/h (5 Bft) O-NO 67 0 min 0,000 mm 0,0 UV-I 0 W/m 5,3 C -4,4 C 37,0 km/h (5 Bft) 95,65 %
07.01.2018 21:17 6,5 C 4,4 C 92 % 1022,0 hPa 0,0 l/m 25,7 km/h (4 Bft) O-NO 67 0 min 0,000 mm 0,0 UV-I 0 W/m 5,3 C -3,1 C 37,0 km/h (5 Bft) 100,00 %
07.01.2018 21:18 6,5 C 4,4 C 92 % 1022,1 hPa 0,0 l/m 20,9 km/h (4 Bft) O-NO 67 0 min 0,000 mm 0,0 UV-I 0 W/m 5,3 C -1,6 C 25,7 km/h (4 Bft) 100,00 %
07.01.2018 21:19 6,5 C 4,4 C 92 % 1022,1 hPa 0,0 l/m 22,5 km/h (4 Bft) NO 45 0 min 0,000 mm 0,0 UV-I 0 W/m 5,3 C -2,1 C 32,2 km/h (5 Bft) 100,00 %
07.01.2018 21:20 6,4 C 4,4 C 92 % 1022,1 hPa 0,0 l/m 20,9 km/h (4 Bft) O-NO 67 0 min 0,000 mm 0,0 UV-I 0 W/m 5,2 C -1,7 C 33,8 km/h (5 Bft) 100,00 %
07.01.2018 21:21 6,4 C 4,4 C 93 % 1022,1 hPa 0,0 l/m 19,3 km/h (3 Bft) NO 45 0 min 0,000 mm 0,0 UV-I 0 W/m 5,4 C -1,1 C 27,4 km/h (4 Bft) 100,00 %
07.01.2018 21:22 6,4 C 4,4 C 93 % 1022,1 hPa 0,0 l/m 20,9 km/h (4 Bft) O-NO 67 0 min 0,000 mm 0,0 UV-I 0 W/m 5,4 C -1,7 C 25,7 km/h (4 Bft) 95,65 %
07.01.2018 21:23 6,4 C 4,4 C 93 % 1022,1 hPa 0,0 l/m 25,7 km/h (4 Bft) O-NO 67 0 min 0,000 mm 0,0 UV-I 0 W/m 5,4 C -3,3 C 30,6 km/h (5 Bft) 100,00 %
07.01.2018 21:24 6,4 C 4,4 C 93 % 1022,1 hPa 0,0 l/m 29,0 km/h (5 Bft) O-NO 67 0 min 0,000 mm 0,0 UV-I 0 W/m 5,4 C -4,2 C 33,8 km/h (5 Bft) 100,00 %
07.01.2018 21:25 6,4 C 4,4 C 93 % 1022,1 hPa 0,0 l/m 22,5 km/h (4 Bft) O-NO 67 0 min 0,000 mm 0,0 UV-I 0 W/m 5,4 C -2,3 C 30,6 km/h (5 Bft) 100,00 %
07.01.2018 21:26 6,4 C 4,4 C 93 % 1022,1 hPa 0,0 l/m 16,1 km/h (3 Bft) O-NO 67 0 min 0,000 mm 0,0 UV-I 0 W/m 5,4 C 0,3 C 22,5 km/h (4 Bft) 100,00 %
07.01.2018 21:27 6,4 C 4,4 C 93 % 1022,1 hPa 0,0 l/m 22,5 km/h (4 Bft) O-NO 67 0 min 0,000 mm 0,0 UV-I 0 W/m 5,4 C -2,3 C 27,4 km/h (4 Bft) 100,00 %
07.01.2018 21:28 6,4 C 4,4 C 93 % 1022,1 hPa 0,0 l/m 20,9 km/h (4 Bft) O-NO 67 0 min 0,000 mm 0,0 UV-I 0 W/m 5,4 C -1,7 C 25,7 km/h (4 Bft) 100,00 %
07.01.2018 21:29 6,4 C 4,4 C 93 % 1022,1 hPa 0,0 l/m 24,1 km/h (4 Bft) O-NO 67 0 min 0,000 mm 0,0 UV-I 0 W/m 5,4 C -2,8 C 33,8 km/h (5 Bft) 91,30 %
07.01.2018 21:30 6,4 C 4,4 C 93 % 1022,1 hPa 0,0 l/m 25,7 km/h (4 Bft) NO 45 0 min 0,000 mm 0,0 UV-I 0 W/m 5,4 C -3,3 C 32,2 km/h (5 Bft) 100,00 %
07.01.2018 21:31 6,4 C 4,4 C 93 % 1022,1 hPa 0,0 l/m 22,5 km/h (4 Bft) O-NO 67 0 min 0,000 mm 0,0 UV-I 0 W/m 5,4 C -2,3 C 29,0 km/h (5 Bft) 100,00 %
07.01.2018 21:32 6,4 C 4,4 C 93 % 1022,0 hPa 0,0 l/m 20,9 km/h (4 Bft) NO 45 0 min 0,000 mm 0,0 UV-I 0 W/m 5,4 C -1,7 C 27,4 km/h (4 Bft) 100,00 %
07.01.2018 21:33 6,3 C 4,4 C 93 % 1022,1 hPa 0,0 l/m 19,3 km/h (3 Bft) O-NO 67 0 min 0,000 mm 0,0 UV-I 0 W/m 5,3 C -1,2 C 25,7 km/h (4 Bft) 100,00 %
07.01.2018 21:34 6,4 C 4,4 C 93 % 1022,1 hPa 0,0 l/m 25,7 km/h (4 Bft) O-NO 67 0 min 0,000 mm 0,0 UV-I 0 W/m 5,4 C -3,3 C 30,6 km/h (5 Bft) 100,00 %
07.01.2018 21:35 6,3 C 4,4 C 93 % 1022,1 hPa 0,0 l/m 22,5 km/h (4 Bft) O-NO 67 0 min 0,000 mm 0,0 UV-I 0 W/m 5,3 C -2,4 C 29,0 km/h (5 Bft) 95,65 %
07.01.2018 21:36 6,3 C 4,4 C 93 % 1022,1 hPa 0,0 l/m 25,7 km/h (4 Bft) O-NO 67 0 min 0,000 mm 0,0 UV-I 0 W/m 5,3 C -3,4 C 32,2 km/h (5 Bft) 95,65 %
07.01.2018 21:37 6,3 C 4,4 C 93 % 1022,1 hPa 0,0 l/m 27,4 km/h (4 Bft) O-NO 67 0 min 0,000 mm 0,0 UV-I 0 W/m 5,3 C -3,9 C 32,2 km/h (5 Bft) 100,00 %
07.01.2018 21:38 6,3 C 4,4 C 93 % 1022,1 hPa 0,0 l/m 25,7 km/h (4 Bft) O-NO 67 0 min 0,000 mm 0,0 UV-I 0 W/m 5,3 C -3,4 C 30,6 km/h (5 Bft) 100,00 %
07.01.2018 21:39 6,3 C 4,4 C 93 % 1022,1 hPa 0,0 l/m 22,5 km/h (4 Bft) O-NO 67 0 min 0,000 mm 0,0 UV-I 0 W/m 5,3 C -2,4 C 29,0 km/h (5 Bft) 95,65 %
07.01.2018 21:40 6,3 C 4,4 C 93 % 1022,1 hPa 0,0 l/m 19,3 km/h (3 Bft) NO 45 0 min 0,000 mm 0,0 UV-I 0 W/m 5,3 C -1,2 C 24,1 km/h (4 Bft) 100,00 %
07.01.2018 21:41 6,3 C 4,4 C 93 % 1022,1 hPa 0,0 l/m 19,3 km/h (3 Bft) NO 45 0 min 0,000 mm 0,0 UV-I 0 W/m 5,3 C -1,2 C 27,4 km/h (4 Bft) 95,65 %
07.01.2018 21:42 6,3 C 4,4 C 93 % 1022,1 hPa 0,0 l/m 22,5 km/h (4 Bft) NO 45 0 min 0,000 mm 0,0 UV-I 0 W/m 5,3 C -2,4 C 30,6 km/h (5 Bft) 95,65 %
07.01.2018 21:43 6,3 C 4,4 C 93 % 1022,1 hPa 0,0 l/m 27,4 km/h (4 Bft) O-NO 67 0 min 0,000 mm 0,0 UV-I 0 W/m 5,3 C -3,9 C 37,0 km/h (5 Bft) 95,65 %
07.01.2018 21:44 6,3 C 4,4 C 93 % 1022,1 hPa 0,0 l/m 25,7 km/h (4 Bft) O-NO 67 0 min 0,000 mm 0,0 UV-I 0 W/m 5,3 C -3,4 C 40,2 km/h (6 Bft) 100,00 %
07.01.2018 21:45 6,3 C 4,4 C 93 % 1022,1 hPa 0,0 l/m 33,8 km/h (5 Bft) O-NO 67 0 min 0,000 mm 0,0 UV-I 0 W/m 5,3 C -5,4 C 40,2 km/h (6 Bft) 95,65 %
07.01.2018 21:46 6,3 C 4,4 C 93 % 1022,1 hPa 0,0 l/m 27,4 km/h (4 Bft) O-NO 67 0 min 0,000 mm 0,0 UV-I 0 W/m 5,3 C -3,9 C 37,0 km/h (5 Bft) 100,00 %
07.01.2018 21:47 6,3 C 4,4 C 93 % 1022,2 hPa 0,0 l/m 27,4 km/h (4 Bft) O-NO 67 0 min 0,000 mm 0,0 UV-I 0 W/m 5,3 C -3,9 C 37,0 km/h (5 Bft) 100,00 %
07.01.2018 21:48 6,3 C 4,4 C 93 % 1022,2 hPa 0,0 l/m 24,1 km/h (4 Bft) O-NO 67 0 min 0,000 mm 0,0 UV-I 0 W/m 5,3 C -2,9 C 29,0 km/h (5 Bft) 95,65 %
07.01.2018 21:49 6,3 C 4,4 C 93 % 1022,2 hPa 0,0 l/m 20,9 km/h (4 Bft) O-NO 67 0 min 0,000 mm 0,0 UV-I 0 W/m 5,3 C -1,8 C 29,0 km/h (5 Bft) 95,65 %
07.01.2018 21:50 6,2 C 4,4 C 93 % 1022,2 hPa 0,0 l/m 25,7 km/h (4 Bft) O-NO 67 0 min 0,000 mm 0,0 UV-I 0 W/m 5,2 C -3,5 C 32,2 km/h (5 Bft) 91,30 %
07.01.2018 21:51 6,2 C 4,4 C 93 % 1022,2 hPa 0,0 l/m 27,4 km/h (4 Bft) O-NO 67 0 min 0,000 mm 0,0 UV-I 0 W/m 5,2 C -4,0 C 32,2 km/h (5 Bft) 95,65 %
07.01.2018 21:52 6,2 C 4,4 C 93 % 1022,2 hPa 0,0 l/m 27,4 km/h (4 Bft) O-NO 67 0 min 0,000 mm 0,0 UV-I 0 W/m 5,2 C -4,0 C 37,0 km/h (5 Bft) 95,65 %
07.01.2018 21:53 6,2 C 4,4 C 93 % 1022,2 hPa 0,0 l/m 22,5 km/h (4 Bft) O-NO 67 0 min 0,000 mm 0,0 UV-I 0 W/m 5,2 C -2,5 C 33,8 km/h (5 Bft) 100,00 %
07.01.2018 21:54 6,2 C 4,4 C 93 % 1022,2 hPa 0,0 l/m 29,0 km/h (5 Bft) O-NO 67 0 min 0,000 mm 0,0 UV-I 0 W/m 5,2 C -4,4 C 35,4 km/h (5 Bft) 95,65 %
07.01.2018 21:55 6,2 C 4,4 C 93 % 1022,2 hPa 0,0 l/m 20,9 km/h (4 Bft) O-NO 67 0 min 0,000 mm 0,0 UV-I 0 W/m 5,2 C -2,0 C 29,0 km/h (5 Bft) 100,00 %
07.01.2018 21:56 6,2 C 4,4 C 93 % 1022,2 hPa 0,0 l/m 24,1 km/h (4 Bft) O-NO 67 0 min 0,000 mm 0,0 UV-I 0 W/m 5,2 C -3,0 C 30,6 km/h (5 Bft) 95,65 %
07.01.2018 21:57 6,2 C 4,4 C 93 % 1022,2 hPa 0,0 l/m 22,5 km/h (4 Bft) O-NO 67 0 min 0,000 mm 0,0 UV-I 0 W/m 5,2 C -2,5 C 32,2 km/h (5 Bft) 100,00 %
07.01.2018 21:58 6,2 C 4,4 C 93 % 1022,2 hPa 0,0 l/m 22,5 km/h (4 Bft) NO 45 0 min 0,000 mm 0,0 UV-I 0 W/m 5,2 C -2,5 C 30,6 km/h (5 Bft) 91,30 %
07.01.2018 21:59 6,2 C 4,4 C 93 % 1022,2 hPa 0,0 l/m 20,9 km/h (4 Bft) O-NO 67 0 min 0,000 mm 0,0 UV-I 0 W/m 5,2 C -2,0 C 25,7 km/h (4 Bft) 95,65 %
07.01.2018 22:00 6,2 C 4,4 C 93 % 1022,2 hPa 0,0 l/m 29,0 km/h (5 Bft) O-NO 67 0 min 0,025 mm 0,0 UV-I 0 W/m 5,2 C -4,4 C 37,0 km/h (5 Bft) 100,00 %
07.01.2018 22:01 6,2 C 4,4 C 93 % 1022,2 hPa 0,0 l/m 27,4 km/h (4 Bft) O-NO 67 0 min 0,000 mm 0,0 UV-I 0 W/m 5,2 C -4,0 C 35,4 km/h (5 Bft) 95,65 %
07.01.2018 22:02 6,2 C 4,4 C 93 % 1022,1 hPa 0,0 l/m 30,6 km/h (5 Bft) O-NO 67 0 min 0,000 mm 0,0 UV-I 0 W/m 5,2 C -4,8 C 35,4 km/h (5 Bft) 100,00 %
07.01.2018 22:03 6,2 C 4,4 C 93 % 1022,1 hPa 0,0 l/m 27,4 km/h (4 Bft) O-NO 67 0 min 0,000 mm 0,0 UV-I 0 W/m 5,2 C -4,0 C 33,8 km/h (5 Bft) 91,30 %
07.01.2018 22:04 6,2 C 4,4 C 93 % 1022,1 hPa 0,0 l/m 27,4 km/h (4 Bft) O-NO 67 0 min 0,000 mm 0,0 UV-I 0 W/m 5,2 C -4,0 C 38,6 km/h (5 Bft) 100,00 %
07.01.2018 22:05 6,2 C 4,4 C 93 % 1022,2 hPa 0,0 l/m 27,4 km/h (4 Bft) O-NO 67 0 min 0,000 mm 0,0 UV-I 0 W/m 5,2 C -4,0 C 33,8 km/h (5 Bft) 91,30 %
07.01.2018 22:06 6,1 C 4,4 C 93 % 1022,1 hPa 0,0 l/m 32,2 km/h (5 Bft) O-NO 67 0 min 0,000 mm 0,0 UV-I 0 W/m 5,1 C -5,4 C 40,2 km/h (6 Bft) 100,00 %
07.01.2018 22:07 6,1 C 4,4 C 93 % 1022,1 hPa 0,0 l/m 29,0 km/h (5 Bft) O-NO 67 0 min 0,000 mm 0,0 UV-I 0 W/m 5,1 C -4,6 C 35,4 km/h (5 Bft) 95,65 %
07.01.2018 22:08 6,1 C 4,4 C 93 % 1022,1 hPa 0,0 l/m 19,3 km/h (3 Bft) O-NO 67 0 min 0,000 mm 0,0 UV-I 0 W/m 5,1 C -1,5 C 29,0 km/h (5 Bft) 100,00 %
07.01.2018 22:09 6,1 C 4,4 C 93 % 1022,0 hPa 0,0 l/m 20,9 km/h (4 Bft) O-NO 67 0 min 0,000 mm 0,0 UV-I 0 W/m 5,1 C -2,1 C 29,0 km/h (5 Bft) 95,65 %
07.01.2018 22:10 6,1 C 4,4 C 93 % 1022,1 hPa 0,0 l/m 27,4 km/h (4 Bft) O-NO 67 0 min 0,000 mm 0,0 UV-I 0 W/m 5,1 C -4,1 C 32,2 km/h (5 Bft) 100,00 %
07.01.2018 22:11 6,1 C 4,4 C 93 % 1022,0 hPa 0,0 l/m 29,0 km/h (5 Bft) O-NO 67 0 min 0,000 mm 0,0 UV-I 0 W/m 5,1 C -4,6 C 40,2 km/h (6 Bft) 100,00 %
07.01.2018 22:12 6,1 C 4,4 C 93 % 1022,0 hPa 0,0 l/m 25,7 km/h (4 Bft) O-NO 67 0 min 0,000 mm 0,0 UV-I 0 W/m 5,1 C -3,7 C 35,4 km/h (5 Bft) 95,65 %
07.01.2018 22:13 6,1 C 4,4 C 93 % 1022,1 hPa 0,0 l/m 25,7 km/h (4 Bft) NO 45 0 min 0,000 mm 0,0 UV-I 0 W/m 5,1 C -3,7 C 32,2 km/h (5 Bft) 100,00 %
07.01.2018 22:14 6,1 C 4,4 C 93 % 1022,1 hPa 0,0 l/m 24,1 km/h (4 Bft) NO 45 0 min 0,000 mm 0,0 UV-I 0 W/m 5,1 C -3,2 C 35,4 km/h (5 Bft) 95,65 %
07.01.2018 22:15 6,1 C 4,4 C 93 % 1022,1 hPa 0,0 l/m 25,7 km/h (4 Bft) O-NO 67 0 min 0,000 mm 0,0 UV-I 0 W/m 5,1 C -3,7 C 35,4 km/h (5 Bft) 95,65 %
07.01.2018 22:16 6,1 C 4,4 C 93 % 1022,0 hPa 0,0 l/m 27,4 km/h (4 Bft) O-NO 67 0 min 0,000 mm 0,0 UV-I 0 W/m 5,1 C -4,1 C 32,2 km/h (5 Bft) 100,00 %
07.01.2018 22:17 6,1 C 4,4 C 93 % 1022,0 hPa 0,0 l/m 24,1 km/h (4 Bft) O-NO 67 0 min 0,000 mm 0,0 UV-I 0 W/m 5,1 C -3,2 C 33,8 km/h (5 Bft) 100,00 %
07.01.2018 22:18 6,1 C 4,4 C 93 % 1022,0 hPa 0,0 l/m 20,9 km/h (4 Bft) O-NO 67 0 min 0,000 mm 0,0 UV-I 0 W/m 5,1 C -2,1 C 25,7 km/h (4 Bft) 100,00 %
07.01.2018 22:19 6,1 C 4,4 C 93 % 1022,0 hPa 0,0 l/m 24,1 km/h (4 Bft) O-NO 67 0 min 0,000 mm 0,0 UV-I 0 W/m 5,1 C -3,2 C 30,6 km/h (5 Bft) 95,65 %
07.01.2018 22:20 6,1 C 4,4 C 93 % 1022,1 hPa 0,0 l/m 24,1 km/h (4 Bft) O-NO 67 0 min 0,000 mm 0,0 UV-I 0 W/m 5,1 C -3,2 C 37,0 km/h (5 Bft) 95,65 %
07.01.2018 22:21 6,1 C 4,4 C 93 % 1022,0 hPa 0,0 l/m 29,0 km/h (5 Bft) O-NO 67 0 min 0,000 mm 0,0 UV-I 0 W/m 5,1 C -4,6 C 38,6 km/h (5 Bft) 100,00 %
07.01.2018 22:22 6,0 C 4,4 C 93 % 1022,1 hPa 0,0 l/m 24,1 km/h (4 Bft) O-NO 67 0 min 0,000 mm 0,0 UV-I 0 W/m 5,0 C -3,3 C 33,8 km/h (5 Bft) 91,30 %
07.01.2018 22:23 6,0 C 4,4 C 93 % 1022,1 hPa 0,0 l/m 25,7 km/h (4 Bft) NO 45 0 min 0,000 mm 0,0 UV-I 0 W/m 5,0 C -3,8 C 32,2 km/h (5 Bft) 100,00 %
07.01.2018 22:24 6,0 C 4,4 C 93 % 1022,1 hPa 0,0 l/m 27,4 km/h (4 Bft) O-NO 67 0 min 0,000 mm 0,0 UV-I 0 W/m 5,0 C -4,3 C 35,4 km/h (5 Bft) 100,00 %
07.01.2018 22:25 6,0 C 4,4 C 93 % 1022,1 hPa 0,0 l/m 27,4 km/h (4 Bft) O-NO 67 0 min 0,000 mm 0,0 UV-I 0 W/m 5,0 C -4,3 C 35,4 km/h (5 Bft) 100,00 %
07.01.2018 22:26 6,0 C 4,4 C 93 % 1022,1 hPa 0,0 l/m 24,1 km/h (4 Bft) O-NO 67 0 min 0,000 mm 0,0 UV-I 0 W/m 5,0 C -3,3 C 30,6 km/h (5 Bft) 95,65 %
07.01.2018 22:27 6,0 C 4,4 C 93 % 1022,2 hPa 0,0 l/m 20,9 km/h (4 Bft) O-NO 67 0 min 0,000 mm 0,0 UV-I 0 W/m 5,0 C -2,2 C 27,4 km/h (4 Bft) 100,00 %
07.01.2018 22:28 6,0 C 4,4 C 93 % 1022,2 hPa 0,0 l/m 17,7 km/h (3 Bft) O-NO 67 0 min 0,000 mm 0,0 UV-I 0 W/m 5,0 C -1,0 C 22,5 km/h (4 Bft) 95,65 %
07.01.2018 22:29 6,0 C 4,4 C 93 % 1022,1 hPa 0,0 l/m 20,9 km/h (4 Bft) NO 45 0 min 0,000 mm 0,0 UV-I 0 W/m 5,0 C -2,2 C 30,6 km/h (5 Bft) 100,00 %
07.01.2018 22:30 6,0 C 4,4 C 93 % 1022,1 hPa 0,0 l/m 20,9 km/h (4 Bft) O-NO 67 0 min 0,000 mm 0,0 UV-I 0 W/m 5,0 C -2,2 C 25,7 km/h (4 Bft) 100,00 %
07.01.2018 22:31 6,0 C 4,4 C 93 % 1022,2 hPa 0,0 l/m 20,9 km/h (4 Bft) NO 45 0 min 0,000 mm 0,0 UV-I 0 W/m 5,0 C -2,2 C 29,0 km/h (5 Bft) 100,00 %
07.01.2018 22:32 6,0 C 4,4 C 93 % 1022,2 hPa 0,0 l/m 22,5 km/h (4 Bft) O-NO 67 0 min 0,000 mm 0,0 UV-I 0 W/m 5,0 C -2,8 C 29,0 km/h (5 Bft) 95,65 %
07.01.2018 22:33 5,9 C 4,4 C 93 % 1022,2 hPa 0,0 l/m 22,5 km/h (4 Bft) NO 45 0 min 0,000 mm 0,0 UV-I 0 W/m 4,9 C -2,9 C 27,4 km/h (4 Bft) 91,30 %
07.01.2018 22:34 5,9 C 4,4 C 93 % 1022,2 hPa 0,0 l/m 33,8 km/h (5 Bft) O-NO 67 0 min 0,000 mm 0,0 UV-I 0 W/m 4,9 C -6,0 C 43,5 km/h (6 Bft) 100,00 %
07.01.2018 22:35 5,9 C 4,4 C 93 % 1022,1 hPa 0,0 l/m 32,2 km/h (5 Bft) O-NO 67 0 min 0,000 mm 0,0 UV-I 0 W/m 4,9 C -5,6 C 40,2 km/h (6 Bft) 100,00 %
07.01.2018 22:36 6,0 C 4,4 C 93 % 1022,1 hPa 0,0 l/m 30,6 km/h (5 Bft) O-NO 67 0 min 0,000 mm 0,0 UV-I 0 W/m 5,0 C -5,1 C 37,0 km/h (5 Bft) 100,00 %
07.01.2018 22:37 5,9 C 4,4 C 93 % 1022,2 hPa 0,0 l/m 29,0 km/h (5 Bft) O-NO 67 0 min 0,000 mm 0,0 UV-I 0 W/m 4,9 C -4,9 C 33,8 km/h (5 Bft) 100,00 %
07.01.2018 22:38 5,9 C 4,4 C 93 % 1022,1 hPa 0,0 l/m 22,5 km/h (4 Bft) O-NO 67 0 min 0,000 mm 0,0 UV-I 0 W/m 4,9 C -2,9 C 32,2 km/h (5 Bft) 100,00 %
07.01.2018 22:39 5,9 C 4,4 C 93 % 1022,2 hPa 0,0 l/m 25,7 km/h (4 Bft) O-NO 67 0 min 0,000 mm 0,0 UV-I 0 W/m 4,9 C -3,9 C 32,2 km/h (5 Bft) 95,65 %
07.01.2018 22:40 5,9 C 4,4 C 93 % 1022,2 hPa 0,0 l/m 25,7 km/h (4 Bft) O-NO 67 0 min 0,000 mm 0,0 UV-I 0 W/m 4,9 C -3,9 C 30,6 km/h (5 Bft) 86,96 %
07.01.2018 22:41 5,9 C 4,4 C 93 % 1022,2 hPa 0,0 l/m 19,3 km/h (3 Bft) O-NO 67 0 min 0,000 mm 0,0 UV-I 0 W/m 4,9 C -1,7 C 24,1 km/h (4 Bft) 100,00 %
07.01.2018 22:42 5,9 C 4,4 C 93 % 1022,2 hPa 0,0 l/m 22,5 km/h (4 Bft) NO 45 0 min 0,000 mm 0,0 UV-I 0 W/m 4,9 C -2,9 C 32,2 km/h (5 Bft) 95,65 %
07.01.2018 22:43 5,9 C 4,4 C 93 % 1022,1 hPa 0,0 l/m 20,9 km/h (4 Bft) O-NO 67 0 min 0,000 mm 0,0 UV-I 0 W/m 4,9 C -2,3 C 29,0 km/h (5 Bft) 100,00 %
07.01.2018 22:44 5,9 C 4,4 C 93 % 1022,1 hPa 0,0 l/m 24,1 km/h (4 Bft) O-NO 67 0 min 0,000 mm 0,0 UV-I 0 W/m 4,9 C -3,4 C 32,2 km/h (5 Bft) 95,65 %
07.01.2018 22:45 5,9 C 4,4 C 93 % 1022,2 hPa 0,0 l/m 25,7 km/h (4 Bft) O-NO 67 0 min 0,000 mm 0,0 UV-I 0 W/m 4,9 C -3,9 C 32,2 km/h (5 Bft) 95,65 %
07.01.2018 22:46 5,9 C 4,4 C 93 % 1022,2 hPa 0,0 l/m 22,5 km/h (4 Bft) O-NO 67 0 min 0,000 mm 0,0 UV-I 0 W/m 4,9 C -2,9 C 33,8 km/h (5 Bft) 91,30 %
07.01.2018 22:47 5,9 C 4,4 C 93 % 1022,2 hPa 0,0 l/m 24,1 km/h (4 Bft) NO 45 0 min 0,000 mm 0,0 UV-I 0 W/m 4,9 C -3,4 C 29,0 km/h (5 Bft) 95,65 %
07.01.2018 22:48 5,9 C 4,4 C 93 % 1022,3 hPa 0,0 l/m 22,5 km/h (4 Bft) O-NO 67 0 min 0,000 mm 0,0 UV-I 0 W/m 4,9 C -2,9 C 32,2 km/h (5 Bft) 95,65 %
07.01.2018 22:49 5,9 C 4,4 C 93 % 1022,3 hPa 0,0 l/m 24,1 km/h (4 Bft) O-NO 67 0 min 0,000 mm 0,0 UV-I 0 W/m 4,9 C -3,4 C 29,0 km/h (5 Bft) 95,65 %
07.01.2018 22:50 5,9 C 4,4 C 93 % 1022,4 hPa 0,0 l/m 20,9 km/h (4 Bft) NO 45 0 min 0,000 mm 0,0 UV-I 0 W/m 4,9 C -2,3 C 29,0 km/h (5 Bft) 100,00 %
07.01.2018 22:51 5,9 C 4,4 C 93 % 1022,4 hPa 0,0 l/m 27,4 km/h (4 Bft) NO 45 0 min 0,000 mm 0,0 UV-I 0 W/m 4,9 C -4,4 C 37,0 km/h (5 Bft) 95,65 %
07.01.2018 22:52 5,9 C 4,4 C 93 % 1022,4 hPa 0,0 l/m 25,7 km/h (4 Bft) NO 45 0 min 0,000 mm 0,0 UV-I 0 W/m 4,9 C -3,9 C 32,2 km/h (5 Bft) 95,65 %
07.01.2018 22:53 5,9 C 4,4 C 93 % 1022,3 hPa 0,0 l/m 25,7 km/h (4 Bft) O-NO 67 0 min 0,000 mm 0,0 UV-I 0 W/m 4,9 C -3,9 C 30,6 km/h (5 Bft) 91,30 %
07.01.2018 22:54 5,8 C 4,4 C 93 % 1022,3 hPa 0,0 l/m 24,1 km/h (4 Bft) O-NO 67 0 min 0,000 mm 0,0 UV-I 0 W/m 4,8 C -3,6 C 32,2 km/h (5 Bft) 95,65 %
07.01.2018 22:55 5,8 C 4,4 C 93 % 1022,3 hPa 0,0 l/m 20,9 km/h (4 Bft) O-NO 67 0 min 0,000 mm 0,0 UV-I 0 W/m 4,8 C -2,5 C 32,2 km/h (5 Bft) 95,65 %
07.01.2018 22:56 5,8 C 4,4 C 93 % 1022,4 hPa 0,0 l/m 19,3 km/h (3 Bft) O-NO 67 0 min 0,000 mm 0,0 UV-I 0 W/m 4,8 C -1,9 C 22,5 km/h (4 Bft) 95,65 %
07.01.2018 22:57 5,8 C 4,4 C 93 % 1022,4 hPa 0,0 l/m 27,4 km/h (4 Bft) O-NO 67 0 min 0,000 mm 0,0 UV-I 0 W/m 4,8 C -4,6 C 38,6 km/h (5 Bft) 100,00 %
07.01.2018 22:58 5,8 C 4,4 C 93 % 1022,3 hPa 0,0 l/m 25,7 km/h (4 Bft) O-NO 67 0 min 0,000 mm 0,0 UV-I 0 W/m 4,8 C -4,1 C 33,8 km/h (5 Bft) 95,65 %
07.01.2018 22:59 5,8 C 4,4 C 93 % 1022,4 hPa 0,0 l/m 27,4 km/h (4 Bft) NO 45 0 min 0,000 mm 0,0 UV-I 0 W/m 4,8 C -4,6 C 33,8 km/h (5 Bft) 100,00 %
07.01.2018 23:00 5,8 C 4,4 C 93 % 1022,4 hPa 0,0 l/m 27,4 km/h (4 Bft) O-NO 67 0 min 0,025 mm 0,0 UV-I 0 W/m 4,8 C -4,6 C 35,4 km/h (5 Bft) 95,65 %
07.01.2018 23:01 5,8 C 4,4 C 93 % 1022,4 hPa 0,0 l/m 25,7 km/h (4 Bft) O-NO 67 0 min 0,000 mm 0,0 UV-I 0 W/m 4,8 C -4,1 C 32,2 km/h (5 Bft) 95,65 %
07.01.2018 23:02 5,8 C 4,4 C 93 % 1022,4 hPa 0,0 l/m 24,1 km/h (4 Bft) O-NO 67 0 min 0,000 mm 0,0 UV-I 0 W/m 4,8 C -3,6 C 32,2 km/h (5 Bft) 95,65 %
07.01.2018 23:03 5,8 C 4,4 C 93 % 1022,5 hPa 0,0 l/m 24,1 km/h (4 Bft) O-NO 67 0 min 0,000 mm 0,0 UV-I 0 W/m 4,8 C -3,6 C 33,8 km/h (5 Bft) 95,65 %
07.01.2018 23:04 5,8 C 4,4 C 93 % 1022,4 hPa 0,0 l/m 16,1 km/h (3 Bft) O-NO 67 0 min 0,000 mm 0,0 UV-I 0 W/m 4,8 C -0,5 C 20,9 km/h (4 Bft) 91,30 %
07.01.2018 23:05 5,8 C 4,4 C 93 % 1022,4 hPa 0,0 l/m 19,3 km/h (3 Bft) O-NO 67 0 min 0,000 mm 0,0 UV-I 0 W/m 4,8 C -1,9 C 30,6 km/h (5 Bft) 91,30 %
07.01.2018 23:06 5,8 C 4,4 C 93 % 1022,4 hPa 0,0 l/m 24,1 km/h (4 Bft) O-NO 67 0 min 0,000 mm 0,0 UV-I 0 W/m 4,8 C -3,6 C 32,2 km/h (5 Bft) 100,00 %
07.01.2018 23:07 5,8 C 4,4 C 93 % 1022,4 hPa 0,0 l/m 24,1 km/h (4 Bft) O-NO 67 0 min 0,000 mm 0,0 UV-I 0 W/m 4,8 C -3,6 C 32,2 km/h (5 Bft) 95,65 %
07.01.2018 23:08 5,8 C 4,4 C 93 % 1022,5 hPa 0,0 l/m 22,5 km/h (4 Bft) O-NO 67 0 min 0,000 mm 0,0 UV-I 0 W/m 4,8 C -3,0 C 27,4 km/h (4 Bft) 91,30 %
07.01.2018 23:09 5,8 C 4,4 C 93 % 1022,4 hPa 0,0 l/m 22,5 km/h (4 Bft) O-NO 67 0 min 0,000 mm 0,0 UV-I 0 W/m 4,8 C -3,0 C 29,0 km/h (5 Bft) 86,96 %
07.01.2018 23:10 5,8 C 4,4 C 93 % 1022,5 hPa 0,0 l/m 20,9 km/h (4 Bft) O-NO 67 0 min 0,000 mm 0,0 UV-I 0 W/m 4,8 C -2,5 C 30,6 km/h (5 Bft) 100,00 %
07.01.2018 23:11 5,8 C 4,4 C 93 % 1022,5 hPa 0,0 l/m 20,9 km/h (4 Bft) O-NO 67 0 min 0,000 mm 0,0 UV-I 0 W/m 4,8 C -2,5 C 24,1 km/h (4 Bft) 91,30 %
07.01.2018 23:12 5,8 C 4,4 C 94 % 1022,5 hPa 0,0 l/m 17,7 km/h (3 Bft) O-NO 67 0 min 0,000 mm 0,0 UV-I 0 W/m 4,9 C -1,2 C 24,1 km/h (4 Bft) 100,00 %
07.01.2018 23:13 5,8 C 4,4 C 94 % 1022,5 hPa 0,0 l/m 19,3 km/h (3 Bft) O-NO 67 0 min 0,000 mm 0,0 UV-I 0 W/m 4,9 C -1,9 C 24,1 km/h (4 Bft) 91,30 %
07.01.2018 23:14 5,8 C 4,4 C 94 % 1022,5 hPa 0,0 l/m 19,3 km/h (3 Bft) O-NO 67 0 min 0,000 mm 0,0 UV-I 0 W/m 4,9 C -1,9 C 25,7 km/h (4 Bft) 100,00 %
07.01.2018 23:15 5,7 C 4,4 C 94 % 1022,5 hPa 0,0 l/m 20,9 km/h (4 Bft) O-NO 67 0 min 0,000 mm 0,0 UV-I 0 W/m 4,8 C -2,6 C 25,7 km/h (4 Bft) 91,30 %
07.01.2018 23:16 5,7 C 4,4 C 94 % 1022,5 hPa 0,0 l/m 22,5 km/h (4 Bft) O-NO 67 0 min 0,000 mm 0,0 UV-I 0 W/m 4,8 C -3,2 C 27,4 km/h (4 Bft) 100,00 %
07.01.2018 23:17 5,7 C 4,4 C 94 % 1022,5 hPa 0,0 l/m 20,9 km/h (4 Bft) O-NO 67 0 min 0,000 mm 0,0 UV-I 0 W/m 4,8 C -2,6 C 27,4 km/h (4 Bft) 95,65 %
07.01.2018 23:18 5,7 C 4,4 C 94 % 1022,5 hPa 0,0 l/m 22,5 km/h (4 Bft) O-NO 67 0 min 0,000 mm 0,0 UV-I 0 W/m 4,8 C -3,2 C 27,4 km/h (4 Bft) 91,30 %
07.01.2018 23:19 5,7 C 4,4 C 94 % 1022,5 hPa 0,0 l/m 19,3 km/h (3 Bft) O-NO 67 0 min 0,000 mm 0,0 UV-I 0 W/m 4,8 C -2,0 C 25,7 km/h (4 Bft) 100,00 %
07.01.2018 23:20 5,7 C 4,4 C 94 % 1022,5 hPa 0,0 l/m 19,3 km/h (3 Bft) O-NO 67 0 min 0,000 mm 0,0 UV-I 0 W/m 4,8 C -2,0 C 24,1 km/h (4 Bft) 95,65 %
07.01.2018 23:21 5,7 C 4,4 C 94 % 1022,5 hPa 0,0 l/m 16,1 km/h (3 Bft) O-NO 67 0 min 0,000 mm 0,0 UV-I 0 W/m 4,8 C -0,6 C 22,5 km/h (4 Bft) 100,00 %
07.01.2018 23:22 5,7 C 4,4 C 94 % 1022,6 hPa 0,0 l/m 17,7 km/h (3 Bft) O-NO 67 0 min 0,000 mm 0,0 UV-I 0 W/m 4,8 C -1,3 C 22,5 km/h (4 Bft) 91,30 %
07.01.2018 23:23 5,7 C 4,4 C 94 % 1022,5 hPa 0,0 l/m 19,3 km/h (3 Bft) NO 45 0 min 0,000 mm 0,0 UV-I 0 W/m 4,8 C -2,0 C 30,6 km/h (5 Bft) 100,00 %
07.01.2018 23:24 5,7 C 4,4 C 94 % 1022,5 hPa 0,0 l/m 22,5 km/h (4 Bft) O-NO 67 0 min 0,000 mm 0,0 UV-I 0 W/m 4,8 C -3,2 C 29,0 km/h (5 Bft) 95,65 %
07.01.2018 23:25 5,7 C 4,4 C 94 % 1022,6 hPa 0,0 l/m 20,9 km/h (4 Bft) O-NO 67 0 min 0,000 mm 0,0 UV-I 0 W/m 4,8 C -2,6 C 29,0 km/h (5 Bft) 100,00 %
07.01.2018 23:26 5,7 C 4,4 C 94 % 1022,6 hPa 0,0 l/m 22,5 km/h (4 Bft) O-NO 67 0 min 0,000 mm 0,0 UV-I 0 W/m 4,8 C -3,2 C 30,6 km/h (5 Bft) 95,65 %
07.01.2018 23:27 5,7 C 4,4 C 94 % 1022,6 hPa 0,0 l/m 22,5 km/h (4 Bft) NO 45 0 min 0,000 mm 0,0 UV-I 0 W/m 4,8 C -3,2 C 29,0 km/h (5 Bft) 100,00 %
07.01.2018 23:28 5,7 C 4,4 C 94 % 1022,5 hPa 0,0 l/m 20,9 km/h (4 Bft) O-NO 67 0 min 0,000 mm 0,0 UV-I 0 W/m 4,8 C -2,6 C 29,0 km/h (5 Bft) 95,65 %
07.01.2018 23:29 5,7 C 4,4 C 94 % 1022,5 hPa 0,0 l/m 19,3 km/h (3 Bft) O-NO 67 0 min 0,000 mm 0,0 UV-I 0 W/m 4,8 C -2,0 C 24,1 km/h (4 Bft) 91,30 %
07.01.2018 23:30 5,7 C 4,4 C 94 % 1022,5 hPa 0,0 l/m 20,9 km/h (4 Bft) O-NO 67 0 min 0,000 mm 0,0 UV-I 0 W/m 4,8 C -2,6 C 25,7 km/h (4 Bft) 95,65 %
07.01.2018 23:31 5,7 C 4,4 C 94 % 1022,6 hPa 0,0 l/m 17,7 km/h (3 Bft) NO 45 0 min 0,000 mm 0,0 UV-I 0 W/m 4,8 C -1,3 C 24,1 km/h (4 Bft) 100,00 %
07.01.2018 23:32 5,7 C 4,4 C 94 % 1022,6 hPa 0,0 l/m 17,7 km/h (3 Bft) O-NO 67 0 min 0,000 mm 0,0 UV-I 0 W/m 4,8 C -1,3 C 29,0 km/h (5 Bft) 100,00 %
07.01.2018 23:33 5,6 C 4,4 C 94 % 1022,6 hPa 0,0 l/m 20,9 km/h (4 Bft) O-NO 67 0 min 0,000 mm 0,0 UV-I 0 W/m 4,7 C -2,7 C 27,4 km/h (4 Bft) 100,00 %
07.01.2018 23:34 5,6 C 4,4 C 94 % 1022,6 hPa 0,0 l/m 20,9 km/h (4 Bft) O-NO 67 0 min 0,000 mm 0,0 UV-I 0 W/m 4,7 C -2,7 C 27,4 km/h (4 Bft) 100,00 %
07.01.2018 23:35 5,6 C 4,4 C 94 % 1022,6 hPa 0,0 l/m 24,1 km/h (4 Bft) O-NO 67 0 min 0,000 mm 0,0 UV-I 0 W/m 4,7 C -3,8 C 32,2 km/h (5 Bft) 100,00 %
07.01.2018 23:36 5,6 C 4,4 C 94 % 1022,6 hPa 0,0 l/m 19,3 km/h (3 Bft) O-NO 67 0 min 0,000 mm 0,0 UV-I 0 W/m 4,7 C -2,1 C 25,7 km/h (4 Bft) 91,30 %
07.01.2018 23:37 5,6 C 4,4 C 94 % 1022,6 hPa 0,0 l/m 22,5 km/h (4 Bft) O-NO 67 0 min 0,000 mm 0,0 UV-I 0 W/m 4,7 C -3,3 C 29,0 km/h (5 Bft) 100,00 %
07.01.2018 23:38 5,6 C 4,4 C 94 % 1022,6 hPa 0,0 l/m 17,7 km/h (3 Bft) O-NO 67 0 min 0,000 mm 0,0 UV-I 0 W/m 4,7 C -1,5 C 24,1 km/h (4 Bft) 100,00 %
07.01.2018 23:39 5,6 C 4,4 C 94 % 1022,6 hPa 0,0 l/m 14,5 km/h (3 Bft) O-NO 67 0 min 0,000 mm 0,0 UV-I 0 W/m 4,7 C 0,1 C 19,3 km/h (3 Bft) 100,00 %
07.01.2018 23:40 5,6 C 4,4 C 94 % 1022,6 hPa 0,0 l/m 19,3 km/h (3 Bft) NO 45 0 min 0,000 mm 0,0 UV-I 0 W/m 4,7 C -2,1 C 25,7 km/h (4 Bft) 95,65 %
07.01.2018 23:41 5,6 C 4,4 C 94 % 1022,6 hPa 0,0 l/m 19,3 km/h (3 Bft) O-NO 67 0 min 0,000 mm 0,0 UV-I 0 W/m 4,7 C -2,1 C 25,7 km/h (4 Bft) 100,00 %
07.01.2018 23:42 5,6 C 4,4 C 94 % 1022,6 hPa 0,0 l/m 14,5 km/h (3 Bft) O-NO 67 0 min 0,000 mm 0,0 UV-I 0 W/m 4,7 C 0,1 C 19,3 km/h (3 Bft) 100,00 %
07.01.2018 23:43 5,6 C 4,4 C 94 % 1022,6 hPa 0,0 l/m 17,7 km/h (3 Bft) O-NO 67 0 min 0,000 mm 0,0 UV-I 0 W/m 4,7 C -1,5 C 22,5 km/h (4 Bft) 95,65 %
07.01.2018 23:44 5,6 C 4,4 C 94 % 1022,6 hPa 0,0 l/m 19,3 km/h (3 Bft) O-NO 67 0 min 0,000 mm 0,0 UV-I 0 W/m 4,7 C -2,1 C 27,4 km/h (4 Bft) 100,00 %
07.01.2018 23:45 5,6 C 4,4 C 94 % 1022,6 hPa 0,0 l/m 17,7 km/h (3 Bft) O-NO 67 0 min 0,000 mm 0,0 UV-I 0 W/m 4,7 C -1,5 C 20,9 km/h (4 Bft) 100,00 %
07.01.2018 23:46 5,6 C 4,4 C 94 % 1022,6 hPa 0,0 l/m 16,1 km/h (3 Bft) O-NO 67 0 min 0,000 mm 0,0 UV-I 0 W/m 4,7 C -0,7 C 22,5 km/h (4 Bft) 100,00 %
07.01.2018 23:47 5,6 C 4,4 C 94 % 1022,6 hPa 0,0 l/m 20,9 km/h (4 Bft) O-NO 67 0 min 0,000 mm 0,0 UV-I 0 W/m 4,7 C -2,7 C 25,7 km/h (4 Bft) 95,65 %
07.01.2018 23:48 5,6 C 4,4 C 94 % 1022,6 hPa 0,0 l/m 19,3 km/h (3 Bft) O-NO 67 0 min 0,000 mm 0,0 UV-I 0 W/m 4,7 C -2,1 C 25,7 km/h (4 Bft) 100,00 %
07.01.2018 23:49 5,6 C 4,4 C 94 % 1022,6 hPa 0,0 l/m 16,1 km/h (3 Bft) O-NO 67 0 min 0,000 mm 0,0 UV-I 0 W/m 4,7 C -0,7 C 19,3 km/h (3 Bft) 100,00 %
07.01.2018 23:50 5,6 C 4,4 C 94 % 1022,5 hPa 0,0 l/m 14,5 km/h (3 Bft) O-NO 67 0 min 0,000 mm 0,0 UV-I 0 W/m 4,7 C 0,1 C 19,3 km/h (3 Bft) 95,65 %
07.01.2018 23:51 5,6 C 4,4 C 94 % 1022,5 hPa 0,0 l/m 20,9 km/h (4 Bft) NO 45 0 min 0,000 mm 0,0 UV-I 0 W/m 4,7 C -2,7 C 25,7 km/h (4 Bft) 100,00 %
07.01.2018 23:52 5,6 C 4,4 C 94 % 1022,6 hPa 0,0 l/m 16,1 km/h (3 Bft) O-NO 67 0 min 0,000 mm 0,0 UV-I 0 W/m 4,7 C -0,7 C 20,9 km/h (4 Bft) 100,00 %
07.01.2018 23:53 5,6 C 4,4 C 94 % 1022,5 hPa 0,0 l/m 14,5 km/h (3 Bft) NO 45 0 min 0,000 mm 0,0 UV-I 0 W/m 4,7 C 0,1 C 22,5 km/h (4 Bft) 100,00 %
07.01.2018 23:54 5,6 C 4,4 C 94 % 1022,5 hPa 0,0 l/m 24,1 km/h (4 Bft) NO 45 0 min 0,000 mm 0,0 UV-I 0 W/m 4,7 C -3,8 C 30,6 km/h (5 Bft) 100,00 %
07.01.2018 23:55 5,6 C 4,4 C 94 % 1022,5 hPa 0,0 l/m 22,5 km/h (4 Bft) NO 45 0 min 0,000 mm 0,0 UV-I 0 W/m 4,7 C -3,3 C 27,4 km/h (4 Bft) 100,00 %
07.01.2018 23:56 5,6 C 4,4 C 94 % 1022,5 hPa 0,0 l/m 22,5 km/h (4 Bft) O-NO 67 0 min 0,000 mm 0,0 UV-I 0 W/m 4,7 C -3,3 C 32,2 km/h (5 Bft) 100,00 %
07.01.2018 23:57 5,6 C 4,4 C 94 % 1022,5 hPa 0,0 l/m 20,9 km/h (4 Bft) O-NO 67 0 min 0,000 mm 0,0 UV-I 0 W/m 4,7 C -2,7 C 24,1 km/h (4 Bft) 95,65 %
07.01.2018 23:58 5,6 C 4,4 C 94 % 1022,5 hPa 0,0 l/m 17,7 km/h (3 Bft) O-NO 67 0 min 0,000 mm 0,0 UV-I 0 W/m 4,7 C -1,5 C 27,4 km/h (4 Bft) 100,00 %
07.01.2018 23:59 5,6 C 4,4 C 94 % 1022,5 hPa 0,0 l/m 20,9 km/h (4 Bft) NO 45 0 min 0,000 mm 0,0 UV-I 0 W/m 4,7 C -2,7 C 29,0 km/h (5 Bft) 95,65 %
_ Min-Zeit 05:32 00:00 18:23 00:00 - 08:32 - - - - - - 05:32 22:34 03:09 03:53
Minimum _ 3,3 C 4,4 C 91 % 1012,3 hPa - 0,0 km/h (0 Bft) - - - - - - 3,0 C -6,0 C 1,6 km/h (1 Bft) 13,04 %
_ Max-Zeit 16:54 00:00 00:00 23:22 07:18 21:03 - - 00:00 12:00 00:00 11:14 16:54 14:43 21:02 00:03
Maximum _ 7,5 C 4,4 C 98 % 1022,6 hPa 0,2 l/m 35,4 km/h
O-NO (5 Bft)
- - 0 min 0,051 mm 0,0 UV-I 146 W/m 6,3 C 6,9 C 46,7 km/h
O-NO (6 Bft)
100,00 %
Durchschnitt _ 5,2 C 4,4 C 95 % 1018,4 hPa #0,2 l/m 12,3 km/h (3 Bft) O-NO - #0 min. #0,376 mm 0,0 UV-I 50 W/m 4,5 C 1,5 C 16,8 km/h (3 Bft) 97,07 %